<?xml version='1.0' encoding='UTF-8'?><gpx version="1.1" creator="JPX - https://github.com/jenetics/jpx" xmlns="http://www.topografix.com/GPX/1/1"><trk><trkseg><trkpt lat="44.31647700835419" lon="8.471965942408158"><ele>19.0</ele><time>2026-04-24T13:05:40.999Z</time></trkpt><trkpt lat="44.316461458822104" lon="8.472074685497455"><ele>19.0</ele><time>2026-04-24T13:05:48.999Z</time></trkpt><trkpt lat="44.31649328158186" lon="8.472166957371597"><ele>19.0</ele><time>2026-04-24T13:05:52.999Z</time></trkpt><trkpt lat="44.31657638150712" lon="8.472207387589346"><ele>19.0</ele><time>2026-04-24T13:06:06.999Z</time></trkpt><trkpt lat="44.316642480155664" lon="8.472153272413705"><ele>19.0</ele><time>2026-04-24T13:06:07.999Z</time></trkpt><trkpt lat="44.31673821656733" lon="8.472076446576379"><ele>19.0</ele><time>2026-04-24T13:06:08.999Z</time></trkpt><trkpt lat="44.31682403274479" lon="8.471998370196916"><ele>19.0</ele><time>2026-04-24T13:06:09.999Z</time></trkpt><trkpt lat="44.31692176595358" lon="8.471911893045949"><ele>19.0</ele><time>2026-04-24T13:06:10.999Z</time></trkpt><trkpt lat="44.317028862703154" lon="8.471830312403268"><ele>19.0</ele><time>2026-04-24T13:06:11.999Z</time></trkpt><trkpt lat="44.31714767328258" lon="8.471727497042673"><ele>19.0</ele><time>2026-04-24T13:06:12.999Z</time></trkpt><trkpt lat="44.31726818850691" lon="8.4716083328322"><ele>20.333333333333332</ele><time>2026-04-24T13:06:13.999Z</time></trkpt><trkpt lat="44.317413299426455" lon="8.471503650938766"><ele>21.666666666666668</ele><time>2026-04-24T13:06:14.999Z</time></trkpt><trkpt lat="44.31755708387312" lon="8.47142271762427"><ele>23.0</ele><time>2026-04-24T13:06:15.999Z</time></trkpt><trkpt lat="44.31769910268687" lon="8.471317219731704"><ele>21.0</ele><time>2026-04-24T13:06:16.999Z</time></trkpt><trkpt lat="44.317856645594375" lon="8.47119689449562"><ele>19.0</ele><time>2026-04-24T13:06:17.999Z</time></trkpt><trkpt lat="44.31800731139073" lon="8.47107483109778"><ele>17.0</ele><time>2026-04-24T13:06:18.999Z</time></trkpt><trkpt lat="44.31815658103894" lon="8.47094156144965"><ele>17.0</ele><time>2026-04-24T13:06:19.999Z</time></trkpt><trkpt lat="44.318325668386464" lon="8.470809093240712"><ele>17.0</ele><time>2026-04-24T13:06:20.999Z</time></trkpt><trkpt lat="44.3184923921369" lon="8.470684188678083"><ele>17.0</ele><time>2026-04-24T13:06:21.999Z</time></trkpt><trkpt lat="44.318658981472794" lon="8.470559520364441"><ele>17.333333333333336</ele><time>2026-04-24T13:06:22.999Z</time></trkpt><trkpt lat="44.318823695266886" lon="8.470428106230635"><ele>17.666666666666668</ele><time>2026-04-24T13:06:23.999Z</time></trkpt><trkpt lat="44.318964298337335" lon="8.470301128196606"><ele>18.0</ele><time>2026-04-24T13:06:24.999Z</time></trkpt><trkpt lat="44.31909674541058" lon="8.470203439829193"><ele>20.333333333333336</ele><time>2026-04-24T13:06:25.999Z</time></trkpt><trkpt lat="44.319231039112864" lon="8.470101631664487"><ele>22.666666666666668</ele><time>2026-04-24T13:06:26.999Z</time></trkpt><trkpt lat="44.31936360661556" lon="8.470007696807954"><ele>25.0</ele><time>2026-04-24T13:06:27.999Z</time></trkpt><trkpt lat="44.319497147790756" lon="8.469913239268026"><ele>25.0</ele><time>2026-04-24T13:06:28.999Z</time></trkpt><trkpt lat="44.31961474338262" lon="8.469802492761453"><ele>25.0</ele><time>2026-04-24T13:06:29.999Z</time></trkpt><trkpt lat="44.31973738888865" lon="8.469701995441822"><ele>25.0</ele><time>2026-04-24T13:06:30.999Z</time></trkpt><trkpt lat="44.319863606157185" lon="8.469619990521617"><ele>25.0</ele><time>2026-04-24T13:06:31.999Z</time></trkpt><trkpt lat="44.31999160917446" lon="8.469531772057577"><ele>24.5</ele><time>2026-04-24T13:06:32.999Z</time></trkpt><trkpt lat="44.32011339290724" lon="8.469432542774838"><ele>24.0</ele><time>2026-04-24T13:06:33.999Z</time></trkpt><trkpt lat="44.320232944887216" lon="8.469330798377104"><ele>23.5</ele><time>2026-04-24T13:06:34.999Z</time></trkpt><trkpt lat="44.32036049350364" lon="8.469234948201695"><ele>23.0</ele><time>2026-04-24T13:06:35.999Z</time></trkpt><trkpt lat="44.320494917550704" lon="8.469144167116552"><ele>22.5</ele><time>2026-04-24T13:06:36.999Z</time></trkpt><trkpt lat="44.32062848951816" lon="8.469047049691289"><ele>22.0</ele><time>2026-04-24T13:06:37.999Z</time></trkpt><trkpt lat="44.320750300950415" lon="8.468946578362157"><ele>21.5</ele><time>2026-04-24T13:06:38.999Z</time></trkpt><trkpt lat="44.32086329541334" lon="8.468861319685592"><ele>21.0</ele><time>2026-04-24T13:06:39.999Z</time></trkpt><trkpt lat="44.32094991564945" lon="8.468784188320964"><ele>21.0</ele><time>2026-04-24T13:06:40.999Z</time></trkpt><trkpt lat="44.321020577680294" lon="8.468725295149763"><ele>21.0</ele><time>2026-04-24T13:06:41.999Z</time></trkpt><trkpt lat="44.321082846766124" lon="8.46866667803066"><ele>21.0</ele><time>2026-04-24T13:06:42.999Z</time></trkpt><trkpt lat="44.321146236063505" lon="8.468610828683383"><ele>21.0</ele><time>2026-04-24T13:06:43.999Z</time></trkpt><trkpt lat="44.321193930423824" lon="8.468510538572609"><ele>21.0</ele><time>2026-04-24T13:06:44.999Z</time></trkpt><trkpt lat="44.32119506580424" lon="8.468369999554374"><ele>21.0</ele><time>2026-04-24T13:06:45.999Z</time></trkpt><trkpt lat="44.32118912003057" lon="8.468238048175607"><ele>21.0</ele><time>2026-04-24T13:06:46.999Z</time></trkpt><trkpt lat="44.32115685345122" lon="8.468109156329191"><ele>21.0</ele><time>2026-04-24T13:06:47.999Z</time></trkpt><trkpt lat="44.32110502047235" lon="8.467990896850987"><ele>21.0</ele><time>2026-04-24T13:06:48.999Z</time></trkpt><trkpt lat="44.321040378869846" lon="8.467865656605218"><ele>21.0</ele><time>2026-04-24T13:06:49.999Z</time></trkpt><trkpt lat="44.32098102060776" lon="8.467725500886672"><ele>21.0</ele><time>2026-04-24T13:06:50.999Z</time></trkpt><trkpt lat="44.320928643939844" lon="8.467587640818298"><ele>21.166666666666668</ele><time>2026-04-24T13:06:51.999Z</time></trkpt><trkpt lat="44.3208795510363" lon="8.467471931941136"><ele>21.333333333333332</ele><time>2026-04-24T13:06:52.999Z</time></trkpt><trkpt lat="44.32084077358452" lon="8.467377473293503"><ele>21.5</ele><time>2026-04-24T13:06:53.999Z</time></trkpt><trkpt lat="44.3208105620307" lon="8.467293062557001"><ele>21.666666666666664</ele><time>2026-04-24T13:06:55Z</time></trkpt><trkpt lat="44.32078228303602" lon="8.46720490533168"><ele>21.833333333333332</ele><time>2026-04-24T13:06:56Z</time></trkpt><trkpt lat="44.32074744866699" lon="8.467093010294853"><ele>22.0</ele><time>2026-04-24T13:06:57Z</time></trkpt><trkpt lat="44.32070914898171" lon="8.46697127813478"><ele>22.75</ele><time>2026-04-24T13:06:58Z</time></trkpt><trkpt lat="44.32067764927919" lon="8.466834462034997"><ele>23.5</ele><time>2026-04-24T13:06:59Z</time></trkpt><trkpt lat="44.32066656392335" lon="8.466687442024073"><ele>24.25</ele><time>2026-04-24T13:07:00Z</time></trkpt><trkpt lat="44.3206962632321" lon="8.466533386347562"><ele>25.0</ele><time>2026-04-24T13:07:01Z</time></trkpt><trkpt lat="44.3206993585354" lon="8.466353885718512"><ele>25.0</ele><time>2026-04-24T13:07:02Z</time></trkpt><trkpt lat="44.32072544680771" lon="8.466172258066083"><ele>25.0</ele><time>2026-04-24T13:07:03Z</time></trkpt><trkpt lat="44.320745524370096" lon="8.46600997179294"><ele>25.0</ele><time>2026-04-24T13:07:04Z</time></trkpt><trkpt lat="44.32076548236771" lon="8.465865057029673"><ele>25.0</ele><time>2026-04-24T13:07:05Z</time></trkpt><trkpt lat="44.32078443103044" lon="8.465708861724814"><ele>25.0</ele><time>2026-04-24T13:07:06Z</time></trkpt><trkpt lat="44.3208043674857" lon="8.465542720924851"><ele>25.0</ele><time>2026-04-24T13:07:07Z</time></trkpt><trkpt lat="44.32082587612932" lon="8.465373332516052"><ele>25.0</ele><time>2026-04-24T13:07:08Z</time></trkpt><trkpt lat="44.32084916805695" lon="8.46520006474688"><ele>25.0</ele><time>2026-04-24T13:07:09Z</time></trkpt><trkpt lat="44.320872760192564" lon="8.465028040571577"><ele>24.75</ele><time>2026-04-24T13:07:10Z</time></trkpt><trkpt lat="44.320894860022726" lon="8.464855970992735"><ele>24.5</ele><time>2026-04-24T13:07:11Z</time></trkpt><trkpt lat="44.32091670480084" lon="8.464682271135887"><ele>24.25</ele><time>2026-04-24T13:07:12Z</time></trkpt><trkpt lat="44.32093939763015" lon="8.46450523262001"><ele>24.0</ele><time>2026-04-24T13:07:13Z</time></trkpt><trkpt lat="44.320959783887055" lon="8.464334057440734"><ele>24.75</ele><time>2026-04-24T13:07:14Z</time></trkpt><trkpt lat="44.320980461123206" lon="8.464161977486029"><ele>25.5</ele><time>2026-04-24T13:07:15Z</time></trkpt><trkpt lat="44.32100102919693" lon="8.463991329717295"><ele>26.25</ele><time>2026-04-24T13:07:16Z</time></trkpt><trkpt lat="44.32102175148582" lon="8.46381863068356"><ele>27.0</ele><time>2026-04-24T13:07:17Z</time></trkpt><trkpt lat="44.32104410570504" lon="8.463642354539209"><ele>29.0</ele><time>2026-04-24T13:07:18Z</time></trkpt><trkpt lat="44.32106663301106" lon="8.46346086701473"><ele>31.0</ele><time>2026-04-24T13:07:19Z</time></trkpt><trkpt lat="44.32109089265414" lon="8.463284019507835"><ele>33.0</ele><time>2026-04-24T13:07:20Z</time></trkpt><trkpt lat="44.32111040676969" lon="8.46312131568371"><ele>35.0</ele><time>2026-04-24T13:07:21Z</time></trkpt><trkpt lat="44.321130449260174" lon="8.462954957521227"><ele>35.5</ele><time>2026-04-24T13:07:22Z</time></trkpt><trkpt lat="44.32114930238548" lon="8.46278136900009"><ele>36.0</ele><time>2026-04-24T13:07:23Z</time></trkpt><trkpt lat="44.32117149152139" lon="8.462608600955681"><ele>36.5</ele><time>2026-04-24T13:07:24Z</time></trkpt><trkpt lat="44.321193655564606" lon="8.462437737523134"><ele>37.0</ele><time>2026-04-24T13:07:25Z</time></trkpt><trkpt lat="44.32122008760773" lon="8.462270096766712"><ele>37.0</ele><time>2026-04-24T13:07:26Z</time></trkpt><trkpt lat="44.321264469270126" lon="8.462123607243205"><ele>37.0</ele><time>2026-04-24T13:07:27Z</time></trkpt><trkpt lat="44.32133091095289" lon="8.461994134708867"><ele>37.0</ele><time>2026-04-24T13:07:28Z</time></trkpt><trkpt lat="44.321435559259285" lon="8.461913397579266"><ele>37.0</ele><time>2026-04-24T13:07:29Z</time></trkpt><trkpt lat="44.32153881798463" lon="8.461808385564664"><ele>38.5</ele><time>2026-04-24T13:07:30Z</time></trkpt><trkpt lat="44.32166538352454" lon="8.461732043943552"><ele>40.0</ele><time>2026-04-24T13:07:31Z</time></trkpt><trkpt lat="44.32179234689057" lon="8.461645806322489"><ele>41.5</ele><time>2026-04-24T13:07:32Z</time></trkpt><trkpt lat="44.32190962662846" lon="8.461543183151418"><ele>43.0</ele><time>2026-04-24T13:07:33Z</time></trkpt><trkpt lat="44.32203367789874" lon="8.461458145761348"><ele>43.0</ele><time>2026-04-24T13:07:34Z</time></trkpt><trkpt lat="44.322141257589564" lon="8.46136965134405"><ele>43.0</ele><time>2026-04-24T13:07:35Z</time></trkpt><trkpt lat="44.32225223118635" lon="8.461289512272378"><ele>43.0</ele><time>2026-04-24T13:07:36Z</time></trkpt><trkpt lat="44.322362899467386" lon="8.461202756822235"><ele>43.0</ele><time>2026-04-24T13:07:37Z</time></trkpt><trkpt lat="44.32246952327995" lon="8.461117999136757"><ele>42.199999999999996</ele><time>2026-04-24T13:07:38Z</time></trkpt><trkpt lat="44.3225681785482" lon="8.4610420642255"><ele>41.4</ele><time>2026-04-24T13:07:39Z</time></trkpt><trkpt lat="44.322648631294086" lon="8.460953822470856"><ele>40.599999999999994</ele><time>2026-04-24T13:07:40Z</time></trkpt><trkpt lat="44.32270415727646" lon="8.460850970828403"><ele>39.8</ele><time>2026-04-24T13:07:41Z</time></trkpt><trkpt lat="44.322728351354854" lon="8.460723676922584"><ele>39.0</ele><time>2026-04-24T13:07:42Z</time></trkpt><trkpt lat="44.322724434572656" lon="8.460586791214338"><ele>39.75</ele><time>2026-04-24T13:07:43Z</time></trkpt><trkpt lat="44.322685060840875" lon="8.460443424254976"><ele>40.5</ele><time>2026-04-24T13:07:44Z</time></trkpt><trkpt lat="44.322630972417485" lon="8.460294420060828"><ele>41.25</ele><time>2026-04-24T13:07:45Z</time></trkpt><trkpt lat="44.322570616748976" lon="8.46014054088783"><ele>42.0</ele><time>2026-04-24T13:07:46Z</time></trkpt><trkpt lat="44.322552957303095" lon="8.45998198864197"><ele>42.0</ele><time>2026-04-24T13:07:47Z</time></trkpt><trkpt lat="44.32257444572308" lon="8.459838329413287"><ele>42.0</ele><time>2026-04-24T13:07:48Z</time></trkpt><trkpt lat="44.32263306773307" lon="8.459678892202474"><ele>42.0</ele><time>2026-04-24T13:07:49Z</time></trkpt><trkpt lat="44.32269755898496" lon="8.459528449087617"><ele>42.0</ele><time>2026-04-24T13:07:50Z</time></trkpt><trkpt lat="44.322771353485024" lon="8.459377779257588"><ele>44.25</ele><time>2026-04-24T13:07:51Z</time></trkpt><trkpt lat="44.32285058292973" lon="8.459248365799716"><ele>46.5</ele><time>2026-04-24T13:07:52Z</time></trkpt><trkpt lat="44.3229465475983" lon="8.459155883956742"><ele>48.75</ele><time>2026-04-24T13:07:53Z</time></trkpt><trkpt lat="44.323063988224405" lon="8.459097897648858"><ele>51.0</ele><time>2026-04-24T13:07:54Z</time></trkpt><trkpt lat="44.32319386053078" lon="8.45907165215006"><ele>51.0</ele><time>2026-04-24T13:07:55Z</time></trkpt><trkpt lat="44.323327638253346" lon="8.459067135773424"><ele>51.0</ele><time>2026-04-24T13:07:56Z</time></trkpt><trkpt lat="44.32347132524257" lon="8.459065813667005"><ele>51.0</ele><time>2026-04-24T13:07:57Z</time></trkpt><trkpt lat="44.323626244759225" lon="8.459050509001495"><ele>51.0</ele><time>2026-04-24T13:07:58Z</time></trkpt><trkpt lat="44.32377847817105" lon="8.459032564394018"><ele>54.0</ele><time>2026-04-24T13:07:59Z</time></trkpt><trkpt lat="44.3239348642309" lon="8.459012804716256"><ele>57.0</ele><time>2026-04-24T13:08:00Z</time></trkpt><trkpt lat="44.324091084135254" lon="8.458996123721738"><ele>60.0</ele><time>2026-04-24T13:08:01Z</time></trkpt><trkpt lat="44.32423246004452" lon="8.458984143549605"><ele>60.0</ele><time>2026-04-24T13:08:02Z</time></trkpt><trkpt lat="44.3243474012384" lon="8.458958037881237"><ele>60.0</ele><time>2026-04-24T13:08:03Z</time></trkpt><trkpt lat="44.32445083310595" lon="8.458906572354264"><ele>60.0</ele><time>2026-04-24T13:08:04Z</time></trkpt><trkpt lat="44.3245387056516" lon="8.45881477747881"><ele>60.0</ele><time>2026-04-24T13:08:05Z</time></trkpt><trkpt lat="44.324603796759384" lon="8.458691427255632"><ele>60.0</ele><time>2026-04-24T13:08:06Z</time></trkpt><trkpt lat="44.324655398442516" lon="8.458538917922588"><ele>61.0</ele><time>2026-04-24T13:08:07Z</time></trkpt><trkpt lat="44.32469532683503" lon="8.458364792795155"><ele>62.0</ele><time>2026-04-24T13:08:08Z</time></trkpt><trkpt lat="44.32473965249169" lon="8.458183526205861"><ele>63.0</ele><time>2026-04-24T13:08:09Z</time></trkpt><trkpt lat="44.324793780575874" lon="8.457997386119711"><ele>64.0</ele><time>2026-04-24T13:08:10Z</time></trkpt><trkpt lat="44.32486021280055" lon="8.45780770959253"><ele>66.33333333333333</ele><time>2026-04-24T13:08:11Z</time></trkpt><trkpt lat="44.32493548862122" lon="8.457620330260069"><ele>68.66666666666667</ele><time>2026-04-24T13:08:12Z</time></trkpt><trkpt lat="44.32503020613572" lon="8.457441791298908"><ele>71.0</ele><time>2026-04-24T13:08:13Z</time></trkpt><trkpt lat="44.32513798247722" lon="8.457279258116062"><ele>73.25</ele><time>2026-04-24T13:08:14Z</time></trkpt><trkpt lat="44.32521919974059" lon="8.457114518289266"><ele>75.5</ele><time>2026-04-24T13:08:15Z</time></trkpt><trkpt lat="44.325272720802275" lon="8.45692761127483"><ele>77.75</ele><time>2026-04-24T13:08:16Z</time></trkpt><trkpt lat="44.32529632246307" lon="8.456711782823103"><ele>80.0</ele><time>2026-04-24T13:08:17Z</time></trkpt><trkpt lat="44.32529755958931" lon="8.456488915297816"><ele>83.66666666666667</ele><time>2026-04-24T13:08:18Z</time></trkpt><trkpt lat="44.325318967842776" lon="8.456264921867627"><ele>87.33333333333333</ele><time>2026-04-24T13:08:19Z</time></trkpt><trkpt lat="44.32537380270831" lon="8.456043880059369"><ele>91.0</ele><time>2026-04-24T13:08:20Z</time></trkpt><trkpt lat="44.32544729949627" lon="8.455832604394592"><ele>91.0</ele><time>2026-04-24T13:08:21Z</time></trkpt><trkpt lat="44.32553512996449" lon="8.455624333357697"><ele>91.0</ele><time>2026-04-24T13:08:22Z</time></trkpt><trkpt lat="44.32563154902755" lon="8.455400706550167"><ele>91.0</ele><time>2026-04-24T13:08:23Z</time></trkpt><trkpt lat="44.32572641059735" lon="8.45518377901827"><ele>89.33333333333333</ele><time>2026-04-24T13:08:24Z</time></trkpt><trkpt lat="44.325827642515236" lon="8.454958770053393"><ele>87.66666666666667</ele><time>2026-04-24T13:08:25Z</time></trkpt><trkpt lat="44.32592606499074" lon="8.454729788535827"><ele>86.0</ele><time>2026-04-24T13:08:25.999Z</time></trkpt><trkpt lat="44.32602356798211" lon="8.454496129096203"><ele>86.0</ele><time>2026-04-24T13:08:26.999Z</time></trkpt><trkpt lat="44.32610536931568" lon="8.454247870482398"><ele>86.0</ele><time>2026-04-24T13:08:27.999Z</time></trkpt><trkpt lat="44.326170160481205" lon="8.453985157875747"><ele>86.0</ele><time>2026-04-24T13:08:28.999Z</time></trkpt><trkpt lat="44.326212915758845" lon="8.453710117903379"><ele>89.0</ele><time>2026-04-24T13:08:29.999Z</time></trkpt><trkpt lat="44.326250308343226" lon="8.45343235259072"><ele>92.0</ele><time>2026-04-24T13:08:30.999Z</time></trkpt><trkpt lat="44.3262890432368" lon="8.453150485264928"><ele>95.0</ele><time>2026-04-24T13:08:31.999Z</time></trkpt><trkpt lat="44.326331408888436" lon="8.45287016200483"><ele>94.33333333333334</ele><time>2026-04-24T13:08:32.999Z</time></trkpt><trkpt lat="44.326374865712374" lon="8.452584736613293"><ele>93.66666666666667</ele><time>2026-04-24T13:08:33.999Z</time></trkpt><trkpt lat="44.32641580019409" lon="8.452298417322966"><ele>93.0</ele><time>2026-04-24T13:08:34.999Z</time></trkpt><trkpt lat="44.32645378173898" lon="8.452006858403447"><ele>92.66666666666667</ele><time>2026-04-24T13:08:35.999Z</time></trkpt><trkpt lat="44.32649347501789" lon="8.451716869510353"><ele>92.33333333333334</ele><time>2026-04-24T13:08:36.999Z</time></trkpt><trkpt lat="44.326534216425664" lon="8.45143014591349"><ele>92.0</ele><time>2026-04-24T13:08:37.999Z</time></trkpt><trkpt lat="44.326567893256815" lon="8.451170146086765"><ele>92.0</ele><time>2026-04-24T13:08:38.999Z</time></trkpt><trkpt lat="44.32658005197113" lon="8.450932526288389"><ele>92.0</ele><time>2026-04-24T13:08:39.999Z</time></trkpt><trkpt lat="44.32657218984813" lon="8.450708010836971"><ele>92.0</ele><time>2026-04-24T13:08:40.999Z</time></trkpt><trkpt lat="44.3265360962981" lon="8.450501147393988"><ele>93.0</ele><time>2026-04-24T13:08:41.999Z</time></trkpt><trkpt lat="44.32647761356959" lon="8.450307276476055"><ele>94.0</ele><time>2026-04-24T13:08:42.999Z</time></trkpt><trkpt lat="44.32641510442083" lon="8.450132183309679"><ele>95.0</ele><time>2026-04-24T13:08:43.999Z</time></trkpt><trkpt lat="44.32636766996508" lon="8.449961257090273"><ele>96.0</ele><time>2026-04-24T13:08:44.999Z</time></trkpt><trkpt lat="44.326350909796886" lon="8.449789579766628"><ele>96.5</ele><time>2026-04-24T13:08:45.999Z</time></trkpt><trkpt lat="44.32636602392878" lon="8.449641016556441"><ele>97.0</ele><time>2026-04-24T13:08:46.999Z</time></trkpt><trkpt lat="44.32640853472478" lon="8.449501970113845"><ele>97.5</ele><time>2026-04-24T13:08:47.999Z</time></trkpt><trkpt lat="44.32646904820276" lon="8.449353114680548"><ele>98.0</ele><time>2026-04-24T13:08:48.999Z</time></trkpt><trkpt lat="44.326536423288395" lon="8.449182381084764"><ele>98.0</ele><time>2026-04-24T13:08:49.999Z</time></trkpt><trkpt lat="44.32660521251533" lon="8.448992005361237"><ele>98.0</ele><time>2026-04-24T13:08:50.999Z</time></trkpt><trkpt lat="44.32666932066142" lon="8.448800932873006"><ele>98.0</ele><time>2026-04-24T13:08:52Z</time></trkpt><trkpt lat="44.32673750227734" lon="8.448643099092909"><ele>98.0</ele><time>2026-04-24T13:08:53Z</time></trkpt><trkpt lat="44.32679514904432" lon="8.448498296471703"><ele>98.0</ele><time>2026-04-24T13:08:54Z</time></trkpt><trkpt lat="44.32686829570928" lon="8.448318730901487"><ele>98.0</ele><time>2026-04-24T13:08:55Z</time></trkpt><trkpt lat="44.326933468832834" lon="8.448125603211357"><ele>98.0</ele><time>2026-04-24T13:08:56Z</time></trkpt><trkpt lat="44.32698394961074" lon="8.44792153842782"><ele>100.0</ele><time>2026-04-24T13:08:57Z</time></trkpt><trkpt lat="44.327013686415164" lon="8.447705085093682"><ele>102.0</ele><time>2026-04-24T13:08:58Z</time></trkpt><trkpt lat="44.327014236385594" lon="8.447475471258974"><ele>104.0</ele><time>2026-04-24T13:08:59Z</time></trkpt><trkpt lat="44.32699758173096" lon="8.447241735632431"><ele>106.0</ele><time>2026-04-24T13:09:00Z</time></trkpt><trkpt lat="44.32698542290155" lon="8.447004959969414"><ele>108.0</ele><time>2026-04-24T13:09:01Z</time></trkpt><trkpt lat="44.32697701811328" lon="8.446756191758613"><ele>110.0</ele><time>2026-04-24T13:09:02Z</time></trkpt><trkpt lat="44.32698256328803" lon="8.446504028569219"><ele>113.0</ele><time>2026-04-24T13:09:03Z</time></trkpt><trkpt lat="44.32700706608719" lon="8.446266473997806"><ele>116.0</ele><time>2026-04-24T13:09:04Z</time></trkpt><trkpt lat="44.327055157344624" lon="8.446039709748009"><ele>119.0</ele><time>2026-04-24T13:09:05Z</time></trkpt><trkpt lat="44.3271179690698" lon="8.445809428458478"><ele>119.0</ele><time>2026-04-24T13:09:06Z</time></trkpt><trkpt lat="44.32718979905483" lon="8.445588069297187"><ele>119.0</ele><time>2026-04-24T13:09:07Z</time></trkpt><trkpt lat="44.32725542734499" lon="8.445384126530453"><ele>119.0</ele><time>2026-04-24T13:09:08Z</time></trkpt><trkpt lat="44.32731435445882" lon="8.445198215364103"><ele>118.5</ele><time>2026-04-24T13:09:09Z</time></trkpt><trkpt lat="44.32736718510491" lon="8.44501999627148"><ele>118.0</ele><time>2026-04-24T13:09:10Z</time></trkpt><trkpt lat="44.327403508559016" lon="8.444853757834004"><ele>117.5</ele><time>2026-04-24T13:09:11Z</time></trkpt><trkpt lat="44.327407159071875" lon="8.444685857896724"><ele>117.0</ele><time>2026-04-24T13:09:12Z</time></trkpt><trkpt lat="44.32738482500356" lon="8.444512048376696"><ele>118.75</ele><time>2026-04-24T13:09:13Z</time></trkpt><trkpt lat="44.3273462055128" lon="8.444334351774051"><ele>120.5</ele><time>2026-04-24T13:09:14Z</time></trkpt><trkpt lat="44.327305571186805" lon="8.44414855080918"><ele>122.25</ele><time>2026-04-24T13:09:15Z</time></trkpt><trkpt lat="44.327270203650286" lon="8.443960692937644"><ele>124.0</ele><time>2026-04-24T13:09:16Z</time></trkpt><trkpt lat="44.32723759389906" lon="8.443780359395246"><ele>123.2</ele><time>2026-04-24T13:09:17Z</time></trkpt><trkpt lat="44.32719642549261" lon="8.443627870872524"><ele>122.4</ele><time>2026-04-24T13:09:18Z</time></trkpt><trkpt lat="44.327137749647015" lon="8.443501194873322"><ele>121.6</ele><time>2026-04-24T13:09:19Z</time></trkpt><trkpt lat="44.32706108944018" lon="8.443400177244035"><ele>120.8</ele><time>2026-04-24T13:09:20Z</time></trkpt><trkpt lat="44.32696078975276" lon="8.443327909600159"><ele>120.0</ele><time>2026-04-24T13:09:21Z</time></trkpt><trkpt lat="44.326851247597624" lon="8.443248707039013"><ele>120.0</ele><time>2026-04-24T13:09:22Z</time></trkpt><trkpt lat="44.32672985874261" lon="8.443217180438761"><ele>120.0</ele><time>2026-04-24T13:09:23Z</time></trkpt><trkpt lat="44.3266414457423" lon="8.443139079050718"><ele>120.0</ele><time>2026-04-24T13:09:24Z</time></trkpt><trkpt lat="44.326568045631745" lon="8.443021150124162"><ele>120.0</ele><time>2026-04-24T13:09:25Z</time></trkpt><trkpt lat="44.32653056540802" lon="8.442894150274784"><ele>120.0</ele><time>2026-04-24T13:09:26Z</time></trkpt><trkpt lat="44.326543144379734" lon="8.442772316998907"><ele>121.25</ele><time>2026-04-24T13:09:27Z</time></trkpt><trkpt lat="44.326581413795076" lon="8.442625155899337"><ele>122.5</ele><time>2026-04-24T13:09:28Z</time></trkpt><trkpt lat="44.32663541455342" lon="8.44248043973915"><ele>123.75</ele><time>2026-04-24T13:09:29Z</time></trkpt><trkpt lat="44.32667664182666" lon="8.44232236279799"><ele>125.0</ele><time>2026-04-24T13:09:30Z</time></trkpt><trkpt lat="44.32669581173995" lon="8.442141881277683"><ele>125.0</ele><time>2026-04-24T13:09:31Z</time></trkpt><trkpt lat="44.326697366786775" lon="8.441978026862927"><ele>125.0</ele><time>2026-04-24T13:09:32Z</time></trkpt><trkpt lat="44.32667591087345" lon="8.441824821900278"><ele>125.0</ele><time>2026-04-24T13:09:33Z</time></trkpt><trkpt lat="44.326638299431835" lon="8.441670122686864"><ele>125.0</ele><time>2026-04-24T13:09:34Z</time></trkpt><trkpt lat="44.3265873174624" lon="8.441514958242083"><ele>125.0</ele><time>2026-04-24T13:09:35Z</time></trkpt><trkpt lat="44.3265292483049" lon="8.441356196807856"><ele>125.0</ele><time>2026-04-24T13:09:36Z</time></trkpt><trkpt lat="44.32647246077893" lon="8.441192227369148"><ele>125.0</ele><time>2026-04-24T13:09:37Z</time></trkpt><trkpt lat="44.32641188866018" lon="8.441025402219967"><ele>125.0</ele><time>2026-04-24T13:09:38Z</time></trkpt><trkpt lat="44.326353230051474" lon="8.440854004822189"><ele>127.75</ele><time>2026-04-24T13:09:39Z</time></trkpt><trkpt lat="44.3262928111373" lon="8.440678860412483"><ele>130.5</ele><time>2026-04-24T13:09:40Z</time></trkpt><trkpt lat="44.326236567969474" lon="8.44050498744773"><ele>133.25</ele><time>2026-04-24T13:09:41Z</time></trkpt><trkpt lat="44.32618559114957" lon="8.440345902832798"><ele>136.0</ele><time>2026-04-24T13:09:42Z</time></trkpt><trkpt lat="44.32614180735814" lon="8.440198642591476"><ele>136.0</ele><time>2026-04-24T13:09:43Z</time></trkpt><trkpt lat="44.32610340416704" lon="8.440052830700422"><ele>136.0</ele><time>2026-04-24T13:09:44Z</time></trkpt><trkpt lat="44.32606895399701" lon="8.439910596956809"><ele>136.0</ele><time>2026-04-24T13:09:45Z</time></trkpt><trkpt lat="44.326034095118246" lon="8.439769503155446"><ele>136.0</ele><time>2026-04-24T13:09:46Z</time></trkpt><trkpt lat="44.325998486445656" lon="8.439624774932396"><ele>136.0</ele><time>2026-04-24T13:09:47Z</time></trkpt><trkpt lat="44.32596305734058" lon="8.439479268362472"><ele>136.4</ele><time>2026-04-24T13:09:48Z</time></trkpt><trkpt lat="44.3259285017661" lon="8.439332441094486"><ele>136.8</ele><time>2026-04-24T13:09:49Z</time></trkpt><trkpt lat="44.325896956035095" lon="8.43918402350257"><ele>137.20000000000002</ele><time>2026-04-24T13:09:50Z</time></trkpt><trkpt lat="44.32586412342391" lon="8.439036999680445"><ele>137.6</ele><time>2026-04-24T13:09:51Z</time></trkpt><trkpt lat="44.32583190423843" lon="8.438891938030228"><ele>138.0</ele><time>2026-04-24T13:09:52Z</time></trkpt><trkpt lat="44.32580039199463" lon="8.438748045480938"><ele>138.4</ele><time>2026-04-24T13:09:53Z</time></trkpt><trkpt lat="44.32576896293284" lon="8.43860291662858"><ele>138.8</ele><time>2026-04-24T13:09:54Z</time></trkpt><trkpt lat="44.32573759337832" lon="8.438462850978862"><ele>139.2</ele><time>2026-04-24T13:09:55Z</time></trkpt><trkpt lat="44.325705547564695" lon="8.438322904718769"><ele>139.6</ele><time>2026-04-24T13:09:56Z</time></trkpt><trkpt lat="44.32567166941026" lon="8.438179012540262"><ele>140.0</ele><time>2026-04-24T13:09:57Z</time></trkpt><trkpt lat="44.32563595037596" lon="8.43803368154403"><ele>140.0</ele><time>2026-04-24T13:09:58Z</time></trkpt><trkpt lat="44.325600246903655" lon="8.437891156763646"><ele>140.0</ele><time>2026-04-24T13:09:59Z</time></trkpt><trkpt lat="44.32557068437107" lon="8.437742446981725"><ele>140.0</ele><time>2026-04-24T13:10:00Z</time></trkpt><trkpt lat="44.32553876837498" lon="8.437591072590386"><ele>140.0</ele><time>2026-04-24T13:10:01Z</time></trkpt><trkpt lat="44.3255061945803" lon="8.437439355953485"><ele>140.0</ele><time>2026-04-24T13:10:02Z</time></trkpt><trkpt lat="44.325465839712976" lon="8.437300316258149"><ele>140.0</ele><time>2026-04-24T13:10:03Z</time></trkpt><trkpt lat="44.32540808971707" lon="8.43717604018427"><ele>140.0</ele><time>2026-04-24T13:10:04Z</time></trkpt><trkpt lat="44.325330143952584" lon="8.437059726570336"><ele>140.0</ele><time>2026-04-24T13:10:05Z</time></trkpt><trkpt lat="44.3252315483393" lon="8.436950690879566"><ele>140.0</ele><time>2026-04-24T13:10:06Z</time></trkpt><trkpt lat="44.325120654377585" lon="8.436847794812914"><ele>138.8</ele><time>2026-04-24T13:10:07Z</time></trkpt><trkpt lat="44.325025024863976" lon="8.436743655171853"><ele>137.6</ele><time>2026-04-24T13:10:08Z</time></trkpt><trkpt lat="44.32496098674274" lon="8.436631405050152"><ele>136.4</ele><time>2026-04-24T13:10:09Z</time></trkpt><trkpt lat="44.32493046609408" lon="8.43650571076179"><ele>135.2</ele><time>2026-04-24T13:10:10Z</time></trkpt><trkpt lat="44.324933124786035" lon="8.436374022328316"><ele>134.0</ele><time>2026-04-24T13:10:11Z</time></trkpt><trkpt lat="44.32496668413357" lon="8.4362143439663"><ele>134.0</ele><time>2026-04-24T13:10:12Z</time></trkpt><trkpt lat="44.32504323168999" lon="8.436028460062438"><ele>134.0</ele><time>2026-04-24T13:10:13Z</time></trkpt><trkpt lat="44.3251234513811" lon="8.435819778979914"><ele>134.0</ele><time>2026-04-24T13:10:14Z</time></trkpt><trkpt lat="44.32519095931858" lon="8.435606102797493"><ele>135.0</ele><time>2026-04-24T13:10:16Z</time></trkpt><trkpt lat="44.32524000428983" lon="8.435409322674024"><ele>136.0</ele><time>2026-04-24T13:10:17Z</time></trkpt><trkpt lat="44.32525281041255" lon="8.43523058566216"><ele>137.0</ele><time>2026-04-24T13:10:18Z</time></trkpt><trkpt lat="44.325228246159774" lon="8.435056154349795"><ele>138.0</ele><time>2026-04-24T13:10:19Z</time></trkpt><trkpt lat="44.32517443247403" lon="8.43489910157023"><ele>138.0</ele><time>2026-04-24T13:10:20Z</time></trkpt><trkpt lat="44.325093941957284" lon="8.43475094956154"><ele>138.0</ele><time>2026-04-24T13:10:21Z</time></trkpt><trkpt lat="44.32498662753868" lon="8.43461107018912"><ele>138.0</ele><time>2026-04-24T13:10:22Z</time></trkpt><trkpt lat="44.3248672870989" lon="8.434483977793311"><ele>138.0</ele><time>2026-04-24T13:10:23Z</time></trkpt><trkpt lat="44.32475143009737" lon="8.43433320217142"><ele>140.5</ele><time>2026-04-24T13:10:24Z</time></trkpt><trkpt lat="44.324652584752904" lon="8.434201889781875"><ele>143.0</ele><time>2026-04-24T13:10:25Z</time></trkpt><trkpt lat="44.32456597552111" lon="8.434083407957436"><ele>145.5</ele><time>2026-04-24T13:10:26Z</time></trkpt><trkpt lat="44.324493068386474" lon="8.433971108306139"><ele>148.0</ele><time>2026-04-24T13:10:27Z</time></trkpt><trkpt lat="44.3244448160782" lon="8.433857011505815"><ele>147.6</ele><time>2026-04-24T13:10:28Z</time></trkpt><trkpt lat="44.324442862471685" lon="8.433721494101057"><ele>147.20000000000002</ele><time>2026-04-24T13:10:29Z</time></trkpt><trkpt lat="44.32444524853511" lon="8.433583637484494"><ele>146.8</ele><time>2026-04-24T13:10:30Z</time></trkpt><trkpt lat="44.32446533265458" lon="8.433445065969977"><ele>146.4</ele><time>2026-04-24T13:10:31Z</time></trkpt><trkpt lat="44.32450102906321" lon="8.433302636606433"><ele>146.0</ele><time>2026-04-24T13:10:32Z</time></trkpt><trkpt lat="44.324565670038986" lon="8.433183778824088"><ele>146.0</ele><time>2026-04-24T13:10:33Z</time></trkpt><trkpt lat="44.324634478953605" lon="8.433061876550356"><ele>146.0</ele><time>2026-04-24T13:10:34Z</time></trkpt><trkpt lat="44.324702494364494" lon="8.432938291606964"><ele>146.0</ele><time>2026-04-24T13:10:35Z</time></trkpt><trkpt lat="44.32477770946533" lon="8.432831008985668"><ele>146.0</ele><time>2026-04-24T13:10:36Z</time></trkpt><trkpt lat="44.32485797812852" lon="8.432721927512754"><ele>146.0</ele><time>2026-04-24T13:10:37Z</time></trkpt><trkpt lat="44.32492935190835" lon="8.432614217569611"><ele>145.6</ele><time>2026-04-24T13:10:38Z</time></trkpt><trkpt lat="44.32499252341512" lon="8.4325249906433"><ele>145.2</ele><time>2026-04-24T13:10:39Z</time></trkpt><trkpt lat="44.32505396779477" lon="8.432428011515995"><ele>144.8</ele><time>2026-04-24T13:10:40Z</time></trkpt><trkpt lat="44.32512102198855" lon="8.432314928990303"><ele>144.4</ele><time>2026-04-24T13:10:41Z</time></trkpt><trkpt lat="44.32518173610866" lon="8.432200434752447"><ele>144.0</ele><time>2026-04-24T13:10:42Z</time></trkpt><trkpt lat="44.32523615787146" lon="8.432101317910158"><ele>144.00000000000003</ele><time>2026-04-24T13:10:43Z</time></trkpt><trkpt lat="44.32529171669768" lon="8.432032993880945"><ele>144.0</ele><time>2026-04-24T13:10:44Z</time></trkpt><trkpt lat="44.32534081876639" lon="8.431970518588782"><ele>144.0</ele><time>2026-04-24T13:10:45Z</time></trkpt><trkpt lat="44.325362275376186" lon="8.431879097019404"><ele>144.0</ele><time>2026-04-24T13:10:46Z</time></trkpt><trkpt lat="44.3253753339846" lon="8.431778738598247"><ele>144.0</ele><time>2026-04-24T13:10:47Z</time></trkpt><trkpt lat="44.32539408844017" lon="8.431674528850888"><ele>144.00000000000003</ele><time>2026-04-24T13:10:48Z</time></trkpt><trkpt lat="44.32541092083179" lon="8.431562326528878"><ele>144.0</ele><time>2026-04-24T13:10:49Z</time></trkpt><trkpt lat="44.325431053860505" lon="8.431445490082218"><ele>144.0</ele><time>2026-04-24T13:10:50Z</time></trkpt><trkpt lat="44.325455728737886" lon="8.43132748943328"><ele>144.0</ele><time>2026-04-24T13:10:51Z</time></trkpt><trkpt lat="44.325479491545266" lon="8.431208399322808"><ele>144.0</ele><time>2026-04-24T13:10:52Z</time></trkpt><trkpt lat="44.32549807696701" lon="8.431104084917113"><ele>144.0</ele><time>2026-04-24T13:10:53Z</time></trkpt><trkpt lat="44.32554851413635" lon="8.430952589582834"><ele>144.0</ele><time>2026-04-24T13:10:55Z</time></trkpt><trkpt lat="44.325627203346784" lon="8.430868526961563"><ele>149.25</ele><time>2026-04-24T13:10:57Z</time></trkpt><trkpt lat="44.325695554153704" lon="8.430947215854562"><ele>154.5</ele><time>2026-04-24T13:10:59Z</time></trkpt><trkpt lat="44.32564550351247" lon="8.431114485618252"><ele>159.75</ele><time>2026-04-24T13:11:01Z</time></trkpt><trkpt lat="44.32562839050064" lon="8.431265008043344"><ele>165.0</ele><time>2026-04-24T13:11:02Z</time></trkpt><trkpt lat="44.32560638983925" lon="8.431448626211289"><ele>165.4</ele><time>2026-04-24T13:11:04Z</time></trkpt><trkpt lat="44.325605338165616" lon="8.431584820505122"><ele>165.8</ele><time>2026-04-24T13:11:05Z</time></trkpt><trkpt lat="44.325590324639094" lon="8.431722468607733"><ele>166.2</ele><time>2026-04-24T13:11:06Z</time></trkpt><trkpt lat="44.32558783005851" lon="8.431865030655688"><ele>166.6</ele><time>2026-04-24T13:11:08Z</time></trkpt><trkpt lat="44.32563638360357" lon="8.431989303696401"><ele>167.0</ele><time>2026-04-24T13:11:10Z</time></trkpt><trkpt lat="44.32570019975205" lon="8.43201047476541"><ele>167.0</ele><time>2026-04-24T13:11:11.001Z</time></trkpt><trkpt lat="44.32577381359101" lon="8.432000699340671"><ele>167.0</ele><time>2026-04-24T13:11:12.001Z</time></trkpt><trkpt lat="44.32585603602089" lon="8.43194995036922"><ele>167.0</ele><time>2026-04-24T13:11:13.001Z</time></trkpt><trkpt lat="44.32593484968755" lon="8.431889784194142"><ele>167.0</ele><time>2026-04-24T13:11:14.001Z</time></trkpt><trkpt lat="44.32603126608065" lon="8.431843676665489"><ele>167.0</ele><time>2026-04-24T13:11:15.001Z</time></trkpt><trkpt lat="44.32611401549287" lon="8.431779474346714"><ele>167.0</ele><time>2026-04-24T13:11:16.001Z</time></trkpt><trkpt lat="44.32618935149373" lon="8.431699468956287"><ele>167.0</ele><time>2026-04-24T13:11:18.001Z</time></trkpt><trkpt lat="44.3262652791103" lon="8.431788752035054"><ele>167.0</ele><time>2026-04-24T13:11:20.001Z</time></trkpt><trkpt lat="44.326267381899505" lon="8.43188882061619"><ele>167.0</ele><time>2026-04-24T13:11:21.001Z</time></trkpt><trkpt lat="44.326249830416266" lon="8.432010693073657"><ele>167.0</ele><time>2026-04-24T13:11:22.001Z</time></trkpt><trkpt lat="44.32621537478413" lon="8.4321282618579"><ele>167.0</ele><time>2026-04-24T13:11:23.001Z</time></trkpt><trkpt lat="44.32615793943166" lon="8.432227013853483"><ele>167.0</ele><time>2026-04-24T13:11:24.001Z</time></trkpt><trkpt lat="44.326091660158" lon="8.432321441653341"><ele>167.0</ele><time>2026-04-24T13:11:25.001Z</time></trkpt><trkpt lat="44.32604725861122" lon="8.432419579505918"><ele>167.0</ele><time>2026-04-24T13:11:26.001Z</time></trkpt><trkpt lat="44.32602897835921" lon="8.432534722956955"><ele>167.0</ele><time>2026-04-24T13:11:27.001Z</time></trkpt><trkpt lat="44.32601283767824" lon="8.432658239256684"><ele>167.0</ele><time>2026-04-24T13:11:28.001Z</time></trkpt><trkpt lat="44.325989626598734" lon="8.432780835943493"><ele>167.0</ele><time>2026-04-24T13:11:29.001Z</time></trkpt><trkpt lat="44.325957590258085" lon="8.432890177239306"><ele>167.0</ele><time>2026-04-24T13:11:30.001Z</time></trkpt><trkpt lat="44.32589487172787" lon="8.432956826391845"><ele>167.0</ele><time>2026-04-24T13:11:31.001Z</time></trkpt><trkpt lat="44.325831300039674" lon="8.43303934868271"><ele>167.0</ele><time>2026-04-24T13:11:32.001Z</time></trkpt><trkpt lat="44.32576745284946" lon="8.433131689361186"><ele>167.0</ele><time>2026-04-24T13:11:33.001Z</time></trkpt><trkpt lat="44.325686498509825" lon="8.433216524417437"><ele>167.0</ele><time>2026-04-24T13:11:35.001Z</time></trkpt><trkpt lat="44.32569807995818" lon="8.433308608960804"><ele>167.0</ele><time>2026-04-24T13:11:36.001Z</time></trkpt><trkpt lat="44.32571804525179" lon="8.43349486316336"><ele>169.33333333333331</ele><time>2026-04-24T13:11:38.001Z</time></trkpt><trkpt lat="44.32572988510039" lon="8.433596981641209"><ele>171.66666666666666</ele><time>2026-04-24T13:11:39.001Z</time></trkpt><trkpt lat="44.32573838747141" lon="8.433707193706265"><ele>174.0</ele><time>2026-04-24T13:11:40.001Z</time></trkpt><trkpt lat="44.325789951297224" lon="8.433857055990618"><ele>176.33333333333334</ele><time>2026-04-24T13:11:42.001Z</time></trkpt><trkpt lat="44.32586287526659" lon="8.433893354399077"><ele>178.66666666666669</ele><time>2026-04-24T13:11:43.001Z</time></trkpt><trkpt lat="44.32592745052461" lon="8.433917389029732"><ele>181.0</ele><time>2026-04-24T13:11:44.001Z</time></trkpt><trkpt lat="44.3259890830271" lon="8.433956303121406"><ele>181.0</ele><time>2026-04-24T13:11:46.001Z</time></trkpt><trkpt lat="44.326038938618936" lon="8.433845841378194"><ele>181.0</ele><time>2026-04-24T13:11:47.001Z</time></trkpt><trkpt lat="44.32612202542041" lon="8.43374329814998"><ele>181.0</ele><time>2026-04-24T13:11:49.001Z</time></trkpt><trkpt lat="44.32617043991585" lon="8.433678264056326"><ele>181.0</ele><time>2026-04-24T13:11:50.001Z</time></trkpt><trkpt lat="44.32621075022879" lon="8.433603858628462"><ele>181.0</ele><time>2026-04-24T13:11:51.001Z</time></trkpt><trkpt lat="44.32625010057162" lon="8.433517832693285"><ele>181.0</ele><time>2026-04-24T13:11:52.001Z</time></trkpt><trkpt lat="44.32628976621024" lon="8.433433265104167"><ele>181.0</ele><time>2026-04-24T13:11:53.001Z</time></trkpt><trkpt lat="44.32633739045857" lon="8.433335451087546"><ele>181.0</ele><time>2026-04-24T13:11:54.001Z</time></trkpt><trkpt lat="44.32638851584345" lon="8.43323171385212"><ele>181.0</ele><time>2026-04-24T13:11:55.001Z</time></trkpt><trkpt lat="44.32643967988077" lon="8.43312214269629"><ele>181.0</ele><time>2026-04-24T13:11:56.001Z</time></trkpt><trkpt lat="44.326468543415686" lon="8.433015239047505"><ele>181.0</ele><time>2026-04-24T13:11:57.001Z</time></trkpt><trkpt lat="44.32651504454057" lon="8.432909864353544"><ele>181.0</ele><time>2026-04-24T13:11:59.001Z</time></trkpt><trkpt lat="44.32657270896679" lon="8.432869462169764"><ele>185.83333333333334</ele><time>2026-04-24T13:12:01.001Z</time></trkpt><trkpt lat="44.32662587959839" lon="8.43300753804695"><ele>190.66666666666669</ele><time>2026-04-24T13:12:03.001Z</time></trkpt><trkpt lat="44.32659965165243" lon="8.433107331701432"><ele>195.5</ele><time>2026-04-24T13:12:04.001Z</time></trkpt><trkpt lat="44.32661091016387" lon="8.433212477565664"><ele>200.33333333333334</ele><time>2026-04-24T13:12:05.001Z</time></trkpt><trkpt lat="44.32660069410766" lon="8.433333361681727"><ele>205.16666666666666</ele><time>2026-04-24T13:12:06.001Z</time></trkpt><trkpt lat="44.326599255139264" lon="8.433468220007587"><ele>210.0</ele><time>2026-04-24T13:12:07.001Z</time></trkpt><trkpt lat="44.32663104709912" lon="8.433568159221181"><ele>210.0</ele><time>2026-04-24T13:12:08.001Z</time></trkpt><trkpt lat="44.326648084986125" lon="8.433653346865881"><ele>210.0</ele><time>2026-04-24T13:12:09.001Z</time></trkpt><trkpt lat="44.32672365176023" lon="8.433772431579847"><ele>210.0</ele><time>2026-04-24T13:12:11.001Z</time></trkpt><trkpt lat="44.32676923043843" lon="8.433867971846356"><ele>210.0</ele><time>2026-04-24T13:12:12.001Z</time></trkpt><trkpt lat="44.32682125269816" lon="8.433973627968484"><ele>210.0</ele><time>2026-04-24T13:12:13.001Z</time></trkpt><trkpt lat="44.32684591446168" lon="8.434095357922335"><ele>210.0</ele><time>2026-04-24T13:12:14.001Z</time></trkpt><trkpt lat="44.32685642906677" lon="8.434214816769767"><ele>209.8</ele><time>2026-04-24T13:12:15.001Z</time></trkpt><trkpt lat="44.32683880013752" lon="8.434329594964762"><ele>209.6</ele><time>2026-04-24T13:12:16.001Z</time></trkpt><trkpt lat="44.326807475265085" lon="8.434445341921013"><ele>209.39999999999998</ele><time>2026-04-24T13:12:17.001Z</time></trkpt><trkpt lat="44.326798906616226" lon="8.434554641308514"><ele>209.2</ele><time>2026-04-24T13:12:18.001Z</time></trkpt><trkpt lat="44.32678131221425" lon="8.434707136619972"><ele>209.0</ele><time>2026-04-24T13:12:20.001Z</time></trkpt><trkpt lat="44.326794858228986" lon="8.434845939571261"><ele>209.00000000000003</ele><time>2026-04-24T13:12:22.001Z</time></trkpt><trkpt lat="44.32685339329227" lon="8.434901964736572"><ele>209.0</ele><time>2026-04-24T13:12:24.001Z</time></trkpt><trkpt lat="44.326942601809684" lon="8.434830165130286"><ele>209.0</ele><time>2026-04-24T13:12:26.001Z</time></trkpt><trkpt lat="44.326942639923544" lon="8.434724003331421"><ele>209.0</ele><time>2026-04-24T13:12:27.001Z</time></trkpt><trkpt lat="44.32694062859419" lon="8.43462505238941"><ele>209.00000000000003</ele><time>2026-04-24T13:12:28.001Z</time></trkpt><trkpt lat="44.32696851817891" lon="8.434477376304729"><ele>209.0</ele><time>2026-04-24T13:12:30.001Z</time></trkpt><trkpt lat="44.3269966733441" lon="8.434305891216066"><ele>209.16666666666669</ele><time>2026-04-24T13:12:32.001Z</time></trkpt><trkpt lat="44.327025242511844" lon="8.43418873960436"><ele>209.33333333333334</ele><time>2026-04-24T13:12:33.001Z</time></trkpt><trkpt lat="44.32705907113953" lon="8.434067604366353"><ele>209.5</ele><time>2026-04-24T13:12:34.001Z</time></trkpt><trkpt lat="44.3270880020836" lon="8.433946085619061"><ele>209.66666666666669</ele><time>2026-04-24T13:12:35.001Z</time></trkpt><trkpt lat="44.32708637495107" lon="8.433841042310101"><ele>209.83333333333334</ele><time>2026-04-24T13:12:36.001Z</time></trkpt><trkpt lat="44.3270969501026" lon="8.433749794454195"><ele>210.0</ele><time>2026-04-24T13:12:37.001Z</time></trkpt><trkpt lat="44.32712021066874" lon="8.433648755593365"><ele>210.0</ele><time>2026-04-24T13:12:38.001Z</time></trkpt><trkpt lat="44.32714955387216" lon="8.433512812414582"><ele>210.0</ele><time>2026-04-24T13:12:40.001Z</time></trkpt><trkpt lat="44.32720841739807" lon="8.43346720300683"><ele>210.0</ele><time>2026-04-24T13:12:43.001Z</time></trkpt><trkpt lat="44.32730889737833" lon="8.433544072933197"><ele>210.0</ele><time>2026-04-24T13:12:45.001Z</time></trkpt><trkpt lat="44.327356767133" lon="8.43360219552981"><ele>210.0</ele><time>2026-04-24T13:12:46.001Z</time></trkpt><trkpt lat="44.327373734754474" lon="8.433750912697803"><ele>215.83333333333334</ele><time>2026-04-24T13:12:48.001Z</time></trkpt><trkpt lat="44.327378206593714" lon="8.433865085568376"><ele>221.66666666666669</ele><time>2026-04-24T13:12:49.001Z</time></trkpt><trkpt lat="44.327377768831624" lon="8.43398911978555"><ele>227.5</ele><time>2026-04-24T13:12:50.001Z</time></trkpt><trkpt lat="44.32737325197583" lon="8.434131346359667"><ele>233.33333333333334</ele><time>2026-04-24T13:12:51.001Z</time></trkpt><trkpt lat="44.32738632241061" lon="8.434245531836082"><ele>239.16666666666669</ele><time>2026-04-24T13:12:52.001Z</time></trkpt><trkpt lat="44.32740003816803" lon="8.434337578385346"><ele>245.0</ele><time>2026-04-24T13:12:53.001Z</time></trkpt><trkpt lat="44.32743315467951" lon="8.434483237701782"><ele>245.0</ele><time>2026-04-24T13:12:55.001Z</time></trkpt><trkpt lat="44.32745500713069" lon="8.434642991462038"><ele>245.0</ele><time>2026-04-24T13:12:57.001Z</time></trkpt><trkpt lat="44.32749628445295" lon="8.434711092292645"><ele>245.0</ele><time>2026-04-24T13:12:58.001Z</time></trkpt><trkpt lat="44.32757863572192" lon="8.434784431316759"><ele>245.0</ele><time>2026-04-24T13:13:00.001Z</time></trkpt><trkpt lat="44.327666660945894" lon="8.434708126739027"><ele>245.0</ele><time>2026-04-24T13:13:02Z</time></trkpt><trkpt lat="44.32768176510373" lon="8.434605855140473"><ele>245.0</ele><time>2026-04-24T13:13:03Z</time></trkpt><trkpt lat="44.32771026178984" lon="8.43452111386795"><ele>245.0</ele><time>2026-04-24T13:13:04Z</time></trkpt><trkpt lat="44.32773821233178" lon="8.434440801742065"><ele>245.0</ele><time>2026-04-24T13:13:05Z</time></trkpt><trkpt lat="44.32779155353454" lon="8.434318244183912"><ele>245.0</ele><time>2026-04-24T13:13:07Z</time></trkpt><trkpt lat="44.32786282246545" lon="8.434188895966331"><ele>245.0</ele><time>2026-04-24T13:13:09Z</time></trkpt><trkpt lat="44.32795160412152" lon="8.434103897480991"><ele>245.0</ele><time>2026-04-24T13:13:11Z</time></trkpt><trkpt lat="44.328028386010445" lon="8.43409574828491"><ele>245.0</ele><time>2026-04-24T13:13:13Z</time></trkpt><trkpt lat="44.3281360407832" lon="8.434097004840618"><ele>245.0</ele><time>2026-04-24T13:13:15Z</time></trkpt><trkpt lat="44.32819898131938" lon="8.434094037497948"><ele>245.0</ele><time>2026-04-24T13:13:16Z</time></trkpt><trkpt lat="44.32831734811374" lon="8.4340987325205"><ele>245.0</ele><time>2026-04-24T13:13:18Z</time></trkpt><trkpt lat="44.32842404289826" lon="8.434101081580673"><ele>246.83333333333334</ele><time>2026-04-24T13:13:20Z</time></trkpt><trkpt lat="44.32848984714886" lon="8.434082268347744"><ele>248.66666666666669</ele><time>2026-04-24T13:13:21Z</time></trkpt><trkpt lat="44.32854967730872" lon="8.434046410209927"><ele>250.5</ele><time>2026-04-24T13:13:22Z</time></trkpt><trkpt lat="44.328616927233774" lon="8.433987849257564"><ele>252.33333333333331</ele><time>2026-04-24T13:13:23Z</time></trkpt><trkpt lat="44.32868721362143" lon="8.433914493920897"><ele>254.16666666666666</ele><time>2026-04-24T13:13:24Z</time></trkpt><trkpt lat="44.328762317159175" lon="8.433832154940097"><ele>256.0</ele><time>2026-04-24T13:13:25Z</time></trkpt><trkpt lat="44.32883719722031" lon="8.433751381586747"><ele>259.16666666666663</ele><time>2026-04-24T13:13:26Z</time></trkpt><trkpt lat="44.328910349998345" lon="8.433648461291984"><ele>262.3333333333333</ele><time>2026-04-24T13:13:27Z</time></trkpt><trkpt lat="44.328975029854995" lon="8.433576037771685"><ele>265.5</ele><time>2026-04-24T13:13:28Z</time></trkpt><trkpt lat="44.32903549207643" lon="8.43351942041835"><ele>268.6666666666667</ele><time>2026-04-24T13:13:29Z</time></trkpt><trkpt lat="44.329086066913035" lon="8.433462324504179"><ele>271.83333333333337</ele><time>2026-04-24T13:13:30Z</time></trkpt><trkpt lat="44.329147490901434" lon="8.433433255724488"><ele>275.0</ele><time>2026-04-24T13:13:31Z</time></trkpt><trkpt lat="44.32922993102332" lon="8.433387461272288"><ele>275.0</ele><time>2026-04-24T13:13:33Z</time></trkpt><trkpt lat="44.32930280931537" lon="8.433396045085843"><ele>275.0</ele><time>2026-04-24T13:13:49Z</time></trkpt><trkpt lat="44.32935603435628" lon="8.433342014028831"><ele>275.0</ele><time>2026-04-24T13:13:51Z</time></trkpt><trkpt lat="44.32943272935929" lon="8.433335310944278"><ele>275.0</ele><time>2026-04-24T13:13:53Z</time></trkpt><trkpt lat="44.32950505256977" lon="8.433371222802439"><ele>275.0</ele><time>2026-04-24T13:13:55Z</time></trkpt><trkpt lat="44.32952377547984" lon="8.433158310259353"><ele>275.0</ele><time>2026-04-24T13:13:56Z</time></trkpt><trkpt lat="44.3295927250012" lon="8.43309213237145"><ele>275.0</ele><time>2026-04-24T13:13:58Z</time></trkpt><trkpt lat="44.32969289325091" lon="8.433022359566598"><ele>275.0</ele><time>2026-04-24T13:14:00Z</time></trkpt><trkpt lat="44.32978365628673" lon="8.432943318478863"><ele>275.0</ele><time>2026-04-24T13:14:02Z</time></trkpt><trkpt lat="44.329868671020456" lon="8.43287143628537"><ele>275.0</ele><time>2026-04-24T13:14:04Z</time></trkpt><trkpt lat="44.32993465900336" lon="8.43284569081248"><ele>275.0</ele><time>2026-04-24T13:14:06Z</time></trkpt><trkpt lat="44.33003299391674" lon="8.432858380408188"><ele>274.2</ele><time>2026-04-24T13:14:08Z</time></trkpt><trkpt lat="44.33012620118651" lon="8.432875934335302"><ele>273.4</ele><time>2026-04-24T13:14:10Z</time></trkpt><trkpt lat="44.33023554161797" lon="8.432905371656707"><ele>272.6</ele><time>2026-04-24T13:14:12Z</time></trkpt><trkpt lat="44.33034109452901" lon="8.43292539152965"><ele>271.8</ele><time>2026-04-24T13:14:14Z</time></trkpt><trkpt lat="44.33045533884826" lon="8.432932308628908"><ele>271.0</ele><time>2026-04-24T13:14:16Z</time></trkpt><trkpt lat="44.330565316226796" lon="8.43293933539223"><ele>273.6</ele><time>2026-04-24T13:14:18Z</time></trkpt><trkpt lat="44.33063416689678" lon="8.432965074760968"><ele>276.20000000000005</ele><time>2026-04-24T13:14:20Z</time></trkpt><trkpt lat="44.33072104370237" lon="8.433020572885416"><ele>278.79999999999995</ele><time>2026-04-24T13:14:22Z</time></trkpt><trkpt lat="44.3308164253526" lon="8.433037716070535"><ele>281.4</ele><time>2026-04-24T13:14:24Z</time></trkpt><trkpt lat="44.3309121378819" lon="8.432989525305048"><ele>284.0</ele><time>2026-04-24T13:14:26Z</time></trkpt><trkpt lat="44.330997765413414" lon="8.432911002480056"><ele>284.0</ele><time>2026-04-24T13:14:28Z</time></trkpt><trkpt lat="44.33106829160185" lon="8.432890411106108"><ele>284.0</ele><time>2026-04-24T13:14:30Z</time></trkpt><trkpt lat="44.33114455257063" lon="8.432880939152524"><ele>284.0</ele><time>2026-04-24T13:14:32Z</time></trkpt><trkpt lat="44.33120557601415" lon="8.432850608195098"><ele>284.0</ele><time>2026-04-24T13:14:34Z</time></trkpt><trkpt lat="44.3312539774805" lon="8.432784746627659"><ele>284.0</ele><time>2026-04-24T13:14:36.001Z</time></trkpt><trkpt lat="44.33127948391065" lon="8.432653162570809"><ele>284.0</ele><time>2026-04-24T13:14:38.001Z</time></trkpt><trkpt lat="44.331310397775454" lon="8.432504192929741"><ele>284.0</ele><time>2026-04-24T13:14:40.001Z</time></trkpt><trkpt lat="44.33133564403179" lon="8.432375302707705"><ele>284.0</ele><time>2026-04-24T13:14:42.001Z</time></trkpt><trkpt lat="44.331390438432045" lon="8.432266451562457"><ele>284.0</ele><time>2026-04-24T13:14:44Z</time></trkpt><trkpt lat="44.331458251629634" lon="8.432169982267553"><ele>284.0</ele><time>2026-04-24T13:14:46.001Z</time></trkpt><trkpt lat="44.331551195270656" lon="8.43207181644102"><ele>284.0</ele><time>2026-04-24T13:14:48.001Z</time></trkpt><trkpt lat="44.33161687728773" lon="8.431943174331815"><ele>289.0</ele><time>2026-04-24T13:14:50.001Z</time></trkpt><trkpt lat="44.33166573220852" lon="8.431836023538631"><ele>294.0</ele><time>2026-04-24T13:14:52.001Z</time></trkpt><trkpt lat="44.331681373260814" lon="8.431706437362216"><ele>299.0</ele><time>2026-04-24T13:14:54.001Z</time></trkpt><trkpt lat="44.3316954346144" lon="8.431585259352904"><ele>304.0</ele><time>2026-04-24T13:14:56.001Z</time></trkpt><trkpt lat="44.331717243745366" lon="8.431486026673639"><ele>309.0</ele><time>2026-04-24T13:14:58.001Z</time></trkpt><trkpt lat="44.33172018724024" lon="8.43136984226105"><ele>314.0</ele><time>2026-04-24T13:15:00.001Z</time></trkpt><trkpt lat="44.331657469047315" lon="8.431274475852403"><ele>314.33333333333337</ele><time>2026-04-24T13:15:02.001Z</time></trkpt><trkpt lat="44.33162960851654" lon="8.431163938009192"><ele>314.6666666666667</ele><time>2026-04-24T13:15:04.001Z</time></trkpt><trkpt lat="44.33162054261679" lon="8.431057734036195"><ele>315.0</ele><time>2026-04-24T13:15:06.001Z</time></trkpt><trkpt lat="44.33165520530316" lon="8.430932967499633"><ele>315.3333333333333</ele><time>2026-04-24T13:15:08.001Z</time></trkpt><trkpt lat="44.33168838295584" lon="8.430841385178807"><ele>315.66666666666663</ele><time>2026-04-24T13:15:10.001Z</time></trkpt><trkpt lat="44.33176276542709" lon="8.430802803464351"><ele>316.0</ele><time>2026-04-24T13:15:12.001Z</time></trkpt><trkpt lat="44.331813907951066" lon="8.430865933972441"><ele>316.0</ele><time>2026-04-24T13:15:14.001Z</time></trkpt><trkpt lat="44.33188453523476" lon="8.43099570969383"><ele>316.0</ele><time>2026-04-24T13:15:16.001Z</time></trkpt><trkpt lat="44.33196548004072" lon="8.431075710066661"><ele>316.0</ele><time>2026-04-24T13:15:18.001Z</time></trkpt><trkpt lat="44.332021787787724" lon="8.431216288056557"><ele>316.0</ele><time>2026-04-24T13:15:20.001Z</time></trkpt><trkpt lat="44.33204506732772" lon="8.4313088897049"><ele>316.0</ele><time>2026-04-24T13:15:21.001Z</time></trkpt><trkpt lat="44.332133875631115" lon="8.431334131982878"><ele>316.0</ele><time>2026-04-24T13:15:24.001Z</time></trkpt><trkpt lat="44.332166830686766" lon="8.43124009065733"><ele>316.0</ele><time>2026-04-24T13:15:26.001Z</time></trkpt><trkpt lat="44.332169892497944" lon="8.431096787603458"><ele>316.0</ele><time>2026-04-24T13:15:35.001Z</time></trkpt><trkpt lat="44.33217047232043" lon="8.43095770506175"><ele>316.0</ele><time>2026-04-24T13:15:37.001Z</time></trkpt><trkpt lat="44.33218620575467" lon="8.430835494220824"><ele>316.0</ele><time>2026-04-24T13:15:39.001Z</time></trkpt><trkpt lat="44.332195046306616" lon="8.430737788919819"><ele>316.0</ele><time>2026-04-24T13:15:41.001Z</time></trkpt><trkpt lat="44.33221154924852" lon="8.430624130479165"><ele>320.3333333333333</ele><time>2026-04-24T13:15:43.001Z</time></trkpt><trkpt lat="44.33225986317385" lon="8.430520422044106"><ele>324.66666666666663</ele><time>2026-04-24T13:15:45.001Z</time></trkpt><trkpt lat="44.33232291852921" lon="8.430465487574674"><ele>329.0</ele><time>2026-04-24T13:15:47.001Z</time></trkpt><trkpt lat="44.332411836182004" lon="8.43048739370295"><ele>333.3333333333333</ele><time>2026-04-24T13:15:50.001Z</time></trkpt><trkpt lat="44.3324598168759" lon="8.430570445368222"><ele>337.6666666666667</ele><time>2026-04-24T13:15:52.001Z</time></trkpt><trkpt lat="44.33249967341421" lon="8.430684406909148"><ele>342.0</ele><time>2026-04-24T13:15:54.001Z</time></trkpt><trkpt lat="44.332548737362515" lon="8.430827968982179"><ele>343.5</ele><time>2026-04-24T13:15:56.001Z</time></trkpt><trkpt lat="44.332594182149" lon="8.430966771806668"><ele>345.0</ele><time>2026-04-24T13:15:58.001Z</time></trkpt><trkpt lat="44.332639857259615" lon="8.431102490003642"><ele>346.5</ele><time>2026-04-24T13:16:00.001Z</time></trkpt><trkpt lat="44.33268839657722" lon="8.431265194070804"><ele>348.0</ele><time>2026-04-24T13:16:02.001Z</time></trkpt><trkpt lat="44.33270409079367" lon="8.431438814105762"><ele>348.0</ele><time>2026-04-24T13:16:04.001Z</time></trkpt><trkpt lat="44.33269182597639" lon="8.431528448345176"><ele>348.0</ele><time>2026-04-24T13:16:05.001Z</time></trkpt><trkpt lat="44.33267146904401" lon="8.431614223880262"><ele>348.0</ele><time>2026-04-24T13:16:06.001Z</time></trkpt><trkpt lat="44.33266619104956" lon="8.431765146325663"><ele>348.0</ele><time>2026-04-24T13:16:08.001Z</time></trkpt><trkpt lat="44.33267052912117" lon="8.431853141789958"><ele>348.0</ele><time>2026-04-24T13:16:09.001Z</time></trkpt><trkpt lat="44.33267678054733" lon="8.431949613099029"><ele>348.0</ele><time>2026-04-24T13:16:10.001Z</time></trkpt><trkpt lat="44.33268579444789" lon="8.432052406432662"><ele>348.0</ele><time>2026-04-24T13:16:11.001Z</time></trkpt><trkpt lat="44.33270798492676" lon="8.432215433671928"><ele>347.6666666666667</ele><time>2026-04-24T13:16:13.001Z</time></trkpt><trkpt lat="44.3327131576728" lon="8.432346465444455"><ele>347.3333333333333</ele><time>2026-04-24T13:16:15.001Z</time></trkpt><trkpt lat="44.33272606780027" lon="8.432439682166963"><ele>347.0</ele><time>2026-04-24T13:16:17.001Z</time></trkpt><trkpt lat="44.33276542895202" lon="8.432522023096498"><ele>346.66666666666663</ele><time>2026-04-24T13:16:19.001Z</time></trkpt><trkpt lat="44.33282482199329" lon="8.432575316361126"><ele>346.3333333333333</ele><time>2026-04-24T13:16:21.001Z</time></trkpt><trkpt lat="44.33292117310752" lon="8.432599226645147"><ele>346.0</ele><time>2026-04-24T13:16:23.001Z</time></trkpt><trkpt lat="44.333020465510565" lon="8.432607059225493"><ele>348.8333333333333</ele><time>2026-04-24T13:16:25.001Z</time></trkpt><trkpt lat="44.33308534138009" lon="8.432634207825474"><ele>351.66666666666663</ele><time>2026-04-24T13:16:27.001Z</time></trkpt><trkpt lat="44.33315497128497" lon="8.432713159030126"><ele>354.5</ele><time>2026-04-24T13:16:29.001Z</time></trkpt><trkpt lat="44.333217546838874" lon="8.432807904314796"><ele>357.3333333333333</ele><time>2026-04-24T13:16:31.001Z</time></trkpt><trkpt lat="44.33326460709382" lon="8.432931456717473"><ele>360.1666666666667</ele><time>2026-04-24T13:16:33.001Z</time></trkpt><trkpt lat="44.3333114895586" lon="8.433026035639829"><ele>363.0</ele><time>2026-04-24T13:16:35.001Z</time></trkpt><trkpt lat="44.33333237757995" lon="8.432927297069734"><ele>363.59999999999997</ele><time>2026-04-24T13:16:41.001Z</time></trkpt><trkpt lat="44.333291190786646" lon="8.432824646614936"><ele>364.2</ele><time>2026-04-24T13:16:42.001Z</time></trkpt><trkpt lat="44.33322760151315" lon="8.432687248107861"><ele>364.8</ele><time>2026-04-24T13:16:43.001Z</time></trkpt><trkpt lat="44.333174086444735" lon="8.432580173698144"><ele>365.4</ele><time>2026-04-24T13:16:44.001Z</time></trkpt><trkpt lat="44.33312243407613" lon="8.4325104858152"><ele>366.0</ele><time>2026-04-24T13:16:45.001Z</time></trkpt><trkpt lat="44.33304493672742" lon="8.43244388014085"><ele>367.20000000000005</ele><time>2026-04-24T13:16:46.001Z</time></trkpt><trkpt lat="44.33299024948882" lon="8.432384785450887"><ele>368.40000000000003</ele><time>2026-04-24T13:16:47.001Z</time></trkpt><trkpt lat="44.332961445823" lon="8.432272467549224"><ele>369.6</ele><time>2026-04-24T13:16:49.001Z</time></trkpt><trkpt lat="44.333001411233866" lon="8.432093711247006"><ele>370.8</ele><time>2026-04-24T13:16:51.001Z</time></trkpt><trkpt lat="44.33304145821142" lon="8.432001203152488"><ele>372.0</ele><time>2026-04-24T13:16:52.001Z</time></trkpt><trkpt lat="44.3330849415149" lon="8.431900762974196"><ele>372.0</ele><time>2026-04-24T13:16:53.001Z</time></trkpt><trkpt lat="44.33313182422868" lon="8.431802601893818"><ele>372.0</ele><time>2026-04-24T13:16:54.001Z</time></trkpt><trkpt lat="44.333178213847155" lon="8.431713906635869"><ele>372.0</ele><time>2026-04-24T13:16:55.001Z</time></trkpt><trkpt lat="44.333227518251526" lon="8.431630960772418"><ele>372.0</ele><time>2026-04-24T13:16:56.001Z</time></trkpt><trkpt lat="44.33327778271273" lon="8.431550579558811"><ele>372.0</ele><time>2026-04-24T13:16:57.001Z</time></trkpt><trkpt lat="44.3333221906809" lon="8.431464245883113"><ele>372.0</ele><time>2026-04-24T13:16:58.001Z</time></trkpt><trkpt lat="44.33335157450661" lon="8.43136933966313"><ele>372.42857142857144</ele><time>2026-04-24T13:16:59.001Z</time></trkpt><trkpt lat="44.33337521279306" lon="8.431262617092655"><ele>372.8571428571429</ele><time>2026-04-24T13:17:00.001Z</time></trkpt><trkpt lat="44.33338906701359" lon="8.431163397625147"><ele>373.28571428571433</ele><time>2026-04-24T13:17:01.001Z</time></trkpt><trkpt lat="44.33337930303263" lon="8.431059260241147"><ele>373.7142857142857</ele><time>2026-04-24T13:17:02.001Z</time></trkpt><trkpt lat="44.3333689140225" lon="8.43096021740787"><ele>374.1428571428571</ele><time>2026-04-24T13:17:03.001Z</time></trkpt><trkpt lat="44.33337557238736" lon="8.430862499126052"><ele>374.5714285714286</ele><time>2026-04-24T13:17:04.001Z</time></trkpt><trkpt lat="44.333385255538786" lon="8.430767968656355"><ele>375.0</ele><time>2026-04-24T13:17:05.001Z</time></trkpt><trkpt lat="44.333400965375645" lon="8.430667970847555"><ele>375.0</ele><time>2026-04-24T13:17:06.001Z</time></trkpt><trkpt lat="44.333420780387996" lon="8.430570917770737"><ele>375.0</ele><time>2026-04-24T13:17:07.001Z</time></trkpt><trkpt lat="44.33345240328512" lon="8.430476585049782"><ele>375.0</ele><time>2026-04-24T13:17:08.001Z</time></trkpt><trkpt lat="44.33348823685131" lon="8.43037410722031"><ele>375.0</ele><time>2026-04-24T13:17:09.001Z</time></trkpt><trkpt lat="44.333524937714834" lon="8.430269641393739"><ele>375.0</ele><time>2026-04-24T13:17:10.001Z</time></trkpt><trkpt lat="44.3335607660247" lon="8.430163193748095"><ele>375.0</ele><time>2026-04-24T13:17:11.001Z</time></trkpt><trkpt lat="44.33359779205802" lon="8.430058657402233"><ele>375.0</ele><time>2026-04-24T13:17:12.001Z</time></trkpt><trkpt lat="44.3336196528623" lon="8.429966059081456"><ele>375.0</ele><time>2026-04-24T13:17:13Z</time></trkpt><trkpt lat="44.333625812446435" lon="8.429877197367926"><ele>375.0</ele><time>2026-04-24T13:17:14Z</time></trkpt><trkpt lat="44.33357340795858" lon="8.429725976163192"><ele>375.0</ele><time>2026-04-24T13:17:16Z</time></trkpt><trkpt lat="44.333517803110716" lon="8.42964861231395"><ele>375.0</ele><time>2026-04-24T13:17:17Z</time></trkpt><trkpt lat="44.33346943356987" lon="8.429572692026632"><ele>375.0</ele><time>2026-04-24T13:17:18Z</time></trkpt><trkpt lat="44.33342939129527" lon="8.42947855529456"><ele>375.8333333333333</ele><time>2026-04-24T13:17:19Z</time></trkpt><trkpt lat="44.33338481870084" lon="8.429395354976867"><ele>376.6666666666667</ele><time>2026-04-24T13:17:20Z</time></trkpt><trkpt lat="44.333342377310444" lon="8.429296874355403"><ele>377.5</ele><time>2026-04-24T13:17:21Z</time></trkpt><trkpt lat="44.33325750478652" lon="8.42921132049996"><ele>378.33333333333337</ele><time>2026-04-24T13:17:23Z</time></trkpt><trkpt lat="44.33319538451971" lon="8.429171117647876"><ele>379.1666666666667</ele><time>2026-04-24T13:17:24Z</time></trkpt><trkpt lat="44.33312244491519" lon="8.429077482017004"><ele>380.0</ele><time>2026-04-24T13:17:26Z</time></trkpt><trkpt lat="44.3331112938627" lon="8.428954203857506"><ele>380.0</ele><time>2026-04-24T13:17:28Z</time></trkpt><trkpt lat="44.33311842381243" lon="8.428863275328384"><ele>380.0</ele><time>2026-04-24T13:17:29Z</time></trkpt><trkpt lat="44.33310773826615" lon="8.428771912682"><ele>380.0</ele><time>2026-04-24T13:17:30Z</time></trkpt><trkpt lat="44.333073215991305" lon="8.428663494774034"><ele>380.0</ele><time>2026-04-24T13:17:31Z</time></trkpt><trkpt lat="44.33302721510131" lon="8.428548945465405"><ele>380.0</ele><time>2026-04-24T13:17:32Z</time></trkpt><trkpt lat="44.33296417803931" lon="8.428414955706279"><ele>380.0</ele><time>2026-04-24T13:17:33Z</time></trkpt><trkpt lat="44.332903591945" lon="8.428298535335932"><ele>381.0</ele><time>2026-04-24T13:17:34Z</time></trkpt><trkpt lat="44.332841419319955" lon="8.428216799297417"><ele>382.0</ele><time>2026-04-24T13:17:35Z</time></trkpt><trkpt lat="44.332778636355464" lon="8.42815828391668"><ele>383.0</ele><time>2026-04-24T13:17:36Z</time></trkpt><trkpt lat="44.33268456458885" lon="8.428111921614919"><ele>384.0</ele><time>2026-04-24T13:17:38Z</time></trkpt><trkpt lat="44.33259975962776" lon="8.428107693681664"><ele>384.99999999999994</ele><time>2026-04-24T13:17:40Z</time></trkpt><trkpt lat="44.332526690342206" lon="8.428083821690224"><ele>386.0</ele><time>2026-04-24T13:17:41Z</time></trkpt><trkpt lat="44.33244418716741" lon="8.428049610652895"><ele>386.0</ele><time>2026-04-24T13:17:42Z</time></trkpt><trkpt lat="44.3323462700938" lon="8.428006265628909"><ele>386.0</ele><time>2026-04-24T13:17:43Z</time></trkpt><trkpt lat="44.3322258489414" lon="8.427958037204524"><ele>386.0</ele><time>2026-04-24T13:17:44Z</time></trkpt><trkpt lat="44.3321255857577" lon="8.427926646415177"><ele>386.0</ele><time>2026-04-24T13:17:45Z</time></trkpt><trkpt lat="44.33201506486263" lon="8.427950627197191"><ele>386.0</ele><time>2026-04-24T13:17:47Z</time></trkpt><trkpt lat="44.33189374124012" lon="8.4279944140791"><ele>384.66666666666663</ele><time>2026-04-24T13:17:49Z</time></trkpt><trkpt lat="44.331821345127054" lon="8.427988904034267"><ele>383.3333333333333</ele><time>2026-04-24T13:17:50Z</time></trkpt><trkpt lat="44.3317351115738" lon="8.427974165477082"><ele>382.0</ele><time>2026-04-24T13:17:51Z</time></trkpt><trkpt lat="44.3316492641578" lon="8.427950010467054"><ele>380.66666666666663</ele><time>2026-04-24T13:17:52Z</time></trkpt><trkpt lat="44.33158192157138" lon="8.427914405318823"><ele>379.3333333333333</ele><time>2026-04-24T13:17:53Z</time></trkpt><trkpt lat="44.33150193609723" lon="8.427824917225378"><ele>378.0</ele><time>2026-04-24T13:17:55Z</time></trkpt><trkpt lat="44.33149999646497" lon="8.427655157151476"><ele>380.4</ele><time>2026-04-24T13:17:57Z</time></trkpt><trkpt lat="44.331570680968895" lon="8.427498644791662"><ele>382.79999999999995</ele><time>2026-04-24T13:17:59Z</time></trkpt><trkpt lat="44.33162835708633" lon="8.427405876391225"><ele>385.2</ele><time>2026-04-24T13:18:00Z</time></trkpt><trkpt lat="44.33169059754213" lon="8.427301557175756"><ele>387.6</ele><time>2026-04-24T13:18:01Z</time></trkpt><trkpt lat="44.33174897106525" lon="8.427182704384272"><ele>390.0</ele><time>2026-04-24T13:18:02Z</time></trkpt><trkpt lat="44.33179207545082" lon="8.427073674572348"><ele>390.0</ele><time>2026-04-24T13:18:03Z</time></trkpt><trkpt lat="44.33181471816902" lon="8.42697216559407"><ele>390.0</ele><time>2026-04-24T13:18:04Z</time></trkpt><trkpt lat="44.3318224364965" lon="8.426845243676036"><ele>390.0</ele><time>2026-04-24T13:18:05Z</time></trkpt><trkpt lat="44.331839212711785" lon="8.426732559998037"><ele>390.0</ele><time>2026-04-24T13:18:06Z</time></trkpt><trkpt lat="44.33187653496635" lon="8.426642715160272"><ele>390.0</ele><time>2026-04-24T13:18:07Z</time></trkpt><trkpt lat="44.33192166850265" lon="8.426552296444111"><ele>390.0</ele><time>2026-04-24T13:18:08Z</time></trkpt><trkpt lat="44.33197617924347" lon="8.42645162957464"><ele>390.0</ele><time>2026-04-24T13:18:09Z</time></trkpt><trkpt lat="44.332027068169715" lon="8.426356131344512"><ele>390.0</ele><time>2026-04-24T13:18:10Z</time></trkpt><trkpt lat="44.332069705390886" lon="8.426270245618701"><ele>390.0</ele><time>2026-04-24T13:18:11Z</time></trkpt><trkpt lat="44.33209430571481" lon="8.426184401092872"><ele>390.0</ele><time>2026-04-24T13:18:12Z</time></trkpt><trkpt lat="44.33212047367938" lon="8.426080914726253"><ele>390.0</ele><time>2026-04-24T13:18:13Z</time></trkpt><trkpt lat="44.33213905041488" lon="8.425977050142055"><ele>390.0</ele><time>2026-04-24T13:18:14Z</time></trkpt><trkpt lat="44.33216348360402" lon="8.42588933232521"><ele>390.0</ele><time>2026-04-24T13:18:15Z</time></trkpt><trkpt lat="44.33220924967107" lon="8.425808556450392"><ele>388.4</ele><time>2026-04-24T13:18:16Z</time></trkpt><trkpt lat="44.3322747369312" lon="8.425743038961114"><ele>386.8</ele><time>2026-04-24T13:18:17Z</time></trkpt><trkpt lat="44.33236452488752" lon="8.425662201248958"><ele>385.20000000000005</ele><time>2026-04-24T13:18:18Z</time></trkpt><trkpt lat="44.332474392777634" lon="8.4255740637665"><ele>383.6</ele><time>2026-04-24T13:18:19Z</time></trkpt><trkpt lat="44.33258362015846" lon="8.425483570543358"><ele>382.0</ele><time>2026-04-24T13:18:20Z</time></trkpt><trkpt lat="44.33265201066937" lon="8.425422429740292"><ele>382.0</ele><time>2026-04-24T13:18:21Z</time></trkpt><trkpt lat="44.33273995693453" lon="8.425314385699691"><ele>382.0</ele><time>2026-04-24T13:18:23Z</time></trkpt><trkpt lat="44.33281249467316" lon="8.425172226233094"><ele>382.0</ele><time>2026-04-24T13:18:25Z</time></trkpt><trkpt lat="44.33284521841064" lon="8.425092894753856"><ele>382.0</ele><time>2026-04-24T13:18:26.001Z</time></trkpt><trkpt lat="44.332855384580405" lon="8.424992434310216"><ele>382.0</ele><time>2026-04-24T13:18:27.001Z</time></trkpt><trkpt lat="44.33288594692235" lon="8.424899363741567"><ele>382.0</ele><time>2026-04-24T13:18:28.001Z</time></trkpt><trkpt lat="44.33289882185005" lon="8.424807052211872"><ele>382.0</ele><time>2026-04-24T13:18:29.001Z</time></trkpt><trkpt lat="44.3328875632672" lon="8.424635883880995"><ele>382.0</ele><time>2026-04-24T13:18:31.001Z</time></trkpt><trkpt lat="44.332867575247256" lon="8.424452105561336"><ele>382.0</ele><time>2026-04-24T13:18:33.001Z</time></trkpt><trkpt lat="44.33285460807842" lon="8.424344957903674"><ele>382.0</ele><time>2026-04-24T13:18:34.001Z</time></trkpt><trkpt lat="44.33284839346275" lon="8.424245016243876"><ele>380.0</ele><time>2026-04-24T13:18:35.001Z</time></trkpt><trkpt lat="44.332842556876514" lon="8.424082220173737"><ele>378.0</ele><time>2026-04-24T13:18:37.001Z</time></trkpt><trkpt lat="44.33285000953537" lon="8.423895963927356"><ele>376.0</ele><time>2026-04-24T13:18:39.001Z</time></trkpt><trkpt lat="44.33284950240734" lon="8.423786770830391"><ele>374.0</ele><time>2026-04-24T13:18:40.001Z</time></trkpt><trkpt lat="44.33284765915498" lon="8.423679235290571"><ele>372.0</ele><time>2026-04-24T13:18:41.001Z</time></trkpt><trkpt lat="44.33284482063154" lon="8.423580521452008"><ele>372.0</ele><time>2026-04-24T13:18:42.001Z</time></trkpt><trkpt lat="44.332839559474095" lon="8.423487712362556"><ele>372.0</ele><time>2026-04-24T13:18:43.001Z</time></trkpt><trkpt lat="44.332773232375295" lon="8.423333178635469"><ele>372.0</ele><time>2026-04-24T13:18:45.001Z</time></trkpt><trkpt lat="44.33271044319559" lon="8.423261242326468"><ele>372.0</ele><time>2026-04-24T13:18:46.001Z</time></trkpt><trkpt lat="44.33264048535248" lon="8.423202413849355"><ele>372.0</ele><time>2026-04-24T13:18:47.001Z</time></trkpt><trkpt lat="44.332566562432426" lon="8.42315000790171"><ele>372.0</ele><time>2026-04-24T13:18:48.001Z</time></trkpt><trkpt lat="44.332504073974555" lon="8.423113628189135"><ele>372.0</ele><time>2026-04-24T13:18:49.001Z</time></trkpt><trkpt lat="44.332402983837596" lon="8.4230464247241"><ele>372.0</ele><time>2026-04-24T13:18:51.001Z</time></trkpt><trkpt lat="44.33229435088905" lon="8.422963591438045"><ele>372.0</ele><time>2026-04-24T13:18:53.001Z</time></trkpt><trkpt lat="44.33222034046121" lon="8.422885258318392"><ele>372.0</ele><time>2026-04-24T13:18:54.001Z</time></trkpt><trkpt lat="44.33214502174027" lon="8.42278188598332"><ele>372.0</ele><time>2026-04-24T13:18:55Z</time></trkpt><trkpt lat="44.33207083272579" lon="8.4226839357805"><ele>370.1666666666667</ele><time>2026-04-24T13:18:56Z</time></trkpt><trkpt lat="44.331990704740385" lon="8.422618893063708"><ele>368.3333333333333</ele><time>2026-04-24T13:18:57Z</time></trkpt><trkpt lat="44.33192145179081" lon="8.422559736708147"><ele>366.5</ele><time>2026-04-24T13:18:58Z</time></trkpt><trkpt lat="44.33186291360158" lon="8.422512052681594"><ele>364.66666666666663</ele><time>2026-04-24T13:18:59Z</time></trkpt><trkpt lat="44.33177752588985" lon="8.422497869056373"><ele>362.8333333333333</ele><time>2026-04-24T13:19:01Z</time></trkpt><trkpt lat="44.33168333237587" lon="8.422527677553537"><ele>361.0</ele><time>2026-04-24T13:19:03Z</time></trkpt><trkpt lat="44.33158686480782" lon="8.422559830773526"><ele>361.0</ele><time>2026-04-24T13:19:05Z</time></trkpt><trkpt lat="44.33151798724339" lon="8.422494299082407"><ele>361.0</ele><time>2026-04-24T13:19:07Z</time></trkpt><trkpt lat="44.33154798285707" lon="8.42237881858199"><ele>361.0</ele><time>2026-04-24T13:19:09Z</time></trkpt><trkpt lat="44.33164673694243" lon="8.42233513020581"><ele>361.0</ele><time>2026-04-24T13:19:11Z</time></trkpt><trkpt lat="44.33175331264402" lon="8.422233479955539"><ele>361.0</ele><time>2026-04-24T13:19:13Z</time></trkpt><trkpt lat="44.331804732787475" lon="8.422138824190322"><ele>358.16666666666663</ele><time>2026-04-24T13:19:14Z</time></trkpt><trkpt lat="44.33185559492202" lon="8.422039027180224"><ele>355.3333333333333</ele><time>2026-04-24T13:19:15Z</time></trkpt><trkpt lat="44.33190498181926" lon="8.42194413744817"><ele>352.5</ele><time>2026-04-24T13:19:16Z</time></trkpt><trkpt lat="44.33194781632006" lon="8.421839898776216"><ele>349.6666666666667</ele><time>2026-04-24T13:19:17Z</time></trkpt><trkpt lat="44.33199493805721" lon="8.4217326987954"><ele>346.83333333333337</ele><time>2026-04-24T13:19:18Z</time></trkpt><trkpt lat="44.33201772079577" lon="8.421615204705581"><ele>344.0</ele><time>2026-04-24T13:19:19Z</time></trkpt><trkpt lat="44.33203797444942" lon="8.421496476392816"><ele>344.0</ele><time>2026-04-24T13:19:20Z</time></trkpt><trkpt lat="44.33205601031014" lon="8.421383875087859"><ele>344.0</ele><time>2026-04-24T13:19:21Z</time></trkpt><trkpt lat="44.33208555205943" lon="8.421280318393528"><ele>344.0</ele><time>2026-04-24T13:19:22Z</time></trkpt><trkpt lat="44.3321184706424" lon="8.421170991099352"><ele>344.0</ele><time>2026-04-24T13:19:23Z</time></trkpt><trkpt lat="44.33212657880301" lon="8.421019188558951"><ele>344.0</ele><time>2026-04-24T13:19:25Z</time></trkpt><trkpt lat="44.33211360038402" lon="8.420908972150508"><ele>344.0</ele><time>2026-04-24T13:19:26Z</time></trkpt><trkpt lat="44.332113236898316" lon="8.420743295417592"><ele>343.0</ele><time>2026-04-24T13:19:27Z</time></trkpt><trkpt lat="44.33210918852304" lon="8.42056093619311"><ele>342.0</ele><time>2026-04-24T13:19:28Z</time></trkpt><trkpt lat="44.33211377513781" lon="8.420380953965985"><ele>341.0</ele><time>2026-04-24T13:19:29Z</time></trkpt><trkpt lat="44.33212663440865" lon="8.42027146915612"><ele>340.0</ele><time>2026-04-24T13:19:30Z</time></trkpt><trkpt lat="44.33215590318059" lon="8.420117702388632"><ele>340.0</ele><time>2026-04-24T13:19:32Z</time></trkpt><trkpt lat="44.33219588838995" lon="8.420033922059906"><ele>340.0</ele><time>2026-04-24T13:19:33Z</time></trkpt><trkpt lat="44.33224573396622" lon="8.419949442156838"><ele>340.0</ele><time>2026-04-24T13:19:34Z</time></trkpt><trkpt lat="44.33231179428155" lon="8.419860686907205"><ele>340.0</ele><time>2026-04-24T13:19:35Z</time></trkpt><trkpt lat="44.33238408121972" lon="8.419776412708915"><ele>340.0</ele><time>2026-04-24T13:19:36Z</time></trkpt><trkpt lat="44.3324280450215" lon="8.419703211763665"><ele>340.0</ele><time>2026-04-24T13:19:37Z</time></trkpt><trkpt lat="44.332506624658635" lon="8.419581591614355"><ele>316.0</ele><time>2026-04-24T13:19:39Z</time></trkpt><trkpt lat="44.33218620575467" lon="8.430835494220824"><ele>316.0</ele><time>2026-04-24T13:15:39.001Z</time></trkpt><trkpt lat="44.332195046306616" lon="8.430737788919819"><ele>316.0</ele><time>2026-04-24T13:15:41.001Z</time></trkpt><trkpt lat="44.33221154924852" lon="8.430624130479165"><ele>316.0</ele><time>2026-04-24T13:15:43.001Z</time></trkpt><trkpt lat="44.33225986317385" lon="8.430520422044106"><ele>316.0</ele><time>2026-04-24T13:15:45.001Z</time></trkpt><trkpt lat="44.33232291852921" lon="8.430465487574674"><ele>316.0</ele><time>2026-04-24T13:15:47.001Z</time></trkpt><trkpt lat="44.332411836182004" lon="8.43048739370295"><ele>316.0</ele><time>2026-04-24T13:15:50.001Z</time></trkpt><trkpt lat="44.3324598168759" lon="8.430570445368222"><ele>322.4</ele><time>2026-04-24T13:15:52.001Z</time></trkpt><trkpt lat="44.33249967341421" lon="8.430684406909148"><ele>328.8</ele><time>2026-04-24T13:15:54.001Z</time></trkpt><trkpt lat="44.332548737362515" lon="8.430827968982179"><ele>335.2</ele><time>2026-04-24T13:15:56.001Z</time></trkpt><trkpt lat="44.332594182149" lon="8.430966771806668"><ele>341.59999999999997</ele><time>2026-04-24T13:15:58.001Z</time></trkpt><trkpt lat="44.332639857259615" lon="8.431102490003642"><ele>348.0</ele><time>2026-04-24T13:16:00.001Z</time></trkpt><trkpt lat="44.33268839657722" lon="8.431265194070804"><ele>348.0</ele><time>2026-04-24T13:16:02.001Z</time></trkpt><trkpt lat="44.33270409079367" lon="8.431438814105762"><ele>348.0</ele><time>2026-04-24T13:16:04.001Z</time></trkpt><trkpt lat="44.33269182597639" lon="8.431528448345176"><ele>348.0</ele><time>2026-04-24T13:16:05.001Z</time></trkpt><trkpt lat="44.33267146904401" lon="8.431614223880262"><ele>348.0</ele><time>2026-04-24T13:16:06.001Z</time></trkpt><trkpt lat="44.33266619104956" lon="8.431765146325663"><ele>348.0</ele><time>2026-04-24T13:16:08.001Z</time></trkpt><trkpt lat="44.33267052912117" lon="8.431853141789958"><ele>348.0</ele><time>2026-04-24T13:16:09.001Z</time></trkpt><trkpt lat="44.33267678054733" lon="8.431949613099029"><ele>348.0</ele><time>2026-04-24T13:16:10.001Z</time></trkpt><trkpt lat="44.33268579444789" lon="8.432052406432662"><ele>348.0</ele><time>2026-04-24T13:16:11.001Z</time></trkpt><trkpt lat="44.33270798492676" lon="8.432215433671928"><ele>348.0</ele><time>2026-04-24T13:16:13.001Z</time></trkpt><trkpt lat="44.3327131576728" lon="8.432346465444455"><ele>348.0</ele><time>2026-04-24T13:16:15.001Z</time></trkpt><trkpt lat="44.33272606780027" lon="8.432439682166963"><ele>348.0</ele><time>2026-04-24T13:16:17.001Z</time></trkpt><trkpt lat="44.33276542895202" lon="8.432522023096498"><ele>348.0</ele><time>2026-04-24T13:16:19.001Z</time></trkpt><trkpt lat="44.33282482199329" lon="8.432575316361126"><ele>347.6666666666667</ele><time>2026-04-24T13:16:21.001Z</time></trkpt><trkpt lat="44.33292117310752" lon="8.432599226645147"><ele>347.3333333333333</ele><time>2026-04-24T13:16:23.001Z</time></trkpt><trkpt lat="44.333020465510565" lon="8.432607059225493"><ele>347.0</ele><time>2026-04-24T13:16:25.001Z</time></trkpt><trkpt lat="44.33308534138009" lon="8.432634207825474"><ele>346.66666666666663</ele><time>2026-04-24T13:16:27.001Z</time></trkpt><trkpt lat="44.33315497128497" lon="8.432713159030126"><ele>346.3333333333333</ele><time>2026-04-24T13:16:29.001Z</time></trkpt><trkpt lat="44.333217546838874" lon="8.432807904314796"><ele>346.0</ele><time>2026-04-24T13:16:31.001Z</time></trkpt><trkpt lat="44.33326460709382" lon="8.432931456717473"><ele>349.4</ele><time>2026-04-24T13:16:33.001Z</time></trkpt><trkpt lat="44.3333114895586" lon="8.433026035639829"><ele>352.8</ele><time>2026-04-24T13:16:35.001Z</time></trkpt><trkpt lat="44.33333237757995" lon="8.432927297069734"><ele>356.2</ele><time>2026-04-24T13:16:41.001Z</time></trkpt><trkpt lat="44.333291190786646" lon="8.432824646614936"><ele>359.59999999999997</ele><time>2026-04-24T13:16:42.001Z</time></trkpt><trkpt lat="44.33322760151315" lon="8.432687248107861"><ele>363.0</ele><time>2026-04-24T13:16:43.001Z</time></trkpt><trkpt lat="44.333174086444735" lon="8.432580173698144"><ele>363.59999999999997</ele><time>2026-04-24T13:16:44.001Z</time></trkpt><trkpt lat="44.33312243407613" lon="8.4325104858152"><ele>364.2</ele><time>2026-04-24T13:16:45.001Z</time></trkpt><trkpt lat="44.33304493672742" lon="8.43244388014085"><ele>364.8</ele><time>2026-04-24T13:16:46.001Z</time></trkpt><trkpt lat="44.33299024948882" lon="8.432384785450887"><ele>365.4</ele><time>2026-04-24T13:16:47.001Z</time></trkpt><trkpt lat="44.332961445823" lon="8.432272467549224"><ele>366.0</ele><time>2026-04-24T13:16:49.001Z</time></trkpt><trkpt lat="44.333001411233866" lon="8.432093711247006"><ele>367.0</ele><time>2026-04-24T13:16:51.001Z</time></trkpt><trkpt lat="44.33304145821142" lon="8.432001203152488"><ele>368.0</ele><time>2026-04-24T13:16:52.001Z</time></trkpt><trkpt lat="44.3330849415149" lon="8.431900762974196"><ele>369.0</ele><time>2026-04-24T13:16:53.001Z</time></trkpt><trkpt lat="44.33313182422868" lon="8.431802601893818"><ele>370.0</ele><time>2026-04-24T13:16:54.001Z</time></trkpt><trkpt lat="44.333178213847155" lon="8.431713906635869"><ele>371.0</ele><time>2026-04-24T13:16:55.001Z</time></trkpt><trkpt lat="44.333227518251526" lon="8.431630960772418"><ele>372.0</ele><time>2026-04-24T13:16:56.001Z</time></trkpt><trkpt lat="44.33327778271273" lon="8.431550579558811"><ele>372.00000000000006</ele><time>2026-04-24T13:16:57.001Z</time></trkpt><trkpt lat="44.3333221906809" lon="8.431464245883113"><ele>372.0</ele><time>2026-04-24T13:16:58.001Z</time></trkpt><trkpt lat="44.33335157450661" lon="8.43136933966313"><ele>372.0</ele><time>2026-04-24T13:16:59.001Z</time></trkpt><trkpt lat="44.33337521279306" lon="8.431262617092655"><ele>372.0</ele><time>2026-04-24T13:17:00.001Z</time></trkpt><trkpt lat="44.33338906701359" lon="8.431163397625147"><ele>372.0</ele><time>2026-04-24T13:17:01.001Z</time></trkpt><trkpt lat="44.33337930303263" lon="8.431059260241147"><ele>372.00000000000006</ele><time>2026-04-24T13:17:02.001Z</time></trkpt><trkpt lat="44.3333689140225" lon="8.43096021740787"><ele>372.0</ele><time>2026-04-24T13:17:03.001Z</time></trkpt><trkpt lat="44.33337557238736" lon="8.430862499126052"><ele>372.5</ele><time>2026-04-24T13:17:04.001Z</time></trkpt><trkpt lat="44.333385255538786" lon="8.430767968656355"><ele>373.0</ele><time>2026-04-24T13:17:05.001Z</time></trkpt><trkpt lat="44.333400965375645" lon="8.430667970847555"><ele>373.5</ele><time>2026-04-24T13:17:06.001Z</time></trkpt><trkpt lat="44.333420780387996" lon="8.430570917770737"><ele>374.0</ele><time>2026-04-24T13:17:07.001Z</time></trkpt><trkpt lat="44.33345240328512" lon="8.430476585049782"><ele>374.5</ele><time>2026-04-24T13:17:08.001Z</time></trkpt><trkpt lat="44.33348823685131" lon="8.43037410722031"><ele>375.0</ele><time>2026-04-24T13:17:09.001Z</time></trkpt><trkpt lat="44.333524937714834" lon="8.430269641393739"><ele>375.0</ele><time>2026-04-24T13:17:10.001Z</time></trkpt><trkpt lat="44.3335607660247" lon="8.430163193748095"><ele>375.0</ele><time>2026-04-24T13:17:11.001Z</time></trkpt><trkpt lat="44.33359779205802" lon="8.430058657402233"><ele>375.0</ele><time>2026-04-24T13:17:12.001Z</time></trkpt><trkpt lat="44.3336196528623" lon="8.429966059081456"><ele>375.0</ele><time>2026-04-24T13:17:13Z</time></trkpt><trkpt lat="44.333625812446435" lon="8.429877197367926"><ele>375.0</ele><time>2026-04-24T13:17:14Z</time></trkpt><trkpt lat="44.33357340795858" lon="8.429725976163192"><ele>375.0</ele><time>2026-04-24T13:17:16Z</time></trkpt><trkpt lat="44.333517803110716" lon="8.42964861231395"><ele>375.8333333333333</ele><time>2026-04-24T13:17:17Z</time></trkpt><trkpt lat="44.33346943356987" lon="8.429572692026632"><ele>376.6666666666667</ele><time>2026-04-24T13:17:18Z</time></trkpt><trkpt lat="44.33342939129527" lon="8.42947855529456"><ele>377.5</ele><time>2026-04-24T13:17:19Z</time></trkpt><trkpt lat="44.33338481870084" lon="8.429395354976867"><ele>378.33333333333337</ele><time>2026-04-24T13:17:20Z</time></trkpt><trkpt lat="44.333342377310444" lon="8.429296874355403"><ele>379.1666666666667</ele><time>2026-04-24T13:17:21Z</time></trkpt><trkpt lat="44.33325750478652" lon="8.42921132049996"><ele>380.0</ele><time>2026-04-24T13:17:23Z</time></trkpt><trkpt lat="44.33319538451971" lon="8.429171117647876"><ele>380.0</ele><time>2026-04-24T13:17:24Z</time></trkpt><trkpt lat="44.33312244491519" lon="8.429077482017004"><ele>380.0</ele><time>2026-04-24T13:17:26Z</time></trkpt><trkpt lat="44.3331112938627" lon="8.428954203857506"><ele>380.0</ele><time>2026-04-24T13:17:28Z</time></trkpt><trkpt lat="44.33311842381243" lon="8.428863275328384"><ele>380.0</ele><time>2026-04-24T13:17:29Z</time></trkpt><trkpt lat="44.33310773826615" lon="8.428771912682"><ele>380.0</ele><time>2026-04-24T13:17:30Z</time></trkpt><trkpt lat="44.333073215991305" lon="8.428663494774034"><ele>380.0</ele><time>2026-04-24T13:17:31Z</time></trkpt><trkpt lat="44.33302721510131" lon="8.428548945465405"><ele>381.2</ele><time>2026-04-24T13:17:32Z</time></trkpt><trkpt lat="44.33296417803931" lon="8.428414955706279"><ele>382.4</ele><time>2026-04-24T13:17:33Z</time></trkpt><trkpt lat="44.332903591945" lon="8.428298535335932"><ele>383.6</ele><time>2026-04-24T13:17:34Z</time></trkpt><trkpt lat="44.332841419319955" lon="8.428216799297417"><ele>384.8</ele><time>2026-04-24T13:17:35Z</time></trkpt><trkpt lat="44.332778636355464" lon="8.42815828391668"><ele>386.0</ele><time>2026-04-24T13:17:36Z</time></trkpt><trkpt lat="44.33268456458885" lon="8.428111921614919"><ele>386.0</ele><time>2026-04-24T13:17:38Z</time></trkpt><trkpt lat="44.33259975962776" lon="8.428107693681664"><ele>386.0</ele><time>2026-04-24T13:17:40Z</time></trkpt><trkpt lat="44.332526690342206" lon="8.428083821690224"><ele>386.0</ele><time>2026-04-24T13:17:41Z</time></trkpt><trkpt lat="44.33244418716741" lon="8.428049610652895"><ele>386.0</ele><time>2026-04-24T13:17:42Z</time></trkpt><trkpt lat="44.3323462700938" lon="8.428006265628909"><ele>386.0</ele><time>2026-04-24T13:17:43Z</time></trkpt><trkpt lat="44.3322258489414" lon="8.427958037204524"><ele>384.4</ele><time>2026-04-24T13:17:44Z</time></trkpt><trkpt lat="44.3321255857577" lon="8.427926646415177"><ele>382.8</ele><time>2026-04-24T13:17:45Z</time></trkpt><trkpt lat="44.33201506486263" lon="8.427950627197191"><ele>381.2</ele><time>2026-04-24T13:17:47Z</time></trkpt><trkpt lat="44.33189374124012" lon="8.4279944140791"><ele>379.59999999999997</ele><time>2026-04-24T13:17:49Z</time></trkpt><trkpt lat="44.331821345127054" lon="8.427988904034267"><ele>378.0</ele><time>2026-04-24T13:17:50Z</time></trkpt><trkpt lat="44.3317351115738" lon="8.427974165477082"><ele>381.59999999999997</ele><time>2026-04-24T13:17:51Z</time></trkpt><trkpt lat="44.3316492641578" lon="8.427950010467054"><ele>385.2</ele><time>2026-04-24T13:17:52Z</time></trkpt><trkpt lat="44.33158192157138" lon="8.427914405318823"><ele>388.8</ele><time>2026-04-24T13:17:53Z</time></trkpt><trkpt lat="44.33150193609723" lon="8.427824917225378"><ele>392.4</ele><time>2026-04-24T13:17:55Z</time></trkpt><trkpt lat="44.33149999646497" lon="8.427655157151476"><ele>396.0</ele><time>2026-04-24T13:17:57Z</time></trkpt><trkpt lat="44.331570680968895" lon="8.427498644791662"><ele>396.0</ele><time>2026-04-24T13:17:59Z</time></trkpt><trkpt lat="44.33162835708633" lon="8.427405876391225"><ele>396.0</ele><time>2026-04-24T13:18:00Z</time></trkpt><trkpt lat="44.33169059754213" lon="8.427301557175756"><ele>396.0</ele><time>2026-04-24T13:18:01Z</time></trkpt><trkpt lat="44.33174897106525" lon="8.427182704384272"><ele>396.0</ele><time>2026-04-24T13:18:02Z</time></trkpt><trkpt lat="44.33179207545082" lon="8.427073674572348"><ele>396.0</ele><time>2026-04-24T13:18:03Z</time></trkpt><trkpt lat="44.33181471816902" lon="8.42697216559407"><ele>395.0</ele><time>2026-04-24T13:18:04Z</time></trkpt><trkpt lat="44.3318224364965" lon="8.426845243676036"><ele>394.0</ele><time>2026-04-24T13:18:05Z</time></trkpt><trkpt lat="44.331839212711785" lon="8.426732559998037"><ele>393.0</ele><time>2026-04-24T13:18:06Z</time></trkpt><trkpt lat="44.33187653496635" lon="8.426642715160272"><ele>392.0</ele><time>2026-04-24T13:18:07Z</time></trkpt><trkpt lat="44.33192166850265" lon="8.426552296444111"><ele>391.0</ele><time>2026-04-24T13:18:08Z</time></trkpt><trkpt lat="44.33197617924347" lon="8.42645162957464"><ele>390.0</ele><time>2026-04-24T13:18:09Z</time></trkpt><trkpt lat="44.332027068169715" lon="8.426356131344512"><ele>392.0</ele><time>2026-04-24T13:18:10Z</time></trkpt><trkpt lat="44.332069705390886" lon="8.426270245618701"><ele>394.0</ele><time>2026-04-24T13:18:11Z</time></trkpt><trkpt lat="44.33209430571481" lon="8.426184401092872"><ele>396.0</ele><time>2026-04-24T13:18:12Z</time></trkpt><trkpt lat="44.33212047367938" lon="8.426080914726253"><ele>398.0</ele><time>2026-04-24T13:18:13Z</time></trkpt><trkpt lat="44.33213905041488" lon="8.425977050142055"><ele>400.0</ele><time>2026-04-24T13:18:14Z</time></trkpt><trkpt lat="44.33216348360402" lon="8.42588933232521"><ele>402.0</ele><time>2026-04-24T13:18:15Z</time></trkpt><trkpt lat="44.33220924967107" lon="8.425808556450392"><ele>404.0</ele><time>2026-04-24T13:18:16Z</time></trkpt><trkpt lat="44.3322747369312" lon="8.425743038961114"><ele>404.0</ele><time>2026-04-24T13:18:17Z</time></trkpt><trkpt lat="44.33236452488752" lon="8.425662201248958"><ele>404.0</ele><time>2026-04-24T13:18:18Z</time></trkpt><trkpt lat="44.332474392777634" lon="8.4255740637665"><ele>404.0</ele><time>2026-04-24T13:18:19Z</time></trkpt><trkpt lat="44.33258362015846" lon="8.425483570543358"><ele>404.0</ele><time>2026-04-24T13:18:20Z</time></trkpt><trkpt lat="44.33265201066937" lon="8.425422429740292"><ele>404.0</ele><time>2026-04-24T13:18:21Z</time></trkpt><trkpt lat="44.33273995693453" lon="8.425314385699691"><ele>400.3333333333333</ele><time>2026-04-24T13:18:23Z</time></trkpt><trkpt lat="44.33281249467316" lon="8.425172226233094"><ele>396.66666666666663</ele><time>2026-04-24T13:18:25Z</time></trkpt><trkpt lat="44.33284521841064" lon="8.425092894753856"><ele>393.0</ele><time>2026-04-24T13:18:26.001Z</time></trkpt><trkpt lat="44.332855384580405" lon="8.424992434310216"><ele>389.3333333333333</ele><time>2026-04-24T13:18:27.001Z</time></trkpt><trkpt lat="44.33288594692235" lon="8.424899363741567"><ele>385.66666666666663</ele><time>2026-04-24T13:18:28.001Z</time></trkpt><trkpt lat="44.33289882185005" lon="8.424807052211872"><ele>382.0</ele><time>2026-04-24T13:18:29.001Z</time></trkpt><trkpt lat="44.3328875632672" lon="8.424635883880995"><ele>378.8</ele><time>2026-04-24T13:18:31.001Z</time></trkpt><trkpt lat="44.332867575247256" lon="8.424452105561336"><ele>375.6</ele><time>2026-04-24T13:18:33.001Z</time></trkpt><trkpt lat="44.33285460807842" lon="8.424344957903674"><ele>372.40000000000003</ele><time>2026-04-24T13:18:34.001Z</time></trkpt><trkpt lat="44.33284839346275" lon="8.424245016243876"><ele>369.20000000000005</ele><time>2026-04-24T13:18:35.001Z</time></trkpt><trkpt lat="44.332842556876514" lon="8.424082220173737"><ele>366.0</ele><time>2026-04-24T13:18:37.001Z</time></trkpt><trkpt lat="44.33285000953537" lon="8.423895963927356"><ele>367.0</ele><time>2026-04-24T13:18:39.001Z</time></trkpt><trkpt lat="44.33284950240734" lon="8.423786770830391"><ele>368.0</ele><time>2026-04-24T13:18:40.001Z</time></trkpt><trkpt lat="44.33284765915498" lon="8.423679235290571"><ele>369.0</ele><time>2026-04-24T13:18:41.001Z</time></trkpt><trkpt lat="44.33284482063154" lon="8.423580521452008"><ele>370.0</ele><time>2026-04-24T13:18:42.001Z</time></trkpt><trkpt lat="44.332839559474095" lon="8.423487712362556"><ele>371.0</ele><time>2026-04-24T13:18:43.001Z</time></trkpt><trkpt lat="44.332773232375295" lon="8.423333178635469"><ele>372.0</ele><time>2026-04-24T13:18:45.001Z</time></trkpt><trkpt lat="44.33271044319559" lon="8.423261242326468"><ele>372.0</ele><time>2026-04-24T13:18:46.001Z</time></trkpt><trkpt lat="44.33264048535248" lon="8.423202413849355"><ele>372.0</ele><time>2026-04-24T13:18:47.001Z</time></trkpt><trkpt lat="44.332566562432426" lon="8.42315000790171"><ele>372.0</ele><time>2026-04-24T13:18:48.001Z</time></trkpt><trkpt lat="44.332504073974555" lon="8.423113628189135"><ele>372.0</ele><time>2026-04-24T13:18:49.001Z</time></trkpt><trkpt lat="44.332402983837596" lon="8.4230464247241"><ele>372.0</ele><time>2026-04-24T13:18:51.001Z</time></trkpt><trkpt lat="44.33229435088905" lon="8.422963591438045"><ele>369.8</ele><time>2026-04-24T13:18:53.001Z</time></trkpt><trkpt lat="44.33222034046121" lon="8.422885258318392"><ele>367.6</ele><time>2026-04-24T13:18:54.001Z</time></trkpt><trkpt lat="44.33214502174027" lon="8.42278188598332"><ele>365.40000000000003</ele><time>2026-04-24T13:18:55Z</time></trkpt><trkpt lat="44.33207083272579" lon="8.4226839357805"><ele>363.20000000000005</ele><time>2026-04-24T13:18:56Z</time></trkpt><trkpt lat="44.331990704740385" lon="8.422618893063708"><ele>361.0</ele><time>2026-04-24T13:18:57Z</time></trkpt><trkpt lat="44.33192145179081" lon="8.422559736708147"><ele>361.0</ele><time>2026-04-24T13:18:58Z</time></trkpt><trkpt lat="44.33186291360158" lon="8.422512052681594"><ele>361.0</ele><time>2026-04-24T13:18:59Z</time></trkpt><trkpt lat="44.33177752588985" lon="8.422497869056373"><ele>361.0</ele><time>2026-04-24T13:19:01Z</time></trkpt><trkpt lat="44.33168333237587" lon="8.422527677553537"><ele>361.0</ele><time>2026-04-24T13:19:03Z</time></trkpt><trkpt lat="44.33158686480782" lon="8.422559830773526"><ele>361.0</ele><time>2026-04-24T13:19:05Z</time></trkpt><trkpt lat="44.33151798724339" lon="8.422494299082407"><ele>361.0</ele><time>2026-04-24T13:19:07Z</time></trkpt><trkpt lat="44.33154798285707" lon="8.42237881858199"><ele>361.0</ele><time>2026-04-24T13:19:09Z</time></trkpt><trkpt lat="44.33164673694243" lon="8.42233513020581"><ele>361.0</ele><time>2026-04-24T13:19:11Z</time></trkpt><trkpt lat="44.33175331264402" lon="8.422233479955539"><ele>361.0</ele><time>2026-04-24T13:19:13Z</time></trkpt><trkpt lat="44.331804732787475" lon="8.422138824190322"><ele>361.0</ele><time>2026-04-24T13:19:14Z</time></trkpt><trkpt lat="44.33185559492202" lon="8.422039027180224"><ele>361.0</ele><time>2026-04-24T13:19:15Z</time></trkpt><trkpt lat="44.33190498181926" lon="8.42194413744817"><ele>358.16666666666663</ele><time>2026-04-24T13:19:16Z</time></trkpt><trkpt lat="44.33194781632006" lon="8.421839898776216"><ele>355.3333333333333</ele><time>2026-04-24T13:19:17Z</time></trkpt><trkpt lat="44.33199493805721" lon="8.4217326987954"><ele>352.5</ele><time>2026-04-24T13:19:18Z</time></trkpt><trkpt lat="44.33201772079577" lon="8.421615204705581"><ele>349.6666666666667</ele><time>2026-04-24T13:19:19Z</time></trkpt><trkpt lat="44.33203797444942" lon="8.421496476392816"><ele>346.83333333333337</ele><time>2026-04-24T13:19:20Z</time></trkpt><trkpt lat="44.33205601031014" lon="8.421383875087859"><ele>344.0</ele><time>2026-04-24T13:19:21Z</time></trkpt><trkpt lat="44.33208555205943" lon="8.421280318393528"><ele>341.79999999999995</ele><time>2026-04-24T13:19:22Z</time></trkpt><trkpt lat="44.3321184706424" lon="8.421170991099352"><ele>339.59999999999997</ele><time>2026-04-24T13:19:23Z</time></trkpt><trkpt lat="44.33212657880301" lon="8.421019188558951"><ele>337.4</ele><time>2026-04-24T13:19:25Z</time></trkpt><trkpt lat="44.33211360038402" lon="8.420908972150508"><ele>335.2</ele><time>2026-04-24T13:19:26Z</time></trkpt><trkpt lat="44.332113236898316" lon="8.420743295417592"><ele>333.0</ele><time>2026-04-24T13:19:27Z</time></trkpt><trkpt lat="44.33210918852304" lon="8.42056093619311"><ele>334.4</ele><time>2026-04-24T13:19:28Z</time></trkpt><trkpt lat="44.33211377513781" lon="8.420380953965985"><ele>335.79999999999995</ele><time>2026-04-24T13:19:29Z</time></trkpt><trkpt lat="44.33212663440865" lon="8.42027146915612"><ele>337.2</ele><time>2026-04-24T13:19:30Z</time></trkpt><trkpt lat="44.33215590318059" lon="8.420117702388632"><ele>338.6</ele><time>2026-04-24T13:19:32Z</time></trkpt><trkpt lat="44.33219588838995" lon="8.420033922059906"><ele>340.0</ele><time>2026-04-24T13:19:33Z</time></trkpt><trkpt lat="44.33224573396622" lon="8.419949442156838"><ele>340.3333333333333</ele><time>2026-04-24T13:19:34Z</time></trkpt><trkpt lat="44.33231179428155" lon="8.419860686907205"><ele>340.66666666666663</ele><time>2026-04-24T13:19:35Z</time></trkpt><trkpt lat="44.33238408121972" lon="8.419776412708915"><ele>341.0</ele><time>2026-04-24T13:19:36Z</time></trkpt><trkpt lat="44.3324280450215" lon="8.419703211763665"><ele>341.3333333333333</ele><time>2026-04-24T13:19:37Z</time></trkpt><trkpt lat="44.332506624658635" lon="8.419581591614355"><ele>341.6666666666667</ele><time>2026-04-24T13:19:39Z</time></trkpt><trkpt lat="44.33256450463648" lon="8.419519854443594"><ele>342.0</ele><time>2026-04-24T13:19:40Z</time></trkpt><trkpt lat="44.332627876884224" lon="8.419468764803856"><ele>342.1428571428571</ele><time>2026-04-24T13:19:41Z</time></trkpt><trkpt lat="44.33268218788595" lon="8.41940546301869"><ele>342.2857142857143</ele><time>2026-04-24T13:19:42Z</time></trkpt><trkpt lat="44.33272540041041" lon="8.419331183038144"><ele>342.42857142857144</ele><time>2026-04-24T13:19:43Z</time></trkpt><trkpt lat="44.332763698336606" lon="8.4192322014791"><ele>342.57142857142856</ele><time>2026-04-24T13:19:44Z</time></trkpt><trkpt lat="44.332789842054744" lon="8.419141845068257"><ele>342.7142857142857</ele><time>2026-04-24T13:19:45Z</time></trkpt><trkpt lat="44.33281076305994" lon="8.41905315981931"><ele>342.85714285714283</ele><time>2026-04-24T13:19:46Z</time></trkpt><trkpt lat="44.332823417387125" lon="8.418957298862344"><ele>343.0</ele><time>2026-04-24T13:19:47Z</time></trkpt><trkpt lat="44.3328173405201" lon="8.418849709587368"><ele>343.66666666666663</ele><time>2026-04-24T13:19:48Z</time></trkpt><trkpt lat="44.332807719332756" lon="8.418728616780884"><ele>344.3333333333333</ele><time>2026-04-24T13:19:49Z</time></trkpt><trkpt lat="44.33276817638001" lon="8.418615960701867"><ele>345.0</ele><time>2026-04-24T13:19:50Z</time></trkpt><trkpt lat="44.3327212391139" lon="8.418508691855182"><ele>345.6666666666667</ele><time>2026-04-24T13:19:51Z</time></trkpt><trkpt lat="44.33265900496922" lon="8.418401539020602"><ele>346.33333333333337</ele><time>2026-04-24T13:19:52Z</time></trkpt><trkpt lat="44.33259909040301" lon="8.41832501855934"><ele>347.0</ele><time>2026-04-24T13:19:53Z</time></trkpt><trkpt lat="44.3325288310693" lon="8.418260657753262"><ele>347.0</ele><time>2026-04-24T13:19:54Z</time></trkpt><trkpt lat="44.3324662088874" lon="8.418209463552428"><ele>347.0</ele><time>2026-04-24T13:19:55Z</time></trkpt><trkpt lat="44.33244195565131" lon="8.418068919660122"><ele>347.0</ele><time>2026-04-24T13:19:57Z</time></trkpt><trkpt lat="44.332522245575475" lon="8.417995973520577"><ele>347.0</ele><time>2026-04-24T13:19:59Z</time></trkpt><trkpt lat="44.332635711726745" lon="8.418048263515823"><ele>347.0</ele><time>2026-04-24T13:20:01Z</time></trkpt><trkpt lat="44.33271366922345" lon="8.418085929671134"><ele>347.0</ele><time>2026-04-24T13:20:02Z</time></trkpt><trkpt lat="44.332809639395336" lon="8.418093550283329"><ele>347.0</ele><time>2026-04-24T13:20:03Z</time></trkpt><trkpt lat="44.332917167213154" lon="8.418085249537155"><ele>347.0</ele><time>2026-04-24T13:20:04Z</time></trkpt><trkpt lat="44.33299082574245" lon="8.418085675290268"><ele>347.0</ele><time>2026-04-24T13:20:05Z</time></trkpt><trkpt lat="44.33307843392484" lon="8.418052692536964"><ele>347.0</ele><time>2026-04-24T13:20:07Z</time></trkpt><trkpt lat="44.33315389276173" lon="8.417935510029482"><ele>348.6</ele><time>2026-04-24T13:20:09Z</time></trkpt><trkpt lat="44.333171861417526" lon="8.417753258718056"><ele>350.20000000000005</ele><time>2026-04-24T13:20:11Z</time></trkpt><trkpt lat="44.33318748589316" lon="8.417647712599232"><ele>351.8</ele><time>2026-04-24T13:20:12Z</time></trkpt><trkpt lat="44.33327088587624" lon="8.417502409504536"><ele>353.4</ele><time>2026-04-24T13:20:14Z</time></trkpt><trkpt lat="44.33333967421524" lon="8.417423687640088"><ele>355.0</ele><time>2026-04-24T13:20:15Z</time></trkpt><trkpt lat="44.33342876654821" lon="8.417323841500828"><ele>355.0</ele><time>2026-04-24T13:20:16Z</time></trkpt><trkpt lat="44.33351142655834" lon="8.417217949967043"><ele>355.0</ele><time>2026-04-24T13:20:17Z</time></trkpt><trkpt lat="44.33357580834713" lon="8.417113675445886"><ele>355.0</ele><time>2026-04-24T13:20:18Z</time></trkpt><trkpt lat="44.33362348841669" lon="8.417031877083554"><ele>355.0</ele><time>2026-04-24T13:20:19Z</time></trkpt><trkpt lat="44.33364495310485" lon="8.41694290985551"><ele>355.0</ele><time>2026-04-24T13:20:20Z</time></trkpt><trkpt lat="44.33366353749297" lon="8.41683511192487"><ele>355.0</ele><time>2026-04-24T13:20:21Z</time></trkpt><trkpt lat="44.33369785584306" lon="8.41673874597103"><ele>354.66666666666663</ele><time>2026-04-24T13:20:22Z</time></trkpt><trkpt lat="44.33374787646353" lon="8.416670671322949"><ele>354.3333333333333</ele><time>2026-04-24T13:20:23Z</time></trkpt><trkpt lat="44.33380073316663" lon="8.416612464335282"><ele>354.0</ele><time>2026-04-24T13:20:24Z</time></trkpt><trkpt lat="44.333859165147835" lon="8.416566414553365"><ele>353.6666666666667</ele><time>2026-04-24T13:20:25Z</time></trkpt><trkpt lat="44.33393553551827" lon="8.416522082144997"><ele>353.33333333333337</ele><time>2026-04-24T13:20:26Z</time></trkpt><trkpt lat="44.334020126097016" lon="8.41647736459406"><ele>353.0</ele><time>2026-04-24T13:20:27Z</time></trkpt><trkpt lat="44.33410644103742" lon="8.416437294911816"><ele>353.0</ele><time>2026-04-24T13:20:28Z</time></trkpt><trkpt lat="44.33420800743918" lon="8.41636696422911"><ele>353.0</ele><time>2026-04-24T13:20:29Z</time></trkpt><trkpt lat="44.33433205955151" lon="8.41629006526537"><ele>353.0</ele><time>2026-04-24T13:20:30Z</time></trkpt><trkpt lat="44.334438975812" lon="8.416215148462795"><ele>353.0</ele><time>2026-04-24T13:20:31Z</time></trkpt><trkpt lat="44.3345153507273" lon="8.416160347424949"><ele>351.0</ele><time>2026-04-24T13:20:32Z</time></trkpt><trkpt lat="44.334587159766336" lon="8.416109365074988"><ele>349.0</ele><time>2026-04-24T13:20:33Z</time></trkpt><trkpt lat="44.3346682970976" lon="8.416044617171972"><ele>347.0</ele><time>2026-04-24T13:20:34Z</time></trkpt><trkpt lat="44.334748962079786" lon="8.415984103358758"><ele>345.0</ele><time>2026-04-24T13:20:35Z</time></trkpt><trkpt lat="44.33484565430265" lon="8.415904064970608"><ele>343.0</ele><time>2026-04-24T13:20:36Z</time></trkpt><trkpt lat="44.334960833788294" lon="8.415796095513102"><ele>343.0</ele><time>2026-04-24T13:20:37Z</time></trkpt><trkpt lat="44.33507333659273" lon="8.415695158606217"><ele>343.0</ele><time>2026-04-24T13:20:38Z</time></trkpt><trkpt lat="44.33516105788438" lon="8.415618921391067"><ele>343.0</ele><time>2026-04-24T13:20:39Z</time></trkpt><trkpt lat="44.33525252222408" lon="8.415536588547825"><ele>343.0</ele><time>2026-04-24T13:20:40Z</time></trkpt><trkpt lat="44.33534775050783" lon="8.41546898362585"><ele>345.59999999999997</ele><time>2026-04-24T13:20:41Z</time></trkpt><trkpt lat="44.335440768967004" lon="8.415392615699483"><ele>348.2</ele><time>2026-04-24T13:20:42Z</time></trkpt><trkpt lat="44.3355337432517" lon="8.415297258009398"><ele>350.8</ele><time>2026-04-24T13:20:43Z</time></trkpt><trkpt lat="44.33562757313522" lon="8.415204984792627"><ele>353.4</ele><time>2026-04-24T13:20:44Z</time></trkpt><trkpt lat="44.335715155788506" lon="8.415112504008961"><ele>356.0</ele><time>2026-04-24T13:20:45Z</time></trkpt><trkpt lat="44.33579400507131" lon="8.415039969522532"><ele>356.0</ele><time>2026-04-24T13:20:46Z</time></trkpt><trkpt lat="44.3358647653837" lon="8.414956766290363"><ele>356.0</ele><time>2026-04-24T13:20:47Z</time></trkpt><trkpt lat="44.33592858727214" lon="8.414874751456278"><ele>356.0</ele><time>2026-04-24T13:20:48Z</time></trkpt><trkpt lat="44.335973969177" lon="8.414809888684434"><ele>356.0</ele><time>2026-04-24T13:20:49Z</time></trkpt><trkpt lat="44.3360191071532" lon="8.414720703261521"><ele>356.0</ele><time>2026-04-24T13:20:50Z</time></trkpt><trkpt lat="44.33604584482394" lon="8.414607259371403"><ele>356.0</ele><time>2026-04-24T13:20:51Z</time></trkpt><trkpt lat="44.33607332046183" lon="8.414466653570166"><ele>351.5</ele><time>2026-04-24T13:20:52Z</time></trkpt><trkpt lat="44.33610208263332" lon="8.41429485644069"><ele>347.0</ele><time>2026-04-24T13:20:53Z</time></trkpt><trkpt lat="44.336128836799304" lon="8.414124332653927"><ele>342.5</ele><time>2026-04-24T13:20:54Z</time></trkpt><trkpt lat="44.33615921786651" lon="8.413982562440097"><ele>338.0</ele><time>2026-04-24T13:20:55Z</time></trkpt><trkpt lat="44.33619431536044" lon="8.413845464125682"><ele>338.0</ele><time>2026-04-24T13:20:56Z</time></trkpt><trkpt lat="44.336237793628484" lon="8.413703773937646"><ele>338.0</ele><time>2026-04-24T13:20:57Z</time></trkpt><trkpt lat="44.336282692735836" lon="8.413551766013985"><ele>338.0</ele><time>2026-04-24T13:20:58Z</time></trkpt><trkpt lat="44.336307633873076" lon="8.41341347841477"><ele>338.0</ele><time>2026-04-24T13:20:59Z</time></trkpt><trkpt lat="44.33631575603533" lon="8.413295875375049"><ele>338.0</ele><time>2026-04-24T13:21:00Z</time></trkpt><trkpt lat="44.33631894338821" lon="8.413168989667067"><ele>338.0</ele><time>2026-04-24T13:21:01Z</time></trkpt><trkpt lat="44.33632696454874" lon="8.413028185353962"><ele>338.0</ele><time>2026-04-24T13:21:02Z</time></trkpt><trkpt lat="44.336329527748866" lon="8.412915169650136"><ele>338.0</ele><time>2026-04-24T13:21:03Z</time></trkpt><trkpt lat="44.33633914202075" lon="8.412815307040594"><ele>338.0</ele><time>2026-04-24T13:21:04Z</time></trkpt><trkpt lat="44.33635212070708" lon="8.41271408446374"><ele>338.0</ele><time>2026-04-24T13:21:05Z</time></trkpt><trkpt lat="44.33636819807818" lon="8.412612925424325"><ele>338.0</ele><time>2026-04-24T13:21:06Z</time></trkpt><trkpt lat="44.33640557976159" lon="8.412508192225518"><ele>340.2</ele><time>2026-04-24T13:21:07Z</time></trkpt><trkpt lat="44.33645942791821" lon="8.412388880203244"><ele>342.4</ele><time>2026-04-24T13:21:08Z</time></trkpt><trkpt lat="44.33651449200943" lon="8.412283058653259"><ele>344.59999999999997</ele><time>2026-04-24T13:21:09Z</time></trkpt><trkpt lat="44.336567852053015" lon="8.412185463551886"><ele>346.79999999999995</ele><time>2026-04-24T13:21:10Z</time></trkpt><trkpt lat="44.33662261612749" lon="8.41209576881806"><ele>349.0</ele><time>2026-04-24T13:21:11Z</time></trkpt><trkpt lat="44.33667871835779" lon="8.412000180736607"><ele>350.3333333333333</ele><time>2026-04-24T13:21:12Z</time></trkpt><trkpt lat="44.336713815409915" lon="8.411902341190741"><ele>351.66666666666663</ele><time>2026-04-24T13:21:13Z</time></trkpt><trkpt lat="44.33674429593698" lon="8.41175475660198"><ele>353.0</ele><time>2026-04-24T13:21:15Z</time></trkpt><trkpt lat="44.336782403549975" lon="8.411682574394266"><ele>354.3333333333333</ele><time>2026-04-24T13:21:16Z</time></trkpt><trkpt lat="44.33683805871887" lon="8.411609480625753"><ele>355.6666666666667</ele><time>2026-04-24T13:21:17Z</time></trkpt><trkpt lat="44.33689089598578" lon="8.41153410372599"><ele>357.0</ele><time>2026-04-24T13:21:18Z</time></trkpt><trkpt lat="44.33693942664478" lon="8.411443747495229"><ele>357.0</ele><time>2026-04-24T13:21:19Z</time></trkpt><trkpt lat="44.336993915659015" lon="8.411361130760037"><ele>357.0</ele><time>2026-04-24T13:21:20Z</time></trkpt><trkpt lat="44.337036486795824" lon="8.411289840806893"><ele>357.0</ele><time>2026-04-24T13:21:21Z</time></trkpt><trkpt lat="44.33709309524207" lon="8.411161668535316"><ele>357.0</ele><time>2026-04-24T13:21:23Z</time></trkpt><trkpt lat="44.33714361242111" lon="8.41108475955182"><ele>357.0</ele><time>2026-04-24T13:21:24Z</time></trkpt><trkpt lat="44.33721730071492" lon="8.411003753336558"><ele>357.0</ele><time>2026-04-24T13:21:25Z</time></trkpt><trkpt lat="44.33731465185087" lon="8.410900168930564"><ele>357.6</ele><time>2026-04-24T13:21:26Z</time></trkpt><trkpt lat="44.33740619051578" lon="8.410778123701034"><ele>358.20000000000005</ele><time>2026-04-24T13:21:27Z</time></trkpt><trkpt lat="44.337458111326534" lon="8.410692682250254"><ele>358.8</ele><time>2026-04-24T13:21:28Z</time></trkpt><trkpt lat="44.33752889636394" lon="8.410578706172776"><ele>359.4</ele><time>2026-04-24T13:21:30Z</time></trkpt><trkpt lat="44.33764392355433" lon="8.410502945221285"><ele>360.0</ele><time>2026-04-24T13:21:32Z</time></trkpt><trkpt lat="44.337723373249155" lon="8.410473846702233"><ele>358.4</ele><time>2026-04-24T13:21:33Z</time></trkpt><trkpt lat="44.337787737474585" lon="8.410426869685223"><ele>356.8</ele><time>2026-04-24T13:21:34Z</time></trkpt><trkpt lat="44.33786498368888" lon="8.41031377297854"><ele>355.20000000000005</ele><time>2026-04-24T13:21:36Z</time></trkpt><trkpt lat="44.3379105674835" lon="8.410161072262294"><ele>353.6</ele><time>2026-04-24T13:21:38Z</time></trkpt><trkpt lat="44.337924598498" lon="8.410046326922323"><ele>352.0</ele><time>2026-04-24T13:21:39Z</time></trkpt><trkpt lat="44.337932941272186" lon="8.409928361871843"><ele>352.0</ele><time>2026-04-24T13:21:40Z</time></trkpt><trkpt lat="44.33793977690842" lon="8.409828343028769"><ele>352.0</ele><time>2026-04-24T13:21:41Z</time></trkpt><trkpt lat="44.33795719464244" lon="8.409643425642175"><ele>352.0</ele><time>2026-04-24T13:21:43Z</time></trkpt><trkpt lat="44.337960512198705" lon="8.409529481197687"><ele>352.0</ele><time>2026-04-24T13:21:44Z</time></trkpt><trkpt lat="44.3379494400408" lon="8.4094216994478"><ele>352.0</ele><time>2026-04-24T13:21:45Z</time></trkpt><trkpt lat="44.33794923491393" lon="8.409327557844083"><ele>352.0</ele><time>2026-04-24T13:21:48Z</time></trkpt><trkpt lat="44.33794022217346" lon="8.409216684095114"><ele>352.20000000000005</ele><time>2026-04-24T13:21:50Z</time></trkpt><trkpt lat="44.337929402783224" lon="8.409127060770063"><ele>352.4</ele><time>2026-04-24T13:21:51Z</time></trkpt><trkpt lat="44.337916150706086" lon="8.408951131160045"><ele>352.6</ele><time>2026-04-24T13:21:53Z</time></trkpt><trkpt lat="44.33790480100468" lon="8.408764706577852"><ele>352.79999999999995</ele><time>2026-04-24T13:21:55Z</time></trkpt><trkpt lat="44.33789929555418" lon="8.40867099528097"><ele>353.0</ele><time>2026-04-24T13:21:56Z</time></trkpt><trkpt lat="44.33789383396994" lon="8.408581248784108"><ele>354.59999999999997</ele><time>2026-04-24T13:21:57Z</time></trkpt><trkpt lat="44.337887606347586" lon="8.408460536867837"><ele>356.2</ele><time>2026-04-24T13:21:59Z</time></trkpt><trkpt lat="44.33784281621457" lon="8.40836291498492"><ele>357.8</ele><time>2026-04-24T13:22:03Z</time></trkpt><trkpt lat="44.33781231771593" lon="8.408283796720859"><ele>359.4</ele><time>2026-04-24T13:22:04Z</time></trkpt><trkpt lat="44.33777925788589" lon="8.408134651346645"><ele>361.0</ele><time>2026-04-24T13:22:06Z</time></trkpt><trkpt lat="44.33779745251161" lon="8.407966908777802"><ele>361.20000000000005</ele><time>2026-04-24T13:22:08Z</time></trkpt><trkpt lat="44.337826867335345" lon="8.407866822853338"><ele>361.40000000000003</ele><time>2026-04-24T13:22:09Z</time></trkpt><trkpt lat="44.33785899016699" lon="8.407751310190555"><ele>361.6</ele><time>2026-04-24T13:22:10Z</time></trkpt><trkpt lat="44.337884050765666" lon="8.40760333309373"><ele>361.8</ele><time>2026-04-24T13:22:11Z</time></trkpt><trkpt lat="44.337902106745304" lon="8.407446340408471"><ele>362.0</ele><time>2026-04-24T13:22:12Z</time></trkpt><trkpt lat="44.33791353236378" lon="8.407314902958904"><ele>362.0</ele><time>2026-04-24T13:22:13Z</time></trkpt><trkpt lat="44.33792972151704" lon="8.407183784444301"><ele>362.0</ele><time>2026-04-24T13:22:14Z</time></trkpt><trkpt lat="44.337949039741865" lon="8.407040377895747"><ele>362.0</ele><time>2026-04-24T13:22:15Z</time></trkpt><trkpt lat="44.337970514604784" lon="8.406887561185023"><ele>362.0</ele><time>2026-04-24T13:22:16Z</time></trkpt><trkpt lat="44.33799206772448" lon="8.406719496614278"><ele>362.0</ele><time>2026-04-24T13:22:17Z</time></trkpt><trkpt lat="44.33800919677254" lon="8.406576873816661"><ele>361.8</ele><time>2026-04-24T13:22:18Z</time></trkpt><trkpt lat="44.3380268752998" lon="8.40646197688298"><ele>361.6</ele><time>2026-04-24T13:22:19Z</time></trkpt><trkpt lat="44.338047277151546" lon="8.40634910293306"><ele>361.40000000000003</ele><time>2026-04-24T13:22:20Z</time></trkpt><trkpt lat="44.33807668841441" lon="8.406216325252055"><ele>361.20000000000005</ele><time>2026-04-24T13:22:21Z</time></trkpt><trkpt lat="44.33811709157622" lon="8.406058859942062"><ele>361.0</ele><time>2026-04-24T13:22:22Z</time></trkpt><trkpt lat="44.33816663433939" lon="8.405913656081614"><ele>362.8333333333333</ele><time>2026-04-24T13:22:23Z</time></trkpt><trkpt lat="44.338204065693404" lon="8.405798409004397"><ele>364.66666666666663</ele><time>2026-04-24T13:22:24Z</time></trkpt><trkpt lat="44.3382218731608" lon="8.405684130326193"><ele>366.5</ele><time>2026-04-24T13:22:25Z</time></trkpt><trkpt lat="44.33823658210652" lon="8.40556344867978"><ele>368.3333333333333</ele><time>2026-04-24T13:22:26Z</time></trkpt><trkpt lat="44.3382460195488" lon="8.405448827213847"><ele>370.1666666666667</ele><time>2026-04-24T13:22:27Z</time></trkpt><trkpt lat="44.338244685307316" lon="8.405344912230035"><ele>372.0</ele><time>2026-04-24T13:22:28Z</time></trkpt><trkpt lat="44.338236983815754" lon="8.405255758677782"><ele>373.8</ele><time>2026-04-24T13:22:29Z</time></trkpt><trkpt lat="44.338228552178364" lon="8.405147421284752"><ele>375.6</ele><time>2026-04-24T13:22:30Z</time></trkpt><trkpt lat="44.33822142081782" lon="8.40502761915663"><ele>377.40000000000003</ele><time>2026-04-24T13:22:31Z</time></trkpt><trkpt lat="44.33823248807118" lon="8.404894031188457"><ele>379.20000000000005</ele><time>2026-04-24T13:22:32Z</time></trkpt><trkpt lat="44.33825884018898" lon="8.404763634711403"><ele>381.0</ele><time>2026-04-24T13:22:33Z</time></trkpt><trkpt lat="44.338289637754436" lon="8.404637451748473"><ele>381.20000000000005</ele><time>2026-04-24T13:22:34Z</time></trkpt><trkpt lat="44.33832414610779" lon="8.404522570523591"><ele>381.40000000000003</ele><time>2026-04-24T13:22:35Z</time></trkpt><trkpt lat="44.338342430484" lon="8.404408834172697"><ele>381.6</ele><time>2026-04-24T13:22:36Z</time></trkpt><trkpt lat="44.33835670746734" lon="8.40427884731802"><ele>381.8</ele><time>2026-04-24T13:22:37Z</time></trkpt><trkpt lat="44.33837463075214" lon="8.404123251775008"><ele>382.0</ele><time>2026-04-24T13:22:38Z</time></trkpt><trkpt lat="44.33839335212631" lon="8.403987451053448"><ele>382.0</ele><time>2026-04-24T13:22:39Z</time></trkpt><trkpt lat="44.3384223136549" lon="8.40387883200787"><ele>382.0</ele><time>2026-04-24T13:22:40Z</time></trkpt><trkpt lat="44.33846233871911" lon="8.403789062631342"><ele>382.0</ele><time>2026-04-24T13:22:41Z</time></trkpt><trkpt lat="44.33850512504382" lon="8.403705962724853"><ele>382.0</ele><time>2026-04-24T13:22:42Z</time></trkpt><trkpt lat="44.338534591276755" lon="8.403594260409072"><ele>382.0</ele><time>2026-04-24T13:22:44Z</time></trkpt><trkpt lat="44.338495252959575" lon="8.403471754498977"><ele>382.0</ele><time>2026-04-24T13:22:46Z</time></trkpt><trkpt lat="44.33845123485637" lon="8.403389261587716"><ele>382.16666666666663</ele><time>2026-04-24T13:22:47Z</time></trkpt><trkpt lat="44.338411970936065" lon="8.403291371831571"><ele>382.3333333333333</ele><time>2026-04-24T13:22:48Z</time></trkpt><trkpt lat="44.33839514877306" lon="8.403177003324608"><ele>382.5</ele><time>2026-04-24T13:22:49Z</time></trkpt><trkpt lat="44.338383992489405" lon="8.403042183346367"><ele>382.6666666666667</ele><time>2026-04-24T13:22:50Z</time></trkpt><trkpt lat="44.338382573540855" lon="8.402920627504383"><ele>382.83333333333337</ele><time>2026-04-24T13:22:51Z</time></trkpt><trkpt lat="44.33837597373308" lon="8.40283199736514"><ele>383.0</ele><time>2026-04-24T13:22:52Z</time></trkpt><trkpt lat="44.33835370786862" lon="8.402740920947164"><ele>383.0</ele><time>2026-04-24T13:22:53Z</time></trkpt><trkpt lat="44.338321483131416" lon="8.402637319455904"><ele>383.0</ele><time>2026-04-24T13:22:54Z</time></trkpt><trkpt lat="44.33828351245531" lon="8.402532527874795"><ele>383.0</ele><time>2026-04-24T13:22:55Z</time></trkpt><trkpt lat="44.33823770373245" lon="8.40242859114146"><ele>383.0</ele><time>2026-04-24T13:22:56Z</time></trkpt><trkpt lat="44.33819465746942" lon="8.402333301658377"><ele>383.0</ele><time>2026-04-24T13:22:57Z</time></trkpt><trkpt lat="44.338164929085856" lon="8.402252274510264"><ele>383.0</ele><time>2026-04-24T13:22:58Z</time></trkpt><trkpt lat="44.33813282011329" lon="8.402094414599933"><ele>383.0</ele><time>2026-04-24T13:23:00Z</time></trkpt><trkpt lat="44.338106363752026" lon="8.401969170474962"><ele>383.0</ele><time>2026-04-24T13:23:01Z</time></trkpt><trkpt lat="44.33807996216026" lon="8.401835744794601"><ele>383.0</ele><time>2026-04-24T13:23:02Z</time></trkpt><trkpt lat="44.33805120712612" lon="8.401714318257465"><ele>383.0</ele><time>2026-04-24T13:23:03Z</time></trkpt><trkpt lat="44.33802251362934" lon="8.401599894360869"><ele>383.0</ele><time>2026-04-24T13:23:04Z</time></trkpt><trkpt lat="44.33798206510877" lon="8.401484961822527"><ele>383.0</ele><time>2026-04-24T13:23:05Z</time></trkpt><trkpt lat="44.337929958187864" lon="8.401383019488286"><ele>383.0</ele><time>2026-04-24T13:23:06Z</time></trkpt><trkpt lat="44.337870147418315" lon="8.401300341593405"><ele>383.0</ele><time>2026-04-24T13:23:07Z</time></trkpt><trkpt lat="44.33779273368719" lon="8.401219327156696"><ele>383.0</ele><time>2026-04-24T13:23:08Z</time></trkpt><trkpt lat="44.33769203630759" lon="8.401134526506807"><ele>383.0</ele><time>2026-04-24T13:23:09Z</time></trkpt><trkpt lat="44.33759800482659" lon="8.401062662783414"><ele>383.0</ele><time>2026-04-24T13:23:10Z</time></trkpt><trkpt lat="44.337518440054474" lon="8.40100560440694"><ele>383.0</ele><time>2026-04-24T13:23:11Z</time></trkpt><trkpt lat="44.3374474517991" lon="8.400971978571798"><ele>383.0</ele><time>2026-04-24T13:23:12Z</time></trkpt><trkpt lat="44.337384723986276" lon="8.400934441565083"><ele>383.0</ele><time>2026-04-24T13:23:13Z</time></trkpt><trkpt lat="44.33732250230188" lon="8.400887776873637"><ele>383.0</ele><time>2026-04-24T13:23:14Z</time></trkpt><trkpt lat="44.337267674241815" lon="8.400822651920695"><ele>383.0</ele><time>2026-04-24T13:23:15Z</time></trkpt><trkpt lat="44.33721239499043" lon="8.400770694286244"><ele>383.0</ele><time>2026-04-24T13:23:16Z</time></trkpt><trkpt lat="44.33714775514635" lon="8.400741288989291"><ele>379.83333333333337</ele><time>2026-04-24T13:23:17Z</time></trkpt><trkpt lat="44.337076829061246" lon="8.400726631071395"><ele>376.6666666666667</ele><time>2026-04-24T13:23:18Z</time></trkpt><trkpt lat="44.33699627540429" lon="8.400717472025221"><ele>373.5</ele><time>2026-04-24T13:23:19Z</time></trkpt><trkpt lat="44.33692998310997" lon="8.400654117557602"><ele>370.3333333333333</ele><time>2026-04-24T13:23:22Z</time></trkpt><trkpt lat="44.336936011630726" lon="8.40050893419953"><ele>367.16666666666663</ele><time>2026-04-24T13:23:25Z</time></trkpt><trkpt lat="44.33695459676105" lon="8.400395476370216"><ele>364.0</ele><time>2026-04-24T13:23:26Z</time></trkpt><trkpt lat="44.33696799260799" lon="8.40026179555058"><ele>363.8333333333333</ele><time>2026-04-24T13:23:27Z</time></trkpt><trkpt lat="44.33697959096514" lon="8.40012166274377"><ele>363.66666666666663</ele><time>2026-04-24T13:23:28Z</time></trkpt><trkpt lat="44.33699763623688" lon="8.399991338601843"><ele>363.5</ele><time>2026-04-24T13:23:29Z</time></trkpt><trkpt lat="44.33702012684608" lon="8.399882601288821"><ele>363.3333333333333</ele><time>2026-04-24T13:23:30Z</time></trkpt><trkpt lat="44.33702986400499" lon="8.399776020177278"><ele>363.1666666666667</ele><time>2026-04-24T13:23:31Z</time></trkpt><trkpt lat="44.33703158171708" lon="8.399660347847536"><ele>363.0</ele><time>2026-04-24T13:23:32Z</time></trkpt><trkpt lat="44.337027450184536" lon="8.3995544044857"><ele>363.0</ele><time>2026-04-24T13:23:33Z</time></trkpt><trkpt lat="44.33701344063499" lon="8.399464137844491"><ele>363.0</ele><time>2026-04-24T13:23:34Z</time></trkpt><trkpt lat="44.33698797397429" lon="8.399345407316584"><ele>363.0</ele><time>2026-04-24T13:23:35Z</time></trkpt><trkpt lat="44.336953402340114" lon="8.399222057165844"><ele>363.0</ele><time>2026-04-24T13:23:36Z</time></trkpt><trkpt lat="44.336918128731725" lon="8.399112560536514"><ele>363.0</ele><time>2026-04-24T13:23:37Z</time></trkpt><trkpt lat="44.336896930975016" lon="8.399022180525659"><ele>363.0</ele><time>2026-04-24T13:23:38Z</time></trkpt><trkpt lat="44.336893359234445" lon="8.39892128641205"><ele>364.0</ele><time>2026-04-24T13:23:39Z</time></trkpt><trkpt lat="44.336903837985815" lon="8.398811272143835"><ele>365.0</ele><time>2026-04-24T13:23:40Z</time></trkpt><trkpt lat="44.33691731182508" lon="8.398681218138929"><ele>366.0</ele><time>2026-04-24T13:23:41Z</time></trkpt><trkpt lat="44.33691613665996" lon="8.398541992900006"><ele>367.0</ele><time>2026-04-24T13:23:42Z</time></trkpt><trkpt lat="44.33690460291785" lon="8.398406270605914"><ele>368.0</ele><time>2026-04-24T13:23:43Z</time></trkpt><trkpt lat="44.3368830889234" lon="8.398282516890943"><ele>368.0</ele><time>2026-04-24T13:23:44Z</time></trkpt><trkpt lat="44.33685336297859" lon="8.398175645207179"><ele>368.0</ele><time>2026-04-24T13:23:45Z</time></trkpt><trkpt lat="44.33681187223954" lon="8.39807584525383"><ele>368.0</ele><time>2026-04-24T13:23:45.999Z</time></trkpt><trkpt lat="44.336754490874824" lon="8.397977364606941"><ele>368.0</ele><time>2026-04-24T13:23:46.999Z</time></trkpt><trkpt lat="44.33667010865093" lon="8.397857218994753"><ele>368.0</ele><time>2026-04-24T13:23:47.999Z</time></trkpt><trkpt lat="44.33658039204824" lon="8.397738468330832"><ele>369.0</ele><time>2026-04-24T13:23:48.999Z</time></trkpt><trkpt lat="44.336506267670146" lon="8.397649193123074"><ele>370.0</ele><time>2026-04-24T13:23:49.999Z</time></trkpt><trkpt lat="44.336446096129485" lon="8.397596496705418"><ele>371.0</ele><time>2026-04-24T13:23:50.999Z</time></trkpt><trkpt lat="44.33634588056992" lon="8.397531974676758"><ele>372.0</ele><time>2026-04-24T13:23:52.999Z</time></trkpt><trkpt lat="44.33626767593956" lon="8.397421267472122"><ele>373.0</ele><time>2026-04-24T13:23:54.999Z</time></trkpt><trkpt lat="44.33622474982399" lon="8.397330514064318"><ele>371.66666666666663</ele><time>2026-04-24T13:23:55.999Z</time></trkpt><trkpt lat="44.33617816681116" lon="8.397237606701912"><ele>370.3333333333333</ele><time>2026-04-24T13:23:56.999Z</time></trkpt><trkpt lat="44.336115251289606" lon="8.397135309396814"><ele>369.0</ele><time>2026-04-24T13:23:57.999Z</time></trkpt><trkpt lat="44.33605275516917" lon="8.397046570350133"><ele>367.6666666666667</ele><time>2026-04-24T13:23:58.999Z</time></trkpt><trkpt lat="44.33598279077974" lon="8.396952822576257"><ele>366.33333333333337</ele><time>2026-04-24T13:23:59.999Z</time></trkpt><trkpt lat="44.335931763685615" lon="8.396874011569754"><ele>365.0</ele><time>2026-04-24T13:24:00.999Z</time></trkpt><trkpt lat="44.33589052502889" lon="8.396793173244477"><ele>365.0</ele><time>2026-04-24T13:24:01.999Z</time></trkpt><trkpt lat="44.33577169376077" lon="8.396706687781531"><ele>365.0</ele><time>2026-04-24T13:24:03.999Z</time></trkpt><trkpt lat="44.33564557829075" lon="8.396717361289102"><ele>365.0</ele><time>2026-04-24T13:24:05.999Z</time></trkpt><trkpt lat="44.335562152541605" lon="8.396736699218884"><ele>365.0</ele><time>2026-04-24T13:24:06.999Z</time></trkpt><trkpt lat="44.335481030240295" lon="8.396759392679838"><ele>365.0</ele><time>2026-04-24T13:24:07.999Z</time></trkpt><trkpt lat="44.33540947255307" lon="8.396765665589509"><ele>363.0</ele><time>2026-04-24T13:24:08.999Z</time></trkpt><trkpt lat="44.33533444548363" lon="8.396770572395367"><ele>361.0</ele><time>2026-04-24T13:24:09.999Z</time></trkpt><trkpt lat="44.335238790499524" lon="8.396786042371271"><ele>359.0</ele><time>2026-04-24T13:24:10.999Z</time></trkpt><trkpt lat="44.335151937506566" lon="8.396809736126556"><ele>357.0</ele><time>2026-04-24T13:24:11.999Z</time></trkpt><trkpt lat="44.335059275969705" lon="8.396842574736942"><ele>355.0</ele><time>2026-04-24T13:24:12.999Z</time></trkpt><trkpt lat="44.33499195298215" lon="8.396872429154655"><ele>353.0</ele><time>2026-04-24T13:24:13.999Z</time></trkpt><trkpt lat="44.334907810544244" lon="8.39689169143376"><ele>353.0</ele><time>2026-04-24T13:24:15.999Z</time></trkpt><trkpt lat="44.33482960504947" lon="8.396833296949566"><ele>353.0</ele><time>2026-04-24T13:24:17.999Z</time></trkpt><trkpt lat="44.33480491487099" lon="8.396713672682488"><ele>353.0</ele><time>2026-04-24T13:24:19.999Z</time></trkpt><trkpt lat="44.334860192986085" lon="8.39659230454726"><ele>353.0</ele><time>2026-04-24T13:24:21.999Z</time></trkpt><trkpt lat="44.33491483575132" lon="8.396537940839005"><ele>353.0</ele><time>2026-04-24T13:24:22.999Z</time></trkpt><trkpt lat="44.3349930850125" lon="8.396489964239969"><ele>353.0</ele><time>2026-04-24T13:24:23.999Z</time></trkpt><trkpt lat="44.33507116448662" lon="8.39644605644616"><ele>353.0</ele><time>2026-04-24T13:24:24.999Z</time></trkpt><trkpt lat="44.335147524833204" lon="8.396424517732786"><ele>353.0</ele><time>2026-04-24T13:24:25.999Z</time></trkpt><trkpt lat="44.335221303626" lon="8.396413927563852"><ele>353.0</ele><time>2026-04-24T13:24:26.999Z</time></trkpt><trkpt lat="44.3353041058119" lon="8.396415433306807"><ele>353.0</ele><time>2026-04-24T13:24:27.999Z</time></trkpt><trkpt lat="44.33538903604002" lon="8.396410548964466"><ele>353.0</ele><time>2026-04-24T13:24:28.999Z</time></trkpt><trkpt lat="44.3354466896897" lon="8.396364311611496"><ele>353.0</ele><time>2026-04-24T13:24:29.999Z</time></trkpt><trkpt lat="44.335510955679176" lon="8.39628251073905"><ele>354.83333333333337</ele><time>2026-04-24T13:24:30.999Z</time></trkpt><trkpt lat="44.33556524230752" lon="8.396195528442155"><ele>356.6666666666667</ele><time>2026-04-24T13:24:31.999Z</time></trkpt><trkpt lat="44.33560832085331" lon="8.396087496590292"><ele>358.5</ele><time>2026-04-24T13:24:32.999Z</time></trkpt><trkpt lat="44.33563819346097" lon="8.39597961228979"><ele>360.3333333333333</ele><time>2026-04-24T13:24:33.999Z</time></trkpt><trkpt lat="44.33565150246017" lon="8.39585561695311"><ele>362.16666666666663</ele><time>2026-04-24T13:24:34.999Z</time></trkpt><trkpt lat="44.33565513233282" lon="8.395735894819166"><ele>364.0</ele><time>2026-04-24T13:24:35.999Z</time></trkpt><trkpt lat="44.33563916651952" lon="8.395620579469904"><ele>364.0</ele><time>2026-04-24T13:24:36.999Z</time></trkpt><trkpt lat="44.33562644870877" lon="8.395517741481845"><ele>364.0</ele><time>2026-04-24T13:24:37.999Z</time></trkpt><trkpt lat="44.335627885517816" lon="8.395416568135545"><ele>364.0</ele><time>2026-04-24T13:24:38.999Z</time></trkpt><trkpt lat="44.33563548273303" lon="8.395302061296222"><ele>364.0</ele><time>2026-04-24T13:24:39.999Z</time></trkpt><trkpt lat="44.335636961796496" lon="8.395187052022818"><ele>364.0</ele><time>2026-04-24T13:24:40.999Z</time></trkpt><trkpt lat="44.33559034288166" lon="8.395051602748156"><ele>364.0</ele><time>2026-04-24T13:24:42.999Z</time></trkpt><trkpt lat="44.33554018287704" lon="8.394995400922022"><ele>359.16666666666663</ele><time>2026-04-24T13:24:43.999Z</time></trkpt><trkpt lat="44.33548084992647" lon="8.394931418489373"><ele>354.3333333333333</ele><time>2026-04-24T13:24:44.999Z</time></trkpt><trkpt lat="44.33541840430635" lon="8.394849179771567"><ele>349.5</ele><time>2026-04-24T13:24:45.999Z</time></trkpt><trkpt lat="44.33537394269776" lon="8.394773061944791"><ele>344.6666666666667</ele><time>2026-04-24T13:24:46.999Z</time></trkpt><trkpt lat="44.33531805279553" lon="8.394707113293771"><ele>339.83333333333337</ele><time>2026-04-24T13:24:47.999Z</time></trkpt><trkpt lat="44.33521292347892" lon="8.394662247820762"><ele>335.0</ele><time>2026-04-24T13:24:49.999Z</time></trkpt><trkpt lat="44.335105833122554" lon="8.394634254007554"><ele>335.0</ele><time>2026-04-24T13:24:51.999Z</time></trkpt><trkpt lat="44.33507494193077" lon="8.39454388271963"><ele>335.0</ele><time>2026-04-24T13:24:53.999Z</time></trkpt><trkpt lat="44.335096079233374" lon="8.394451943960634"><ele>335.0</ele><time>2026-04-24T13:24:55.999Z</time></trkpt><trkpt lat="44.33517554449347" lon="8.3943611747507"><ele>335.0</ele><time>2026-04-24T13:24:57.999Z</time></trkpt><trkpt lat="44.33524896793852" lon="8.394301772411717"><ele>335.0</ele><time>2026-04-24T13:24:58.999Z</time></trkpt><trkpt lat="44.335315545744365" lon="8.394264378810806"><ele>335.0</ele><time>2026-04-24T13:24:59.999Z</time></trkpt><trkpt lat="44.335394928068276" lon="8.3942290057664"><ele>335.0</ele><time>2026-04-24T13:25:00.999Z</time></trkpt><trkpt lat="44.33545133235784" lon="8.394188399725323"><ele>335.0</ele><time>2026-04-24T13:25:01.999Z</time></trkpt><trkpt lat="44.33551154928772" lon="8.394045082926578"><ele>335.0</ele><time>2026-04-24T13:25:03.999Z</time></trkpt><trkpt lat="44.33554208513262" lon="8.393928695119273"><ele>335.0</ele><time>2026-04-24T13:25:04.999Z</time></trkpt><trkpt lat="44.335558120490646" lon="8.393837245434868"><ele>335.0</ele><time>2026-04-24T13:25:05.999Z</time></trkpt><trkpt lat="44.33553192846859" lon="8.39368492019745"><ele>334.0</ele><time>2026-04-24T13:25:07.999Z</time></trkpt><trkpt lat="44.33548798229546" lon="8.39358559946638"><ele>333.0</ele><time>2026-04-24T13:25:08.999Z</time></trkpt><trkpt lat="44.33544514931468" lon="8.393452447959278"><ele>332.0</ele><time>2026-04-24T13:25:09.999Z</time></trkpt><trkpt lat="44.335396802016625" lon="8.393286817286494"><ele>331.0</ele><time>2026-04-24T13:25:10.999Z</time></trkpt><trkpt lat="44.33534678393595" lon="8.393107580545639"><ele>330.66666666666663</ele><time>2026-04-24T13:25:11.999Z</time></trkpt><trkpt lat="44.335295908046504" lon="8.392904332530213"><ele>330.3333333333333</ele><time>2026-04-24T13:25:12.999Z</time></trkpt><trkpt lat="44.33524525354372" lon="8.392692790735833"><ele>330.0</ele><time>2026-04-24T13:25:13.999Z</time></trkpt><trkpt lat="44.33519741272229" lon="8.39249897848555"><ele>330.0</ele><time>2026-04-24T13:25:14.999Z</time></trkpt><trkpt lat="44.33515697269328" lon="8.392337527263253"><ele>330.0</ele><time>2026-04-24T13:25:16Z</time></trkpt><trkpt lat="44.33511867100389" lon="8.392184868988691"><ele>330.0</ele><time>2026-04-24T13:25:17Z</time></trkpt><trkpt lat="44.335084873864716" lon="8.39202816203183"><ele>330.0</ele><time>2026-04-24T13:25:18Z</time></trkpt><trkpt lat="44.33504082907076" lon="8.391872345271905"><ele>330.6</ele><time>2026-04-24T13:25:19Z</time></trkpt><trkpt lat="44.334994707728285" lon="8.391730833894144"><ele>331.2</ele><time>2026-04-24T13:25:20Z</time></trkpt><trkpt lat="44.334953194554615" lon="8.39160199866154"><ele>331.79999999999995</ele><time>2026-04-24T13:25:21Z</time></trkpt><trkpt lat="44.3349152402416" lon="8.391484312471816"><ele>332.4</ele><time>2026-04-24T13:25:22Z</time></trkpt><trkpt lat="44.334897162398775" lon="8.391369108131865"><ele>333.0</ele><time>2026-04-24T13:25:23Z</time></trkpt><trkpt lat="44.33488605588374" lon="8.391224848025526"><ele>333.0</ele><time>2026-04-24T13:25:24Z</time></trkpt><trkpt lat="44.334882368678215" lon="8.391075759119989"><ele>333.0</ele><time>2026-04-24T13:25:25Z</time></trkpt><trkpt lat="44.334883828360056" lon="8.390923230482171"><ele>333.0</ele><time>2026-04-24T13:25:26Z</time></trkpt><trkpt lat="44.33490710056747" lon="8.390765776507855"><ele>333.0</ele><time>2026-04-24T13:25:27Z</time></trkpt><trkpt lat="44.33493246337113" lon="8.39061270253628"><ele>333.0</ele><time>2026-04-24T13:25:28Z</time></trkpt><trkpt lat="44.33495552697802" lon="8.390491434535381"><ele>333.0</ele><time>2026-04-24T13:25:29Z</time></trkpt><trkpt lat="44.33497212358772" lon="8.390397256464443"><ele>333.0</ele><time>2026-04-24T13:25:30Z</time></trkpt><trkpt lat="44.334967473380594" lon="8.390243220667712"><ele>333.0</ele><time>2026-04-24T13:25:32Z</time></trkpt><trkpt lat="44.334958878801785" lon="8.390068201154243"><ele>333.0</ele><time>2026-04-24T13:25:33Z</time></trkpt><trkpt lat="44.334948515977445" lon="8.389897617416588"><ele>333.0</ele><time>2026-04-24T13:25:34Z</time></trkpt><trkpt lat="44.33493101938749" lon="8.389708188117673"><ele>333.0</ele><time>2026-04-24T13:25:35Z</time></trkpt><trkpt lat="44.33490927772263" lon="8.389523680996435"><ele>333.0</ele><time>2026-04-24T13:25:36Z</time></trkpt><trkpt lat="44.33489170252994" lon="8.389384402931029"><ele>333.0</ele><time>2026-04-24T13:25:37Z</time></trkpt><trkpt lat="44.33486624193466" lon="8.389250798191075"><ele>333.0</ele><time>2026-04-24T13:25:38Z</time></trkpt><trkpt lat="44.33482328727325" lon="8.389140538164192"><ele>333.0</ele><time>2026-04-24T13:25:39Z</time></trkpt><trkpt lat="44.33475875421163" lon="8.38902751573359"><ele>331.2</ele><time>2026-04-24T13:25:40Z</time></trkpt><trkpt lat="44.33467961805958" lon="8.388903195949279"><ele>329.4</ele><time>2026-04-24T13:25:41Z</time></trkpt><trkpt lat="44.33460827298232" lon="8.388797131243475"><ele>327.59999999999997</ele><time>2026-04-24T13:25:42Z</time></trkpt><trkpt lat="44.33454714447423" lon="8.388714651946472"><ele>325.79999999999995</ele><time>2026-04-24T13:25:43Z</time></trkpt><trkpt lat="44.33448275860967" lon="8.38864279274514"><ele>324.0</ele><time>2026-04-24T13:25:44Z</time></trkpt><trkpt lat="44.33440158828603" lon="8.388581745082158"><ele>328.0</ele><time>2026-04-24T13:25:45Z</time></trkpt><trkpt lat="44.3343047639727" lon="8.388522808185389"><ele>332.0</ele><time>2026-04-24T13:25:46Z</time></trkpt><trkpt lat="44.33420798962994" lon="8.388462667291732"><ele>336.0</ele><time>2026-04-24T13:25:47Z</time></trkpt><trkpt lat="44.33411064539494" lon="8.38839283566576"><ele>340.0</ele><time>2026-04-24T13:25:48Z</time></trkpt><trkpt lat="44.334021745564264" lon="8.388334273219769"><ele>344.0</ele><time>2026-04-24T13:25:49Z</time></trkpt><trkpt lat="44.33394321233724" lon="8.388289031592775"><ele>341.0</ele><time>2026-04-24T13:25:50Z</time></trkpt><trkpt lat="44.33385814679906" lon="8.388263247610716"><ele>338.0</ele><time>2026-04-24T13:25:51Z</time></trkpt><trkpt lat="44.333756435112804" lon="8.388257210243673"><ele>335.0</ele><time>2026-04-24T13:25:52Z</time></trkpt><trkpt lat="44.33364833502834" lon="8.388273473947926"><ele>332.0</ele><time>2026-04-24T13:25:53Z</time></trkpt><trkpt lat="44.33356813847934" lon="8.388284264549881"><ele>329.0</ele><time>2026-04-24T13:25:54Z</time></trkpt><trkpt lat="44.33347993847258" lon="8.388256167208027"><ele>329.0</ele><time>2026-04-24T13:25:56Z</time></trkpt><trkpt lat="44.33344524696926" lon="8.388161518608165"><ele>329.0</ele><time>2026-04-24T13:25:58Z</time></trkpt><trkpt lat="44.33342342703604" lon="8.387960674087187"><ele>329.0</ele><time>2026-04-24T13:26:00Z</time></trkpt><trkpt lat="44.33339941936761" lon="8.387821440765242"><ele>329.0</ele><time>2026-04-24T13:26:01Z</time></trkpt><trkpt lat="44.333374074950186" lon="8.387692923977006"><ele>329.0</ele><time>2026-04-24T13:26:02Z</time></trkpt><trkpt lat="44.33334539005064" lon="8.387602556122758"><ele>331.1666666666667</ele><time>2026-04-24T13:26:03Z</time></trkpt><trkpt lat="44.333293979823445" lon="8.387524159641892"><ele>333.33333333333337</ele><time>2026-04-24T13:26:04Z</time></trkpt><trkpt lat="44.333221394138604" lon="8.387445181931104"><ele>335.5</ele><time>2026-04-24T13:26:05Z</time></trkpt><trkpt lat="44.333154761217806" lon="8.38738449203114"><ele>337.6666666666667</ele><time>2026-04-24T13:26:06Z</time></trkpt><trkpt lat="44.33309569305203" lon="8.38731666376902"><ele>339.8333333333333</ele><time>2026-04-24T13:26:08Z</time></trkpt><trkpt lat="44.333110163610016" lon="8.387188401261712"><ele>342.0</ele><time>2026-04-24T13:26:10Z</time></trkpt><trkpt lat="44.33314389823513" lon="8.387087299463527"><ele>343.0</ele><time>2026-04-24T13:26:11Z</time></trkpt><trkpt lat="44.33317446508826" lon="8.386995127876023"><ele>344.0</ele><time>2026-04-24T13:26:12Z</time></trkpt><trkpt lat="44.333153888809164" lon="8.386843398877355"><ele>345.0</ele><time>2026-04-24T13:26:14Z</time></trkpt><trkpt lat="44.333120883822986" lon="8.386762121306642"><ele>346.0</ele><time>2026-04-24T13:26:15Z</time></trkpt><trkpt lat="44.333073901381574" lon="8.386665344491849"><ele>347.0</ele><time>2026-04-24T13:26:16Z</time></trkpt><trkpt lat="44.33303138522906" lon="8.386558025046075"><ele>348.0</ele><time>2026-04-24T13:26:17Z</time></trkpt><trkpt lat="44.333009244996845" lon="8.38646101403216"><ele>343.5</ele><time>2026-04-24T13:26:18Z</time></trkpt><trkpt lat="44.333010615249115" lon="8.386369207650315"><ele>339.0</ele><time>2026-04-24T13:26:19Z</time></trkpt><trkpt lat="44.33302319459123" lon="8.386273357821644"><ele>334.5</ele><time>2026-04-24T13:26:20Z</time></trkpt><trkpt lat="44.33302893188494" lon="8.386117107599828"><ele>330.0</ele><time>2026-04-24T13:26:22Z</time></trkpt><trkpt lat="44.33294995420635" lon="8.386019832570971"><ele>325.5</ele><time>2026-04-24T13:26:24Z</time></trkpt><trkpt lat="44.33289571824836" lon="8.385971513204504"><ele>321.0</ele><time>2026-04-24T13:26:25Z</time></trkpt><trkpt lat="44.332801894779735" lon="8.385885839032163"><ele>321.0</ele><time>2026-04-24T13:26:26Z</time></trkpt><trkpt lat="44.332721996189164" lon="8.385814529119887"><ele>321.0</ele><time>2026-04-24T13:26:27Z</time></trkpt><trkpt lat="44.33267127108195" lon="8.385760128017525"><ele>321.0</ele><time>2026-04-24T13:26:28Z</time></trkpt><trkpt lat="44.332627999985036" lon="8.385672751575104"><ele>321.0</ele><time>2026-04-24T13:26:30Z</time></trkpt><trkpt lat="44.33264630787869" lon="8.385526502090782"><ele>321.0</ele><time>2026-04-24T13:26:32Z</time></trkpt><trkpt lat="44.3326837257199" lon="8.3854266106264"><ele>321.0</ele><time>2026-04-24T13:26:33Z</time></trkpt><trkpt lat="44.332728040377475" lon="8.38533354750397"><ele>322.6666666666667</ele><time>2026-04-24T13:26:34Z</time></trkpt><trkpt lat="44.332765595871315" lon="8.385262230179798"><ele>324.3333333333333</ele><time>2026-04-24T13:26:35Z</time></trkpt><trkpt lat="44.332810056318245" lon="8.385152561138582"><ele>326.0</ele><time>2026-04-24T13:26:37Z</time></trkpt><trkpt lat="44.33276769630615" lon="8.38504014443713"><ele>327.66666666666663</ele><time>2026-04-24T13:26:39Z</time></trkpt><trkpt lat="44.33265488457532" lon="8.385003237351597"><ele>329.3333333333333</ele><time>2026-04-24T13:26:41Z</time></trkpt><trkpt lat="44.33259149686233" lon="8.38502222435279"><ele>331.0</ele><time>2026-04-24T13:26:42Z</time></trkpt><trkpt lat="44.33253443250723" lon="8.385065290383773"><ele>331.0</ele><time>2026-04-24T13:26:43Z</time></trkpt><trkpt lat="44.3324694296687" lon="8.385189012428132"><ele>331.0</ele><time>2026-04-24T13:26:45Z</time></trkpt><trkpt lat="44.332400715199434" lon="8.385233310174488"><ele>331.0</ele><time>2026-04-24T13:26:48Z</time></trkpt><trkpt lat="44.33234758515605" lon="8.385140987511408"><ele>331.0</ele><time>2026-04-24T13:26:50Z</time></trkpt><trkpt lat="44.3323263335624" lon="8.385045716509962"><ele>331.0</ele><time>2026-04-24T13:26:51Z</time></trkpt><trkpt lat="44.33229439436294" lon="8.384936933114458"><ele>331.0</ele><time>2026-04-24T13:26:52Z</time></trkpt><trkpt lat="44.332254224622254" lon="8.3848183672624"><ele>328.5</ele><time>2026-04-24T13:26:53Z</time></trkpt><trkpt lat="44.33220694695891" lon="8.384685441938963"><ele>326.0</ele><time>2026-04-24T13:26:54Z</time></trkpt><trkpt lat="44.33215822851241" lon="8.38453532215639"><ele>323.5</ele><time>2026-04-24T13:26:55Z</time></trkpt><trkpt lat="44.332110005489824" lon="8.38437235699072"><ele>321.0</ele><time>2026-04-24T13:26:56Z</time></trkpt><trkpt lat="44.332068790887824" lon="8.384201619903017"><ele>321.0</ele><time>2026-04-24T13:26:57Z</time></trkpt><trkpt lat="44.3320383919523" lon="8.384014040826921"><ele>321.0</ele><time>2026-04-24T13:26:58Z</time></trkpt><trkpt lat="44.3320090334106" lon="8.38381579540483"><ele>321.0</ele><time>2026-04-24T13:26:59Z</time></trkpt><trkpt lat="44.33198968292121" lon="8.383637493428159"><ele>321.0</ele><time>2026-04-24T13:27:00Z</time></trkpt><trkpt lat="44.33198711477826" lon="8.38347727152058"><ele>321.0</ele><time>2026-04-24T13:27:01Z</time></trkpt><trkpt lat="44.332003624769776" lon="8.38330974212803"><ele>321.0</ele><time>2026-04-24T13:27:02Z</time></trkpt><trkpt lat="44.33204523691492" lon="8.383151483230433"><ele>321.0</ele><time>2026-04-24T13:27:03Z</time></trkpt><trkpt lat="44.33210331154615" lon="8.382987250487643"><ele>321.0</ele><time>2026-04-24T13:27:04Z</time></trkpt><trkpt lat="44.33215897085111" lon="8.382820361402745"><ele>320.75</ele><time>2026-04-24T13:27:05Z</time></trkpt><trkpt lat="44.33221097458186" lon="8.38263865934124"><ele>320.5</ele><time>2026-04-24T13:27:06Z</time></trkpt><trkpt lat="44.3322183421776" lon="8.382459348903636"><ele>320.25</ele><time>2026-04-24T13:27:07Z</time></trkpt><trkpt lat="44.33220252415626" lon="8.382294222703244"><ele>320.0</ele><time>2026-04-24T13:27:08Z</time></trkpt><trkpt lat="44.33218544038745" lon="8.382135262950795"><ele>322.6</ele><time>2026-04-24T13:27:09Z</time></trkpt><trkpt lat="44.33218785300163" lon="8.381990325015014"><ele>325.2</ele><time>2026-04-24T13:27:10Z</time></trkpt><trkpt lat="44.33221497997976" lon="8.381871786356964"><ele>327.79999999999995</ele><time>2026-04-24T13:27:11Z</time></trkpt><trkpt lat="44.33227380091175" lon="8.381767482570261"><ele>330.4</ele><time>2026-04-24T13:27:12Z</time></trkpt><trkpt lat="44.332359437067495" lon="8.38170731159519"><ele>333.0</ele><time>2026-04-24T13:27:13Z</time></trkpt><trkpt lat="44.33246050273699" lon="8.381669170474344"><ele>335.25</ele><time>2026-04-24T13:27:14Z</time></trkpt><trkpt lat="44.33257319656265" lon="8.38164120345324"><ele>337.5</ele><time>2026-04-24T13:27:15Z</time></trkpt><trkpt lat="44.332700089369965" lon="8.381639087890765"><ele>339.75</ele><time>2026-04-24T13:27:16Z</time></trkpt><trkpt lat="44.33283216110301" lon="8.381643252357549"><ele>342.0</ele><time>2026-04-24T13:27:17Z</time></trkpt><trkpt lat="44.33294903996573" lon="8.381629062337488"><ele>342.0</ele><time>2026-04-24T13:27:18Z</time></trkpt><trkpt lat="44.333051905779726" lon="8.381574917367493"><ele>342.0</ele><time>2026-04-24T13:27:19Z</time></trkpt><trkpt lat="44.33314251480295" lon="8.38147987483385"><ele>342.0</ele><time>2026-04-24T13:27:20Z</time></trkpt><trkpt lat="44.333222541346906" lon="8.381362395432907"><ele>342.0</ele><time>2026-04-24T13:27:21Z</time></trkpt><trkpt lat="44.33329108899453" lon="8.381216689986363"><ele>341.75</ele><time>2026-04-24T13:27:22Z</time></trkpt><trkpt lat="44.333349067277624" lon="8.38104978276186"><ele>341.5</ele><time>2026-04-24T13:27:23Z</time></trkpt><trkpt lat="44.33340412801551" lon="8.38087998043626"><ele>341.25</ele><time>2026-04-24T13:27:24Z</time></trkpt><trkpt lat="44.333463066348635" lon="8.380707264113031"><ele>341.0</ele><time>2026-04-24T13:27:25Z</time></trkpt><trkpt lat="44.3335210893497" lon="8.3805281003846"><ele>337.75</ele><time>2026-04-24T13:27:26Z</time></trkpt><trkpt lat="44.33358102787419" lon="8.380335649016269"><ele>334.5</ele><time>2026-04-24T13:27:27Z</time></trkpt><trkpt lat="44.33364802683187" lon="8.380144983382326"><ele>331.25</ele><time>2026-04-24T13:27:28Z</time></trkpt><trkpt lat="44.33371747026148" lon="8.379978914334322"><ele>328.0</ele><time>2026-04-24T13:27:29Z</time></trkpt><trkpt lat="44.33379185464375" lon="8.379854952830016"><ele>328.0</ele><time>2026-04-24T13:27:30Z</time></trkpt><trkpt lat="44.33387557671361" lon="8.379761818122756"><ele>328.0</ele><time>2026-04-24T13:27:31Z</time></trkpt><trkpt lat="44.33397652153293" lon="8.379691388839326"><ele>328.0</ele><time>2026-04-24T13:27:32Z</time></trkpt><trkpt lat="44.33408494523403" lon="8.379658682069037"><ele>328.0</ele><time>2026-04-24T13:27:33Z</time></trkpt><trkpt lat="44.33419723960691" lon="8.379617714938103"><ele>328.0</ele><time>2026-04-24T13:27:34Z</time></trkpt><trkpt lat="44.334301451723775" lon="8.37953724891617"><ele>330.25</ele><time>2026-04-24T13:27:35Z</time></trkpt><trkpt lat="44.3343896286938" lon="8.379422204046456"><ele>332.5</ele><time>2026-04-24T13:27:36Z</time></trkpt><trkpt lat="44.33446959207325" lon="8.379291959954775"><ele>334.75</ele><time>2026-04-24T13:27:37Z</time></trkpt><trkpt lat="44.334530373902616" lon="8.379132145752669"><ele>337.0</ele><time>2026-04-24T13:27:38Z</time></trkpt><trkpt lat="44.33458276243378" lon="8.378959382790189"><ele>334.0</ele><time>2026-04-24T13:27:39Z</time></trkpt><trkpt lat="44.334634736396715" lon="8.378790137755155"><ele>331.0</ele><time>2026-04-24T13:27:40Z</time></trkpt><trkpt lat="44.33468341964768" lon="8.378626535641338"><ele>328.0</ele><time>2026-04-24T13:27:41Z</time></trkpt><trkpt lat="44.33471074440539" lon="8.378475667848145"><ele>325.0</ele><time>2026-04-24T13:27:42Z</time></trkpt><trkpt lat="44.334703689030505" lon="8.378310806366589"><ele>325.0</ele><time>2026-04-24T13:27:43Z</time></trkpt><trkpt lat="44.3346757897056" lon="8.37813202943426"><ele>325.0</ele><time>2026-04-24T13:27:44Z</time></trkpt><trkpt lat="44.334639063984945" lon="8.377954112903826"><ele>325.0</ele><time>2026-04-24T13:27:45Z</time></trkpt><trkpt lat="44.33461294621362" lon="8.377771963013977"><ele>325.0</ele><time>2026-04-24T13:27:46Z</time></trkpt><trkpt lat="44.334594275950224" lon="8.377582699274457"><ele>327.0</ele><time>2026-04-24T13:27:47Z</time></trkpt><trkpt lat="44.334578075856335" lon="8.377386137581134"><ele>329.0</ele><time>2026-04-24T13:27:48Z</time></trkpt><trkpt lat="44.33456139444959" lon="8.377179966679313"><ele>331.0</ele><time>2026-04-24T13:27:49Z</time></trkpt><trkpt lat="44.33455107197955" lon="8.376976636233376"><ele>333.0</ele><time>2026-04-24T13:27:50Z</time></trkpt><trkpt lat="44.33455515075709" lon="8.376790600118834"><ele>334.5</ele><time>2026-04-24T13:27:51Z</time></trkpt><trkpt lat="44.33458701954877" lon="8.376613939584741"><ele>336.0</ele><time>2026-04-24T13:27:52Z</time></trkpt><trkpt lat="44.33464208864187" lon="8.37644879525571"><ele>337.5</ele><time>2026-04-24T13:27:53Z</time></trkpt><trkpt lat="44.33470653260747" lon="8.376294072948063"><ele>339.0</ele><time>2026-04-24T13:27:54Z</time></trkpt><trkpt lat="44.33477005223513" lon="8.376144941984059"><ele>341.75</ele><time>2026-04-24T13:27:55Z</time></trkpt><trkpt lat="44.33480767532181" lon="8.375980820839246"><ele>344.5</ele><time>2026-04-24T13:27:56Z</time></trkpt><trkpt lat="44.33483689129892" lon="8.375819991051436"><ele>347.25</ele><time>2026-04-24T13:27:57Z</time></trkpt><trkpt lat="44.334866405467906" lon="8.375661860004731"><ele>350.0</ele><time>2026-04-24T13:27:58Z</time></trkpt><trkpt lat="44.33490109387963" lon="8.375501245718329"><ele>350.0</ele><time>2026-04-24T13:27:59Z</time></trkpt><trkpt lat="44.334933466087854" lon="8.375333685997058"><ele>350.0</ele><time>2026-04-24T13:28:00Z</time></trkpt><trkpt lat="44.33495780637927" lon="8.375158104898384"><ele>350.0</ele><time>2026-04-24T13:28:01Z</time></trkpt><trkpt lat="44.33496280882312" lon="8.374993054000587"><ele>350.0</ele><time>2026-04-24T13:28:02Z</time></trkpt><trkpt lat="44.33495745278372" lon="8.374821251420567"><ele>350.2</ele><time>2026-04-24T13:28:03Z</time></trkpt><trkpt lat="44.33494684732914" lon="8.374666731920957"><ele>350.4</ele><time>2026-04-24T13:28:04Z</time></trkpt><trkpt lat="44.33495177280582" lon="8.374553051280335"><ele>350.6</ele><time>2026-04-24T13:28:05Z</time></trkpt><trkpt lat="44.33498615646807" lon="8.374431982962694"><ele>350.8</ele><time>2026-04-24T13:28:06Z</time></trkpt><trkpt lat="44.33503705270183" lon="8.37432763288882"><ele>351.0</ele><time>2026-04-24T13:28:07Z</time></trkpt><trkpt lat="44.335109359363706" lon="8.37424259068204"><ele>351.0</ele><time>2026-04-24T13:28:08Z</time></trkpt><trkpt lat="44.33519927491787" lon="8.374194679908177"><ele>351.0</ele><time>2026-04-24T13:28:09Z</time></trkpt><trkpt lat="44.3352836776127" lon="8.374193227342449"><ele>351.0</ele><time>2026-04-24T13:28:10Z</time></trkpt><trkpt lat="44.33537356685247" lon="8.37420961876455"><ele>351.0</ele><time>2026-04-24T13:28:11Z</time></trkpt><trkpt lat="44.335458305644515" lon="8.374235935765997"><ele>351.0</ele><time>2026-04-24T13:28:12Z</time></trkpt><trkpt lat="44.335623569519484" lon="8.374132406127748"><ele>349.5</ele><time>2026-04-24T13:28:13Z</time></trkpt><trkpt lat="44.33571505064741" lon="8.374062410779793"><ele>348.0</ele><time>2026-04-24T13:28:14Z</time></trkpt><trkpt lat="44.33578943034793" lon="8.37394322241625"><ele>346.5</ele><time>2026-04-24T13:28:15Z</time></trkpt><trkpt lat="44.3358572730501" lon="8.373816684604185"><ele>345.0</ele><time>2026-04-24T13:28:16Z</time></trkpt><trkpt lat="44.335883351741295" lon="8.373644937387228"><ele>345.0</ele><time>2026-04-24T13:28:17Z</time></trkpt><trkpt lat="44.335890640556386" lon="8.373461583850123"><ele>345.0</ele><time>2026-04-24T13:28:18Z</time></trkpt><trkpt lat="44.33588421283146" lon="8.373275632637863"><ele>345.0</ele><time>2026-04-24T13:28:19Z</time></trkpt><trkpt lat="44.33588178499768" lon="8.37311699971504"><ele>345.0</ele><time>2026-04-24T13:28:20Z</time></trkpt><trkpt lat="44.3358895103147" lon="8.372985079307405"><ele>344.1666666666667</ele><time>2026-04-24T13:28:21Z</time></trkpt><trkpt lat="44.33590556535825" lon="8.372866691364978"><ele>343.3333333333333</ele><time>2026-04-24T13:28:22Z</time></trkpt><trkpt lat="44.33592843050156" lon="8.37276431200304"><ele>342.5</ele><time>2026-04-24T13:28:23Z</time></trkpt><trkpt lat="44.33596073428226" lon="8.372651306656218"><ele>341.66666666666663</ele><time>2026-04-24T13:28:24Z</time></trkpt><trkpt lat="44.33599307796616" lon="8.372550046414306"><ele>340.8333333333333</ele><time>2026-04-24T13:28:25Z</time></trkpt><trkpt lat="44.33601563663465" lon="8.372462363895526"><ele>340.0</ele><time>2026-04-24T13:28:26Z</time></trkpt><trkpt lat="44.336035237389034" lon="8.372376946767895"><ele>340.0</ele><time>2026-04-24T13:28:27Z</time></trkpt><trkpt lat="44.33607862138477" lon="8.372228039904003"><ele>340.0</ele><time>2026-04-24T13:28:29Z</time></trkpt><trkpt lat="44.33610152144139" lon="8.37214039724644"><ele>340.0</ele><time>2026-04-24T13:28:30Z</time></trkpt><trkpt lat="44.33612338459733" lon="8.372043948956266"><ele>340.0</ele><time>2026-04-24T13:28:31Z</time></trkpt><trkpt lat="44.336153695831285" lon="8.37192266365348"><ele>340.0</ele><time>2026-04-24T13:28:32Z</time></trkpt><trkpt lat="44.33617884085506" lon="8.37180632970058"><ele>340.0</ele><time>2026-04-24T13:28:33Z</time></trkpt><trkpt lat="44.336200770454724" lon="8.371707905224282"><ele>340.0</ele><time>2026-04-24T13:28:34Z</time></trkpt><trkpt lat="44.33624481270712" lon="8.371571499252251"><ele>340.0</ele><time>2026-04-24T13:28:36Z</time></trkpt><trkpt lat="44.33628341374211" lon="8.371490674019041"><ele>340.0</ele><time>2026-04-24T13:28:37Z</time></trkpt><trkpt lat="44.336343134139554" lon="8.371399319632246"><ele>340.0</ele><time>2026-04-24T13:28:38Z</time></trkpt><trkpt lat="44.33641600265024" lon="8.371298043528133"><ele>340.0</ele><time>2026-04-24T13:28:39Z</time></trkpt><trkpt lat="44.33648837515612" lon="8.371201062053604"><ele>340.0</ele><time>2026-04-24T13:28:40Z</time></trkpt><trkpt lat="44.33656391853021" lon="8.371106027618739"><ele>340.0</ele><time>2026-04-24T13:28:41Z</time></trkpt><trkpt lat="44.336628458917126" lon="8.371016718871353"><ele>340.0</ele><time>2026-04-24T13:28:42Z</time></trkpt><trkpt lat="44.336692258621156" lon="8.370924520148472"><ele>340.0</ele><time>2026-04-24T13:28:43Z</time></trkpt><trkpt lat="44.336758162626815" lon="8.370826365261076"><ele>340.0</ele><time>2026-04-24T13:28:44Z</time></trkpt><trkpt lat="44.336821835059695" lon="8.37073309288165"><ele>340.0</ele><time>2026-04-24T13:28:45Z</time></trkpt><trkpt lat="44.33688130290154" lon="8.370647450883984"><ele>340.0</ele><time>2026-04-24T13:28:46Z</time></trkpt><trkpt lat="44.33693793471274" lon="8.370555561137449"><ele>340.0</ele><time>2026-04-24T13:28:47Z</time></trkpt><trkpt lat="44.33698569090877" lon="8.370468369214588"><ele>340.0</ele><time>2026-04-24T13:28:48Z</time></trkpt><trkpt lat="44.33702769163718" lon="8.37039200983626"><ele>340.0</ele><time>2026-04-24T13:28:49Z</time></trkpt><trkpt lat="44.33707255120044" lon="8.37032331546823"><ele>340.0</ele><time>2026-04-24T13:28:50Z</time></trkpt><trkpt lat="44.337123975455285" lon="8.370256079425667"><ele>340.4</ele><time>2026-04-24T13:28:51Z</time></trkpt><trkpt lat="44.337209067826905" lon="8.370221340028243"><ele>340.8</ele><time>2026-04-24T13:28:53Z</time></trkpt><trkpt lat="44.33732932081117" lon="8.370245897430197"><ele>341.20000000000005</ele><time>2026-04-24T13:28:55Z</time></trkpt><trkpt lat="44.33739860781504" lon="8.370260550419639"><ele>341.6</ele><time>2026-04-24T13:28:56Z</time></trkpt><trkpt lat="44.33752033393847" lon="8.370235248438085"><ele>342.0</ele><time>2026-04-24T13:28:58Z</time></trkpt><trkpt lat="44.337582969375795" lon="8.370209906377434"><ele>342.0</ele><time>2026-04-24T13:28:59Z</time></trkpt><trkpt lat="44.33770186779855" lon="8.370124254130406"><ele>342.0</ele><time>2026-04-24T13:29:01Z</time></trkpt><trkpt lat="44.33776548429531" lon="8.370063648423782"><ele>342.0</ele><time>2026-04-24T13:29:02Z</time></trkpt><trkpt lat="44.33782369570473" lon="8.369999633546467"><ele>342.0</ele><time>2026-04-24T13:29:03Z</time></trkpt><trkpt lat="44.337873771932074" lon="8.369938603406805"><ele>342.0</ele><time>2026-04-24T13:29:04Z</time></trkpt><trkpt lat="44.33791716393266" lon="8.369873779757796"><ele>342.0</ele><time>2026-04-24T13:29:05Z</time></trkpt><trkpt lat="44.33796170699287" lon="8.369800610652351"><ele>342.0</ele><time>2026-04-24T13:29:06Z</time></trkpt><trkpt lat="44.33800037197813" lon="8.369721484590714"><ele>342.0</ele><time>2026-04-24T13:29:07Z</time></trkpt><trkpt lat="44.338030107347215" lon="8.369632620505941"><ele>342.0</ele><time>2026-04-24T13:29:08Z</time></trkpt><trkpt lat="44.33805467480851" lon="8.369532275225705"><ele>342.0</ele><time>2026-04-24T13:29:09Z</time></trkpt><trkpt lat="44.33807879202532" lon="8.369405613885647"><ele>342.0</ele><time>2026-04-24T13:29:10Z</time></trkpt><trkpt lat="44.338101090214536" lon="8.369250859135532"><ele>342.0</ele><time>2026-04-24T13:29:11Z</time></trkpt><trkpt lat="44.33811686766284" lon="8.369128646058865"><ele>338.1666666666667</ele><time>2026-04-24T13:29:12Z</time></trkpt><trkpt lat="44.33811794043105" lon="8.369012200963537"><ele>334.3333333333333</ele><time>2026-04-24T13:29:13Z</time></trkpt><trkpt lat="44.33810970545911" lon="8.368905058226892"><ele>330.5</ele><time>2026-04-24T13:29:14Z</time></trkpt><trkpt lat="44.338089663224125" lon="8.368752272664585"><ele>326.66666666666663</ele><time>2026-04-24T13:29:16Z</time></trkpt><trkpt lat="44.33810012241837" lon="8.36862226216943"><ele>322.8333333333333</ele><time>2026-04-24T13:29:18Z</time></trkpt><trkpt lat="44.33817318285981" lon="8.368567370666153"><ele>319.0</ele><time>2026-04-24T13:29:21Z</time></trkpt><trkpt lat="44.33822756285039" lon="8.368626188243057"><ele>319.0</ele><time>2026-04-24T13:29:23Z</time></trkpt><trkpt lat="44.33824108103666" lon="8.368741036793766"><ele>319.0</ele><time>2026-04-24T13:29:25Z</time></trkpt><trkpt lat="44.338251853539184" lon="8.36892514848967"><ele>319.0</ele><time>2026-04-24T13:29:27Z</time></trkpt><trkpt lat="44.338260138607275" lon="8.369072652349443"><ele>319.0</ele><time>2026-04-24T13:29:28Z</time></trkpt><trkpt lat="44.3382741943059" lon="8.369224169285015"><ele>319.0</ele><time>2026-04-24T13:29:29Z</time></trkpt><trkpt lat="44.33829152913896" lon="8.369332633219233"><ele>319.0</ele><time>2026-04-24T13:29:30Z</time></trkpt><trkpt lat="44.338296181536904" lon="8.369435010930054"><ele>319.0</ele><time>2026-04-24T13:29:31Z</time></trkpt><trkpt lat="44.338292545917824" lon="8.369527090178654"><ele>319.0</ele><time>2026-04-24T13:29:32Z</time></trkpt><trkpt lat="44.33828268784562" lon="8.369623813460391"><ele>319.0</ele><time>2026-04-24T13:29:33Z</time></trkpt><trkpt lat="44.33823110933275" lon="8.369796715623913"><ele>319.0</ele><time>2026-04-24T13:29:35Z</time></trkpt><trkpt lat="44.33819451889421" lon="8.369873786267346"><ele>319.0</ele><time>2026-04-24T13:29:36Z</time></trkpt><trkpt lat="44.33814726507838" lon="8.370011755340714"><ele>318.2</ele><time>2026-04-24T13:29:38Z</time></trkpt><trkpt lat="44.33818287404118" lon="8.370137075444164"><ele>317.4</ele><time>2026-04-24T13:29:40Z</time></trkpt><trkpt lat="44.33828573130021" lon="8.370154602931919"><ele>316.6</ele><time>2026-04-24T13:29:42Z</time></trkpt><trkpt lat="44.33837654862946" lon="8.370033865433918"><ele>315.8</ele><time>2026-04-24T13:29:44Z</time></trkpt><trkpt lat="44.33841011564376" lon="8.369935326879219"><ele>315.0</ele><time>2026-04-24T13:29:45Z</time></trkpt><trkpt lat="44.33843650628223" lon="8.36982339749548"><ele>315.0</ele><time>2026-04-24T13:29:46Z</time></trkpt><trkpt lat="44.33846450820028" lon="8.369721114316318"><ele>315.0</ele><time>2026-04-24T13:29:47Z</time></trkpt><trkpt lat="44.33851143791002" lon="8.36961877523416"><ele>315.0</ele><time>2026-04-24T13:29:48Z</time></trkpt><trkpt lat="44.338563864851814" lon="8.369534315210025"><ele>315.0</ele><time>2026-04-24T13:29:49Z</time></trkpt><trkpt lat="44.33860638088427" lon="8.369457773548614"><ele>315.0</ele><time>2026-04-24T13:29:50Z</time></trkpt><trkpt lat="44.33864661310905" lon="8.369372203935146"><ele>315.0</ele><time>2026-04-24T13:29:51Z</time></trkpt><trkpt lat="44.33867838209254" lon="8.369293325414569"><ele>315.1666666666667</ele><time>2026-04-24T13:29:52Z</time></trkpt><trkpt lat="44.33870954773713" lon="8.369207277919502"><ele>315.3333333333333</ele><time>2026-04-24T13:29:53Z</time></trkpt><trkpt lat="44.33874349345401" lon="8.369105647121529"><ele>315.5</ele><time>2026-04-24T13:29:54Z</time></trkpt><trkpt lat="44.33877178059976" lon="8.369012225107234"><ele>315.66666666666663</ele><time>2026-04-24T13:29:55Z</time></trkpt><trkpt lat="44.338792927876085" lon="8.368866675409233"><ele>315.8333333333333</ele><time>2026-04-24T13:29:57Z</time></trkpt><trkpt lat="44.33879910537235" lon="8.368746014691258"><ele>316.0</ele><time>2026-04-24T13:29:59Z</time></trkpt><trkpt lat="44.338835298985764" lon="8.368667348765692"><ele>312.6</ele><time>2026-04-24T13:30:01Z</time></trkpt><trkpt lat="44.33891091730782" lon="8.368640912971868"><ele>309.20000000000005</ele><time>2026-04-24T13:30:03Z</time></trkpt><trkpt lat="44.338978892768445" lon="8.368692091071546"><ele>305.79999999999995</ele><time>2026-04-24T13:30:05Z</time></trkpt><trkpt lat="44.33903508062656" lon="8.368847621867985"><ele>302.4</ele><time>2026-04-24T13:30:07Z</time></trkpt><trkpt lat="44.339075841413994" lon="8.368983085986754"><ele>299.0</ele><time>2026-04-24T13:30:08Z</time></trkpt><trkpt lat="44.33911879949479" lon="8.36912999337712"><ele>298.8</ele><time>2026-04-24T13:30:09Z</time></trkpt><trkpt lat="44.33915366071222" lon="8.369237067365267"><ele>298.59999999999997</ele><time>2026-04-24T13:30:10Z</time></trkpt><trkpt lat="44.33918677664433" lon="8.36932973070626"><ele>298.4</ele><time>2026-04-24T13:30:11Z</time></trkpt><trkpt lat="44.33920987124673" lon="8.36948393888638"><ele>298.2</ele><time>2026-04-24T13:30:13Z</time></trkpt><trkpt lat="44.33916780885312" lon="8.369612418203989"><ele>298.0</ele><time>2026-04-24T13:30:15Z</time></trkpt><trkpt lat="44.339078881823745" lon="8.369694040835245"><ele>298.0</ele><time>2026-04-24T13:30:17Z</time></trkpt><trkpt lat="44.33899424151097" lon="8.369777679700531"><ele>298.0</ele><time>2026-04-24T13:30:19Z</time></trkpt><trkpt lat="44.33899173654969" lon="8.369867522982354"><ele>298.0</ele><time>2026-04-24T13:30:21Z</time></trkpt><trkpt lat="44.33906186965055" lon="8.369941343300326"><ele>298.0</ele><time>2026-04-24T13:30:24Z</time></trkpt><trkpt lat="44.339185590925695" lon="8.369947088006583"><ele>298.0</ele><time>2026-04-24T13:30:26Z</time></trkpt><trkpt lat="44.33925111261247" lon="8.3699602816133"><ele>298.0</ele><time>2026-04-24T13:30:27Z</time></trkpt><trkpt lat="44.33931445809672" lon="8.370000587152797"><ele>298.0</ele><time>2026-04-24T13:30:28Z</time></trkpt><trkpt lat="44.339378250218076" lon="8.370046325368973"><ele>298.0</ele><time>2026-04-24T13:30:29Z</time></trkpt><trkpt lat="44.33949194786087" lon="8.370025294197399"><ele>298.0</ele><time>2026-04-24T13:30:31Z</time></trkpt><trkpt lat="44.339570232441886" lon="8.369988583758163"><ele>298.0</ele><time>2026-04-24T13:30:32Z</time></trkpt><trkpt lat="44.339638595806655" lon="8.369959528689012"><ele>298.0</ele><time>2026-04-24T13:30:33Z</time></trkpt><trkpt lat="44.33975413124003" lon="8.369942038758579"><ele>295.0</ele><time>2026-04-24T13:30:35Z</time></trkpt><trkpt lat="44.339851973192395" lon="8.369988280420792"><ele>292.0</ele><time>2026-04-24T13:30:37Z</time></trkpt><trkpt lat="44.33993337057279" lon="8.370100974517724"><ele>289.0</ele><time>2026-04-24T13:30:39Z</time></trkpt><trkpt lat="44.340011041071875" lon="8.370257975989512"><ele>286.0</ele><time>2026-04-24T13:30:41Z</time></trkpt><trkpt lat="44.34006206947678" lon="8.370383401922382"><ele>286.0</ele><time>2026-04-24T13:30:42Z</time></trkpt><trkpt lat="44.34010873599234" lon="8.370490612167586"><ele>286.0</ele><time>2026-04-24T13:30:43Z</time></trkpt><trkpt lat="44.340154929363095" lon="8.370605281661152"><ele>286.0</ele><time>2026-04-24T13:30:44Z</time></trkpt><trkpt lat="44.34019962622135" lon="8.37071495921627"><ele>286.0</ele><time>2026-04-24T13:30:45Z</time></trkpt><trkpt lat="44.340249954963774" lon="8.370819610760657"><ele>286.0</ele><time>2026-04-24T13:30:46Z</time></trkpt><trkpt lat="44.34030009495271" lon="8.370925954535828"><ele>285.66666666666663</ele><time>2026-04-24T13:30:47Z</time></trkpt><trkpt lat="44.34034544175992" lon="8.371014584153667"><ele>285.3333333333333</ele><time>2026-04-24T13:30:48Z</time></trkpt><trkpt lat="44.34039480984914" lon="8.37111102255816"><ele>285.0</ele><time>2026-04-24T13:30:49Z</time></trkpt><trkpt lat="44.34044753960593" lon="8.371203511006916"><ele>284.6666666666667</ele><time>2026-04-24T13:30:50Z</time></trkpt><trkpt lat="44.34049885249588" lon="8.371278478118676"><ele>284.33333333333337</ele><time>2026-04-24T13:30:51Z</time></trkpt><trkpt lat="44.340551860097" lon="8.371353289851736"><ele>284.0</ele><time>2026-04-24T13:30:52Z</time></trkpt><trkpt lat="44.34060346737529" lon="8.371410235591748"><ele>283.59999999999997</ele><time>2026-04-24T13:30:53Z</time></trkpt><trkpt lat="44.34070250353428" lon="8.371503017405317"><ele>283.2</ele><time>2026-04-24T13:30:55Z</time></trkpt><trkpt lat="44.340796299008744" lon="8.371561516323112"><ele>282.79999999999995</ele><time>2026-04-24T13:30:57Z</time></trkpt><trkpt lat="44.340835780272855" lon="8.371668469247972"><ele>282.4</ele><time>2026-04-24T13:31:08Z</time></trkpt><trkpt lat="44.34085003448312" lon="8.37184012703314"><ele>282.0</ele><time>2026-04-24T13:31:10Z</time></trkpt><trkpt lat="44.34086868735786" lon="8.372020111157838"><ele>282.0</ele><time>2026-04-24T13:31:12Z</time></trkpt><trkpt lat="44.34088432945785" lon="8.372184482946427"><ele>282.0</ele><time>2026-04-24T13:31:14Z</time></trkpt><trkpt lat="44.34090347769872" lon="8.372326877786278"><ele>282.0</ele><time>2026-04-24T13:31:16Z</time></trkpt><trkpt lat="44.34090748470836" lon="8.372428637841645"><ele>282.0</ele><time>2026-04-24T13:31:18Z</time></trkpt><trkpt lat="44.340904878999844" lon="8.372539914501639"><ele>282.0</ele><time>2026-04-24T13:31:21Z</time></trkpt><trkpt lat="44.34090953954149" lon="8.372412454161452"><ele>282.0</ele><time>2026-04-24T13:31:50Z</time></trkpt><trkpt lat="44.34090159030004" lon="8.372310755028174"><ele>282.0</ele><time>2026-04-24T13:31:51Z</time></trkpt><trkpt lat="44.34089313605326" lon="8.37221071199346"><ele>282.0</ele><time>2026-04-24T13:31:52Z</time></trkpt><trkpt lat="44.34086920189481" lon="8.371926180304124"><ele>282.0</ele><time>2026-04-24T13:31:54Z</time></trkpt><trkpt lat="44.34085792825742" lon="8.371763893428877"><ele>282.0</ele><time>2026-04-24T13:31:56Z</time></trkpt><trkpt lat="44.34083767468335" lon="8.371653603130568"><ele>282.0</ele><time>2026-04-24T13:31:58Z</time></trkpt><trkpt lat="44.34084956027845" lon="8.37155276823866"><ele>282.0</ele><time>2026-04-24T13:32:02Z</time></trkpt><trkpt lat="44.3409120928739" lon="8.371525381658264"><ele>282.0</ele><time>2026-04-24T13:32:06Z</time></trkpt><trkpt lat="44.34098749668834" lon="8.371530384436129"><ele>282.0</ele><time>2026-04-24T13:32:09Z</time></trkpt><trkpt lat="44.3410179065098" lon="8.37161191122099"><ele>282.0</ele><time>2026-04-24T13:32:12Z</time></trkpt><trkpt lat="44.34105054028445" lon="8.37170205645967"><ele>282.0</ele><time>2026-04-24T13:32:14Z</time></trkpt><trkpt lat="44.34108605151635" lon="8.371793776616219"><ele>282.0</ele><time>2026-04-24T13:32:17Z</time></trkpt><trkpt lat="44.341158876310445" lon="8.371792698778258"><ele>282.0</ele><time>2026-04-24T13:32:19Z</time></trkpt><trkpt lat="44.341248703346615" lon="8.371780947986876"><ele>282.0</ele><time>2026-04-24T13:32:21Z</time></trkpt><trkpt lat="44.3413154424683" lon="8.371730008968667"><ele>282.0</ele><time>2026-04-24T13:32:23Z</time></trkpt><trkpt lat="44.341358513942616" lon="8.371646405620902"><ele>282.0</ele><time>2026-04-24T13:32:25Z</time></trkpt><trkpt lat="44.34139083426353" lon="8.371561560384581"><ele>282.0</ele><time>2026-04-24T13:32:27Z</time></trkpt><trkpt lat="44.34142734336328" lon="8.37146390451855"><ele>282.8333333333333</ele><time>2026-04-24T13:32:29Z</time></trkpt><trkpt lat="44.34147799488537" lon="8.371393901607203"><ele>283.6666666666667</ele><time>2026-04-24T13:32:31Z</time></trkpt><trkpt lat="44.341543130190814" lon="8.371341136292596"><ele>284.5</ele><time>2026-04-24T13:32:33Z</time></trkpt><trkpt lat="44.34160390373335" lon="8.371293323161822"><ele>285.33333333333337</ele><time>2026-04-24T13:32:35Z</time></trkpt><trkpt lat="44.34168135389974" lon="8.37126263857807"><ele>286.1666666666667</ele><time>2026-04-24T13:32:37Z</time></trkpt><trkpt lat="44.34175710569468" lon="8.371234963253125"><ele>287.0</ele><time>2026-04-24T13:32:39Z</time></trkpt><trkpt lat="44.34182955389872" lon="8.371179622211526"><ele>287.0</ele><time>2026-04-24T13:32:41Z</time></trkpt><trkpt lat="44.34188771541765" lon="8.371075137514712"><ele>287.0</ele><time>2026-04-24T13:32:43Z</time></trkpt><trkpt lat="44.341947787724656" lon="8.370959588798474"><ele>287.0</ele><time>2026-04-24T13:32:45Z</time></trkpt><trkpt lat="44.34200675361602" lon="8.370844762239443"><ele>287.0</ele><time>2026-04-24T13:32:47Z</time></trkpt><trkpt lat="44.34207114243969" lon="8.370745471261039"><ele>287.0</ele><time>2026-04-24T13:32:49Z</time></trkpt><trkpt lat="44.34213883006941" lon="8.370667827393223"><ele>289.0</ele><time>2026-04-24T13:32:51Z</time></trkpt><trkpt lat="44.342218830753716" lon="8.370633596171787"><ele>291.0</ele><time>2026-04-24T13:32:53Z</time></trkpt><trkpt lat="44.342319689472546" lon="8.370648384478837"><ele>293.0</ele><time>2026-04-24T13:32:55Z</time></trkpt><trkpt lat="44.34241513043385" lon="8.370673801578906"><ele>295.0</ele><time>2026-04-24T13:32:57Z</time></trkpt><trkpt lat="44.34253598601058" lon="8.370697969168926"><ele>297.0</ele><time>2026-04-24T13:32:59Z</time></trkpt><trkpt lat="44.34260590197078" lon="8.370707749803348"><ele>297.0</ele><time>2026-04-24T13:33:00Z</time></trkpt><trkpt lat="44.34266941281968" lon="8.37071696283102"><ele>297.0</ele><time>2026-04-24T13:33:01Z</time></trkpt><trkpt lat="44.34273912962164" lon="8.370722446010372"><ele>297.0</ele><time>2026-04-24T13:33:02Z</time></trkpt><trkpt lat="44.34281235415708" lon="8.370727585501553"><ele>297.0</ele><time>2026-04-24T13:33:03Z</time></trkpt><trkpt lat="44.342889289236155" lon="8.37073094432371"><ele>297.0</ele><time>2026-04-24T13:33:04Z</time></trkpt><trkpt lat="44.342992294396886" lon="8.370728688881764"><ele>297.0</ele><time>2026-04-24T13:33:06Z</time></trkpt><trkpt lat="44.34310222735318" lon="8.370699656236807"><ele>299.4</ele><time>2026-04-24T13:33:08Z</time></trkpt><trkpt lat="44.34321651451501" lon="8.370638942254727"><ele>301.79999999999995</ele><time>2026-04-24T13:33:10Z</time></trkpt><trkpt lat="44.343294367085335" lon="8.370574356578015"><ele>304.2</ele><time>2026-04-24T13:33:12Z</time></trkpt><trkpt lat="44.34336139958668" lon="8.370506998984393"><ele>306.59999999999997</ele><time>2026-04-24T13:33:14Z</time></trkpt><trkpt lat="44.34344153399798" lon="8.370431326526521"><ele>309.0</ele><time>2026-04-24T13:33:16Z</time></trkpt><trkpt lat="44.34351237178447" lon="8.370389811555587"><ele>309.0</ele><time>2026-04-24T13:33:18Z</time></trkpt><trkpt lat="44.34360363389959" lon="8.370411113073969"><ele>309.0</ele><time>2026-04-24T13:33:21Z</time></trkpt><trkpt lat="44.343664314640876" lon="8.3704867970185"><ele>309.0</ele><time>2026-04-24T13:33:23Z</time></trkpt><trkpt lat="44.34370388314686" lon="8.370571451155724"><ele>309.0</ele><time>2026-04-24T13:33:25Z</time></trkpt><trkpt lat="44.34376612248168" lon="8.370615933620611"><ele>309.0</ele><time>2026-04-24T13:33:27Z</time></trkpt><trkpt lat="44.34385912225537" lon="8.370622677589372"><ele>309.0</ele><time>2026-04-24T13:33:29Z</time></trkpt><trkpt lat="44.343933551434944" lon="8.370616134052947"><ele>310.6666666666667</ele><time>2026-04-24T13:33:31Z</time></trkpt><trkpt lat="44.344015687482944" lon="8.370588476312431"><ele>312.3333333333333</ele><time>2026-04-24T13:33:33Z</time></trkpt><trkpt lat="44.344091326912256" lon="8.370552509720305"><ele>314.0</ele><time>2026-04-24T13:33:35Z</time></trkpt><trkpt lat="44.34414129253443" lon="8.370489764961613"><ele>315.66666666666663</ele><time>2026-04-24T13:33:37Z</time></trkpt><trkpt lat="44.34418527704335" lon="8.370385286129899"><ele>317.3333333333333</ele><time>2026-04-24T13:33:39Z</time></trkpt><trkpt lat="44.34418756277165" lon="8.370289461127005"><ele>319.0</ele><time>2026-04-24T13:33:41Z</time></trkpt><trkpt lat="44.344117729108675" lon="8.370212626528279"><ele>319.0</ele><time>2026-04-24T13:33:44Z</time></trkpt><trkpt lat="44.34404779273062" lon="8.370207818220514"><ele>319.0</ele><time>2026-04-24T13:33:49Z</time></trkpt><trkpt lat="44.34396284814868" lon="8.370186541962932"><ele>319.0</ele><time>2026-04-24T13:33:51Z</time></trkpt><trkpt lat="44.343868271314655" lon="8.370177863108408"><ele>319.0</ele><time>2026-04-24T13:33:53Z</time></trkpt><trkpt lat="44.34376856710658" lon="8.37014501973617"><ele>319.0</ele><time>2026-04-24T13:33:55Z</time></trkpt><trkpt lat="44.343697567239644" lon="8.370099983461886"><ele>319.0</ele><time>2026-04-24T13:33:57Z</time></trkpt><trkpt lat="44.343686549516605" lon="8.37001223776723"><ele>319.0</ele><time>2026-04-24T13:34:01Z</time></trkpt><trkpt lat="44.343758159336126" lon="8.369972808153944"><ele>319.0</ele><time>2026-04-24T13:34:08Z</time></trkpt><trkpt lat="44.34384858209126" lon="8.369979713901541"><ele>319.0</ele><time>2026-04-24T13:34:11Z</time></trkpt><trkpt lat="44.34391756456199" lon="8.370003207434472"><ele>319.0</ele><time>2026-04-24T13:34:13Z</time></trkpt><trkpt lat="44.34399140084334" lon="8.370009650723677"><ele>319.0</ele><time>2026-04-24T13:34:15Z</time></trkpt><trkpt lat="44.344062882034805" lon="8.370011507845502"><ele>319.0</ele><time>2026-04-24T13:34:17Z</time></trkpt><trkpt lat="44.34413728841116" lon="8.370008538273419"><ele>319.0</ele><time>2026-04-24T13:34:19Z</time></trkpt><trkpt lat="44.34406992309265" lon="8.370022969689405"><ele>319.0</ele><time>2026-04-24T13:35:14Z</time></trkpt><trkpt lat="44.343991678777996" lon="8.370021767789126"><ele>319.0</ele><time>2026-04-24T13:35:26Z</time></trkpt><trkpt lat="44.34391412061936" lon="8.370015630176026"><ele>319.0</ele><time>2026-04-24T13:35:31Z</time></trkpt><trkpt lat="44.343843717200336" lon="8.37000183238317"><ele>319.0</ele><time>2026-04-24T13:35:34Z</time></trkpt><trkpt lat="44.34377910396324" lon="8.369983045621426"><ele>319.0</ele><time>2026-04-24T13:35:37Z</time></trkpt><trkpt lat="44.34371382033001" lon="8.370000467865806"><ele>319.0</ele><time>2026-04-24T13:35:40Z</time></trkpt><trkpt lat="44.34363478939045" lon="8.370012170969087"><ele>319.0</ele><time>2026-04-24T13:35:43Z</time></trkpt><trkpt lat="44.34355959267637" lon="8.369980667110278"><ele>319.0</ele><time>2026-04-24T13:35:46Z</time></trkpt><trkpt lat="44.3434963629061" lon="8.36994323855047"><ele>319.0</ele><time>2026-04-24T13:35:48Z</time></trkpt><trkpt lat="44.34343986674051" lon="8.369894008353315"><ele>319.0</ele><time>2026-04-24T13:35:50Z</time></trkpt><trkpt lat="44.34339065759604" lon="8.369831895336013"><ele>319.0</ele><time>2026-04-24T13:35:53Z</time></trkpt><trkpt lat="44.343358829276966" lon="8.369738216214628"><ele>319.0</ele><time>2026-04-24T13:36:03Z</time></trkpt><trkpt lat="44.343331647529105" lon="8.36964676363255"><ele>319.0</ele><time>2026-04-24T13:36:08Z</time></trkpt><trkpt lat="44.34331384553579" lon="8.369540050939827"><ele>319.8333333333333</ele><time>2026-04-24T13:36:12Z</time></trkpt><trkpt lat="44.343298782195646" lon="8.369421701338691"><ele>320.66666666666663</ele><time>2026-04-24T13:36:15Z</time></trkpt><trkpt lat="44.34329448810391" lon="8.36930609080133"><ele>321.5</ele><time>2026-04-24T13:36:18Z</time></trkpt><trkpt lat="44.3433021108854" lon="8.369169264467585"><ele>322.3333333333333</ele><time>2026-04-24T13:36:20Z</time></trkpt><trkpt lat="44.34333261791587" lon="8.369064384678206"><ele>323.1666666666667</ele><time>2026-04-24T13:36:23Z</time></trkpt><trkpt lat="44.34338536459349" lon="8.36897971535672"><ele>324.0</ele><time>2026-04-24T13:36:30Z</time></trkpt><trkpt lat="44.34343127173798" lon="8.368896804750532"><ele>323.5</ele><time>2026-04-24T13:36:32Z</time></trkpt><trkpt lat="44.343488945527476" lon="8.368782507632123"><ele>323.0</ele><time>2026-04-24T13:36:34Z</time></trkpt><trkpt lat="44.3435342511045" lon="8.368708543963201"><ele>322.5</ele><time>2026-04-24T13:36:36Z</time></trkpt><trkpt lat="44.343595382053365" lon="8.3686288232628"><ele>322.0</ele><time>2026-04-24T13:36:40Z</time></trkpt><trkpt lat="44.34364520580566" lon="8.368525278387052"><ele>321.5</ele><time>2026-04-24T13:36:43Z</time></trkpt><trkpt lat="44.34367860858236" lon="8.368422326696773"><ele>321.0</ele><time>2026-04-24T13:36:46Z</time></trkpt><trkpt lat="44.34373169638182" lon="8.368333762959807"><ele>320.99999999999994</ele><time>2026-04-24T13:36:49Z</time></trkpt><trkpt lat="44.343756588671276" lon="8.36823720350825"><ele>321.0</ele><time>2026-04-24T13:36:51Z</time></trkpt><trkpt lat="44.34378308639273" lon="8.368153569291307"><ele>321.0</ele><time>2026-04-24T13:36:53Z</time></trkpt><trkpt lat="44.34381339382431" lon="8.368072972659846"><ele>321.0</ele><time>2026-04-24T13:36:56Z</time></trkpt><trkpt lat="44.34384795813529" lon="8.367997411772926"><ele>321.0</ele><time>2026-04-24T13:37:00Z</time></trkpt><trkpt lat="44.343888756529836" lon="8.36792546071688"><ele>320.99999999999994</ele><time>2026-04-24T13:37:03Z</time></trkpt><trkpt lat="44.3439247646983" lon="8.367834133788506"><ele>321.0</ele><time>2026-04-24T13:37:11Z</time></trkpt><trkpt lat="44.34397019716925" lon="8.367710630008732"><ele>322.6</ele><time>2026-04-24T13:37:20Z</time></trkpt><trkpt lat="44.344017589708685" lon="8.36760209419301"><ele>324.20000000000005</ele><time>2026-04-24T13:37:23Z</time></trkpt><trkpt lat="44.344073865373325" lon="8.367479415163372"><ele>325.79999999999995</ele><time>2026-04-24T13:37:25Z</time></trkpt><trkpt lat="44.3441270292123" lon="8.367357666069454"><ele>327.4</ele><time>2026-04-24T13:37:27Z</time></trkpt><trkpt lat="44.34416580669961" lon="8.367255795579922"><ele>329.0</ele><time>2026-04-24T13:37:29Z</time></trkpt><trkpt lat="44.34420488208399" lon="8.367154456293925"><ele>329.0</ele><time>2026-04-24T13:37:31Z</time></trkpt><trkpt lat="44.344261003642146" lon="8.367101311569037"><ele>329.0</ele><time>2026-04-24T13:37:33Z</time></trkpt><trkpt lat="44.344333507161664" lon="8.36706777169948"><ele>329.0</ele><time>2026-04-24T13:37:35Z</time></trkpt><trkpt lat="44.34440107669837" lon="8.367071955476625"><ele>329.0</ele><time>2026-04-24T13:37:37Z</time></trkpt><trkpt lat="44.34450371081702" lon="8.367022755568058"><ele>329.0</ele><time>2026-04-24T13:37:39Z</time></trkpt><trkpt lat="44.34456496242612" lon="8.36692999350208"><ele>329.0</ele><time>2026-04-24T13:37:41Z</time></trkpt><trkpt lat="44.3446351809002" lon="8.366828306329781"><ele>329.0</ele><time>2026-04-24T13:37:43Z</time></trkpt><trkpt lat="44.344688014992585" lon="8.366721064099993"><ele>329.0</ele><time>2026-04-24T13:37:45Z</time></trkpt><trkpt lat="44.34474958623872" lon="8.366629385241788"><ele>329.0</ele><time>2026-04-24T13:37:47.999Z</time></trkpt><trkpt lat="44.34481203928512" lon="8.366572560888223"><ele>329.0</ele><time>2026-04-24T13:37:50.999Z</time></trkpt><trkpt lat="44.3448942821964" lon="8.366510230135152"><ele>329.0</ele><time>2026-04-24T13:37:52.999Z</time></trkpt><trkpt lat="44.34498009765372" lon="8.366431782101365"><ele>332.0</ele><time>2026-04-24T13:37:54.999Z</time></trkpt><trkpt lat="44.34501081285549" lon="8.366342489627034"><ele>335.0</ele><time>2026-04-24T13:37:56.999Z</time></trkpt><trkpt lat="44.34503183407841" lon="8.366258611099179"><ele>338.0</ele><time>2026-04-24T13:38:01.999Z</time></trkpt><trkpt lat="44.345067540755366" lon="8.366180217573579"><ele>341.0</ele><time>2026-04-24T13:38:04Z</time></trkpt><trkpt lat="44.345117993111806" lon="8.366074424764768"><ele>344.0</ele><time>2026-04-24T13:38:07Z</time></trkpt><trkpt lat="44.34515944236404" lon="8.36600686971189"><ele>347.0</ele><time>2026-04-24T13:38:50Z</time></trkpt><trkpt lat="44.34520447929307" lon="8.365925991246355"><ele>350.0</ele><time>2026-04-24T13:39:14Z</time></trkpt><trkpt lat="44.34524614076067" lon="8.365847561421884"><ele>350.0</ele><time>2026-04-24T13:39:32Z</time></trkpt><trkpt lat="44.34527953496348" lon="8.36577263041341"><ele>350.0</ele><time>2026-04-24T13:39:46Z</time></trkpt><trkpt lat="44.34531148656288" lon="8.365686727421892"><ele>350.0</ele><time>2026-04-24T13:39:48Z</time></trkpt><trkpt lat="44.34528625842026" lon="8.365577185131432"><ele>350.0</ele><time>2026-04-24T13:39:52Z</time></trkpt><trkpt lat="44.34521873102898" lon="8.365581830319352"><ele>350.0</ele><time>2026-04-24T13:40:32.999Z</time></trkpt><trkpt lat="44.345113480211154" lon="8.365552349347396"><ele>350.0</ele><time>2026-04-24T13:40:34.999Z</time></trkpt><trkpt lat="44.345042549532124" lon="8.365523977970858"><ele>350.0</ele><time>2026-04-24T13:40:35.999Z</time></trkpt><trkpt lat="44.344962614929436" lon="8.365561626854108"><ele>350.0</ele><time>2026-04-24T13:40:37Z</time></trkpt><trkpt lat="44.344882580398874" lon="8.365591655309258"><ele>350.0</ele><time>2026-04-24T13:40:38Z</time></trkpt><trkpt lat="44.344797642957545" lon="8.365567370472357"><ele>350.0</ele><time>2026-04-24T13:40:39Z</time></trkpt><trkpt lat="44.34472586220496" lon="8.365574241461333"><ele>350.0</ele><time>2026-04-24T13:40:40Z</time></trkpt><trkpt lat="44.34463053902235" lon="8.365559360536421"><ele>350.0</ele><time>2026-04-24T13:40:42Z</time></trkpt><trkpt lat="44.34455721165438" lon="8.365484861859057"><ele>353.0</ele><time>2026-04-24T13:40:45Z</time></trkpt><trkpt lat="44.344562713690685" lon="8.365374607877778"><ele>356.0</ele><time>2026-04-24T13:40:48Z</time></trkpt><trkpt lat="44.34466632306517" lon="8.36537085144358"><ele>359.0</ele><time>2026-04-24T13:40:51Z</time></trkpt><trkpt lat="44.344767256041905" lon="8.365385201561672"><ele>362.0</ele><time>2026-04-24T13:40:53Z</time></trkpt><trkpt lat="44.344854836942076" lon="8.365350190749329"><ele>365.0</ele><time>2026-04-24T13:40:55Z</time></trkpt><trkpt lat="44.34491904228845" lon="8.365274641259015"><ele>365.0</ele><time>2026-04-24T13:40:57Z</time></trkpt><trkpt lat="44.34494802857864" lon="8.36519490635262"><ele>365.0</ele><time>2026-04-24T13:40:59Z</time></trkpt><trkpt lat="44.34492056872961" lon="8.365087440713118"><ele>365.0</ele><time>2026-04-24T13:41:01Z</time></trkpt><trkpt lat="44.344854274563964" lon="8.36498404798303"><ele>365.0</ele><time>2026-04-24T13:41:03Z</time></trkpt><trkpt lat="44.344819494821586" lon="8.364850778441454"><ele>365.0</ele><time>2026-04-24T13:41:05Z</time></trkpt><trkpt lat="44.34481564994304" lon="8.364701494240292"><ele>366.0</ele><time>2026-04-24T13:41:07Z</time></trkpt><trkpt lat="44.344814197662856" lon="8.364521783719105"><ele>367.0</ele><time>2026-04-24T13:41:09Z</time></trkpt><trkpt lat="44.34481555346605" lon="8.364432327307034"><ele>368.0</ele><time>2026-04-24T13:41:10Z</time></trkpt><trkpt lat="44.344846583169804" lon="8.36428924144605"><ele>369.0</ele><time>2026-04-24T13:41:12Z</time></trkpt><trkpt lat="44.3448665021854" lon="8.364205143557761"><ele>370.0</ele><time>2026-04-24T13:41:13Z</time></trkpt><trkpt lat="44.34488551728916" lon="8.364053191833731"><ele>370.0</ele><time>2026-04-24T13:41:15Z</time></trkpt><trkpt lat="44.34484929143044" lon="8.363906754930534"><ele>370.0</ele><time>2026-04-24T13:41:17Z</time></trkpt><trkpt lat="44.34480367336358" lon="8.363845546578546"><ele>370.0</ele><time>2026-04-24T13:41:18Z</time></trkpt><trkpt lat="44.34469810987428" lon="8.363787479668371"><ele>370.0</ele><time>2026-04-24T13:41:20Z</time></trkpt><trkpt lat="44.34458389430483" lon="8.363806396618829"><ele>370.0</ele><time>2026-04-24T13:41:22Z</time></trkpt><trkpt lat="44.34449290247279" lon="8.363774223629258"><ele>370.6</ele><time>2026-04-24T13:41:24Z</time></trkpt><trkpt lat="44.34441675521268" lon="8.363707971497572"><ele>371.2</ele><time>2026-04-24T13:41:26Z</time></trkpt><trkpt lat="44.34433847301716" lon="8.363600022223368"><ele>371.79999999999995</ele><time>2026-04-24T13:41:28Z</time></trkpt><trkpt lat="44.34427705500235" lon="8.363539007534445"><ele>372.4</ele><time>2026-04-24T13:41:29Z</time></trkpt><trkpt lat="44.34417991114025" lon="8.363412420027556"><ele>373.0</ele><time>2026-04-24T13:41:31Z</time></trkpt><trkpt lat="44.34411699429494" lon="8.36331917501297"><ele>373.0</ele><time>2026-04-24T13:41:32Z</time></trkpt><trkpt lat="44.34405727028512" lon="8.363217182711642"><ele>373.0</ele><time>2026-04-24T13:41:33Z</time></trkpt><trkpt lat="44.34401528686902" lon="8.363134140343284"><ele>373.0</ele><time>2026-04-24T13:41:34Z</time></trkpt><trkpt lat="44.34393592060496" lon="8.363001249783705"><ele>373.0</ele><time>2026-04-24T13:41:36Z</time></trkpt><trkpt lat="44.343889505442554" lon="8.362919995865388"><ele>373.0</ele><time>2026-04-24T13:41:37Z</time></trkpt><trkpt lat="44.34383430912074" lon="8.362787611954445"><ele>373.0</ele><time>2026-04-24T13:41:39Z</time></trkpt><trkpt lat="44.343791079059386" lon="8.362648325453282"><ele>373.0</ele><time>2026-04-24T13:41:40Z</time></trkpt><trkpt lat="44.343777404050606" lon="8.36253968860136"><ele>373.0</ele><time>2026-04-24T13:41:41Z</time></trkpt><trkpt lat="44.34376722146408" lon="8.362426815645629"><ele>373.0</ele><time>2026-04-24T13:41:42Z</time></trkpt><trkpt lat="44.343751094339865" lon="8.362333419771645"><ele>373.0</ele><time>2026-04-24T13:41:43Z</time></trkpt><trkpt lat="44.34368674767245" lon="8.362189925634668"><ele>375.5</ele><time>2026-04-24T13:41:45Z</time></trkpt><trkpt lat="44.343636230739065" lon="8.362135971397105"><ele>378.0</ele><time>2026-04-24T13:41:46Z</time></trkpt><trkpt lat="44.34357328213778" lon="8.362090685071651"><ele>380.5</ele><time>2026-04-24T13:41:47Z</time></trkpt><trkpt lat="44.343503063886324" lon="8.362053593057418"><ele>383.0</ele><time>2026-04-24T13:41:48Z</time></trkpt><trkpt lat="44.34343754821118" lon="8.362009254492152"><ele>385.50000000000006</ele><time>2026-04-24T13:41:49Z</time></trkpt><trkpt lat="44.343323217376714" lon="8.361952551590074"><ele>388.0</ele><time>2026-04-24T13:41:51Z</time></trkpt><trkpt lat="44.34325980587284" lon="8.36195269272839"><ele>388.00000000000006</ele><time>2026-04-24T13:41:52Z</time></trkpt><trkpt lat="44.34318052768046" lon="8.361948471786015"><ele>388.0</ele><time>2026-04-24T13:41:53Z</time></trkpt><trkpt lat="44.343085208157106" lon="8.361938381290567"><ele>388.0</ele><time>2026-04-24T13:41:54Z</time></trkpt><trkpt lat="44.34300745035306" lon="8.361922183894892"><ele>388.0</ele><time>2026-04-24T13:41:55Z</time></trkpt><trkpt lat="44.34289030984346" lon="8.361929929624912"><ele>388.00000000000006</ele><time>2026-04-24T13:41:57Z</time></trkpt><trkpt lat="44.34282805800172" lon="8.361962846631195"><ele>388.0</ele><time>2026-04-24T13:41:58Z</time></trkpt><trkpt lat="44.34275846569951" lon="8.362017707492"><ele>386.1666666666667</ele><time>2026-04-24T13:41:59Z</time></trkpt><trkpt lat="44.342672943798604" lon="8.362066248165805"><ele>384.33333333333337</ele><time>2026-04-24T13:42:00Z</time></trkpt><trkpt lat="44.34259912711789" lon="8.36210068051958"><ele>382.5</ele><time>2026-04-24T13:42:01Z</time></trkpt><trkpt lat="44.34249776759895" lon="8.362115411084277"><ele>380.6666666666667</ele><time>2026-04-24T13:42:03Z</time></trkpt><trkpt lat="44.342460319858915" lon="8.362014650079981"><ele>378.83333333333337</ele><time>2026-04-24T13:42:05Z</time></trkpt><trkpt lat="44.342519501577456" lon="8.361911189335036"><ele>377.0</ele><time>2026-04-24T13:42:07Z</time></trkpt><trkpt lat="44.34260194993388" lon="8.361906705268291"><ele>377.0</ele><time>2026-04-24T13:42:09Z</time></trkpt><trkpt lat="44.342673654986264" lon="8.361901773671935"><ele>377.0</ele><time>2026-04-24T13:42:11Z</time></trkpt><trkpt lat="44.342766330241915" lon="8.361840135513384"><ele>377.0</ele><time>2026-04-24T13:42:13Z</time></trkpt><trkpt lat="44.34286152348874" lon="8.361735281630596"><ele>377.0</ele><time>2026-04-24T13:42:15Z</time></trkpt><trkpt lat="44.34291032999511" lon="8.361663595231288"><ele>377.0</ele><time>2026-04-24T13:42:16Z</time></trkpt><trkpt lat="44.34294807156206" lon="8.361586791332087"><ele>377.0</ele><time>2026-04-24T13:42:17Z</time></trkpt><trkpt lat="44.342981773915085" lon="8.36150151631548"><ele>377.0</ele><time>2026-04-24T13:42:18Z</time></trkpt><trkpt lat="44.34303542939671" lon="8.361361471917396"><ele>377.0</ele><time>2026-04-24T13:42:20Z</time></trkpt><trkpt lat="44.34309605853308" lon="8.361230795441452"><ele>377.0</ele><time>2026-04-24T13:42:22Z</time></trkpt><trkpt lat="44.34312348564955" lon="8.361088498543541"><ele>377.0</ele><time>2026-04-24T13:42:24Z</time></trkpt><trkpt lat="44.34311927709353" lon="8.360922670423758"><ele>377.0</ele><time>2026-04-24T13:42:26Z</time></trkpt><trkpt lat="44.34308844229895" lon="8.360763122071427"><ele>377.0</ele><time>2026-04-24T13:42:28Z</time></trkpt><trkpt lat="44.343058371055925" lon="8.360663257170202"><ele>377.0</ele><time>2026-04-24T13:42:29Z</time></trkpt><trkpt lat="44.343037523779635" lon="8.360562764530743"><ele>377.0</ele><time>2026-04-24T13:42:30Z</time></trkpt><trkpt lat="44.343012564878116" lon="8.360476007196578"><ele>377.0</ele><time>2026-04-24T13:42:31Z</time></trkpt><trkpt lat="44.34297690634883" lon="8.360365521343928"><ele>377.0</ele><time>2026-04-24T13:42:32Z</time></trkpt><trkpt lat="44.34293982614808" lon="8.360267037664816"><ele>377.0</ele><time>2026-04-24T13:42:33Z</time></trkpt><trkpt lat="44.342908504275215" lon="8.360134043295083"><ele>379.20000000000005</ele><time>2026-04-24T13:42:35Z</time></trkpt><trkpt lat="44.342899572384084" lon="8.359991693817975"><ele>381.4</ele><time>2026-04-24T13:42:37Z</time></trkpt><trkpt lat="44.34284520447572" lon="8.359874452141868"><ele>383.6</ele><time>2026-04-24T13:42:39Z</time></trkpt><trkpt lat="44.34274904960719" lon="8.35980662586546"><ele>385.79999999999995</ele><time>2026-04-24T13:42:41Z</time></trkpt><trkpt lat="44.34267041834558" lon="8.359667486336477"><ele>388.0</ele><time>2026-04-24T13:42:43Z</time></trkpt><trkpt lat="44.342633658950135" lon="8.359573662595858"><ele>390.2857142857143</ele><time>2026-04-24T13:42:44Z</time></trkpt><trkpt lat="44.34259211606802" lon="8.359470033460765"><ele>392.5714285714286</ele><time>2026-04-24T13:42:45Z</time></trkpt><trkpt lat="44.342558950265136" lon="8.359379327075699"><ele>394.8571428571429</ele><time>2026-04-24T13:42:46Z</time></trkpt><trkpt lat="44.342518712855544" lon="8.359300955696062"><ele>397.1428571428571</ele><time>2026-04-24T13:42:47Z</time></trkpt><trkpt lat="44.34248147897379" lon="8.359220878639364"><ele>399.42857142857144</ele><time>2026-04-24T13:42:48Z</time></trkpt><trkpt lat="44.34244122707175" lon="8.359138053789064"><ele>401.7142857142857</ele><time>2026-04-24T13:42:49Z</time></trkpt><trkpt lat="44.34239571498203" lon="8.359066349392073"><ele>404.0</ele><time>2026-04-24T13:42:50Z</time></trkpt><trkpt lat="44.34234838992058" lon="8.359002141975191"><ele>403.99999999999994</ele><time>2026-04-24T13:42:51Z</time></trkpt><trkpt lat="44.34229864410035" lon="8.358947239083895"><ele>404.0</ele><time>2026-04-24T13:42:52Z</time></trkpt><trkpt lat="44.342241482518325" lon="8.358910058858667"><ele>404.0</ele><time>2026-04-24T13:42:53Z</time></trkpt><trkpt lat="44.34211541415746" lon="8.358892649936053"><ele>404.0</ele><time>2026-04-24T13:42:55Z</time></trkpt><trkpt lat="44.34203664465239" lon="8.358904777955907"><ele>403.99999999999994</ele><time>2026-04-24T13:42:56Z</time></trkpt><trkpt lat="44.3419639293491" lon="8.358918447755423"><ele>404.0</ele><time>2026-04-24T13:42:57Z</time></trkpt><trkpt lat="44.341882945977936" lon="8.358952253261565"><ele>401.0</ele><time>2026-04-24T13:42:58Z</time></trkpt><trkpt lat="44.34181002404642" lon="8.358977505094968"><ele>398.0</ele><time>2026-04-24T13:42:59Z</time></trkpt><trkpt lat="44.34170586203241" lon="8.359032418560156"><ele>395.0</ele><time>2026-04-24T13:43:01Z</time></trkpt><trkpt lat="44.34162163491732" lon="8.359083496870461"><ele>392.0</ele><time>2026-04-24T13:43:03Z</time></trkpt><trkpt lat="44.341529898724396" lon="8.359044830538828"><ele>389.0</ele><time>2026-04-24T13:43:05Z</time></trkpt><trkpt lat="44.341491513528865" lon="8.358919642651621"><ele>390.3333333333333</ele><time>2026-04-24T13:43:07Z</time></trkpt><trkpt lat="44.341464050837736" lon="8.35882269869161"><ele>391.66666666666663</ele><time>2026-04-24T13:43:08Z</time></trkpt><trkpt lat="44.34142972891284" lon="8.358724258289577"><ele>393.0</ele><time>2026-04-24T13:43:09Z</time></trkpt><trkpt lat="44.341404291797" lon="8.358589921947743"><ele>394.33333333333337</ele><time>2026-04-24T13:43:11Z</time></trkpt><trkpt lat="44.34145000294592" lon="8.35846577173981"><ele>395.6666666666667</ele><time>2026-04-24T13:43:13Z</time></trkpt><trkpt lat="44.34149171704398" lon="8.358393615969698"><ele>397.0</ele><time>2026-04-24T13:43:14Z</time></trkpt><trkpt lat="44.34154942821399" lon="8.358315976716232"><ele>397.00000000000006</ele><time>2026-04-24T13:43:15Z</time></trkpt><trkpt lat="44.34160956706593" lon="8.3582528095082"><ele>397.0</ele><time>2026-04-24T13:43:16Z</time></trkpt><trkpt lat="44.34169889295692" lon="8.3581236797952"><ele>397.0</ele><time>2026-04-24T13:43:18Z</time></trkpt><trkpt lat="44.3417319856782" lon="8.358040569499213"><ele>397.0</ele><time>2026-04-24T13:43:19Z</time></trkpt><trkpt lat="44.341767650732976" lon="8.357958215546596"><ele>397.00000000000006</ele><time>2026-04-24T13:43:20Z</time></trkpt><trkpt lat="44.34182679844054" lon="8.357875872891094"><ele>397.0</ele><time>2026-04-24T13:43:22Z</time></trkpt><trkpt lat="44.34191406208827" lon="8.357855315166033"><ele>395.00000000000006</ele><time>2026-04-24T13:43:24Z</time></trkpt><trkpt lat="44.34197999546617" lon="8.357866133990536"><ele>393.0</ele><time>2026-04-24T13:43:25Z</time></trkpt><trkpt lat="44.34204303946994" lon="8.357828257414479"><ele>391.0</ele><time>2026-04-24T13:43:27Z</time></trkpt><trkpt lat="44.34210663554314" lon="8.357736865327407"><ele>389.0</ele><time>2026-04-24T13:43:29Z</time></trkpt><trkpt lat="44.34213797182785" lon="8.35757490515894"><ele>387.00000000000006</ele><time>2026-04-24T13:43:31Z</time></trkpt><trkpt lat="44.342135525124384" lon="8.357482900075183"><ele>385.0</ele><time>2026-04-24T13:43:32Z</time></trkpt><trkpt lat="44.34217658148227" lon="8.357325540190532"><ele>383.33333333333337</ele><time>2026-04-24T13:43:34Z</time></trkpt><trkpt lat="44.34221755840644" lon="8.357237344108404"><ele>381.6666666666667</ele><time>2026-04-24T13:43:37Z</time></trkpt><trkpt lat="44.34223071481909" lon="8.35712326976448"><ele>380.0</ele><time>2026-04-24T13:43:39Z</time></trkpt><trkpt lat="44.34221844499044" lon="8.356999485118505"><ele>378.33333333333337</ele><time>2026-04-24T13:43:41Z</time></trkpt><trkpt lat="44.342162126666395" lon="8.356870234714252"><ele>376.6666666666667</ele><time>2026-04-24T13:43:43Z</time></trkpt><trkpt lat="44.34212661804598" lon="8.356792284368405"><ele>375.0</ele><time>2026-04-24T13:43:44Z</time></trkpt><trkpt lat="44.3420920735921" lon="8.356653060688148"><ele>375.0</ele><time>2026-04-24T13:43:46Z</time></trkpt><trkpt lat="44.34214294286396" lon="8.356540071726403"><ele>375.0</ele><time>2026-04-24T13:43:48Z</time></trkpt><trkpt lat="44.34223784675132" lon="8.356446573589421"><ele>375.0</ele><time>2026-04-24T13:43:50Z</time></trkpt><trkpt lat="44.34229742835874" lon="8.356332387309369"><ele>375.0</ele><time>2026-04-24T13:43:52Z</time></trkpt><trkpt lat="44.34230746135711" lon="8.356184043836953"><ele>375.0</ele><time>2026-04-24T13:43:54Z</time></trkpt><trkpt lat="44.34231218826652" lon="8.35609407152799"><ele>376.4</ele><time>2026-04-24T13:43:55Z</time></trkpt><trkpt lat="44.34226959006546" lon="8.355941355824923"><ele>377.8</ele><time>2026-04-24T13:43:57Z</time></trkpt><trkpt lat="44.34218448317762" lon="8.35581999161114"><ele>379.20000000000005</ele><time>2026-04-24T13:43:59Z</time></trkpt><trkpt lat="44.342112947051966" lon="8.355749513279667"><ele>380.6</ele><time>2026-04-24T13:44:01Z</time></trkpt><trkpt lat="44.34209033008087" lon="8.355619045987353"><ele>382.0</ele><time>2026-04-24T13:44:03Z</time></trkpt><trkpt lat="44.34212587662822" lon="8.355482895421634"><ele>383.0</ele><time>2026-04-24T13:44:05Z</time></trkpt><trkpt lat="44.34214658408708" lon="8.355398676229827"><ele>384.0</ele><time>2026-04-24T13:44:06Z</time></trkpt><trkpt lat="44.3421392568183" lon="8.355222533161738"><ele>385.0</ele><time>2026-04-24T13:44:08Z</time></trkpt><trkpt lat="44.34209116323689" lon="8.355079566294068"><ele>386.0</ele><time>2026-04-24T13:44:10Z</time></trkpt><trkpt lat="44.34202084887158" lon="8.354955325135315"><ele>387.0</ele><time>2026-04-24T13:44:12Z</time></trkpt><trkpt lat="44.34194697053693" lon="8.35487501187008"><ele>387.0</ele><time>2026-04-24T13:44:14Z</time></trkpt><trkpt lat="44.341869081325356" lon="8.354752636893165"><ele>387.0</ele><time>2026-04-24T13:44:16Z</time></trkpt><trkpt lat="44.341824528253106" lon="8.354635985494902"><ele>387.0</ele><time>2026-04-24T13:44:17Z</time></trkpt><trkpt lat="44.34178710496988" lon="8.35452855533713"><ele>387.0</ele><time>2026-04-24T13:44:18Z</time></trkpt><trkpt lat="44.34171578303526" lon="8.35439591603064"><ele>387.0</ele><time>2026-04-24T13:44:20Z</time></trkpt><trkpt lat="44.341666888626584" lon="8.354319830875284"><ele>387.3333333333333</ele><time>2026-04-24T13:44:21Z</time></trkpt><trkpt lat="44.34161421026305" lon="8.35424906824265"><ele>387.66666666666663</ele><time>2026-04-24T13:44:22Z</time></trkpt><trkpt lat="44.34152850245428" lon="8.354176250819323"><ele>388.0</ele><time>2026-04-24T13:44:24Z</time></trkpt><trkpt lat="44.341437732137855" lon="8.35419283576036"><ele>388.3333333333333</ele><time>2026-04-24T13:44:26Z</time></trkpt><trkpt lat="44.34137342209213" lon="8.354287229878645"><ele>388.66666666666663</ele><time>2026-04-24T13:44:28Z</time></trkpt><trkpt lat="44.3413312464166" lon="8.35437441354351"><ele>389.0</ele><time>2026-04-24T13:44:29Z</time></trkpt><trkpt lat="44.341302669876264" lon="8.354489224955001"><ele>392.16666666666663</ele><time>2026-04-24T13:44:30Z</time></trkpt><trkpt lat="44.34129533606057" lon="8.354603456703332"><ele>395.3333333333333</ele><time>2026-04-24T13:44:31Z</time></trkpt><trkpt lat="44.34129041603869" lon="8.354705040163786"><ele>398.5</ele><time>2026-04-24T13:44:32Z</time></trkpt><trkpt lat="44.341288874746155" lon="8.3548292791312"><ele>401.66666666666663</ele><time>2026-04-24T13:44:33Z</time></trkpt><trkpt lat="44.34129467337403" lon="8.354963094427777"><ele>404.8333333333333</ele><time>2026-04-24T13:44:34Z</time></trkpt><trkpt lat="44.34129494969313" lon="8.355086359858964"><ele>408.0</ele><time>2026-04-24T13:44:35Z</time></trkpt><trkpt lat="44.341299664798626" lon="8.35520460476197"><ele>408.0</ele><time>2026-04-24T13:44:36Z</time></trkpt><trkpt lat="44.34129545355368" lon="8.355308363056169"><ele>408.0</ele><time>2026-04-24T13:44:37Z</time></trkpt><trkpt lat="44.34129102327336" lon="8.355399744984615"><ele>408.0</ele><time>2026-04-24T13:44:38Z</time></trkpt><trkpt lat="44.34126917377289" lon="8.35549364551233"><ele>408.0</ele><time>2026-04-24T13:44:39Z</time></trkpt><trkpt lat="44.34123343446724" lon="8.35557968537382"><ele>408.0</ele><time>2026-04-24T13:44:40Z</time></trkpt><trkpt lat="44.34119183479622" lon="8.35566113290325"><ele>408.0</ele><time>2026-04-24T13:44:41Z</time></trkpt><trkpt lat="44.341133827186745" lon="8.355721497099184"><ele>408.0</ele><time>2026-04-24T13:44:42Z</time></trkpt><trkpt lat="44.34107182438581" lon="8.355748220484381"><ele>404.59999999999997</ele><time>2026-04-24T13:44:43Z</time></trkpt><trkpt lat="44.34094500141072" lon="8.355729164665007"><ele>401.2</ele><time>2026-04-24T13:44:45Z</time></trkpt><trkpt lat="44.340871775429235" lon="8.355697033539945"><ele>397.8</ele><time>2026-04-24T13:44:46Z</time></trkpt><trkpt lat="44.34079662225009" lon="8.355691627639176"><ele>394.4</ele><time>2026-04-24T13:44:48Z</time></trkpt><trkpt lat="44.340685873075344" lon="8.355771183256389"><ele>391.0</ele><time>2026-04-24T13:44:50Z</time></trkpt><trkpt lat="44.34062910402005" lon="8.355840339556062"><ele>391.00000000000006</ele><time>2026-04-24T13:44:51Z</time></trkpt><trkpt lat="44.340581561193424" lon="8.355901272992226"><ele>391.0</ele><time>2026-04-24T13:44:52Z</time></trkpt><trkpt lat="44.34053006077666" lon="8.355970762220785"><ele>391.0</ele><time>2026-04-24T13:44:53Z</time></trkpt><trkpt lat="44.340437226302114" lon="8.356044952324716"><ele>391.0</ele><time>2026-04-24T13:44:55Z</time></trkpt><trkpt lat="44.34033783466489" lon="8.356012014327328"><ele>391.00000000000006</ele><time>2026-04-24T13:44:57Z</time></trkpt><trkpt lat="44.34027469340869" lon="8.355916754547282"><ele>391.0</ele><time>2026-04-24T13:44:59Z</time></trkpt><trkpt lat="44.340224509760844" lon="8.355720208921078"><ele>390.0</ele><time>2026-04-24T13:45:01Z</time></trkpt><trkpt lat="44.34019412581498" lon="8.355589560570198"><ele>389.0</ele><time>2026-04-24T13:45:02Z</time></trkpt><trkpt lat="44.34015499539484" lon="8.355481164440564"><ele>388.0</ele><time>2026-04-24T13:45:03Z</time></trkpt><trkpt lat="44.34011188534485" lon="8.355370921208142"><ele>387.0</ele><time>2026-04-24T13:45:04Z</time></trkpt><trkpt lat="44.34007054230586" lon="8.35526451078134"><ele>386.0</ele><time>2026-04-24T13:45:05Z</time></trkpt><trkpt lat="44.34002082615584" lon="8.355149366184536"><ele>389.0</ele><time>2026-04-24T13:45:06Z</time></trkpt><trkpt lat="44.339981445526305" lon="8.35503822330711"><ele>392.0</ele><time>2026-04-24T13:45:07Z</time></trkpt><trkpt lat="44.33992726875704" lon="8.354917892077413"><ele>395.0</ele><time>2026-04-24T13:45:09Z</time></trkpt><trkpt lat="44.33986698418656" lon="8.354779114501302"><ele>398.0</ele><time>2026-04-24T13:45:11Z</time></trkpt><trkpt lat="44.339816831920075" lon="8.354670458650213"><ele>401.0</ele><time>2026-04-24T13:45:13Z</time></trkpt><trkpt lat="44.339788803731246" lon="8.354528059505466"><ele>402.20000000000005</ele><time>2026-04-24T13:45:15Z</time></trkpt><trkpt lat="44.339822384141016" lon="8.354369337333193"><ele>403.40000000000003</ele><time>2026-04-24T13:45:17Z</time></trkpt><trkpt lat="44.33987362054134" lon="8.354233000162198"><ele>404.6</ele><time>2026-04-24T13:45:19Z</time></trkpt><trkpt lat="44.33993017293302" lon="8.35409156687004"><ele>405.8</ele><time>2026-04-24T13:45:21Z</time></trkpt><trkpt lat="44.339975371594534" lon="8.353977611130933"><ele>407.0</ele><time>2026-04-24T13:45:23Z</time></trkpt><trkpt lat="44.34004839402575" lon="8.353831966618223"><ele>407.8</ele><time>2026-04-24T13:45:25Z</time></trkpt><trkpt lat="44.340121699600466" lon="8.353726841360466"><ele>408.6</ele><time>2026-04-24T13:45:27Z</time></trkpt><trkpt lat="44.3401838760815" lon="8.353591023281792"><ele>409.40000000000003</ele><time>2026-04-24T13:45:29Z</time></trkpt><trkpt lat="44.340209162029424" lon="8.353505124319833"><ele>410.20000000000005</ele><time>2026-04-24T13:45:30Z</time></trkpt><trkpt lat="44.34023343482396" lon="8.353367017211957"><ele>411.0</ele><time>2026-04-24T13:45:32Z</time></trkpt><trkpt lat="44.34026609192964" lon="8.353230276065036"><ele>411.0</ele><time>2026-04-24T13:45:34Z</time></trkpt><trkpt lat="44.34030589092183" lon="8.353083940509762"><ele>411.0</ele><time>2026-04-24T13:45:36Z</time></trkpt><trkpt lat="44.3403229054349" lon="8.352991114710177"><ele>411.0</ele><time>2026-04-24T13:45:37Z</time></trkpt><trkpt lat="44.340340755643794" lon="8.352847403374003"><ele>411.0</ele><time>2026-04-24T13:45:39Z</time></trkpt><trkpt lat="44.34031962597356" lon="8.352699659222239"><ele>411.0</ele><time>2026-04-24T13:45:41Z</time></trkpt><trkpt lat="44.34023438932733" lon="8.352636647329039"><ele>412.8</ele><time>2026-04-24T13:45:43Z</time></trkpt><trkpt lat="44.3401363390449" lon="8.35266561134654"><ele>414.6</ele><time>2026-04-24T13:45:45Z</time></trkpt><trkpt lat="44.340017793691636" lon="8.352670924404869"><ele>416.4</ele><time>2026-04-24T13:45:47Z</time></trkpt><trkpt lat="44.339931371595185" lon="8.35264633986611"><ele>418.2</ele><time>2026-04-24T13:45:49Z</time></trkpt><trkpt lat="44.33987954331009" lon="8.352522032744824"><ele>420.0</ele><time>2026-04-24T13:45:52Z</time></trkpt><trkpt lat="44.33988127522309" lon="8.352395804748964"><ele>420.0</ele><time>2026-04-24T13:45:54Z</time></trkpt><trkpt lat="44.33986654752496" lon="8.352228385976833"><ele>420.0</ele><time>2026-04-24T13:45:56Z</time></trkpt><trkpt lat="44.33986674033144" lon="8.352104467181425"><ele>420.0</ele><time>2026-04-24T13:45:58Z</time></trkpt><trkpt lat="44.33987955622335" lon="8.351975912719794"><ele>420.0</ele><time>2026-04-24T13:46:00Z</time></trkpt><trkpt lat="44.33992808049396" lon="8.351804711343553"><ele>420.0</ele><time>2026-04-24T13:46:02Z</time></trkpt><trkpt lat="44.33998234001885" lon="8.351648876096373"><ele>420.8333333333333</ele><time>2026-04-24T13:46:04Z</time></trkpt><trkpt lat="44.34003496695379" lon="8.351538086830843"><ele>421.66666666666663</ele><time>2026-04-24T13:46:06Z</time></trkpt><trkpt lat="44.34010519159566" lon="8.351475171851574"><ele>422.5</ele><time>2026-04-24T13:46:08Z</time></trkpt><trkpt lat="44.34017597864924" lon="8.35141359440404"><ele>423.3333333333333</ele><time>2026-04-24T13:46:10Z</time></trkpt><trkpt lat="44.34021954384235" lon="8.351311365071137"><ele>424.16666666666663</ele><time>2026-04-24T13:46:12Z</time></trkpt><trkpt lat="44.340240504865584" lon="8.351173115013964"><ele>425.0</ele><time>2026-04-24T13:46:14Z</time></trkpt><trkpt lat="44.340264457839275" lon="8.351045689658978"><ele>426.8</ele><time>2026-04-24T13:46:16Z</time></trkpt><trkpt lat="44.340268203763216" lon="8.3508973676873"><ele>428.6</ele><time>2026-04-24T13:46:18Z</time></trkpt><trkpt lat="44.34028163034707" lon="8.35080923113648"><ele>430.4</ele><time>2026-04-24T13:46:19Z</time></trkpt><trkpt lat="44.340331570537344" lon="8.350715017857533"><ele>432.2</ele><time>2026-04-24T13:46:21Z</time></trkpt><trkpt lat="44.34041400349721" lon="8.350638152401485"><ele>434.0</ele><time>2026-04-24T13:46:24Z</time></trkpt><trkpt lat="44.3405055455354" lon="8.350555048926333"><ele>435.0</ele><time>2026-04-24T13:46:26Z</time></trkpt><trkpt lat="44.3406056085848" lon="8.350451244839617"><ele>436.0</ele><time>2026-04-24T13:46:28Z</time></trkpt><trkpt lat="44.340638096611166" lon="8.350314023019346"><ele>437.0</ele><time>2026-04-24T13:46:30Z</time></trkpt><trkpt lat="44.34062540663427" lon="8.350158454893014"><ele>438.0</ele><time>2026-04-24T13:46:32Z</time></trkpt><trkpt lat="44.34057414673473" lon="8.350041067057127"><ele>439.0</ele><time>2026-04-24T13:46:34Z</time></trkpt><trkpt lat="44.340558429047775" lon="8.349945614197049"><ele>439.0</ele><time>2026-04-24T13:46:36Z</time></trkpt><trkpt lat="44.34055298252499" lon="8.349805518358751"><ele>439.0</ele><time>2026-04-24T13:46:40Z</time></trkpt><trkpt lat="44.34057580225252" lon="8.349664792146205"><ele>439.0</ele><time>2026-04-24T13:46:42Z</time></trkpt><trkpt lat="44.34057246086355" lon="8.349512515781583"><ele>439.0</ele><time>2026-04-24T13:46:44Z</time></trkpt><trkpt lat="44.340404047692125" lon="8.34943115661885"><ele>441.33333333333337</ele><time>2026-04-24T13:46:45Z</time></trkpt><trkpt lat="44.340390434066876" lon="8.349316148178998"><ele>443.66666666666663</ele><time>2026-04-24T13:46:47Z</time></trkpt><trkpt lat="44.340377886397135" lon="8.349183416141747"><ele>446.0</ele><time>2026-04-24T13:46:49Z</time></trkpt><trkpt lat="44.34075617929053" lon="8.348977266080839"><ele>446.4</ele><time>2026-04-24T13:46:52Z</time></trkpt><trkpt lat="44.34083851586561" lon="8.348904495499191"><ele>446.8</ele><time>2026-04-24T13:46:54Z</time></trkpt><trkpt lat="44.34092953785777" lon="8.348849420115403"><ele>447.19999999999993</ele><time>2026-04-24T13:46:56Z</time></trkpt><trkpt lat="44.341044729050765" lon="8.34879557926854"><ele>447.59999999999997</ele><time>2026-04-24T13:46:58Z</time></trkpt><trkpt lat="44.34110427457164" lon="8.348760442354024"><ele>448.0</ele><time>2026-04-24T13:46:59Z</time></trkpt><trkpt lat="44.34119098493368" lon="8.34869572431405"><ele>450.2</ele><time>2026-04-24T13:47:01Z</time></trkpt><trkpt lat="44.34127835932523" lon="8.348620273582094"><ele>452.4</ele><time>2026-04-24T13:47:03Z</time></trkpt><trkpt lat="44.34137577568158" lon="8.348549514144452"><ele>454.59999999999997</ele><time>2026-04-24T13:47:05Z</time></trkpt><trkpt lat="44.341481011875" lon="8.348513132607236"><ele>456.79999999999995</ele><time>2026-04-24T13:47:07Z</time></trkpt><trkpt lat="44.3415956489812" lon="8.348488965082815"><ele>459.0</ele><time>2026-04-24T13:47:09Z</time></trkpt><trkpt lat="44.34171249974483" lon="8.34847913310177"><ele>459.2</ele><time>2026-04-24T13:47:11Z</time></trkpt><trkpt lat="44.341792415617235" lon="8.34846963909607"><ele>459.4</ele><time>2026-04-24T13:47:12Z</time></trkpt><trkpt lat="44.34186023917605" lon="8.348448785108497"><ele>459.6</ele><time>2026-04-24T13:47:13Z</time></trkpt><trkpt lat="44.34192200750204" lon="8.3484197633524"><ele>459.8</ele><time>2026-04-24T13:47:14Z</time></trkpt><trkpt lat="44.34200354205208" lon="8.3483327767192"><ele>460.0</ele><time>2026-04-24T13:47:16Z</time></trkpt><trkpt lat="44.34210393261502" lon="8.348198237403476"><ele>460.00000000000006</ele><time>2026-04-24T13:47:18Z</time></trkpt><trkpt lat="44.34218739965957" lon="8.348106282200035"><ele>460.0</ele><time>2026-04-24T13:47:19Z</time></trkpt><trkpt lat="44.34225742687809" lon="8.348015974626653"><ele>460.0</ele><time>2026-04-24T13:47:20Z</time></trkpt><trkpt lat="44.3423089269422" lon="8.347938011572184"><ele>460.0</ele><time>2026-04-24T13:47:21Z</time></trkpt><trkpt lat="44.34235502499048" lon="8.347875279463981"><ele>460.00000000000006</ele><time>2026-04-24T13:47:22Z</time></trkpt><trkpt lat="44.342409584619126" lon="8.347828700817715"><ele>460.0</ele><time>2026-04-24T13:47:23Z</time></trkpt><trkpt lat="44.34247719830694" lon="8.347797473776028"><ele>459.8</ele><time>2026-04-24T13:47:24Z</time></trkpt><trkpt lat="44.342587834895184" lon="8.347755189871142"><ele>459.6</ele><time>2026-04-24T13:47:26Z</time></trkpt><trkpt lat="44.342675463286" lon="8.347744060159462"><ele>459.4</ele><time>2026-04-24T13:47:28Z</time></trkpt><trkpt lat="44.342770900681884" lon="8.347769173630233"><ele>459.2</ele><time>2026-04-24T13:47:30Z</time></trkpt><trkpt lat="44.342831693911506" lon="8.347799576270923"><ele>459.0</ele><time>2026-04-24T13:47:31Z</time></trkpt><trkpt lat="44.34293556061988" lon="8.347863959073567"><ele>459.0</ele><time>2026-04-24T13:47:33Z</time></trkpt><trkpt lat="44.34303344145128" lon="8.347922517385834"><ele>459.0</ele><time>2026-04-24T13:47:35Z</time></trkpt><trkpt lat="44.34313241323323" lon="8.347975039608341"><ele>459.0</ele><time>2026-04-24T13:47:37Z</time></trkpt><trkpt lat="44.343206706084054" lon="8.348015555285196"><ele>459.0</ele><time>2026-04-24T13:47:39Z</time></trkpt><trkpt lat="44.3433114320457" lon="8.34802426771608"><ele>459.0</ele><time>2026-04-24T13:47:43Z</time></trkpt><trkpt lat="44.34338707105943" lon="8.348007527912115"><ele>457.8333333333333</ele><time>2026-04-24T13:47:45Z</time></trkpt><trkpt lat="44.34346045321317" lon="8.347964669535006"><ele>456.66666666666663</ele><time>2026-04-24T13:47:47Z</time></trkpt><trkpt lat="44.3435626929279" lon="8.347892238450562"><ele>455.5</ele><time>2026-04-24T13:47:49Z</time></trkpt><trkpt lat="44.34362472889774" lon="8.347847989015849"><ele>454.3333333333333</ele><time>2026-04-24T13:47:50Z</time></trkpt><trkpt lat="44.34368493515039" lon="8.34781262638701"><ele>453.16666666666663</ele><time>2026-04-24T13:47:51Z</time></trkpt><trkpt lat="44.34378359264219" lon="8.347784846312972"><ele>452.0</ele><time>2026-04-24T13:47:53Z</time></trkpt><trkpt lat="44.34389925007127" lon="8.347794119583225"><ele>451.20000000000005</ele><time>2026-04-24T13:47:55Z</time></trkpt><trkpt lat="44.34398358925615" lon="8.347812628400998"><ele>450.40000000000003</ele><time>2026-04-24T13:47:56Z</time></trkpt><trkpt lat="44.344053282498976" lon="8.347818330104129"><ele>449.59999999999997</ele><time>2026-04-24T13:47:57Z</time></trkpt><trkpt lat="44.344168109684574" lon="8.347801174263816"><ele>448.79999999999995</ele><time>2026-04-24T13:47:59.001Z</time></trkpt><trkpt lat="44.34426929771342" lon="8.347820436328083"><ele>448.0</ele><time>2026-04-24T13:48:01.001Z</time></trkpt><trkpt lat="44.34437971279727" lon="8.347875673661733"><ele>448.0</ele><time>2026-04-24T13:48:03.001Z</time></trkpt><trkpt lat="44.34450265831028" lon="8.347876387316012"><ele>448.0</ele><time>2026-04-24T13:48:05.001Z</time></trkpt><trkpt lat="44.34460253519433" lon="8.347826482981075"><ele>448.0</ele><time>2026-04-24T13:48:07.001Z</time></trkpt><trkpt lat="44.34470500223423" lon="8.347751959926537"><ele>448.0</ele><time>2026-04-24T13:48:09.001Z</time></trkpt><trkpt lat="44.344806231134115" lon="8.34766737276375"><ele>447.4</ele><time>2026-04-24T13:48:11.001Z</time></trkpt><trkpt lat="44.34486757963593" lon="8.347615084582275"><ele>446.79999999999995</ele><time>2026-04-24T13:48:12.001Z</time></trkpt><trkpt lat="44.34496275057589" lon="8.347521846276052"><ele>446.2</ele><time>2026-04-24T13:48:14.001Z</time></trkpt><trkpt lat="44.345044300787" lon="8.3474175835068"><ele>445.6</ele><time>2026-04-24T13:48:16.001Z</time></trkpt><trkpt lat="44.34510878552204" lon="8.347341698758862"><ele>445.0</ele><time>2026-04-24T13:48:18Z</time></trkpt><trkpt lat="44.34511718646988" lon="8.347237430101021"><ele>444.83333333333337</ele><time>2026-04-24T13:48:20Z</time></trkpt><trkpt lat="44.34509276202721" lon="8.347131053492072"><ele>444.6666666666667</ele><time>2026-04-24T13:48:22Z</time></trkpt><trkpt lat="44.34511335337097" lon="8.347013613937383"><ele>444.5</ele><time>2026-04-24T13:48:24Z</time></trkpt><trkpt lat="44.34514284532749" lon="8.346897330430881"><ele>444.33333333333337</ele><time>2026-04-24T13:48:26Z</time></trkpt><trkpt lat="44.34517128396492" lon="8.34681347266626"><ele>444.1666666666667</ele><time>2026-04-24T13:48:28Z</time></trkpt><trkpt lat="44.34524034581824" lon="8.346728715306934"><ele>444.0</ele><time>2026-04-24T13:48:30Z</time></trkpt><trkpt lat="44.34536600032546" lon="8.346668441315847"><ele>444.0</ele><time>2026-04-24T13:48:32Z</time></trkpt><trkpt lat="44.345444116839104" lon="8.346633374766952"><ele>444.0</ele><time>2026-04-24T13:48:33Z</time></trkpt><trkpt lat="44.34553188865053" lon="8.346581530787214"><ele>444.0</ele><time>2026-04-24T13:48:34Z</time></trkpt><trkpt lat="44.34562878672727" lon="8.346523681801973"><ele>444.0</ele><time>2026-04-24T13:48:35Z</time></trkpt><trkpt lat="44.34573410389754" lon="8.346492112615977"><ele>444.0</ele><time>2026-04-24T13:48:36Z</time></trkpt><trkpt lat="44.345830872566246" lon="8.346466984854763"><ele>444.6666666666667</ele><time>2026-04-24T13:48:37Z</time></trkpt><trkpt lat="44.34592851209059" lon="8.34646504601977"><ele>445.33333333333337</ele><time>2026-04-24T13:48:38Z</time></trkpt><trkpt lat="44.34602948549682" lon="8.346481702891484"><ele>446.0</ele><time>2026-04-24T13:48:39Z</time></trkpt><trkpt lat="44.34611948989621" lon="8.346496020780478"><ele>446.6666666666667</ele><time>2026-04-24T13:48:40Z</time></trkpt><trkpt lat="44.346199626883426" lon="8.346491180371366"><ele>447.33333333333337</ele><time>2026-04-24T13:48:41Z</time></trkpt><trkpt lat="44.346276366024064" lon="8.34646626844982"><ele>448.0</ele><time>2026-04-24T13:48:42Z</time></trkpt><trkpt lat="44.34634203989698" lon="8.346412221310949"><ele>449.59999999999997</ele><time>2026-04-24T13:48:43Z</time></trkpt><trkpt lat="44.346409349621496" lon="8.346339484509285"><ele>451.19999999999993</ele><time>2026-04-24T13:48:44Z</time></trkpt><trkpt lat="44.34645900242778" lon="8.346221596231121"><ele>452.8</ele><time>2026-04-24T13:48:45Z</time></trkpt><trkpt lat="44.3465060308924" lon="8.346099926863307"><ele>454.4</ele><time>2026-04-24T13:48:46Z</time></trkpt><trkpt lat="44.34654650818897" lon="8.34598415796024"><ele>456.0</ele><time>2026-04-24T13:48:47Z</time></trkpt><trkpt lat="44.34662872120366" lon="8.34591885219205"><ele>456.0</ele><time>2026-04-24T13:48:48Z</time></trkpt><trkpt lat="44.346718583198445" lon="8.34587022072507"><ele>456.0</ele><time>2026-04-24T13:48:49Z</time></trkpt><trkpt lat="44.34682314228268" lon="8.345817448724853"><ele>456.0</ele><time>2026-04-24T13:48:50Z</time></trkpt><trkpt lat="44.34691493547537" lon="8.345780759452177"><ele>456.0</ele><time>2026-04-24T13:48:51Z</time></trkpt><trkpt lat="44.34700020014499" lon="8.345754967819296"><ele>456.0</ele><time>2026-04-24T13:48:52Z</time></trkpt><trkpt lat="44.34708313971312" lon="8.34576873632328"><ele>456.0</ele><time>2026-04-24T13:48:53Z</time></trkpt><trkpt lat="44.347163256148505" lon="8.34582564358784"><ele>456.0</ele><time>2026-04-24T13:48:54Z</time></trkpt><trkpt lat="44.34723371456592" lon="8.345904812527422"><ele>456.0</ele><time>2026-04-24T13:48:55Z</time></trkpt><trkpt lat="44.34730969977792" lon="8.345960977325623"><ele>456.0</ele><time>2026-04-24T13:48:56Z</time></trkpt><trkpt lat="44.34737674165818" lon="8.345976649406166"><ele>456.0</ele><time>2026-04-24T13:48:57Z</time></trkpt><trkpt lat="44.34744156035983" lon="8.345951311383184"><ele>456.0</ele><time>2026-04-24T13:48:58Z</time></trkpt><trkpt lat="44.34749412811316" lon="8.345884491772036"><ele>457.20000000000005</ele><time>2026-04-24T13:48:59Z</time></trkpt><trkpt lat="44.3475354147368" lon="8.34580596458001"><ele>458.40000000000003</ele><time>2026-04-24T13:49:00Z</time></trkpt><trkpt lat="44.347543445672436" lon="8.345668495684116"><ele>459.6</ele><time>2026-04-24T13:49:01Z</time></trkpt><trkpt lat="44.34753763370548" lon="8.345513960929301"><ele>460.8</ele><time>2026-04-24T13:49:02Z</time></trkpt><trkpt lat="44.3475637126592" lon="8.345374675668113"><ele>462.0</ele><time>2026-04-24T13:49:03Z</time></trkpt><trkpt lat="44.347578197658024" lon="8.345266632575992"><ele>463.0</ele><time>2026-04-24T13:49:04Z</time></trkpt><trkpt lat="44.3476605250805" lon="8.345208517959431"><ele>464.00000000000006</ele><time>2026-04-24T13:49:05Z</time></trkpt><trkpt lat="44.347741403934364" lon="8.34515985016373"><ele>465.00000000000006</ele><time>2026-04-24T13:49:06Z</time></trkpt><trkpt lat="44.34782690677918" lon="8.34506870671409"><ele>466.0</ele><time>2026-04-24T13:49:07Z</time></trkpt><trkpt lat="44.3479288704838" lon="8.344994251635867"><ele>467.0</ele><time>2026-04-24T13:49:08Z</time></trkpt><trkpt lat="44.348034541913584" lon="8.344892679414158"><ele>466.8</ele><time>2026-04-24T13:49:09Z</time></trkpt><trkpt lat="44.3481450136165" lon="8.344829829834602"><ele>466.6</ele><time>2026-04-24T13:49:10Z</time></trkpt><trkpt lat="44.34823621652055" lon="8.344799626874671"><ele>466.40000000000003</ele><time>2026-04-24T13:49:11Z</time></trkpt><trkpt lat="44.34831938574333" lon="8.344790642453303"><ele>466.20000000000005</ele><time>2026-04-24T13:49:12Z</time></trkpt><trkpt lat="44.34840102991186" lon="8.344821058577732"><ele>466.0</ele><time>2026-04-24T13:49:13Z</time></trkpt><trkpt lat="44.3484937957887" lon="8.344819272263829"><ele>466.0</ele><time>2026-04-24T13:49:14Z</time></trkpt><trkpt lat="44.34856813814329" lon="8.344833781505427"><ele>466.0</ele><time>2026-04-24T13:49:15Z</time></trkpt><trkpt lat="44.34866277405864" lon="8.344736791731993"><ele>466.0</ele><time>2026-04-24T13:49:17Z</time></trkpt><trkpt lat="44.34868400823161" lon="8.344620560110572"><ele>466.0</ele><time>2026-04-24T13:49:18Z</time></trkpt><trkpt lat="44.34868669560271" lon="8.344475259367847"><ele>466.0</ele><time>2026-04-24T13:49:19Z</time></trkpt><trkpt lat="44.34867593452427" lon="8.344320186537734"><ele>466.4</ele><time>2026-04-24T13:49:20Z</time></trkpt><trkpt lat="44.3486978092374" lon="8.344193751775098"><ele>466.8</ele><time>2026-04-24T13:49:21Z</time></trkpt><trkpt lat="44.34877637746511" lon="8.34411882525768"><ele>467.19999999999993</ele><time>2026-04-24T13:49:22Z</time></trkpt><trkpt lat="44.348851586880905" lon="8.344022699346043"><ele>467.59999999999997</ele><time>2026-04-24T13:49:23Z</time></trkpt><trkpt lat="44.34894315144892" lon="8.343925004345056"><ele>468.0</ele><time>2026-04-24T13:49:24Z</time></trkpt><trkpt lat="44.349054446147164" lon="8.343809650641552"><ele>468.5</ele><time>2026-04-24T13:49:25Z</time></trkpt><trkpt lat="44.34917306919639" lon="8.34366478829158"><ele>469.0</ele><time>2026-04-24T13:49:26Z</time></trkpt><trkpt lat="44.3492853716276" lon="8.343551022886341"><ele>469.5</ele><time>2026-04-24T13:49:27Z</time></trkpt><trkpt lat="44.349409718118075" lon="8.343487204185069"><ele>470.0</ele><time>2026-04-24T13:49:28Z</time></trkpt><trkpt lat="44.34952495601959" lon="8.343449307378558"><ele>470.0</ele><time>2026-04-24T13:49:29Z</time></trkpt><trkpt lat="44.349654727599734" lon="8.343412690288195"><ele>470.0</ele><time>2026-04-24T13:49:30Z</time></trkpt><trkpt lat="44.349770349468095" lon="8.343391258132275"><ele>470.0</ele><time>2026-04-24T13:49:31Z</time></trkpt><trkpt lat="44.34986354108071" lon="8.34338899919575"><ele>470.0</ele><time>2026-04-24T13:49:32Z</time></trkpt><trkpt lat="44.3499359832772" lon="8.343410787978323"><ele>470.0</ele><time>2026-04-24T13:49:33Z</time></trkpt><trkpt lat="44.35002032048756" lon="8.343457522517744"><ele>469.3333333333333</ele><time>2026-04-24T13:49:34Z</time></trkpt><trkpt lat="44.35010312119165" lon="8.343533795267476"><ele>468.66666666666663</ele><time>2026-04-24T13:49:35Z</time></trkpt><trkpt lat="44.350183820883665" lon="8.343611904419772"><ele>468.0</ele><time>2026-04-24T13:49:36Z</time></trkpt><trkpt lat="44.35025818324955" lon="8.34365689850423"><ele>467.33333333333337</ele><time>2026-04-24T13:49:37Z</time></trkpt><trkpt lat="44.35033758589707" lon="8.343668084738546"><ele>466.6666666666667</ele><time>2026-04-24T13:49:38Z</time></trkpt><trkpt lat="44.350423562503956" lon="8.343650021255376"><ele>466.0</ele><time>2026-04-24T13:49:39Z</time></trkpt><trkpt lat="44.35052899125459" lon="8.34361478320158"><ele>465.5</ele><time>2026-04-24T13:49:40Z</time></trkpt><trkpt lat="44.35064008837594" lon="8.343591259239206"><ele>465.0</ele><time>2026-04-24T13:49:41Z</time></trkpt><trkpt lat="44.35076215295159" lon="8.343585597085541"><ele>464.5</ele><time>2026-04-24T13:49:42Z</time></trkpt><trkpt lat="44.35088901702092" lon="8.34358161354334"><ele>464.0</ele><time>2026-04-24T13:49:43Z</time></trkpt><trkpt lat="44.351002056842006" lon="8.343558411193763"><ele>464.0</ele><time>2026-04-24T13:49:44Z</time></trkpt><trkpt lat="44.35110438322168" lon="8.34352788451799"><ele>464.0</ele><time>2026-04-24T13:49:45Z</time></trkpt><trkpt lat="44.35120613231357" lon="8.343503044016705"><ele>464.0</ele><time>2026-04-24T13:49:46Z</time></trkpt><trkpt lat="44.351310140200304" lon="8.343513893547769"><ele>464.0</ele><time>2026-04-24T13:49:47Z</time></trkpt><trkpt lat="44.35142195576304" lon="8.343560404197483"><ele>464.0</ele><time>2026-04-24T13:49:48Z</time></trkpt><trkpt lat="44.351540137136" lon="8.343614967500663"><ele>463.2</ele><time>2026-04-24T13:49:49Z</time></trkpt><trkpt lat="44.35165160696869" lon="8.34365042524135"><ele>462.4</ele><time>2026-04-24T13:49:50Z</time></trkpt><trkpt lat="44.35175365185252" lon="8.343666806747917"><ele>461.6</ele><time>2026-04-24T13:49:51Z</time></trkpt><trkpt lat="44.35186300606156" lon="8.343661804834133"><ele>460.8</ele><time>2026-04-24T13:49:52Z</time></trkpt><trkpt lat="44.35197649214213" lon="8.343624807649405"><ele>460.0</ele><time>2026-04-24T13:49:53Z</time></trkpt><trkpt lat="44.35209133542239" lon="8.343571012116824"><ele>460.00000000000006</ele><time>2026-04-24T13:49:54Z</time></trkpt><trkpt lat="44.35219682185723" lon="8.343517107124828"><ele>460.0</ele><time>2026-04-24T13:49:55Z</time></trkpt><trkpt lat="44.35227668966869" lon="8.343499273371679"><ele>460.0</ele><time>2026-04-24T13:49:56Z</time></trkpt><trkpt lat="44.3523490597433" lon="8.343489854673718"><ele>460.0</ele><time>2026-04-24T13:49:57Z</time></trkpt><trkpt lat="44.35242624231622" lon="8.343504961297258"><ele>460.00000000000006</ele><time>2026-04-24T13:49:58Z</time></trkpt><trkpt lat="44.352510415641966" lon="8.343545267157264"><ele>460.0</ele><time>2026-04-24T13:49:59Z</time></trkpt><trkpt lat="44.35258911029223" lon="8.343620182593632"><ele>459.8</ele><time>2026-04-24T13:50:00.001Z</time></trkpt><trkpt lat="44.3526581086223" lon="8.343714536329749"><ele>459.6</ele><time>2026-04-24T13:50:01.001Z</time></trkpt><trkpt lat="44.352718331881704" lon="8.343839662619963"><ele>459.4</ele><time>2026-04-24T13:50:02.001Z</time></trkpt><trkpt lat="44.35277395833002" lon="8.343992471078563"><ele>459.2</ele><time>2026-04-24T13:50:03.001Z</time></trkpt><trkpt lat="44.3528239059635" lon="8.344132439840426"><ele>459.0</ele><time>2026-04-24T13:50:04.001Z</time></trkpt><trkpt lat="44.35288032840619" lon="8.34424250533082"><ele>459.0</ele><time>2026-04-24T13:50:05.001Z</time></trkpt><trkpt lat="44.35296300875044" lon="8.344344496779438"><ele>459.0</ele><time>2026-04-24T13:50:06.001Z</time></trkpt><trkpt lat="44.35306243657439" lon="8.344406836112329"><ele>459.0</ele><time>2026-04-24T13:50:07.001Z</time></trkpt><trkpt lat="44.353158056317056" lon="8.344480903294157"><ele>459.0</ele><time>2026-04-24T13:50:08.001Z</time></trkpt><trkpt lat="44.353275720885115" lon="8.34455419758073"><ele>456.5</ele><time>2026-04-24T13:50:09.001Z</time></trkpt><trkpt lat="44.35338971126649" lon="8.344636848611787"><ele>454.0</ele><time>2026-04-24T13:50:10.001Z</time></trkpt><trkpt lat="44.35350271694928" lon="8.344748777459365"><ele>451.5</ele><time>2026-04-24T13:50:11.001Z</time></trkpt><trkpt lat="44.35362048657265" lon="8.344882715730304"><ele>449.0</ele><time>2026-04-24T13:50:12.001Z</time></trkpt><trkpt lat="44.35373827372012" lon="8.345024312097694"><ele>449.0</ele><time>2026-04-24T13:50:13.001Z</time></trkpt><trkpt lat="44.35383898004582" lon="8.345153455105839"><ele>449.0</ele><time>2026-04-24T13:50:14.001Z</time></trkpt><trkpt lat="44.35394506822149" lon="8.345257561668294"><ele>449.0</ele><time>2026-04-24T13:50:15.001Z</time></trkpt><trkpt lat="44.35406371713838" lon="8.345348408791132"><ele>449.0</ele><time>2026-04-24T13:50:16.001Z</time></trkpt><trkpt lat="44.35419878573104" lon="8.34543566874785"><ele>448.3333333333333</ele><time>2026-04-24T13:50:17.001Z</time></trkpt><trkpt lat="44.35434059751592" lon="8.34551658444439"><ele>447.66666666666663</ele><time>2026-04-24T13:50:18.001Z</time></trkpt><trkpt lat="44.35448910403125" lon="8.345615156060934"><ele>447.0</ele><time>2026-04-24T13:50:19.001Z</time></trkpt><trkpt lat="44.35463261343944" lon="8.34571903085297"><ele>450.0</ele><time>2026-04-24T13:50:20.001Z</time></trkpt><trkpt lat="44.35474985597446" lon="8.345794019496212"><ele>453.0</ele><time>2026-04-24T13:50:21.001Z</time></trkpt><trkpt lat="44.354860450908234" lon="8.345853437817608"><ele>456.0</ele><time>2026-04-24T13:50:22.001Z</time></trkpt><trkpt lat="44.35497342692088" lon="8.345874295100113"><ele>459.0</ele><time>2026-04-24T13:50:23.001Z</time></trkpt><trkpt lat="44.35508731874471" lon="8.345866123502423"><ele>459.0</ele><time>2026-04-24T13:50:24.001Z</time></trkpt><trkpt lat="44.355169772903785" lon="8.345872450122105"><ele>459.0</ele><time>2026-04-24T13:50:25.001Z</time></trkpt><trkpt lat="44.35524251139929" lon="8.345905794700654"><ele>459.0</ele><time>2026-04-24T13:50:26.001Z</time></trkpt><trkpt lat="44.355310729713025" lon="8.34596763263057"><ele>459.0</ele><time>2026-04-24T13:50:27.001Z</time></trkpt><trkpt lat="44.3553731704585" lon="8.346063908065522"><ele>459.0</ele><time>2026-04-24T13:50:28.001Z</time></trkpt><trkpt lat="44.35541758083108" lon="8.346181650122501"><ele>459.0</ele><time>2026-04-24T13:50:29.001Z</time></trkpt><trkpt lat="44.355434759102636" lon="8.346317887773813"><ele>459.79999999999995</ele><time>2026-04-24T13:50:30.001Z</time></trkpt><trkpt lat="44.35547473616589" lon="8.346440315286896"><ele>460.59999999999997</ele><time>2026-04-24T13:50:31.001Z</time></trkpt><trkpt lat="44.35549818646524" lon="8.346576131777024"><ele>461.4</ele><time>2026-04-24T13:50:32.001Z</time></trkpt><trkpt lat="44.35552907258604" lon="8.346714169263231"><ele>462.2</ele><time>2026-04-24T13:50:33Z</time></trkpt><trkpt lat="44.35557078309012" lon="8.346843910200189"><ele>463.0</ele><time>2026-04-24T13:50:34Z</time></trkpt><trkpt lat="44.35563251838046" lon="8.34697140669359"><ele>464.25</ele><time>2026-04-24T13:50:35Z</time></trkpt><trkpt lat="44.35571465424239" lon="8.347106960662176"><ele>465.5</ele><time>2026-04-24T13:50:36Z</time></trkpt><trkpt lat="44.3558040444559" lon="8.347252211657448"><ele>466.75</ele><time>2026-04-24T13:50:37Z</time></trkpt><trkpt lat="44.355887060436515" lon="8.34739571315567"><ele>468.0</ele><time>2026-04-24T13:50:38Z</time></trkpt><trkpt lat="44.35594041542217" lon="8.34752532385391"><ele>468.0</ele><time>2026-04-24T13:50:39Z</time></trkpt><trkpt lat="44.35598626581749" lon="8.347644263859808"><ele>467.99999999999994</ele><time>2026-04-24T13:50:40Z</time></trkpt><trkpt lat="44.35601530329136" lon="8.347764684977065"><ele>467.99999999999994</ele><time>2026-04-24T13:50:41Z</time></trkpt><trkpt lat="44.35604377175844" lon="8.347884974572349"><ele>468.0</ele><time>2026-04-24T13:50:42Z</time></trkpt><trkpt lat="44.35608937741976" lon="8.347985417669959"><ele>468.0</ele><time>2026-04-24T13:50:43Z</time></trkpt><trkpt lat="44.35616202061527" lon="8.348070994160716"><ele>469.0</ele><time>2026-04-24T13:50:44Z</time></trkpt><trkpt lat="44.35624605212182" lon="8.348167754317501"><ele>470.0</ele><time>2026-04-24T13:50:45Z</time></trkpt><trkpt lat="44.35633645441798" lon="8.348260014249602"><ele>471.0</ele><time>2026-04-24T13:50:46Z</time></trkpt><trkpt lat="44.356436068287806" lon="8.34835604828178"><ele>472.0</ele><time>2026-04-24T13:50:47Z</time></trkpt><trkpt lat="44.35654420149163" lon="8.348429326654124"><ele>472.0</ele><time>2026-04-24T13:50:48Z</time></trkpt><trkpt lat="44.356639333511524" lon="8.348472924573311"><ele>472.00000000000006</ele><time>2026-04-24T13:50:49Z</time></trkpt><trkpt lat="44.35674381353307" lon="8.34848855623099"><ele>472.00000000000006</ele><time>2026-04-24T13:50:50Z</time></trkpt><trkpt lat="44.35685910781813" lon="8.348490158331302"><ele>472.0</ele><time>2026-04-24T13:50:51Z</time></trkpt><trkpt lat="44.35695690422591" lon="8.348516909757372"><ele>472.0</ele><time>2026-04-24T13:50:52Z</time></trkpt><trkpt lat="44.35704679052157" lon="8.348530641506908"><ele>472.0</ele><time>2026-04-24T13:50:53Z</time></trkpt><trkpt lat="44.35713746541348" lon="8.348581230100537"><ele>472.00000000000006</ele><time>2026-04-24T13:50:54Z</time></trkpt><trkpt lat="44.3572337666698" lon="8.348643041345662"><ele>472.00000000000006</ele><time>2026-04-24T13:50:55Z</time></trkpt><trkpt lat="44.357336424115154" lon="8.34872638704694"><ele>472.0</ele><time>2026-04-24T13:50:56Z</time></trkpt><trkpt lat="44.357433320517984" lon="8.348819637337515"><ele>472.0</ele><time>2026-04-24T13:50:57Z</time></trkpt><trkpt lat="44.35752184980327" lon="8.348915463789327"><ele>469.6</ele><time>2026-04-24T13:50:58Z</time></trkpt><trkpt lat="44.35760659552588" lon="8.349015349061899"><ele>467.20000000000005</ele><time>2026-04-24T13:50:59Z</time></trkpt><trkpt lat="44.357677179319055" lon="8.349119518536371"><ele>464.8</ele><time>2026-04-24T13:51:00Z</time></trkpt><trkpt lat="44.357739527638756" lon="8.349231536904755"><ele>462.4</ele><time>2026-04-24T13:51:01Z</time></trkpt><trkpt lat="44.35779493675268" lon="8.349347505142878"><ele>460.0</ele><time>2026-04-24T13:51:02Z</time></trkpt><trkpt lat="44.357847130940684" lon="8.349466749465126"><ele>460.00000000000006</ele><time>2026-04-24T13:51:03Z</time></trkpt><trkpt lat="44.35789255097095" lon="8.349582239583654"><ele>460.0</ele><time>2026-04-24T13:51:04Z</time></trkpt><trkpt lat="44.35794092840298" lon="8.349697029878348"><ele>460.0</ele><time>2026-04-24T13:51:05Z</time></trkpt><trkpt lat="44.35798366524363" lon="8.349807524309668"><ele>460.0</ele><time>2026-04-24T13:51:06Z</time></trkpt><trkpt lat="44.35802398343679" lon="8.349916149432241"><ele>460.00000000000006</ele><time>2026-04-24T13:51:07Z</time></trkpt><trkpt lat="44.35806066227091" lon="8.350016913824637"><ele>460.0</ele><time>2026-04-24T13:51:08Z</time></trkpt><trkpt lat="44.3580989061822" lon="8.35010557955857"><ele>459.25</ele><time>2026-04-24T13:51:09Z</time></trkpt><trkpt lat="44.35813045453007" lon="8.35018412040742"><ele>458.5</ele><time>2026-04-24T13:51:10Z</time></trkpt><trkpt lat="44.3581664550903" lon="8.350320806299544"><ele>457.75</ele><time>2026-04-24T13:51:12Z</time></trkpt><trkpt lat="44.358293958294716" lon="8.3502350580176"><ele>457.0</ele><time>2026-04-24T13:51:14Z</time></trkpt><trkpt lat="44.358411600380464" lon="8.350115527919638"><ele>457.0</ele><time>2026-04-24T13:51:16Z</time></trkpt><trkpt lat="44.35850210655032" lon="8.35005279841003"><ele>457.0</ele><time>2026-04-24T13:51:17Z</time></trkpt><trkpt lat="44.35862216152866" lon="8.349985962490031"><ele>457.0</ele><time>2026-04-24T13:51:18Z</time></trkpt><trkpt lat="44.35876171010151" lon="8.349904719570706"><ele>457.0</ele><time>2026-04-24T13:51:19Z</time></trkpt><trkpt lat="44.35891595102012" lon="8.349811842515404"><ele>457.6666666666667</ele><time>2026-04-24T13:51:20Z</time></trkpt><trkpt lat="44.35908118324048" lon="8.349716237221534"><ele>458.33333333333337</ele><time>2026-04-24T13:51:21Z</time></trkpt><trkpt lat="44.35926317434087" lon="8.34962234104367"><ele>459.0</ele><time>2026-04-24T13:51:22Z</time></trkpt><trkpt lat="44.35945544609047" lon="8.349524982177822"><ele>457.0</ele><time>2026-04-24T13:51:23Z</time></trkpt><trkpt lat="44.35965552748791" lon="8.349416803604743"><ele>455.0</ele><time>2026-04-24T13:51:24Z</time></trkpt><trkpt lat="44.359851739944496" lon="8.34931286732357"><ele>453.0</ele><time>2026-04-24T13:51:25Z</time></trkpt><trkpt lat="44.36002747091358" lon="8.349210637537395"><ele>451.0</ele><time>2026-04-24T13:51:26Z</time></trkpt><trkpt lat="44.360189365418854" lon="8.349110595636867"><ele>449.0</ele><time>2026-04-24T13:51:27Z</time></trkpt><trkpt lat="44.3603398039545" lon="8.348998910249993"><ele>447.0</ele><time>2026-04-24T13:51:28Z</time></trkpt><trkpt lat="44.3604772041485" lon="8.348876020259723"><ele>444.0</ele><time>2026-04-24T13:51:29Z</time></trkpt><trkpt lat="44.36060743756709" lon="8.3487352380012"><ele>441.0</ele><time>2026-04-24T13:51:30Z</time></trkpt><trkpt lat="44.36073300618318" lon="8.34856735082971"><ele>438.0</ele><time>2026-04-24T13:51:31Z</time></trkpt><trkpt lat="44.36087214407098" lon="8.348405601710175"><ele>438.0</ele><time>2026-04-24T13:51:32Z</time></trkpt><trkpt lat="44.36100043382925" lon="8.34820718387421"><ele>438.0</ele><time>2026-04-24T13:51:33Z</time></trkpt><trkpt lat="44.36115189581224" lon="8.34801853186237"><ele>438.0</ele><time>2026-04-24T13:51:34Z</time></trkpt><trkpt lat="44.36130580485511" lon="8.347820726217865"><ele>437.0</ele><time>2026-04-24T13:51:35Z</time></trkpt><trkpt lat="44.361463888136974" lon="8.347617161083223"><ele>436.0</ele><time>2026-04-24T13:51:36Z</time></trkpt><trkpt lat="44.36162715300827" lon="8.347406578557626"><ele>435.0</ele><time>2026-04-24T13:51:37Z</time></trkpt><trkpt lat="44.36179314555906" lon="8.347190407081515"><ele>433.0</ele><time>2026-04-24T13:51:38Z</time></trkpt><trkpt lat="44.36195011872504" lon="8.346990405804172"><ele>431.0</ele><time>2026-04-24T13:51:39Z</time></trkpt><trkpt lat="44.36209347608478" lon="8.346796433826693"><ele>429.0</ele><time>2026-04-24T13:51:40Z</time></trkpt><trkpt lat="44.36222958902323" lon="8.346605561061446"><ele>429.0</ele><time>2026-04-24T13:51:41Z</time></trkpt><trkpt lat="44.36236030879066" lon="8.346418087248095"><ele>429.0</ele><time>2026-04-24T13:51:42Z</time></trkpt><trkpt lat="44.3624860040298" lon="8.346215414124273"><ele>429.0</ele><time>2026-04-24T13:51:43Z</time></trkpt><trkpt lat="44.3626004046302" lon="8.345999722502988"><ele>428.0</ele><time>2026-04-24T13:51:44Z</time></trkpt><trkpt lat="44.36270442903501" lon="8.345788954863318"><ele>427.0</ele><time>2026-04-24T13:51:45Z</time></trkpt><trkpt lat="44.362800712702274" lon="8.345593740387555"><ele>426.0</ele><time>2026-04-24T13:51:46Z</time></trkpt><trkpt lat="44.36289346155767" lon="8.345416991149282"><ele>426.0</ele><time>2026-04-24T13:51:47Z</time></trkpt><trkpt lat="44.36298088784637" lon="8.345258280576076"><ele>426.0</ele><time>2026-04-24T13:51:48Z</time></trkpt><trkpt lat="44.36307018884625" lon="8.34511149902988"><ele>426.0</ele><time>2026-04-24T13:51:49Z</time></trkpt><trkpt lat="44.363170995947826" lon="8.344977631549535"><ele>426.0</ele><time>2026-04-24T13:51:50Z</time></trkpt><trkpt lat="44.363284425864926" lon="8.344848288589203"><ele>423.75</ele><time>2026-04-24T13:51:51Z</time></trkpt><trkpt lat="44.36340991762363" lon="8.344719669470077"><ele>421.5</ele><time>2026-04-24T13:51:52Z</time></trkpt><trkpt lat="44.3635367055535" lon="8.34460708733549"><ele>419.25</ele><time>2026-04-24T13:51:53Z</time></trkpt><trkpt lat="44.36365862199187" lon="8.344503308390733"><ele>417.0</ele><time>2026-04-24T13:51:54Z</time></trkpt><trkpt lat="44.36377770677036" lon="8.344398226463248"><ele>414.25</ele><time>2026-04-24T13:51:55Z</time></trkpt><trkpt lat="44.3638865121005" lon="8.344291236483057"><ele>411.5</ele><time>2026-04-24T13:51:56Z</time></trkpt><trkpt lat="44.36397826059766" lon="8.344174944787424"><ele>408.75</ele><time>2026-04-24T13:51:57Z</time></trkpt><trkpt lat="44.36405391590984" lon="8.344045077887259"><ele>406.0</ele><time>2026-04-24T13:51:58Z</time></trkpt><trkpt lat="44.36411324923243" lon="8.34392122780669"><ele>405.75</ele><time>2026-04-24T13:51:59Z</time></trkpt><trkpt lat="44.36417157297916" lon="8.343750399448258"><ele>405.5</ele><time>2026-04-24T13:52:00Z</time></trkpt><trkpt lat="44.36418727748884" lon="8.343554633294492"><ele>405.25</ele><time>2026-04-24T13:52:01Z</time></trkpt><trkpt lat="44.36418439717654" lon="8.343342902095875"><ele>405.0</ele><time>2026-04-24T13:52:02Z</time></trkpt><trkpt lat="44.36418742654425" lon="8.343115977333328"><ele>405.66666666666663</ele><time>2026-04-24T13:52:03Z</time></trkpt><trkpt lat="44.36419545321783" lon="8.342882230454803"><ele>406.3333333333333</ele><time>2026-04-24T13:52:04Z</time></trkpt><trkpt lat="44.3642091457152" lon="8.342635984567842"><ele>407.0</ele><time>2026-04-24T13:52:05Z</time></trkpt><trkpt lat="44.364225448667746" lon="8.342384341282083"><ele>406.3333333333333</ele><time>2026-04-24T13:52:06Z</time></trkpt><trkpt lat="44.36423550294626" lon="8.34213233765306"><ele>405.66666666666663</ele><time>2026-04-24T13:52:07Z</time></trkpt><trkpt lat="44.36423953481997" lon="8.34190395611527"><ele>405.0</ele><time>2026-04-24T13:52:08Z</time></trkpt><trkpt lat="44.364238619692195" lon="8.341681653386559"><ele>405.0</ele><time>2026-04-24T13:52:09Z</time></trkpt><trkpt lat="44.364216125773225" lon="8.341459465275232"><ele>405.0</ele><time>2026-04-24T13:52:10Z</time></trkpt><trkpt lat="44.36417301238581" lon="8.341239184425598"><ele>405.0</ele><time>2026-04-24T13:52:11Z</time></trkpt><trkpt lat="44.36411150700201" lon="8.341021780986926"><ele>403.33333333333337</ele><time>2026-04-24T13:52:12Z</time></trkpt><trkpt lat="44.36405287589246" lon="8.340801140403263"><ele>401.6666666666667</ele><time>2026-04-24T13:52:13Z</time></trkpt><trkpt lat="44.36402069151818" lon="8.340569528038223"><ele>400.0</ele><time>2026-04-24T13:52:14Z</time></trkpt><trkpt lat="44.36400001103257" lon="8.340335154072314"><ele>397.33333333333337</ele><time>2026-04-24T13:52:15Z</time></trkpt><trkpt lat="44.3639909987252" lon="8.340113983249346"><ele>394.66666666666663</ele><time>2026-04-24T13:52:16Z</time></trkpt><trkpt lat="44.363991527645" lon="8.339902898366201"><ele>392.0</ele><time>2026-04-24T13:52:17Z</time></trkpt><trkpt lat="44.36398700443408" lon="8.339701867530659"><ele>390.75</ele><time>2026-04-24T13:52:18Z</time></trkpt><trkpt lat="44.36398012910951" lon="8.339511797637671"><ele>389.5</ele><time>2026-04-24T13:52:19Z</time></trkpt><trkpt lat="44.36397427778218" lon="8.339327702315723"><ele>388.25</ele><time>2026-04-24T13:52:20Z</time></trkpt><trkpt lat="44.36396723630934" lon="8.339157089484498"><ele>387.0</ele><time>2026-04-24T13:52:21Z</time></trkpt><trkpt lat="44.3639657783889" lon="8.338992871770877"><ele>387.0</ele><time>2026-04-24T13:52:22Z</time></trkpt><trkpt lat="44.36396150384949" lon="8.33882876326052"><ele>387.0</ele><time>2026-04-24T13:52:23Z</time></trkpt><trkpt lat="44.363954686541156" lon="8.33866725759234"><ele>387.0</ele><time>2026-04-24T13:52:24Z</time></trkpt><trkpt lat="44.36395063141738" lon="8.338506293888475"><ele>387.0</ele><time>2026-04-24T13:52:25Z</time></trkpt><trkpt lat="44.36394526633753" lon="8.338340972816214"><ele>387.0</ele><time>2026-04-24T13:52:26Z</time></trkpt><trkpt lat="44.363941016296586" lon="8.338171639766596"><ele>387.0</ele><time>2026-04-24T13:52:27Z</time></trkpt><trkpt lat="44.36394563255489" lon="8.337992472734836"><ele>387.0</ele><time>2026-04-24T13:52:28Z</time></trkpt><trkpt lat="44.3639771224908" lon="8.337827319985472"><ele>387.0</ele><time>2026-04-24T13:52:29Z</time></trkpt><trkpt lat="44.36403292872098" lon="8.33768618356937"><ele>387.25</ele><time>2026-04-24T13:52:30Z</time></trkpt><trkpt lat="44.364104877207595" lon="8.337577724947225"><ele>387.5</ele><time>2026-04-24T13:52:31Z</time></trkpt><trkpt lat="44.36420960486456" lon="8.33751832586911"><ele>387.75</ele><time>2026-04-24T13:52:32Z</time></trkpt><trkpt lat="44.36431277184049" lon="8.337426132812972"><ele>388.0</ele><time>2026-04-24T13:52:33Z</time></trkpt><trkpt lat="44.3644340728669" lon="8.337356502761372"><ele>388.0</ele><time>2026-04-24T13:52:34Z</time></trkpt><trkpt lat="44.36455626335943" lon="8.337269093914248"><ele>388.0</ele><time>2026-04-24T13:52:35Z</time></trkpt><trkpt lat="44.36468502912125" lon="8.337175298631182"><ele>388.0</ele><time>2026-04-24T13:52:36Z</time></trkpt><trkpt lat="44.36482215262786" lon="8.33707817568651"><ele>388.0</ele><time>2026-04-24T13:52:37Z</time></trkpt><trkpt lat="44.36496388959998" lon="8.336974502814325"><ele>387.0</ele><time>2026-04-24T13:52:38Z</time></trkpt><trkpt lat="44.36511389473658" lon="8.336863873211401"><ele>386.0</ele><time>2026-04-24T13:52:39Z</time></trkpt><trkpt lat="44.36526324170908" lon="8.336757512827043"><ele>385.0</ele><time>2026-04-24T13:52:40Z</time></trkpt><trkpt lat="44.365397033487184" lon="8.336652157797419"><ele>385.0</ele><time>2026-04-24T13:52:41Z</time></trkpt><trkpt lat="44.3655084053414" lon="8.336536459880332"><ele>385.0</ele><time>2026-04-24T13:52:42Z</time></trkpt><trkpt lat="44.365606788932766" lon="8.336400110843973"><ele>385.0</ele><time>2026-04-24T13:52:43Z</time></trkpt><trkpt lat="44.36569232142925" lon="8.336236200337751"><ele>385.0</ele><time>2026-04-24T13:52:44Z</time></trkpt><trkpt lat="44.36576968112569" lon="8.336065200725054"><ele>386.33333333333337</ele><time>2026-04-24T13:52:45Z</time></trkpt><trkpt lat="44.36583574757934" lon="8.335878364168945"><ele>387.66666666666663</ele><time>2026-04-24T13:52:46Z</time></trkpt><trkpt lat="44.36589103938322" lon="8.335682738633139"><ele>389.0</ele><time>2026-04-24T13:52:47Z</time></trkpt><trkpt lat="44.365926203069925" lon="8.335473605040898"><ele>389.3333333333333</ele><time>2026-04-24T13:52:48Z</time></trkpt><trkpt lat="44.36593898801844" lon="8.33525869413505"><ele>389.66666666666663</ele><time>2026-04-24T13:52:49Z</time></trkpt><trkpt lat="44.36594035488897" lon="8.335035628940737"><ele>390.0</ele><time>2026-04-24T13:52:50Z</time></trkpt><trkpt lat="44.365943254899754" lon="8.33481136527495"><ele>389.33333333333337</ele><time>2026-04-24T13:52:51Z</time></trkpt><trkpt lat="44.365949943016915" lon="8.334585029678372"><ele>388.6666666666667</ele><time>2026-04-24T13:52:52Z</time></trkpt><trkpt lat="44.365959965318936" lon="8.33434947594716"><ele>388.0</ele><time>2026-04-24T13:52:53Z</time></trkpt><trkpt lat="44.36597279781675" lon="8.334099064357858"><ele>387.6666666666667</ele><time>2026-04-24T13:52:54Z</time></trkpt><trkpt lat="44.36598135684121" lon="8.33383311570953"><ele>387.33333333333337</ele><time>2026-04-24T13:52:55Z</time></trkpt><trkpt lat="44.36599161453187" lon="8.333558850431958"><ele>387.0</ele><time>2026-04-24T13:52:56Z</time></trkpt><trkpt lat="44.36600097761649" lon="8.333276022111415"><ele>386.0</ele><time>2026-04-24T13:52:57Z</time></trkpt><trkpt lat="44.366008483083434" lon="8.332987939541088"><ele>385.0</ele><time>2026-04-24T13:52:58Z</time></trkpt><trkpt lat="44.3660190018365" lon="8.332680936473764"><ele>384.0</ele><time>2026-04-24T13:52:59Z</time></trkpt><trkpt lat="44.36603095746328" lon="8.33237560095487"><ele>382.0</ele><time>2026-04-24T13:53:00Z</time></trkpt><trkpt lat="44.36604107265236" lon="8.332060089889179"><ele>380.0</ele><time>2026-04-24T13:53:01Z</time></trkpt><trkpt lat="44.366050224472644" lon="8.331741470464683"><ele>380.0</ele><time>2026-04-24T13:53:02Z</time></trkpt><trkpt lat="44.366031635074854" lon="8.331433753990112"><ele>380.0</ele><time>2026-04-24T13:53:03Z</time></trkpt><trkpt lat="44.36603208177593" lon="8.331153834045285"><ele>380.0</ele><time>2026-04-24T13:53:04Z</time></trkpt><trkpt lat="44.366047801311204" lon="8.330872488858692"><ele>379.0</ele><time>2026-04-24T13:53:05Z</time></trkpt><trkpt lat="44.36606299157676" lon="8.330599785793153"><ele>378.0</ele><time>2026-04-24T13:53:06Z</time></trkpt><trkpt lat="44.3660831725661" lon="8.330336854632971"><ele>377.0</ele><time>2026-04-24T13:53:07Z</time></trkpt><trkpt lat="44.36609684005462" lon="8.33008515915698"><ele>376.33333333333337</ele><time>2026-04-24T13:53:08Z</time></trkpt><trkpt lat="44.36610585470168" lon="8.329850803265527"><ele>375.6666666666667</ele><time>2026-04-24T13:53:09Z</time></trkpt><trkpt lat="44.3661113908409" lon="8.329627014950754"><ele>375.0</ele><time>2026-04-24T13:53:10Z</time></trkpt><trkpt lat="44.36610958763094" lon="8.32943371137072"><ele>374.5</ele><time>2026-04-24T13:53:11Z</time></trkpt><trkpt lat="44.366089378103" lon="8.329241297027451"><ele>374.0</ele><time>2026-04-24T13:53:12Z</time></trkpt><trkpt lat="44.36605235183266" lon="8.329041553337333"><ele>373.5</ele><time>2026-04-24T13:53:13Z</time></trkpt><trkpt lat="44.365999843348625" lon="8.328835954445713"><ele>373.0</ele><time>2026-04-24T13:53:14Z</time></trkpt><trkpt lat="44.365941289995604" lon="8.328621532245712"><ele>374.0</ele><time>2026-04-24T13:53:15Z</time></trkpt><trkpt lat="44.36589644809401" lon="8.328411269010298"><ele>375.0</ele><time>2026-04-24T13:53:16Z</time></trkpt><trkpt lat="44.365849886801044" lon="8.328226083312183"><ele>376.0</ele><time>2026-04-24T13:53:17Z</time></trkpt><trkpt lat="44.3658039003204" lon="8.328045078382138"><ele>377.0</ele><time>2026-04-24T13:53:18Z</time></trkpt><trkpt lat="44.36575976643437" lon="8.327872936298421"><ele>377.25</ele><time>2026-04-24T13:53:19Z</time></trkpt><trkpt lat="44.36572064103881" lon="8.327699114725348"><ele>377.5</ele><time>2026-04-24T13:53:20Z</time></trkpt><trkpt lat="44.36568323777431" lon="8.327532465786966"><ele>377.75</ele><time>2026-04-24T13:53:21Z</time></trkpt><trkpt lat="44.36564743820661" lon="8.327374725514474"><ele>378.0</ele><time>2026-04-24T13:53:22Z</time></trkpt><trkpt lat="44.36561209871871" lon="8.327221730953003"><ele>377.59999999999997</ele><time>2026-04-24T13:53:23Z</time></trkpt><trkpt lat="44.36557713376815" lon="8.327076809195663"><ele>377.2</ele><time>2026-04-24T13:53:24Z</time></trkpt><trkpt lat="44.36555612516901" lon="8.32692512204855"><ele>376.8</ele><time>2026-04-24T13:53:25Z</time></trkpt><trkpt lat="44.365551178745065" lon="8.326770412174662"><ele>376.4</ele><time>2026-04-24T13:53:26Z</time></trkpt><trkpt lat="44.3655664776793" lon="8.326615762967684"><ele>376.0</ele><time>2026-04-24T13:53:27Z</time></trkpt><trkpt lat="44.365594763106365" lon="8.32646126926739"><ele>374.0</ele><time>2026-04-24T13:53:28Z</time></trkpt><trkpt lat="44.36563489842092" lon="8.32630941064016"><ele>372.0</ele><time>2026-04-24T13:53:29Z</time></trkpt><trkpt lat="44.365686632549625" lon="8.32616160069243"><ele>370.0</ele><time>2026-04-24T13:53:30Z</time></trkpt><trkpt lat="44.36575406841575" lon="8.326020033462354"><ele>368.0</ele><time>2026-04-24T13:53:31Z</time></trkpt><trkpt lat="44.36582866518151" lon="8.325882917292633"><ele>368.0</ele><time>2026-04-24T13:53:32Z</time></trkpt><trkpt lat="44.365914284798826" lon="8.325774767781718"><ele>368.0</ele><time>2026-04-24T13:53:33Z</time></trkpt><trkpt lat="44.3660180304337" lon="8.32568740068547"><ele>368.0</ele><time>2026-04-24T13:53:34Z</time></trkpt><trkpt lat="44.366128613091085" lon="8.325610998165647"><ele>368.0</ele><time>2026-04-24T13:53:35Z</time></trkpt><trkpt lat="44.36624797473744" lon="8.325545990251978"><ele>366.75</ele><time>2026-04-24T13:53:36Z</time></trkpt><trkpt lat="44.36636450752006" lon="8.325471349783788"><ele>365.5</ele><time>2026-04-24T13:53:37Z</time></trkpt><trkpt lat="44.36648252941499" lon="8.325394040165623"><ele>364.25</ele><time>2026-04-24T13:53:38Z</time></trkpt><trkpt lat="44.36660267433751" lon="8.325319592758184"><ele>363.0</ele><time>2026-04-24T13:53:39Z</time></trkpt><trkpt lat="44.36672372341488" lon="8.325248074538253"><ele>363.0</ele><time>2026-04-24T13:53:40Z</time></trkpt><trkpt lat="44.36684514561614" lon="8.325177925683992"><ele>363.0</ele><time>2026-04-24T13:53:41Z</time></trkpt><trkpt lat="44.366972235074925" lon="8.32511359959825"><ele>363.0</ele><time>2026-04-24T13:53:42Z</time></trkpt><trkpt lat="44.367102641612306" lon="8.3250603313495"><ele>363.0</ele><time>2026-04-24T13:53:43Z</time></trkpt><trkpt lat="44.36723465422493" lon="8.325017569734346"><ele>363.75</ele><time>2026-04-24T13:53:44Z</time></trkpt><trkpt lat="44.36737116865045" lon="8.324993952595308"><ele>364.5</ele><time>2026-04-24T13:53:45Z</time></trkpt><trkpt lat="44.367508765990074" lon="8.324976792659115"><ele>365.25</ele><time>2026-04-24T13:53:46Z</time></trkpt><trkpt lat="44.367644856051285" lon="8.324952598212638"><ele>366.0</ele><time>2026-04-24T13:53:47Z</time></trkpt><trkpt lat="44.367781896425264" lon="8.324926643464888"><ele>366.0</ele><time>2026-04-24T13:53:48Z</time></trkpt><trkpt lat="44.3679182271399" lon="8.32489827683626"><ele>366.0</ele><time>2026-04-24T13:53:49Z</time></trkpt><trkpt lat="44.36805839068983" lon="8.32487248979749"><ele>366.0</ele><time>2026-04-24T13:53:50Z</time></trkpt><trkpt lat="44.36820017730801" lon="8.324847133470772"><ele>366.0</ele><time>2026-04-24T13:53:51Z</time></trkpt><trkpt lat="44.36833824728979" lon="8.32481635577934"><ele>366.25</ele><time>2026-04-24T13:53:52Z</time></trkpt><trkpt lat="44.36847960167791" lon="8.324793916128167"><ele>366.5</ele><time>2026-04-24T13:53:53Z</time></trkpt><trkpt lat="44.36861980401413" lon="8.32477174086762"><ele>366.75</ele><time>2026-04-24T13:53:54Z</time></trkpt><trkpt lat="44.3687619347995" lon="8.324748361756182"><ele>367.0</ele><time>2026-04-24T13:53:55Z</time></trkpt><trkpt lat="44.36891019362824" lon="8.324719151858176"><ele>364.3333333333333</ele><time>2026-04-24T13:53:56Z</time></trkpt><trkpt lat="44.36906040127821" lon="8.324686368997886"><ele>361.6666666666667</ele><time>2026-04-24T13:53:57Z</time></trkpt><trkpt lat="44.36920888256063" lon="8.324648593608435"><ele>359.0</ele><time>2026-04-24T13:53:58Z</time></trkpt><trkpt lat="44.36935130473024" lon="8.324593385549282"><ele>359.0</ele><time>2026-04-24T13:53:59Z</time></trkpt><trkpt lat="44.36948437317185" lon="8.324505276479009"><ele>359.0</ele><time>2026-04-24T13:54:00Z</time></trkpt><trkpt lat="44.369602695930155" lon="8.324390563743755"><ele>359.0</ele><time>2026-04-24T13:54:01Z</time></trkpt><trkpt lat="44.36970609993047" lon="8.324255512692877"><ele>359.0</ele><time>2026-04-24T13:54:02Z</time></trkpt><trkpt lat="44.36978355749103" lon="8.324092397633393"><ele>360.75</ele><time>2026-04-24T13:54:03Z</time></trkpt><trkpt lat="44.36984530819752" lon="8.323915315149787"><ele>362.5</ele><time>2026-04-24T13:54:04Z</time></trkpt><trkpt lat="44.36989589813044" lon="8.323726831239185"><ele>364.25</ele><time>2026-04-24T13:54:05Z</time></trkpt><trkpt lat="44.36993614061797" lon="8.323525690457535"><ele>366.0</ele><time>2026-04-24T13:54:06Z</time></trkpt><trkpt lat="44.369981188111474" lon="8.323330261265001"><ele>366.0</ele><time>2026-04-24T13:54:07Z</time></trkpt><trkpt lat="44.37002471433066" lon="8.323156394781714"><ele>366.0</ele><time>2026-04-24T13:54:08Z</time></trkpt><trkpt lat="44.3700656722486" lon="8.322995627104458"><ele>366.0</ele><time>2026-04-24T13:54:09Z</time></trkpt><trkpt lat="44.37010551611722" lon="8.322849687151459"><ele>366.0</ele><time>2026-04-24T13:54:10Z</time></trkpt><trkpt lat="44.3701406949355" lon="8.32272089671819"><ele>364.8</ele><time>2026-04-24T13:54:11Z</time></trkpt><trkpt lat="44.37018447869327" lon="8.32260096179308"><ele>363.6</ele><time>2026-04-24T13:54:12Z</time></trkpt><trkpt lat="44.37023769597549" lon="8.322489480943993"><ele>362.4</ele><time>2026-04-24T13:54:13Z</time></trkpt><trkpt lat="44.37030284651854" lon="8.322388953503133"><ele>361.2</ele><time>2026-04-24T13:54:14Z</time></trkpt><trkpt lat="44.370384199181025" lon="8.322306473259523"><ele>360.0</ele><time>2026-04-24T13:54:15Z</time></trkpt><trkpt lat="44.37047268451465" lon="8.322246766122891"><ele>359.8</ele><time>2026-04-24T13:54:16Z</time></trkpt><trkpt lat="44.37056485053164" lon="8.322211308881496"><ele>359.6</ele><time>2026-04-24T13:54:17Z</time></trkpt><trkpt lat="44.37066208355903" lon="8.322197302081928"><ele>359.4</ele><time>2026-04-24T13:54:18Z</time></trkpt><trkpt lat="44.37077253379406" lon="8.322208468787542"><ele>359.2</ele><time>2026-04-24T13:54:19Z</time></trkpt><trkpt lat="44.37088548838821" lon="8.322235141644493"><ele>359.0</ele><time>2026-04-24T13:54:20Z</time></trkpt><trkpt lat="44.37098996072177" lon="8.322275243786597"><ele>361.2</ele><time>2026-04-24T13:54:21Z</time></trkpt><trkpt lat="44.371083925987186" lon="8.322310008965903"><ele>363.4</ele><time>2026-04-24T13:54:22Z</time></trkpt><trkpt lat="44.371185450183276" lon="8.322334960446875"><ele>365.6</ele><time>2026-04-24T13:54:23Z</time></trkpt><trkpt lat="44.37129368852589" lon="8.322345643192397"><ele>367.8</ele><time>2026-04-24T13:54:24Z</time></trkpt><trkpt lat="44.37140462305654" lon="8.322328871621862"><ele>370.0</ele><time>2026-04-24T13:54:25Z</time></trkpt><trkpt lat="44.37151472544569" lon="8.322285384719464"><ele>369.0</ele><time>2026-04-24T13:54:26Z</time></trkpt><trkpt lat="44.371619915658634" lon="8.322218299312631"><ele>368.0</ele><time>2026-04-24T13:54:27Z</time></trkpt><trkpt lat="44.371715785265" lon="8.322124337051493"><ele>367.0</ele><time>2026-04-24T13:54:28Z</time></trkpt><trkpt lat="44.37180760023259" lon="8.322009020644085"><ele>366.0</ele><time>2026-04-24T13:54:29Z</time></trkpt><trkpt lat="44.3718993431978" lon="8.321878095194112"><ele>366.0</ele><time>2026-04-24T13:54:30Z</time></trkpt><trkpt lat="44.37198549589852" lon="8.32173566098697"><ele>366.0</ele><time>2026-04-24T13:54:31Z</time></trkpt><trkpt lat="44.372063480398815" lon="8.321606090453795"><ele>366.0</ele><time>2026-04-24T13:54:32Z</time></trkpt><trkpt lat="44.372133615513434" lon="8.32149390430665"><ele>366.0</ele><time>2026-04-24T13:54:33Z</time></trkpt><trkpt lat="44.37221596373782" lon="8.32142435818064"><ele>370.25</ele><time>2026-04-24T13:54:34Z</time></trkpt><trkpt lat="44.372314386217354" lon="8.321227081391772"><ele>374.5</ele><time>2026-04-24T13:54:35Z</time></trkpt><trkpt lat="44.372387016965114" lon="8.3210950339648"><ele>378.75</ele><time>2026-04-24T13:54:36Z</time></trkpt><trkpt lat="44.372446365378636" lon="8.320946037683921"><ele>383.0</ele><time>2026-04-24T13:54:37Z</time></trkpt><trkpt lat="44.37249827210582" lon="8.320786645794568"><ele>383.0</ele><time>2026-04-24T13:54:38Z</time></trkpt><trkpt lat="44.37253526188685" lon="8.320615768196713"><ele>383.0</ele><time>2026-04-24T13:54:39Z</time></trkpt><trkpt lat="44.37255847691268" lon="8.320434743788336"><ele>383.0</ele><time>2026-04-24T13:54:40Z</time></trkpt><trkpt lat="44.37258309645958" lon="8.320270553813085"><ele>383.0</ele><time>2026-04-24T13:54:41Z</time></trkpt><trkpt lat="44.37260976252774" lon="8.320113571063757"><ele>379.5</ele><time>2026-04-24T13:54:42Z</time></trkpt><trkpt lat="44.37263881430354" lon="8.31994925586949"><ele>376.0</ele><time>2026-04-24T13:54:43Z</time></trkpt><trkpt lat="44.37266362598608" lon="8.31979605186372"><ele>372.5</ele><time>2026-04-24T13:54:44Z</time></trkpt><trkpt lat="44.372680349903185" lon="8.319636539926131"><ele>369.0</ele><time>2026-04-24T13:54:45Z</time></trkpt><trkpt lat="44.37268739967463" lon="8.31946598142909"><ele>368.5</ele><time>2026-04-24T13:54:46Z</time></trkpt><trkpt lat="44.37268148093698" lon="8.319282944206474"><ele>368.0</ele><time>2026-04-24T13:54:47Z</time></trkpt><trkpt lat="44.37265873942795" lon="8.319100955421458"><ele>367.5</ele><time>2026-04-24T13:54:48Z</time></trkpt><trkpt lat="44.37264513506944" lon="8.318926299783843"><ele>367.0</ele><time>2026-04-24T13:54:49Z</time></trkpt><trkpt lat="44.37262980974839" lon="8.318765400783448"><ele>367.0</ele><time>2026-04-24T13:54:50Z</time></trkpt><trkpt lat="44.37261434938275" lon="8.31860242000725"><ele>367.0</ele><time>2026-04-24T13:54:51Z</time></trkpt><trkpt lat="44.37259711127491" lon="8.318427402121477"><ele>367.0</ele><time>2026-04-24T13:54:52Z</time></trkpt><trkpt lat="44.372582006375076" lon="8.318244492966972"><ele>367.0</ele><time>2026-04-24T13:54:53Z</time></trkpt><trkpt lat="44.372567662042826" lon="8.318061327332902"><ele>366.5</ele><time>2026-04-24T13:54:54Z</time></trkpt><trkpt lat="44.3725562500513" lon="8.317885033220078"><ele>366.0</ele><time>2026-04-24T13:54:55Z</time></trkpt><trkpt lat="44.37255351254302" lon="8.31771092016356"><ele>365.5</ele><time>2026-04-24T13:54:56Z</time></trkpt><trkpt lat="44.37256784366178" lon="8.317529495835212"><ele>365.0</ele><time>2026-04-24T13:54:57Z</time></trkpt><trkpt lat="44.37261725165002" lon="8.317351876442972"><ele>364.0</ele><time>2026-04-24T13:54:58Z</time></trkpt><trkpt lat="44.372672663579216" lon="8.317179210925763"><ele>363.0</ele><time>2026-04-24T13:54:59Z</time></trkpt><trkpt lat="44.37273792787098" lon="8.316991458214284"><ele>362.0</ele><time>2026-04-24T13:55:00Z</time></trkpt><trkpt lat="44.37280085402955" lon="8.31681385591662"><ele>361.0</ele><time>2026-04-24T13:55:01Z</time></trkpt><trkpt lat="44.37286476029639" lon="8.316633379798755"><ele>361.0</ele><time>2026-04-24T13:55:02Z</time></trkpt><trkpt lat="44.372924305563664" lon="8.316464653842415"><ele>361.0</ele><time>2026-04-24T13:55:03Z</time></trkpt><trkpt lat="44.37296710453426" lon="8.316285904533727"><ele>361.0</ele><time>2026-04-24T13:55:04Z</time></trkpt><trkpt lat="44.373026446991716" lon="8.316113497772012"><ele>361.0</ele><time>2026-04-24T13:55:05Z</time></trkpt><trkpt lat="44.37309061351753" lon="8.315941288621891"><ele>361.5</ele><time>2026-04-24T13:55:06Z</time></trkpt><trkpt lat="44.37315011293153" lon="8.315763253584677"><ele>362.0</ele><time>2026-04-24T13:55:07Z</time></trkpt><trkpt lat="44.37321226706233" lon="8.315581367335101"><ele>362.5</ele><time>2026-04-24T13:55:08Z</time></trkpt><trkpt lat="44.37327972485333" lon="8.315399214957564"><ele>363.0</ele><time>2026-04-24T13:55:09Z</time></trkpt><trkpt lat="44.37334436307774" lon="8.315213251863954"><ele>363.0</ele><time>2026-04-24T13:55:10Z</time></trkpt><trkpt lat="44.37341007576186" lon="8.315025319124462"><ele>363.0</ele><time>2026-04-24T13:55:11Z</time></trkpt><trkpt lat="44.37347528620555" lon="8.314837484648821"><ele>363.0</ele><time>2026-04-24T13:55:12Z</time></trkpt><trkpt lat="44.373541408869364" lon="8.314646729733127"><ele>361.25</ele><time>2026-04-24T13:55:13Z</time></trkpt><trkpt lat="44.373610291794925" lon="8.3144606648323"><ele>359.5</ele><time>2026-04-24T13:55:14Z</time></trkpt><trkpt lat="44.373682354279794" lon="8.314277395391127"><ele>357.75</ele><time>2026-04-24T13:55:15Z</time></trkpt><trkpt lat="44.37374875055803" lon="8.314090949683314"><ele>356.0</ele><time>2026-04-24T13:55:16Z</time></trkpt><trkpt lat="44.373815368923026" lon="8.31390561059064"><ele>354.75</ele><time>2026-04-24T13:55:17Z</time></trkpt><trkpt lat="44.37388572746325" lon="8.313728498764199"><ele>353.5</ele><time>2026-04-24T13:55:18Z</time></trkpt><trkpt lat="44.37395084681573" lon="8.31354925265638"><ele>352.25</ele><time>2026-04-24T13:55:19Z</time></trkpt><trkpt lat="44.37402073647774" lon="8.313373760369263"><ele>351.0</ele><time>2026-04-24T13:55:20Z</time></trkpt><trkpt lat="44.37408773458326" lon="8.313199717025324"><ele>351.0</ele><time>2026-04-24T13:55:21Z</time></trkpt><trkpt lat="44.37415319433604" lon="8.313024445562812"><ele>351.0</ele><time>2026-04-24T13:55:22Z</time></trkpt><trkpt lat="44.374216951877386" lon="8.312850355000426"><ele>351.0</ele><time>2026-04-24T13:55:23Z</time></trkpt><trkpt lat="44.37427781516761" lon="8.312678168363888"><ele>351.0</ele><time>2026-04-24T13:55:24Z</time></trkpt><trkpt lat="44.37434141317632" lon="8.31250857085513"><ele>351.0</ele><time>2026-04-24T13:55:25Z</time></trkpt><trkpt lat="44.374405776427444" lon="8.312338433461115"><ele>351.0</ele><time>2026-04-24T13:55:26Z</time></trkpt><trkpt lat="44.374471371642585" lon="8.312168473470097"><ele>351.0</ele><time>2026-04-24T13:55:27Z</time></trkpt><trkpt lat="44.37453017764317" lon="8.31200851775422"><ele>351.0</ele><time>2026-04-24T13:55:28Z</time></trkpt><trkpt lat="44.37457854536937" lon="8.311856819887124"><ele>351.0</ele><time>2026-04-24T13:55:29Z</time></trkpt><trkpt lat="44.37461816440356" lon="8.311707184522605"><ele>351.0</ele><time>2026-04-24T13:55:30Z</time></trkpt><trkpt lat="44.374654443748774" lon="8.311541168786404"><ele>351.0</ele><time>2026-04-24T13:55:31Z</time></trkpt><trkpt lat="44.374694751224" lon="8.31137404826829"><ele>351.0</ele><time>2026-04-24T13:55:32Z</time></trkpt><trkpt lat="44.37473717044101" lon="8.311193174692516"><ele>352.0</ele><time>2026-04-24T13:55:33Z</time></trkpt><trkpt lat="44.37478038877752" lon="8.311007173250106"><ele>353.0</ele><time>2026-04-24T13:55:34Z</time></trkpt><trkpt lat="44.3748198936331" lon="8.310815573096013"><ele>354.0</ele><time>2026-04-24T13:55:35Z</time></trkpt><trkpt lat="44.37484267715899" lon="8.310618464399106"><ele>355.0</ele><time>2026-04-24T13:55:36Z</time></trkpt><trkpt lat="44.374864503016205" lon="8.310417363116121"><ele>356.66666666666663</ele><time>2026-04-24T13:55:37Z</time></trkpt><trkpt lat="44.374867571842884" lon="8.3101986776415"><ele>358.3333333333333</ele><time>2026-04-24T13:55:38Z</time></trkpt><trkpt lat="44.374836367050214" lon="8.309961975749198"><ele>360.0</ele><time>2026-04-24T13:55:39Z</time></trkpt><trkpt lat="44.374843064518046" lon="8.309711468907421"><ele>360.0</ele><time>2026-04-24T13:55:40Z</time></trkpt><trkpt lat="44.374853615152546" lon="8.309450523297969"><ele>360.0</ele><time>2026-04-24T13:55:41Z</time></trkpt><trkpt lat="44.37486634508857" lon="8.309174212122716"><ele>360.0</ele><time>2026-04-24T13:55:42Z</time></trkpt><trkpt lat="44.374875561579564" lon="8.30890866571063"><ele>358.0</ele><time>2026-04-24T13:55:43Z</time></trkpt><trkpt lat="44.37488360619223" lon="8.308667722631226"><ele>356.0</ele><time>2026-04-24T13:55:44Z</time></trkpt><trkpt lat="44.37489907248626" lon="8.308454958668301"><ele>354.0</ele><time>2026-04-24T13:55:45Z</time></trkpt><trkpt lat="44.374925215625815" lon="8.308239229845988"><ele>353.0</ele><time>2026-04-24T13:55:46Z</time></trkpt><trkpt lat="44.37496773652748" lon="8.308025064814345"><ele>352.0</ele><time>2026-04-24T13:55:47Z</time></trkpt><trkpt lat="44.37501498698014" lon="8.307812909908218"><ele>351.0</ele><time>2026-04-24T13:55:48Z</time></trkpt><trkpt lat="44.375064526934345" lon="8.307628030134701"><ele>351.0</ele><time>2026-04-24T13:55:49Z</time></trkpt><trkpt lat="44.37509688235163" lon="8.307452099235954"><ele>351.0</ele><time>2026-04-24T13:55:50Z</time></trkpt><trkpt lat="44.37511440961361" lon="8.307288155545727"><ele>351.0</ele><time>2026-04-24T13:55:51Z</time></trkpt><trkpt lat="44.37511535197876" lon="8.307127862531907"><ele>351.0</ele><time>2026-04-24T13:55:52Z</time></trkpt><trkpt lat="44.37509638687251" lon="8.306948804104813"><ele>350.75</ele><time>2026-04-24T13:55:53Z</time></trkpt><trkpt lat="44.3750618525967" lon="8.306760448226902"><ele>350.5</ele><time>2026-04-24T13:55:54Z</time></trkpt><trkpt lat="44.37502271639391" lon="8.30656511625275"><ele>350.25</ele><time>2026-04-24T13:55:55Z</time></trkpt><trkpt lat="44.375010125672524" lon="8.306353055195354"><ele>350.0</ele><time>2026-04-24T13:55:56Z</time></trkpt><trkpt lat="44.37497561128197" lon="8.306139199600686"><ele>349.33333333333337</ele><time>2026-04-24T13:55:57Z</time></trkpt><trkpt lat="44.374963496304176" lon="8.305918461534148"><ele>348.6666666666667</ele><time>2026-04-24T13:55:58Z</time></trkpt><trkpt lat="44.37495885092322" lon="8.305705275706163"><ele>348.0</ele><time>2026-04-24T13:55:59Z</time></trkpt><trkpt lat="44.374962771327205" lon="8.305500909332858"><ele>347.6666666666667</ele><time>2026-04-24T13:56:00Z</time></trkpt><trkpt lat="44.37497616174229" lon="8.305294877622664"><ele>347.33333333333337</ele><time>2026-04-24T13:56:01Z</time></trkpt><trkpt lat="44.37499594798915" lon="8.305081226853737"><ele>347.0</ele><time>2026-04-24T13:56:02Z</time></trkpt><trkpt lat="44.37501764007889" lon="8.304871411695903"><ele>347.0</ele><time>2026-04-24T13:56:03Z</time></trkpt><trkpt lat="44.375045988945864" lon="8.304663916042992"><ele>347.0</ele><time>2026-04-24T13:56:04Z</time></trkpt><trkpt lat="44.375073132893974" lon="8.304469947321282"><ele>347.0</ele><time>2026-04-24T13:56:05Z</time></trkpt><trkpt lat="44.37510195676211" lon="8.304282557318905"><ele>347.0</ele><time>2026-04-24T13:56:06Z</time></trkpt><trkpt lat="44.375128304202484" lon="8.304094594003871"><ele>346.6666666666667</ele><time>2026-04-24T13:56:07Z</time></trkpt><trkpt lat="44.375157758119585" lon="8.303894389057852"><ele>346.3333333333333</ele><time>2026-04-24T13:56:08Z</time></trkpt><trkpt lat="44.37518905925079" lon="8.303688279404447"><ele>346.0</ele><time>2026-04-24T13:56:09Z</time></trkpt><trkpt lat="44.375225326199015" lon="8.303474817378504"><ele>346.0</ele><time>2026-04-24T13:56:10Z</time></trkpt><trkpt lat="44.37525290869201" lon="8.303253691649061"><ele>346.0</ele><time>2026-04-24T13:56:11Z</time></trkpt><trkpt lat="44.37528841178642" lon="8.303030291079077"><ele>346.0</ele><time>2026-04-24T13:56:12Z</time></trkpt><trkpt lat="44.37532613319264" lon="8.302805128532606"><ele>346.3333333333333</ele><time>2026-04-24T13:56:13Z</time></trkpt><trkpt lat="44.375361992253595" lon="8.30257523192621"><ele>346.6666666666667</ele><time>2026-04-24T13:56:14Z</time></trkpt><trkpt lat="44.37539730982615" lon="8.302348495563002"><ele>347.0</ele><time>2026-04-24T13:56:15Z</time></trkpt><trkpt lat="44.375432071851385" lon="8.302124079731607"><ele>347.0</ele><time>2026-04-24T13:56:16Z</time></trkpt><trkpt lat="44.37546571917011" lon="8.301915294272298"><ele>347.0</ele><time>2026-04-24T13:56:17Z</time></trkpt><trkpt lat="44.37549514553122" lon="8.301713278651723"><ele>347.0</ele><time>2026-04-24T13:56:18Z</time></trkpt><trkpt lat="44.375515786660046" lon="8.301512045265056"><ele>347.0</ele><time>2026-04-24T13:56:19Z</time></trkpt><trkpt lat="44.37552217965469" lon="8.301305343451856"><ele>347.25</ele><time>2026-04-24T13:56:20Z</time></trkpt><trkpt lat="44.37553827699632" lon="8.301097793106603"><ele>347.5</ele><time>2026-04-24T13:56:21Z</time></trkpt><trkpt lat="44.3755230121311" lon="8.30089301660711"><ele>347.75</ele><time>2026-04-24T13:56:22Z</time></trkpt><trkpt lat="44.375525126709896" lon="8.300689281057775"><ele>348.0</ele><time>2026-04-24T13:56:23Z</time></trkpt><trkpt lat="44.37553014559065" lon="8.300480088103606"><ele>348.25</ele><time>2026-04-24T13:56:24Z</time></trkpt><trkpt lat="44.37553752662267" lon="8.300275963802726"><ele>348.5</ele><time>2026-04-24T13:56:25Z</time></trkpt><trkpt lat="44.37555192500365" lon="8.300070270314613"><ele>348.75</ele><time>2026-04-24T13:56:26Z</time></trkpt><trkpt lat="44.3755657318518" lon="8.299859200340048"><ele>349.0</ele><time>2026-04-24T13:56:27Z</time></trkpt><trkpt lat="44.375577557563844" lon="8.29965371182612"><ele>349.3333333333333</ele><time>2026-04-24T13:56:28Z</time></trkpt><trkpt lat="44.37558797520145" lon="8.29944061205603"><ele>349.6666666666667</ele><time>2026-04-24T13:56:29Z</time></trkpt><trkpt lat="44.37560378264722" lon="8.299227602439482"><ele>350.0</ele><time>2026-04-24T13:56:30Z</time></trkpt><trkpt lat="44.375619673222275" lon="8.299013604579704"><ele>350.0</ele><time>2026-04-24T13:56:31Z</time></trkpt><trkpt lat="44.37563105315395" lon="8.298808289841045"><ele>350.0</ele><time>2026-04-24T13:56:32Z</time></trkpt><trkpt lat="44.37564821417602" lon="8.298601123127703"><ele>350.0</ele><time>2026-04-24T13:56:33Z</time></trkpt><trkpt lat="44.37566022551301" lon="8.29839745774781"><ele>350.0</ele><time>2026-04-24T13:56:34Z</time></trkpt><trkpt lat="44.375651193854765" lon="8.298197818777902"><ele>350.75</ele><time>2026-04-24T13:56:35Z</time></trkpt><trkpt lat="44.37564459079174" lon="8.297999882405549"><ele>351.5</ele><time>2026-04-24T13:56:36Z</time></trkpt><trkpt lat="44.37562891064639" lon="8.297805228110676"><ele>352.25</ele><time>2026-04-24T13:56:37Z</time></trkpt><trkpt lat="44.37560706479529" lon="8.297610948350446"><ele>353.0</ele><time>2026-04-24T13:56:38Z</time></trkpt><trkpt lat="44.37558576665568" lon="8.29741928876791"><ele>352.75</ele><time>2026-04-24T13:56:39Z</time></trkpt><trkpt lat="44.375566682067955" lon="8.297228136377687"><ele>352.5</ele><time>2026-04-24T13:56:40Z</time></trkpt><trkpt lat="44.37554983113531" lon="8.297037935225516"><ele>352.25</ele><time>2026-04-24T13:56:41Z</time></trkpt><trkpt lat="44.37553432866032" lon="8.296845568497993"><ele>352.0</ele><time>2026-04-24T13:56:42Z</time></trkpt><trkpt lat="44.37551584406737" lon="8.296660549862375"><ele>352.0</ele><time>2026-04-24T13:56:43Z</time></trkpt><trkpt lat="44.37550032937842" lon="8.296467989747661"><ele>352.0</ele><time>2026-04-24T13:56:44Z</time></trkpt><trkpt lat="44.375486476212984" lon="8.29627518822182"><ele>352.0</ele><time>2026-04-24T13:56:45Z</time></trkpt><trkpt lat="44.37547673014748" lon="8.296077816728047"><ele>352.0</ele><time>2026-04-24T13:56:46Z</time></trkpt><trkpt lat="44.3754689243862" lon="8.29588102757121"><ele>352.0</ele><time>2026-04-24T13:56:47Z</time></trkpt><trkpt lat="44.37546831008751" lon="8.295679602133255"><ele>352.0</ele><time>2026-04-24T13:56:48Z</time></trkpt><trkpt lat="44.37547026380127" lon="8.295481750862747"><ele>352.0</ele><time>2026-04-24T13:56:49Z</time></trkpt><trkpt lat="44.37548775191452" lon="8.29527699759045"><ele>352.0</ele><time>2026-04-24T13:56:50Z</time></trkpt><trkpt lat="44.375510377018735" lon="8.295082768330001"><ele>351.25</ele><time>2026-04-24T13:56:51Z</time></trkpt><trkpt lat="44.37553443793912" lon="8.294885207290088"><ele>350.5</ele><time>2026-04-24T13:56:52Z</time></trkpt><trkpt lat="44.375563823349786" lon="8.294682220834503"><ele>349.75</ele><time>2026-04-24T13:56:53Z</time></trkpt><trkpt lat="44.375596921890704" lon="8.294476486652815"><ele>349.0</ele><time>2026-04-24T13:56:54Z</time></trkpt><trkpt lat="44.375630159770594" lon="8.294267558978317"><ele>349.0</ele><time>2026-04-24T13:56:55Z</time></trkpt><trkpt lat="44.37566894193071" lon="8.29405022369221"><ele>349.0</ele><time>2026-04-24T13:56:56Z</time></trkpt><trkpt lat="44.375706517186096" lon="8.293842763355618"><ele>349.0</ele><time>2026-04-24T13:56:57Z</time></trkpt><trkpt lat="44.37575463773402" lon="8.293654832822659"><ele>348.5</ele><time>2026-04-24T13:56:58Z</time></trkpt><trkpt lat="44.375812584018696" lon="8.293475954208178"><ele>348.0</ele><time>2026-04-24T13:56:59Z</time></trkpt><trkpt lat="44.37588089596886" lon="8.29331183761261"><ele>347.5</ele><time>2026-04-24T13:57:00Z</time></trkpt><trkpt lat="44.37595809191559" lon="8.293156053944408"><ele>347.0</ele><time>2026-04-24T13:57:01Z</time></trkpt><trkpt lat="44.376040042484945" lon="8.29299514146752"><ele>347.0</ele><time>2026-04-24T13:57:02Z</time></trkpt><trkpt lat="44.37613349008211" lon="8.292825094851858"><ele>347.0</ele><time>2026-04-24T13:57:03Z</time></trkpt><trkpt lat="44.37621335047013" lon="8.292664097791597"><ele>347.0</ele><time>2026-04-24T13:57:04Z</time></trkpt><trkpt lat="44.37628059286215" lon="8.292467545749165"><ele>347.0</ele><time>2026-04-24T13:57:05Z</time></trkpt><trkpt lat="44.3763276078439" lon="8.292275172986947"><ele>346.25</ele><time>2026-04-24T13:57:06Z</time></trkpt><trkpt lat="44.37637774416937" lon="8.292106872141849"><ele>345.5</ele><time>2026-04-24T13:57:07Z</time></trkpt><trkpt lat="44.37646539770574" lon="8.291978019652294"><ele>344.75</ele><time>2026-04-24T13:57:08Z</time></trkpt><trkpt lat="44.3765538424929" lon="8.291843130430486"><ele>344.0</ele><time>2026-04-24T13:57:09Z</time></trkpt><trkpt lat="44.376661548469684" lon="8.291714284412052"><ele>344.0</ele><time>2026-04-24T13:57:10Z</time></trkpt><trkpt lat="44.3767621289319" lon="8.291576060208882"><ele>344.0</ele><time>2026-04-24T13:57:11Z</time></trkpt><trkpt lat="44.37686665469913" lon="8.29142996854148"><ele>344.0</ele><time>2026-04-24T13:57:12Z</time></trkpt><trkpt lat="44.376974232572465" lon="8.291282217133649"><ele>344.0</ele><time>2026-04-24T13:57:13Z</time></trkpt><trkpt lat="44.377082549820585" lon="8.291132612101732"><ele>344.33333333333337</ele><time>2026-04-24T13:57:14Z</time></trkpt><trkpt lat="44.37719272879561" lon="8.290978363404138"><ele>344.6666666666667</ele><time>2026-04-24T13:57:15Z</time></trkpt><trkpt lat="44.37730502182791" lon="8.290825031525099"><ele>345.0</ele><time>2026-04-24T13:57:16Z</time></trkpt><trkpt lat="44.37741632992548" lon="8.290664063624396"><ele>344.3333333333333</ele><time>2026-04-24T13:57:17Z</time></trkpt><trkpt lat="44.37753402457363" lon="8.29050547205923"><ele>343.66666666666663</ele><time>2026-04-24T13:57:18Z</time></trkpt><trkpt lat="44.377650288328816" lon="8.290345796332193"><ele>343.0</ele><time>2026-04-24T13:57:19Z</time></trkpt><trkpt lat="44.377765809684256" lon="8.290185175542714"><ele>343.0</ele><time>2026-04-24T13:57:20Z</time></trkpt><trkpt lat="44.377880467640956" lon="8.290024138458394"><ele>343.0</ele><time>2026-04-24T13:57:21Z</time></trkpt><trkpt lat="44.37799769252091" lon="8.289860884905929"><ele>343.0</ele><time>2026-04-24T13:57:22Z</time></trkpt><trkpt lat="44.37811379124185" lon="8.289699846267034"><ele>343.3333333333333</ele><time>2026-04-24T13:57:23Z</time></trkpt><trkpt lat="44.37823436575956" lon="8.289536499491046"><ele>343.6666666666667</ele><time>2026-04-24T13:57:24Z</time></trkpt><trkpt lat="44.37835081080678" lon="8.289369887048926"><ele>344.0</ele><time>2026-04-24T13:57:25Z</time></trkpt><trkpt lat="44.37846112910299" lon="8.28921486981366"><ele>344.0</ele><time>2026-04-24T13:57:26Z</time></trkpt><trkpt lat="44.37855861533413" lon="8.289077740735703"><ele>344.0</ele><time>2026-04-24T13:57:27Z</time></trkpt><trkpt lat="44.37864911679708" lon="8.288954458170346"><ele>344.0</ele><time>2026-04-24T13:57:28Z</time></trkpt><trkpt lat="44.37873489515795" lon="8.288840002747207"><ele>344.0</ele><time>2026-04-24T13:57:29Z</time></trkpt><trkpt lat="44.37882697276214" lon="8.288741732653056"><ele>343.25</ele><time>2026-04-24T13:57:30Z</time></trkpt><trkpt lat="44.378918252260874" lon="8.288674411460695"><ele>342.5</ele><time>2026-04-24T13:57:31Z</time></trkpt><trkpt lat="44.3790097307905" lon="8.288627030482992"><ele>341.75</ele><time>2026-04-24T13:57:32Z</time></trkpt><trkpt lat="44.379178030802144" lon="8.288500807720887"><ele>341.0</ele><time>2026-04-24T13:57:33Z</time></trkpt><trkpt lat="44.37929943815741" lon="8.28844478405779"><ele>341.0</ele><time>2026-04-24T13:57:34Z</time></trkpt><trkpt lat="44.37942211628525" lon="8.288376127470983"><ele>341.0</ele><time>2026-04-24T13:57:35Z</time></trkpt><trkpt lat="44.379552292854626" lon="8.288306104454735"><ele>341.0</ele><time>2026-04-24T13:57:36Z</time></trkpt><trkpt lat="44.37968285010534" lon="8.288239046322888"><ele>341.0</ele><time>2026-04-24T13:57:37Z</time></trkpt><trkpt lat="44.37981346590085" lon="8.288160811964811"><ele>340.75</ele><time>2026-04-24T13:57:38Z</time></trkpt><trkpt lat="44.37994654909559" lon="8.288077631039494"><ele>340.5</ele><time>2026-04-24T13:57:39Z</time></trkpt><trkpt lat="44.38007864672285" lon="8.287989231969535"><ele>340.25</ele><time>2026-04-24T13:57:40Z</time></trkpt><trkpt lat="44.3802161927558" lon="8.287904597664156"><ele>340.0</ele><time>2026-04-24T13:57:41Z</time></trkpt><trkpt lat="44.380347105157874" lon="8.287812628770286"><ele>340.0</ele><time>2026-04-24T13:57:42Z</time></trkpt><trkpt lat="44.38046723023133" lon="8.287729934065814"><ele>340.0</ele><time>2026-04-24T13:57:43Z</time></trkpt><trkpt lat="44.38057829843517" lon="8.287657449277596"><ele>340.0</ele><time>2026-04-24T13:57:44Z</time></trkpt><trkpt lat="44.38068292856928" lon="8.287582923071767"><ele>340.0</ele><time>2026-04-24T13:57:45Z</time></trkpt><trkpt lat="44.380793301630256" lon="8.287495993048683"><ele>340.25</ele><time>2026-04-24T13:57:46Z</time></trkpt><trkpt lat="44.38090612853818" lon="8.287402861811684"><ele>340.5</ele><time>2026-04-24T13:57:47Z</time></trkpt><trkpt lat="44.381019485356724" lon="8.287303385801652"><ele>340.75</ele><time>2026-04-24T13:57:48Z</time></trkpt><trkpt lat="44.38113738610192" lon="8.28720287956945"><ele>341.0</ele><time>2026-04-24T13:57:49Z</time></trkpt><trkpt lat="44.38126271620809" lon="8.287100595647198"><ele>340.0</ele><time>2026-04-24T13:57:50Z</time></trkpt><trkpt lat="44.381381465973945" lon="8.287000793832691"><ele>339.0</ele><time>2026-04-24T13:57:51Z</time></trkpt><trkpt lat="44.38149070381582" lon="8.286906708675026"><ele>338.0</ele><time>2026-04-24T13:57:52Z</time></trkpt><trkpt lat="44.381591678502325" lon="8.286825348524598"><ele>337.0</ele><time>2026-04-24T13:57:53Z</time></trkpt><trkpt lat="44.3816795028828" lon="8.286736019549442"><ele>337.0</ele><time>2026-04-24T13:57:54Z</time></trkpt><trkpt lat="44.38175114164202" lon="8.286634464545878"><ele>337.0</ele><time>2026-04-24T13:57:55Z</time></trkpt><trkpt lat="44.381807316877904" lon="8.286515753268864"><ele>337.0</ele><time>2026-04-24T13:57:56Z</time></trkpt><trkpt lat="44.381848757533845" lon="8.286382974601148"><ele>337.0</ele><time>2026-04-24T13:57:57Z</time></trkpt><trkpt lat="44.38187718089639" lon="8.286229847934028"><ele>337.0</ele><time>2026-04-24T13:57:58Z</time></trkpt><trkpt lat="44.38190860575451" lon="8.286074146075284"><ele>336.25</ele><time>2026-04-24T13:57:59Z</time></trkpt><trkpt lat="44.38194232180759" lon="8.285905327185043"><ele>335.5</ele><time>2026-04-24T13:58:00Z</time></trkpt><trkpt lat="44.38197794628471" lon="8.28572585477243"><ele>334.75</ele><time>2026-04-24T13:58:01Z</time></trkpt><trkpt lat="44.382022479479964" lon="8.285547489967964"><ele>334.0</ele><time>2026-04-24T13:58:02Z</time></trkpt><trkpt lat="44.38206517769186" lon="8.285356216041444"><ele>334.0</ele><time>2026-04-24T13:58:03Z</time></trkpt><trkpt lat="44.38210339624126" lon="8.2851566646491"><ele>334.0</ele><time>2026-04-24T13:58:04Z</time></trkpt><trkpt lat="44.38214512381423" lon="8.284949311311587"><ele>334.0</ele><time>2026-04-24T13:58:05Z</time></trkpt><trkpt lat="44.38219063521607" lon="8.284740614333742"><ele>334.0</ele><time>2026-04-24T13:58:06Z</time></trkpt><trkpt lat="44.38223399861576" lon="8.284530359474855"><ele>334.0</ele><time>2026-04-24T13:58:07Z</time></trkpt><trkpt lat="44.38227248174828" lon="8.284337653131482"><ele>334.0</ele><time>2026-04-24T13:58:08Z</time></trkpt><trkpt lat="44.38232503304893" lon="8.284174321252994"><ele>334.0</ele><time>2026-04-24T13:58:09Z</time></trkpt><trkpt lat="44.38235704164456" lon="8.28402630152198"><ele>334.0</ele><time>2026-04-24T13:58:10Z</time></trkpt><trkpt lat="44.38237534623484" lon="8.283869446875938"><ele>334.0</ele><time>2026-04-24T13:58:11Z</time></trkpt><trkpt lat="44.382408902869415" lon="8.283733565174508"><ele>334.0</ele><time>2026-04-24T13:58:12Z</time></trkpt><trkpt lat="44.38244755255257" lon="8.283597073664486"><ele>334.0</ele><time>2026-04-24T13:58:13Z</time></trkpt><trkpt lat="44.38249111933638" lon="8.283478174527794"><ele>334.0</ele><time>2026-04-24T13:58:14Z</time></trkpt><trkpt lat="44.382552858326015" lon="8.283390082929685"><ele>334.0</ele><time>2026-04-24T13:58:15Z</time></trkpt><trkpt lat="44.382626725029915" lon="8.283322677226495"><ele>334.0</ele><time>2026-04-24T13:58:16Z</time></trkpt><trkpt lat="44.382715329576904" lon="8.283288377964826"><ele>334.0</ele><time>2026-04-24T13:58:17Z</time></trkpt><trkpt lat="44.382808771386415" lon="8.283283774618464"><ele>334.0</ele><time>2026-04-24T13:58:18Z</time></trkpt><trkpt lat="44.38290482755515" lon="8.283307456786808"><ele>334.0</ele><time>2026-04-24T13:58:19Z</time></trkpt><trkpt lat="44.383004727559566" lon="8.283325068415326"><ele>334.4</ele><time>2026-04-24T13:58:20Z</time></trkpt><trkpt lat="44.38310727194754" lon="8.283285539715756"><ele>334.79999999999995</ele><time>2026-04-24T13:58:21Z</time></trkpt><trkpt lat="44.38318058924715" lon="8.283170922798337"><ele>335.20000000000005</ele><time>2026-04-24T13:58:22Z</time></trkpt><trkpt lat="44.38327278326261" lon="8.283088011547566"><ele>335.6</ele><time>2026-04-24T13:58:23Z</time></trkpt><trkpt lat="44.38334745158247" lon="8.282975994588673"><ele>336.0</ele><time>2026-04-24T13:58:24Z</time></trkpt><trkpt lat="44.38343289101049" lon="8.282898998968593"><ele>335.20000000000005</ele><time>2026-04-24T13:58:25Z</time></trkpt><trkpt lat="44.383520621364944" lon="8.282846816721632"><ele>334.40000000000003</ele><time>2026-04-24T13:58:26Z</time></trkpt><trkpt lat="44.3836198081196" lon="8.2828086309005"><ele>333.6</ele><time>2026-04-24T13:58:27Z</time></trkpt><trkpt lat="44.383725385752136" lon="8.282793126058493"><ele>332.8</ele><time>2026-04-24T13:58:28Z</time></trkpt><trkpt lat="44.38383115410504" lon="8.282762189972994"><ele>332.0</ele><time>2026-04-24T13:58:29Z</time></trkpt><trkpt lat="44.38395533135281" lon="8.282738073702465"><ele>331.6666666666667</ele><time>2026-04-24T13:58:30Z</time></trkpt><trkpt lat="44.38410138764707" lon="8.282796463722013"><ele>331.3333333333333</ele><time>2026-04-24T13:58:31Z</time></trkpt><trkpt lat="44.38425264386524" lon="8.282807182754073"><ele>331.0</ele><time>2026-04-24T13:58:32Z</time></trkpt><trkpt lat="44.38441544868031" lon="8.282820408263927"><ele>331.0</ele><time>2026-04-24T13:58:33Z</time></trkpt><trkpt lat="44.38458533635172" lon="8.282837541520411"><ele>331.0</ele><time>2026-04-24T13:58:34Z</time></trkpt><trkpt lat="44.38475571549188" lon="8.282852943921839"><ele>331.0</ele><time>2026-04-24T13:58:35Z</time></trkpt><trkpt lat="44.38492485943423" lon="8.282866588085966"><ele>330.3333333333333</ele><time>2026-04-24T13:58:36Z</time></trkpt><trkpt lat="44.38509630330223" lon="8.28287906520705"><ele>329.6666666666667</ele><time>2026-04-24T13:58:37Z</time></trkpt><trkpt lat="44.385266887820066" lon="8.282896002780156"><ele>329.0</ele><time>2026-04-24T13:58:38Z</time></trkpt><trkpt lat="44.385435440276424" lon="8.282912412201616"><ele>330.33333333333337</ele><time>2026-04-24T13:58:39Z</time></trkpt><trkpt lat="44.385606215227305" lon="8.282929428628217"><ele>331.6666666666667</ele><time>2026-04-24T13:58:40Z</time></trkpt><trkpt lat="44.38578230454832" lon="8.28293376819222"><ele>333.0</ele><time>2026-04-24T13:58:41Z</time></trkpt><trkpt lat="44.385955652952106" lon="8.282911890801934"><ele>333.0</ele><time>2026-04-24T13:58:42Z</time></trkpt><trkpt lat="44.386113852652414" lon="8.282862717017473"><ele>333.0</ele><time>2026-04-24T13:58:43Z</time></trkpt><trkpt lat="44.38626642663539" lon="8.28279572487207"><ele>333.0</ele><time>2026-04-24T13:58:44Z</time></trkpt><trkpt lat="44.3864159659441" lon="8.282720096442834"><ele>334.3333333333333</ele><time>2026-04-24T13:58:45Z</time></trkpt><trkpt lat="44.38656313819502" lon="8.282637415072312"><ele>335.66666666666663</ele><time>2026-04-24T13:58:46Z</time></trkpt><trkpt lat="44.386706046586866" lon="8.282548593306752"><ele>337.0</ele><time>2026-04-24T13:58:47Z</time></trkpt><trkpt lat="44.386851291879736" lon="8.282462657276982"><ele>337.0</ele><time>2026-04-24T13:58:48Z</time></trkpt><trkpt lat="44.38699756157982" lon="8.282386931162522"><ele>337.0</ele><time>2026-04-24T13:58:49Z</time></trkpt><trkpt lat="44.3871469531417" lon="8.28230995141289"><ele>337.0</ele><time>2026-04-24T13:58:50Z</time></trkpt><trkpt lat="44.387290800377315" lon="8.282227605227002"><ele>335.66666666666663</ele><time>2026-04-24T13:58:51Z</time></trkpt><trkpt lat="44.38743463905908" lon="8.282145591216072"><ele>334.3333333333333</ele><time>2026-04-24T13:58:52Z</time></trkpt><trkpt lat="44.387584528265506" lon="8.28206393811859"><ele>333.0</ele><time>2026-04-24T13:58:53Z</time></trkpt><trkpt lat="44.38773174100978" lon="8.281983122348286"><ele>333.0</ele><time>2026-04-24T13:58:54Z</time></trkpt><trkpt lat="44.387880263088725" lon="8.281900758261951"><ele>333.0</ele><time>2026-04-24T13:58:55Z</time></trkpt><trkpt lat="44.388028413537945" lon="8.281816712723183"><ele>333.0</ele><time>2026-04-24T13:58:56Z</time></trkpt><trkpt lat="44.388178261528964" lon="8.281735314592318"><ele>332.6666666666667</ele><time>2026-04-24T13:58:57Z</time></trkpt><trkpt lat="44.38832720228849" lon="8.281650243625815"><ele>332.33333333333337</ele><time>2026-04-24T13:58:58Z</time></trkpt><trkpt lat="44.38847747362872" lon="8.281564181758045"><ele>332.0</ele><time>2026-04-24T13:58:59Z</time></trkpt><trkpt lat="44.388627048697444" lon="8.281481557225396"><ele>331.33333333333337</ele><time>2026-04-24T13:59:00Z</time></trkpt><trkpt lat="44.38878070301194" lon="8.28140177363246"><ele>330.6666666666667</ele><time>2026-04-24T13:59:01Z</time></trkpt><trkpt lat="44.38893268502097" lon="8.281327761395627"><ele>330.0</ele><time>2026-04-24T13:59:02Z</time></trkpt><trkpt lat="44.389087449966794" lon="8.281262444462802"><ele>330.0</ele><time>2026-04-24T13:59:03Z</time></trkpt><trkpt lat="44.389249072950356" lon="8.281203545457366"><ele>330.0</ele><time>2026-04-24T13:59:04Z</time></trkpt><trkpt lat="44.389412013218276" lon="8.281157830744448"><ele>330.0</ele><time>2026-04-24T13:59:05Z</time></trkpt><trkpt lat="44.389579771713876" lon="8.281128496696905"><ele>331.0</ele><time>2026-04-24T13:59:06Z</time></trkpt><trkpt lat="44.389747353052286" lon="8.281113531120393"><ele>332.0</ele><time>2026-04-24T13:59:07Z</time></trkpt><trkpt lat="44.38991704270431" lon="8.281109684297876"><ele>333.0</ele><time>2026-04-24T13:59:08Z</time></trkpt><trkpt lat="44.39008971846202" lon="8.28112100361807"><ele>333.0</ele><time>2026-04-24T13:59:09Z</time></trkpt><trkpt lat="44.39025967359996" lon="8.28114543288768"><ele>333.0</ele><time>2026-04-24T13:59:10Z</time></trkpt><trkpt lat="44.39043354768354" lon="8.281183463257122"><ele>333.0</ele><time>2026-04-24T13:59:11Z</time></trkpt><trkpt lat="44.390604415150136" lon="8.281227814293608"><ele>332.0</ele><time>2026-04-24T13:59:12Z</time></trkpt><trkpt lat="44.39077311628163" lon="8.2812747729852"><ele>331.0</ele><time>2026-04-24T13:59:13Z</time></trkpt><trkpt lat="44.3909386277004" lon="8.281325781308453"><ele>330.0</ele><time>2026-04-24T13:59:14Z</time></trkpt><trkpt lat="44.39109324090817" lon="8.281373663785006"><ele>330.0</ele><time>2026-04-24T13:59:15Z</time></trkpt><trkpt lat="44.391242799889156" lon="8.28141772817458"><ele>330.0</ele><time>2026-04-24T13:59:16Z</time></trkpt><trkpt lat="44.391389971867085" lon="8.281461108734897"><ele>330.0</ele><time>2026-04-24T13:59:17Z</time></trkpt><trkpt lat="44.39154022342487" lon="8.281504027323072"><ele>330.25</ele><time>2026-04-24T13:59:18Z</time></trkpt><trkpt lat="44.391686990658094" lon="8.281542236668958"><ele>330.5</ele><time>2026-04-24T13:59:19Z</time></trkpt><trkpt lat="44.391832705583255" lon="8.281581748304689"><ele>330.75</ele><time>2026-04-24T13:59:20Z</time></trkpt><trkpt lat="44.391980712749465" lon="8.281627805331842"><ele>331.0</ele><time>2026-04-24T13:59:21Z</time></trkpt><trkpt lat="44.39213321846579" lon="8.28167422192154"><ele>329.66666666666663</ele><time>2026-04-24T13:59:22Z</time></trkpt><trkpt lat="44.392289873883264" lon="8.281719032570544"><ele>328.3333333333333</ele><time>2026-04-24T13:59:23Z</time></trkpt><trkpt lat="44.392447952555344" lon="8.281764479573942"><ele>327.0</ele><time>2026-04-24T13:59:24Z</time></trkpt><trkpt lat="44.39261205814368" lon="8.281805780826945"><ele>327.0</ele><time>2026-04-24T13:59:25Z</time></trkpt><trkpt lat="44.39277299673371" lon="8.28184982273539"><ele>327.0</ele><time>2026-04-24T13:59:26Z</time></trkpt><trkpt lat="44.39293798222289" lon="8.281896574557598"><ele>327.0</ele><time>2026-04-24T13:59:27Z</time></trkpt><trkpt lat="44.39310738452556" lon="8.281945293739334"><ele>328.6666666666667</ele><time>2026-04-24T13:59:28Z</time></trkpt><trkpt lat="44.393275799537136" lon="8.281992849143805"><ele>330.33333333333337</ele><time>2026-04-24T13:59:29Z</time></trkpt><trkpt lat="44.39344662683183" lon="8.28204192178275"><ele>332.0</ele><time>2026-04-24T13:59:30Z</time></trkpt><trkpt lat="44.39362333706532" lon="8.282095819715222"><ele>332.0</ele><time>2026-04-24T13:59:31Z</time></trkpt><trkpt lat="44.39380203377944" lon="8.282149752202727"><ele>332.0</ele><time>2026-04-24T13:59:32Z</time></trkpt><trkpt lat="44.39398506770297" lon="8.282205125148748"><ele>332.0</ele><time>2026-04-24T13:59:33Z</time></trkpt><trkpt lat="44.39417608484962" lon="8.282262660260583"><ele>333.0</ele><time>2026-04-24T13:59:34Z</time></trkpt><trkpt lat="44.39437085173405" lon="8.2823148480514"><ele>334.0</ele><time>2026-04-24T13:59:35Z</time></trkpt><trkpt lat="44.39456855448277" lon="8.282369521812107"><ele>335.0</ele><time>2026-04-24T13:59:36Z</time></trkpt><trkpt lat="44.394769748907095" lon="8.282427464756793"><ele>335.0</ele><time>2026-04-24T13:59:37Z</time></trkpt><trkpt lat="44.394975326914626" lon="8.282486975302088"><ele>335.0</ele><time>2026-04-24T13:59:38Z</time></trkpt><trkpt lat="44.39517910526998" lon="8.28254615024472"><ele>335.0</ele><time>2026-04-24T13:59:39Z</time></trkpt><trkpt lat="44.39538485222567" lon="8.282606679430835"><ele>335.33333333333337</ele><time>2026-04-24T13:59:40Z</time></trkpt><trkpt lat="44.39557487692758" lon="8.282661412161149"><ele>335.6666666666667</ele><time>2026-04-24T13:59:41Z</time></trkpt><trkpt lat="44.395755153790326" lon="8.282714175216835"><ele>336.0</ele><time>2026-04-24T13:59:42Z</time></trkpt><trkpt lat="44.3959337590275" lon="8.282768583707442"><ele>336.0</ele><time>2026-04-24T13:59:43Z</time></trkpt><trkpt lat="44.39610711890787" lon="8.282819409683444"><ele>336.0</ele><time>2026-04-24T13:59:44Z</time></trkpt><trkpt lat="44.396266255363855" lon="8.282865036258537"><ele>336.0</ele><time>2026-04-24T13:59:45Z</time></trkpt><trkpt lat="44.396425983390756" lon="8.28291074989563"><ele>335.6666666666667</ele><time>2026-04-24T13:59:46Z</time></trkpt><trkpt lat="44.396579962889206" lon="8.282956806664295"><ele>335.33333333333337</ele><time>2026-04-24T13:59:47Z</time></trkpt><trkpt lat="44.396738400131326" lon="8.283000135764768"><ele>335.0</ele><time>2026-04-24T13:59:48Z</time></trkpt><trkpt lat="44.39689452157437" lon="8.28304409482196"><ele>335.0</ele><time>2026-04-24T13:59:49Z</time></trkpt><trkpt lat="44.397051989160964" lon="8.283088574835011"><ele>335.0</ele><time>2026-04-24T13:59:50Z</time></trkpt><trkpt lat="44.397212278104696" lon="8.283133123330238"><ele>335.0</ele><time>2026-04-24T13:59:51Z</time></trkpt><trkpt lat="44.39737965614809" lon="8.28317400211924"><ele>335.6666666666667</ele><time>2026-04-24T13:59:52Z</time></trkpt><trkpt lat="44.39755761971268" lon="8.283221058918535"><ele>336.3333333333333</ele><time>2026-04-24T13:59:53Z</time></trkpt><trkpt lat="44.3977340481244" lon="8.283271653140433"><ele>337.0</ele><time>2026-04-24T13:59:54Z</time></trkpt><trkpt lat="44.39791644555914" lon="8.283324512811445"><ele>337.3333333333333</ele><time>2026-04-24T13:59:55Z</time></trkpt><trkpt lat="44.398095714979625" lon="8.283399699943368"><ele>337.6666666666667</ele><time>2026-04-24T13:59:56Z</time></trkpt><trkpt lat="44.398289769470665" lon="8.283439408648881"><ele>338.0</ele><time>2026-04-24T13:59:57Z</time></trkpt><trkpt lat="44.39848191330595" lon="8.28350655273023"><ele>338.0</ele><time>2026-04-24T13:59:58Z</time></trkpt><trkpt lat="44.39867927453688" lon="8.283568440715143"><ele>338.0</ele><time>2026-04-24T13:59:59Z</time></trkpt><trkpt lat="44.398883862648944" lon="8.283629356779079"><ele>338.0</ele><time>2026-04-24T14:00:00Z</time></trkpt><trkpt lat="44.399092554906986" lon="8.283695533116783"><ele>338.6666666666667</ele><time>2026-04-24T14:00:01Z</time></trkpt><trkpt lat="44.399308871910286" lon="8.283758256951787"><ele>339.3333333333333</ele><time>2026-04-24T14:00:02Z</time></trkpt><trkpt lat="44.39952741557468" lon="8.283821661230455"><ele>340.0</ele><time>2026-04-24T14:00:03Z</time></trkpt><trkpt lat="44.399752799057865" lon="8.283883324667377"><ele>343.0</ele><time>2026-04-24T14:00:04Z</time></trkpt><trkpt lat="44.39997171419873" lon="8.28393401846765"><ele>346.0</ele><time>2026-04-24T14:00:05Z</time></trkpt><trkpt lat="44.40017094585593" lon="8.283972958090628"><ele>349.0</ele><time>2026-04-24T14:00:06Z</time></trkpt><trkpt lat="44.400372624063" lon="8.284010968142715"><ele>348.3333333333333</ele><time>2026-04-24T14:00:07Z</time></trkpt><trkpt lat="44.40055398952249" lon="8.284038101078597"><ele>347.6666666666667</ele><time>2026-04-24T14:00:08Z</time></trkpt><trkpt lat="44.40074322309402" lon="8.284060309390851"><ele>347.0</ele><time>2026-04-24T14:00:09Z</time></trkpt><trkpt lat="44.40092954095215" lon="8.28407699357386"><ele>347.0</ele><time>2026-04-24T14:00:10Z</time></trkpt><trkpt lat="44.401114218916895" lon="8.284092003502895"><ele>347.0</ele><time>2026-04-24T14:00:11Z</time></trkpt><trkpt lat="44.40130043983512" lon="8.284097636478194"><ele>347.0</ele><time>2026-04-24T14:00:12Z</time></trkpt><trkpt lat="44.40148935568823" lon="8.284102199509263"><ele>345.0</ele><time>2026-04-24T14:00:13Z</time></trkpt><trkpt lat="44.4016764343217" lon="8.284108015743882"><ele>343.0</ele><time>2026-04-24T14:00:14Z</time></trkpt><trkpt lat="44.40186598055432" lon="8.284109878044282"><ele>341.0</ele><time>2026-04-24T14:00:15Z</time></trkpt><trkpt lat="44.402060963551335" lon="8.284109486552586"><ele>339.33333333333337</ele><time>2026-04-24T14:00:16Z</time></trkpt><trkpt lat="44.402244753182664" lon="8.284112931544877"><ele>337.6666666666667</ele><time>2026-04-24T14:00:17Z</time></trkpt><trkpt lat="44.40242192328664" lon="8.284114352239865"><ele>336.0</ele><time>2026-04-24T14:00:18Z</time></trkpt><trkpt lat="44.402592861779866" lon="8.284119667607897"><ele>336.0</ele><time>2026-04-24T14:00:19Z</time></trkpt><trkpt lat="44.402764534471764" lon="8.284120697654096"><ele>336.0</ele><time>2026-04-24T14:00:20Z</time></trkpt><trkpt lat="44.40293988730883" lon="8.284121309362137"><ele>336.0</ele><time>2026-04-24T14:00:21Z</time></trkpt><trkpt lat="44.403116333938975" lon="8.28412531448785"><ele>335.3333333333333</ele><time>2026-04-24T14:00:22Z</time></trkpt><trkpt lat="44.403295726777415" lon="8.284124505869766"><ele>334.66666666666663</ele><time>2026-04-24T14:00:23Z</time></trkpt><trkpt lat="44.40347081150061" lon="8.284124530956158"><ele>334.0</ele><time>2026-04-24T14:00:24Z</time></trkpt><trkpt lat="44.4036410587416" lon="8.284122847694585"><ele>334.0</ele><time>2026-04-24T14:00:25Z</time></trkpt><trkpt lat="44.403810363200556" lon="8.284122274532166"><ele>334.0</ele><time>2026-04-24T14:00:26Z</time></trkpt><trkpt lat="44.403977847236554" lon="8.28412730038865"><ele>334.0</ele><time>2026-04-24T14:00:27Z</time></trkpt><trkpt lat="44.40414891396311" lon="8.284131833646196"><ele>334.3333333333333</ele><time>2026-04-24T14:00:28Z</time></trkpt><trkpt lat="44.404319910299826" lon="8.284134881949734"><ele>334.6666666666667</ele><time>2026-04-24T14:00:29Z</time></trkpt><trkpt lat="44.40448748680687" lon="8.28413655640363"><ele>335.0</ele><time>2026-04-24T14:00:30Z</time></trkpt><trkpt lat="44.40465097695606" lon="8.284137761323558"><ele>334.33333333333337</ele><time>2026-04-24T14:00:31Z</time></trkpt><trkpt lat="44.40481294585275" lon="8.284141453903844"><ele>333.6666666666667</ele><time>2026-04-24T14:00:32Z</time></trkpt><trkpt lat="44.404975409234545" lon="8.284143284898395"><ele>333.0</ele><time>2026-04-24T14:00:33Z</time></trkpt><trkpt lat="44.40513957084092" lon="8.284143108779059"><ele>333.0</ele><time>2026-04-24T14:00:34Z</time></trkpt><trkpt lat="44.405305363151726" lon="8.284143998719971"><ele>333.0</ele><time>2026-04-24T14:00:35Z</time></trkpt><trkpt lat="44.40547497529561" lon="8.284146937249343"><ele>333.0</ele><time>2026-04-24T14:00:36Z</time></trkpt><trkpt lat="44.40565043954545" lon="8.284150352521788"><ele>332.6666666666667</ele><time>2026-04-24T14:00:37Z</time></trkpt><trkpt lat="44.40582767580586" lon="8.28415165565033"><ele>332.33333333333337</ele><time>2026-04-24T14:00:38Z</time></trkpt><trkpt lat="44.405996220438745" lon="8.28415012971761"><ele>332.0</ele><time>2026-04-24T14:00:39Z</time></trkpt><trkpt lat="44.40616432685051" lon="8.284148806553763"><ele>333.0</ele><time>2026-04-24T14:00:40Z</time></trkpt><trkpt lat="44.4063352935428" lon="8.284151765575142"><ele>334.0</ele><time>2026-04-24T14:00:41Z</time></trkpt><trkpt lat="44.406507761782215" lon="8.284153517063816"><ele>335.0</ele><time>2026-04-24T14:00:42Z</time></trkpt><trkpt lat="44.40668250124749" lon="8.284156868778886"><ele>335.0</ele><time>2026-04-24T14:00:43Z</time></trkpt><trkpt lat="44.40686042201796" lon="8.284156322824792"><ele>335.0</ele><time>2026-04-24T14:00:44Z</time></trkpt><trkpt lat="44.407041827139274" lon="8.2841370007834"><ele>335.0</ele><time>2026-04-24T14:00:45Z</time></trkpt><trkpt lat="44.40722658315862" lon="8.284099486236286"><ele>337.6666666666667</ele><time>2026-04-24T14:00:46Z</time></trkpt><trkpt lat="44.40741139597985" lon="8.284048214831278"><ele>340.3333333333333</ele><time>2026-04-24T14:00:47Z</time></trkpt><trkpt lat="44.40759696819909" lon="8.283990989351421"><ele>343.0</ele><time>2026-04-24T14:00:48Z</time></trkpt><trkpt lat="44.407780376571765" lon="8.283930398570106"><ele>340.3333333333333</ele><time>2026-04-24T14:00:49Z</time></trkpt><trkpt lat="44.40796136183172" lon="8.283857859325877"><ele>337.6666666666667</ele><time>2026-04-24T14:00:50Z</time></trkpt><trkpt lat="44.40813844826546" lon="8.283774546173666"><ele>335.0</ele><time>2026-04-24T14:00:51Z</time></trkpt><trkpt lat="44.408312546779364" lon="8.283683065693616"><ele>335.0</ele><time>2026-04-24T14:00:52Z</time></trkpt><trkpt lat="44.40847870690058" lon="8.283583917822025"><ele>335.0</ele><time>2026-04-24T14:00:53Z</time></trkpt><trkpt lat="44.40863330000094" lon="8.283478284600557"><ele>335.0</ele><time>2026-04-24T14:00:53.999Z</time></trkpt><trkpt lat="44.40878460124799" lon="8.2833680014524"><ele>335.0</ele><time>2026-04-24T14:00:54.999Z</time></trkpt><trkpt lat="44.408931276412645" lon="8.283248982749436"><ele>335.0</ele><time>2026-04-24T14:00:55.999Z</time></trkpt><trkpt lat="44.40907658775015" lon="8.283118551326176"><ele>335.0</ele><time>2026-04-24T14:00:56.999Z</time></trkpt><trkpt lat="44.409216288548045" lon="8.282981256754132"><ele>333.6666666666667</ele><time>2026-04-24T14:00:57.999Z</time></trkpt><trkpt lat="44.40936032159838" lon="8.282827735191155"><ele>332.3333333333333</ele><time>2026-04-24T14:00:58.999Z</time></trkpt><trkpt lat="44.40951968406233" lon="8.28269196643101"><ele>331.0</ele><time>2026-04-24T14:00:59.999Z</time></trkpt><trkpt lat="44.40966300631795" lon="8.282545701376353"><ele>331.66666666666663</ele><time>2026-04-24T14:01:00.999Z</time></trkpt><trkpt lat="44.40979218272006" lon="8.282391052442389"><ele>332.3333333333333</ele><time>2026-04-24T14:01:01.999Z</time></trkpt><trkpt lat="44.4099349283136" lon="8.282246571580767"><ele>333.0</ele><time>2026-04-24T14:01:02.999Z</time></trkpt><trkpt lat="44.410079325993436" lon="8.282099836380374"><ele>333.0</ele><time>2026-04-24T14:01:03.999Z</time></trkpt><trkpt lat="44.41021535905224" lon="8.281962290542968"><ele>333.0</ele><time>2026-04-24T14:01:04.999Z</time></trkpt><trkpt lat="44.410346288153555" lon="8.281828652221403"><ele>333.0</ele><time>2026-04-24T14:01:05.999Z</time></trkpt><trkpt lat="44.410477509593136" lon="8.281697753112107"><ele>334.0</ele><time>2026-04-24T14:01:06.999Z</time></trkpt><trkpt lat="44.4106081689192" lon="8.281565780209"><ele>335.0</ele><time>2026-04-24T14:01:07.999Z</time></trkpt><trkpt lat="44.41073759566086" lon="8.281434773071977"><ele>336.0</ele><time>2026-04-24T14:01:08.999Z</time></trkpt><trkpt lat="44.41087186141072" lon="8.28130385747902"><ele>333.6666666666667</ele><time>2026-04-24T14:01:09.999Z</time></trkpt><trkpt lat="44.41100899425168" lon="8.281180168543155"><ele>331.33333333333337</ele><time>2026-04-24T14:01:10.999Z</time></trkpt><trkpt lat="44.411151829169754" lon="8.281065777398911"><ele>329.0</ele><time>2026-04-24T14:01:11.999Z</time></trkpt><trkpt lat="44.41130103844267" lon="8.280967219562553"><ele>330.6666666666667</ele><time>2026-04-24T14:01:12.999Z</time></trkpt><trkpt lat="44.41145216299846" lon="8.28088244718808"><ele>332.3333333333333</ele><time>2026-04-24T14:01:13.999Z</time></trkpt><trkpt lat="44.41160565152101" lon="8.280813724564235"><ele>334.0</ele><time>2026-04-24T14:01:14.999Z</time></trkpt><trkpt lat="44.41176747501107" lon="8.280758591832448"><ele>334.0</ele><time>2026-04-24T14:01:15.999Z</time></trkpt><trkpt lat="44.41193558075668" lon="8.280722169961402"><ele>334.0</ele><time>2026-04-24T14:01:16.999Z</time></trkpt><trkpt lat="44.41210101879198" lon="8.280703279533139"><ele>334.0</ele><time>2026-04-24T14:01:17.999Z</time></trkpt><trkpt lat="44.41226730204727" lon="8.280708986843154"><ele>337.3333333333333</ele><time>2026-04-24T14:01:18.999Z</time></trkpt><trkpt lat="44.41243449946473" lon="8.28072779454666"><ele>340.6666666666667</ele><time>2026-04-24T14:01:19.999Z</time></trkpt><trkpt lat="44.412603921446305" lon="8.28076210754557"><ele>344.0</ele><time>2026-04-24T14:01:21Z</time></trkpt><trkpt lat="44.41277287495776" lon="8.280809540680412"><ele>344.0</ele><time>2026-04-24T14:01:22Z</time></trkpt><trkpt lat="44.41294546146535" lon="8.280872178238555"><ele>344.0</ele><time>2026-04-24T14:01:23Z</time></trkpt><trkpt lat="44.413120126958496" lon="8.280943642745562"><ele>344.0</ele><time>2026-04-24T14:01:24Z</time></trkpt><trkpt lat="44.41329676084519" lon="8.281021293512211"><ele>342.0</ele><time>2026-04-24T14:01:25Z</time></trkpt><trkpt lat="44.413473455145024" lon="8.281099375216833"><ele>340.0</ele><time>2026-04-24T14:01:26Z</time></trkpt><trkpt lat="44.41365528602301" lon="8.281181480670046"><ele>338.0</ele><time>2026-04-24T14:01:27Z</time></trkpt><trkpt lat="44.413840211767884" lon="8.281265903737554"><ele>341.0</ele><time>2026-04-24T14:01:28Z</time></trkpt><trkpt lat="44.41402562976734" lon="8.281378759337409"><ele>344.0</ele><time>2026-04-24T14:01:29Z</time></trkpt><trkpt lat="44.414225112511595" lon="8.281457996288529"><ele>347.0</ele><time>2026-04-24T14:01:30Z</time></trkpt><trkpt lat="44.41441147469747" lon="8.281561746405542"><ele>347.0</ele><time>2026-04-24T14:01:31Z</time></trkpt><trkpt lat="44.414585707108465" lon="8.281658745925416"><ele>347.0</ele><time>2026-04-24T14:01:32Z</time></trkpt><trkpt lat="44.41474864883829" lon="8.281750725784303"><ele>347.0</ele><time>2026-04-24T14:01:33Z</time></trkpt><trkpt lat="44.41490299564101" lon="8.28184612993518"><ele>343.33333333333337</ele><time>2026-04-24T14:01:34Z</time></trkpt><trkpt lat="44.41505912521703" lon="8.281952960141473"><ele>339.6666666666667</ele><time>2026-04-24T14:01:35Z</time></trkpt><trkpt lat="44.41521347476129" lon="8.282065190929067"><ele>336.0</ele><time>2026-04-24T14:01:36Z</time></trkpt><trkpt lat="44.41536376893639" lon="8.282188149650677"><ele>335.6666666666667</ele><time>2026-04-24T14:01:37Z</time></trkpt><trkpt lat="44.415514126892624" lon="8.282319290384292"><ele>335.33333333333337</ele><time>2026-04-24T14:01:38Z</time></trkpt><trkpt lat="44.415662408467206" lon="8.282457202006228"><ele>335.0</ele><time>2026-04-24T14:01:39Z</time></trkpt><trkpt lat="44.415809592567626" lon="8.282602140412418"><ele>335.0</ele><time>2026-04-24T14:01:40Z</time></trkpt><trkpt lat="44.415955461257" lon="8.282756325285453"><ele>335.0</ele><time>2026-04-24T14:01:41Z</time></trkpt><trkpt lat="44.41609616164668" lon="8.282917339614906"><ele>335.0</ele><time>2026-04-24T14:01:42Z</time></trkpt><trkpt lat="44.416236724236455" lon="8.28308457294656"><ele>333.6666666666667</ele><time>2026-04-24T14:01:43Z</time></trkpt><trkpt lat="44.416373720476756" lon="8.28325000332021"><ele>332.3333333333333</ele><time>2026-04-24T14:01:44Z</time></trkpt><trkpt lat="44.416508109968" lon="8.283410701912103"><ele>331.0</ele><time>2026-04-24T14:01:45Z</time></trkpt><trkpt lat="44.416637088050734" lon="8.283565767352544"><ele>331.0</ele><time>2026-04-24T14:01:46Z</time></trkpt><trkpt lat="44.416761275992265" lon="8.283716665267399"><ele>331.0</ele><time>2026-04-24T14:01:47Z</time></trkpt><trkpt lat="44.41688601786042" lon="8.28386197100562"><ele>331.0</ele><time>2026-04-24T14:01:48Z</time></trkpt><trkpt lat="44.41700694553078" lon="8.283996660655031"><ele>329.0</ele><time>2026-04-24T14:01:49Z</time></trkpt><trkpt lat="44.417130708719014" lon="8.284135238529117"><ele>327.0</ele><time>2026-04-24T14:01:50Z</time></trkpt><trkpt lat="44.41725641722271" lon="8.284266300526138"><ele>325.0</ele><time>2026-04-24T14:01:51Z</time></trkpt><trkpt lat="44.41739053188449" lon="8.284383332884397"><ele>325.0</ele><time>2026-04-24T14:01:52Z</time></trkpt><trkpt lat="44.41752930694388" lon="8.284485998408844"><ele>325.0</ele><time>2026-04-24T14:01:53Z</time></trkpt><trkpt lat="44.417666924523196" lon="8.284582944616607"><ele>325.0</ele><time>2026-04-24T14:01:54Z</time></trkpt><trkpt lat="44.417803376590925" lon="8.284675252734433"><ele>325.66666666666663</ele><time>2026-04-24T14:01:55Z</time></trkpt><trkpt lat="44.41793783880507" lon="8.28476754539178"><ele>326.3333333333333</ele><time>2026-04-24T14:01:56Z</time></trkpt><trkpt lat="44.418081833935275" lon="8.284865809268588"><ele>327.0</ele><time>2026-04-24T14:01:57Z</time></trkpt><trkpt lat="44.41822980037551" lon="8.284967113096322"><ele>327.0</ele><time>2026-04-24T14:01:58Z</time></trkpt><trkpt lat="44.418378913451456" lon="8.28507043755834"><ele>327.0</ele><time>2026-04-24T14:01:59Z</time></trkpt><trkpt lat="44.41851984043318" lon="8.285171148151836"><ele>327.0</ele><time>2026-04-24T14:02:00Z</time></trkpt><trkpt lat="44.41865893193493" lon="8.285274452342456"><ele>327.0</ele><time>2026-04-24T14:02:01Z</time></trkpt><trkpt lat="44.41879541919963" lon="8.285388009613088"><ele>327.0</ele><time>2026-04-24T14:02:02Z</time></trkpt><trkpt lat="44.41893174727392" lon="8.28551324285689"><ele>327.0</ele><time>2026-04-24T14:02:03Z</time></trkpt><trkpt lat="44.41906698655959" lon="8.285661251135103"><ele>327.6666666666667</ele><time>2026-04-24T14:02:04Z</time></trkpt><trkpt lat="44.41920180742923" lon="8.285822399205069"><ele>328.33333333333337</ele><time>2026-04-24T14:02:05Z</time></trkpt><trkpt lat="44.41933501382951" lon="8.285994383575378"><ele>329.0</ele><time>2026-04-24T14:02:06Z</time></trkpt><trkpt lat="44.419463376825256" lon="8.286179147468976"><ele>329.0</ele><time>2026-04-24T14:02:07Z</time></trkpt><trkpt lat="44.41958636715049" lon="8.286374344613428"><ele>329.0</ele><time>2026-04-24T14:02:08Z</time></trkpt><trkpt lat="44.419699571140946" lon="8.286571558356362"><ele>329.0</ele><time>2026-04-24T14:02:09Z</time></trkpt><trkpt lat="44.419807655820065" lon="8.286767605513957"><ele>327.6666666666667</ele><time>2026-04-24T14:02:10Z</time></trkpt><trkpt lat="44.419913477477806" lon="8.286960104432868"><ele>326.3333333333333</ele><time>2026-04-24T14:02:11Z</time></trkpt><trkpt lat="44.42001947990468" lon="8.28715709204614"><ele>325.0</ele><time>2026-04-24T14:02:12Z</time></trkpt><trkpt lat="44.42011897292946" lon="8.287352857702912"><ele>328.3333333333333</ele><time>2026-04-24T14:02:13Z</time></trkpt><trkpt lat="44.42022217189419" lon="8.287548545976504"><ele>331.6666666666667</ele><time>2026-04-24T14:02:14Z</time></trkpt><trkpt lat="44.420324406847385" lon="8.287742876358774"><ele>335.0</ele><time>2026-04-24T14:02:15Z</time></trkpt><trkpt lat="44.42042774693776" lon="8.287936513884507"><ele>331.33333333333337</ele><time>2026-04-24T14:02:16Z</time></trkpt><trkpt lat="44.420533067128936" lon="8.288124983217628"><ele>327.6666666666667</ele><time>2026-04-24T14:02:17Z</time></trkpt><trkpt lat="44.4206390453573" lon="8.288312990956944"><ele>324.0</ele><time>2026-04-24T14:02:18Z</time></trkpt><trkpt lat="44.42073773251325" lon="8.288490050141187"><ele>324.0</ele><time>2026-04-24T14:02:19Z</time></trkpt><trkpt lat="44.420826805634015" lon="8.288656564711431"><ele>324.0</ele><time>2026-04-24T14:02:20Z</time></trkpt><trkpt lat="44.420911652116864" lon="8.288830157427007"><ele>324.0</ele><time>2026-04-24T14:02:21Z</time></trkpt><trkpt lat="44.42098533246214" lon="8.289016212390733"><ele>326.3333333333333</ele><time>2026-04-24T14:02:22Z</time></trkpt><trkpt lat="44.42104509934071" lon="8.289217334726139"><ele>328.66666666666663</ele><time>2026-04-24T14:02:23Z</time></trkpt><trkpt lat="44.42109458255456" lon="8.28943028342394"><ele>331.0</ele><time>2026-04-24T14:02:24Z</time></trkpt><trkpt lat="44.42113364308829" lon="8.289657559555822"><ele>333.3333333333333</ele><time>2026-04-24T14:02:25Z</time></trkpt><trkpt lat="44.42116186012134" lon="8.289881499288597"><ele>335.6666666666667</ele><time>2026-04-24T14:02:26Z</time></trkpt><trkpt lat="44.42119050959413" lon="8.290106565449761"><ele>338.0</ele><time>2026-04-24T14:02:27Z</time></trkpt><trkpt lat="44.421225169834884" lon="8.290332006926445"><ele>338.0</ele><time>2026-04-24T14:02:28Z</time></trkpt><trkpt lat="44.42127371852493" lon="8.290560790838603"><ele>338.0</ele><time>2026-04-24T14:02:29Z</time></trkpt><trkpt lat="44.42133624709364" lon="8.290792392296423"><ele>338.0</ele><time>2026-04-24T14:02:30Z</time></trkpt><trkpt lat="44.42140941145933" lon="8.291029943906453"><ele>335.6666666666667</ele><time>2026-04-24T14:02:31Z</time></trkpt><trkpt lat="44.42148297695368" lon="8.291255153614944"><ele>333.3333333333333</ele><time>2026-04-24T14:02:32Z</time></trkpt><trkpt lat="44.42154304124539" lon="8.29144516852084"><ele>331.0</ele><time>2026-04-24T14:02:33Z</time></trkpt><trkpt lat="44.421601060235204" lon="8.29163336635281"><ele>331.0</ele><time>2026-04-24T14:02:34Z</time></trkpt><trkpt lat="44.42166182951413" lon="8.291820886158652"><ele>331.0</ele><time>2026-04-24T14:02:35Z</time></trkpt><trkpt lat="44.42172381285808" lon="8.292015315440452"><ele>331.0</ele><time>2026-04-24T14:02:36Z</time></trkpt><trkpt lat="44.421789044385605" lon="8.292206479666945"><ele>332.66666666666663</ele><time>2026-04-24T14:02:37Z</time></trkpt><trkpt lat="44.42185267968746" lon="8.292393635157575"><ele>334.3333333333333</ele><time>2026-04-24T14:02:38Z</time></trkpt><trkpt lat="44.4219145843112" lon="8.292588583406701"><ele>336.0</ele><time>2026-04-24T14:02:39Z</time></trkpt><trkpt lat="44.421979006690584" lon="8.292790651864768"><ele>336.0</ele><time>2026-04-24T14:02:40Z</time></trkpt><trkpt lat="44.42204098891648" lon="8.29298685829806"><ele>336.0</ele><time>2026-04-24T14:02:41Z</time></trkpt><trkpt lat="44.42209975564794" lon="8.293172189607011"><ele>336.0</ele><time>2026-04-24T14:02:42Z</time></trkpt><trkpt lat="44.42215924356402" lon="8.293369073185277"><ele>333.0</ele><time>2026-04-24T14:02:43Z</time></trkpt><trkpt lat="44.42221415282291" lon="8.29357596408967"><ele>330.0</ele><time>2026-04-24T14:02:44Z</time></trkpt><trkpt lat="44.42225592462531" lon="8.2937908968503"><ele>327.0</ele><time>2026-04-24T14:02:45Z</time></trkpt><trkpt lat="44.42227870957336" lon="8.29401238929843"><ele>327.0</ele><time>2026-04-24T14:02:46Z</time></trkpt><trkpt lat="44.42228897696842" lon="8.294223581509709"><ele>327.0</ele><time>2026-04-24T14:02:47Z</time></trkpt><trkpt lat="44.42228917063467" lon="8.294423593116692"><ele>327.0</ele><time>2026-04-24T14:02:48Z</time></trkpt><trkpt lat="44.42227518865139" lon="8.294624241143351"><ele>327.0</ele><time>2026-04-24T14:02:49Z</time></trkpt><trkpt lat="44.422252373908634" lon="8.294818527099082"><ele>327.0</ele><time>2026-04-24T14:02:50Z</time></trkpt><trkpt lat="44.42222328738435" lon="8.295017011998114"><ele>327.0</ele><time>2026-04-24T14:02:51Z</time></trkpt><trkpt lat="44.42219009938609" lon="8.295209962185663"><ele>327.0</ele><time>2026-04-24T14:02:52Z</time></trkpt><trkpt lat="44.42215244338206" lon="8.295411178214977"><ele>327.0</ele><time>2026-04-24T14:02:53Z</time></trkpt><trkpt lat="44.42212272047805" lon="8.295610580825297"><ele>331.5</ele><time>2026-04-24T14:02:54Z</time></trkpt><trkpt lat="44.42210209932908" lon="8.29580776832874"><ele>336.0</ele><time>2026-04-24T14:02:55Z</time></trkpt><trkpt lat="44.42209132745203" lon="8.296008047907637"><ele>340.5</ele><time>2026-04-24T14:02:56Z</time></trkpt><trkpt lat="44.42209599730314" lon="8.296212408290927"><ele>345.0</ele><time>2026-04-24T14:02:57Z</time></trkpt><trkpt lat="44.42211215653749" lon="8.296417551159076"><ele>345.6666666666667</ele><time>2026-04-24T14:02:58Z</time></trkpt><trkpt lat="44.42214309286972" lon="8.296623480520791"><ele>346.33333333333337</ele><time>2026-04-24T14:02:59Z</time></trkpt><trkpt lat="44.42218287515746" lon="8.296834465466729"><ele>347.0</ele><time>2026-04-24T14:02:59.999Z</time></trkpt><trkpt lat="44.42222821053123" lon="8.297042509672353"><ele>343.0</ele><time>2026-04-24T14:03:00.999Z</time></trkpt><trkpt lat="44.4222717535709" lon="8.297242842619799"><ele>339.0</ele><time>2026-04-24T14:03:01.999Z</time></trkpt><trkpt lat="44.42231430398561" lon="8.297433982609371"><ele>335.0</ele><time>2026-04-24T14:03:02.999Z</time></trkpt><trkpt lat="44.42235502997265" lon="8.297628666013924"><ele>331.0</ele><time>2026-04-24T14:03:03.999Z</time></trkpt><trkpt lat="44.42240365149757" lon="8.29782919486582"><ele>331.0</ele><time>2026-04-24T14:03:04.999Z</time></trkpt><trkpt lat="44.422458332120655" lon="8.298029829507318"><ele>331.0</ele><time>2026-04-24T14:03:05.999Z</time></trkpt><trkpt lat="44.42252516718996" lon="8.2982202936164"><ele>331.0</ele><time>2026-04-24T14:03:06.999Z</time></trkpt><trkpt lat="44.42261291372728" lon="8.29840896760679"><ele>335.3333333333333</ele><time>2026-04-24T14:03:07.999Z</time></trkpt><trkpt lat="44.42270757168778" lon="8.2985876315796"><ele>339.6666666666667</ele><time>2026-04-24T14:03:08.999Z</time></trkpt><trkpt lat="44.42280029724576" lon="8.298749891748349"><ele>344.0</ele><time>2026-04-24T14:03:09.999Z</time></trkpt><trkpt lat="44.42289614624326" lon="8.298913690212888"><ele>339.33333333333337</ele><time>2026-04-24T14:03:10.999Z</time></trkpt><trkpt lat="44.42298958639196" lon="8.299083776045057"><ele>334.6666666666667</ele><time>2026-04-24T14:03:11.999Z</time></trkpt><trkpt lat="44.423084632303244" lon="8.29926114848201"><ele>330.0</ele><time>2026-04-24T14:03:12.999Z</time></trkpt><trkpt lat="44.42317813625772" lon="8.299434953668479"><ele>330.0</ele><time>2026-04-24T14:03:13.999Z</time></trkpt><trkpt lat="44.42327268867407" lon="8.299598841769454"><ele>330.0</ele><time>2026-04-24T14:03:14.999Z</time></trkpt><trkpt lat="44.42336946319643" lon="8.299759958436022"><ele>330.0</ele><time>2026-04-24T14:03:15.999Z</time></trkpt><trkpt lat="44.42347005547443" lon="8.299909189506042"><ele>330.0</ele><time>2026-04-24T14:03:16.999Z</time></trkpt><trkpt lat="44.423575023554505" lon="8.300050316181162"><ele>331.25</ele><time>2026-04-24T14:03:17.999Z</time></trkpt><trkpt lat="44.42368720751795" lon="8.300181538233803"><ele>332.5</ele><time>2026-04-24T14:03:18.999Z</time></trkpt><trkpt lat="44.423807904375906" lon="8.300298182447541"><ele>333.75</ele><time>2026-04-24T14:03:19.999Z</time></trkpt><trkpt lat="44.423934219844696" lon="8.300396290908854"><ele>335.0</ele><time>2026-04-24T14:03:20.999Z</time></trkpt><trkpt lat="44.42406789229995" lon="8.30047996757015"><ele>335.0</ele><time>2026-04-24T14:03:21.999Z</time></trkpt><trkpt lat="44.42420661392895" lon="8.300557949053045"><ele>335.0</ele><time>2026-04-24T14:03:22.999Z</time></trkpt><trkpt lat="44.42435095048848" lon="8.30063341687237"><ele>335.0</ele><time>2026-04-24T14:03:23.999Z</time></trkpt><trkpt lat="44.42449424831452" lon="8.300712592119234"><ele>340.25</ele><time>2026-04-24T14:03:24.999Z</time></trkpt><trkpt lat="44.424633282142906" lon="8.300792821519677"><ele>345.5</ele><time>2026-04-24T14:03:25.999Z</time></trkpt><trkpt lat="44.42477149683794" lon="8.300871970442461"><ele>350.75</ele><time>2026-04-24T14:03:26.999Z</time></trkpt><trkpt lat="44.424907944202815" lon="8.300946692894573"><ele>356.0</ele><time>2026-04-24T14:03:27.999Z</time></trkpt><trkpt lat="44.42504370826906" lon="8.301021703065956"><ele>355.5</ele><time>2026-04-24T14:03:28.999Z</time></trkpt><trkpt lat="44.42517621242943" lon="8.301094391868359"><ele>355.0</ele><time>2026-04-24T14:03:29.999Z</time></trkpt><trkpt lat="44.425314957801206" lon="8.301171149319883"><ele>354.5</ele><time>2026-04-24T14:03:31.069Z</time></trkpt><trkpt lat="44.42544185431831" lon="8.301241962809113"><ele>354.0</ele><time>2026-04-24T14:03:32.065Z</time></trkpt><trkpt lat="44.4255650953233" lon="8.301307843820041"><ele>354.0</ele><time>2026-04-24T14:03:33.058Z</time></trkpt><trkpt lat="44.425683873688726" lon="8.301374260168053"><ele>354.0</ele><time>2026-04-24T14:03:34.049Z</time></trkpt><trkpt lat="44.42579868406129" lon="8.301439568253649"><ele>354.0</ele><time>2026-04-24T14:03:35.044Z</time></trkpt><trkpt lat="44.42591083085096" lon="8.30150100572461"><ele>354.0</ele><time>2026-04-24T14:03:36.027Z</time></trkpt><trkpt lat="44.42689316981123" lon="8.302050803925352"><ele>349.6666666666667</ele><time>2026-04-24T14:03:41Z</time></trkpt><trkpt lat="44.42704848198761" lon="8.302138840178639"><ele>345.33333333333337</ele><time>2026-04-24T14:03:42Z</time></trkpt><trkpt lat="44.42720199649207" lon="8.302209675585965"><ele>341.0</ele><time>2026-04-24T14:03:43Z</time></trkpt><trkpt lat="44.427355914722774" lon="8.302293606243904"><ele>338.33333333333337</ele><time>2026-04-24T14:03:44Z</time></trkpt><trkpt lat="44.427517000210194" lon="8.302375410007572"><ele>335.6666666666667</ele><time>2026-04-24T14:03:45Z</time></trkpt><trkpt lat="44.42769210627047" lon="8.302460839262903"><ele>333.0</ele><time>2026-04-24T14:03:46Z</time></trkpt><trkpt lat="44.42784881294325" lon="8.302517032329774"><ele>332.6666666666667</ele><time>2026-04-24T14:03:47Z</time></trkpt><trkpt lat="44.42801185087979" lon="8.302548229865607"><ele>332.33333333333337</ele><time>2026-04-24T14:03:48Z</time></trkpt><trkpt lat="44.4281863056747" lon="8.302551084401493"><ele>332.0</ele><time>2026-04-24T14:03:49Z</time></trkpt><trkpt lat="44.42836674395792" lon="8.302531745149718"><ele>332.0</ele><time>2026-04-24T14:03:50Z</time></trkpt><trkpt lat="44.42855505373091" lon="8.302495907056606"><ele>332.0</ele><time>2026-04-24T14:03:51Z</time></trkpt><trkpt lat="44.42875045992348" lon="8.302487166920935"><ele>332.0</ele><time>2026-04-24T14:03:52Z</time></trkpt><trkpt lat="44.428951377119205" lon="8.302459452679711"><ele>332.6666666666667</ele><time>2026-04-24T14:03:53Z</time></trkpt><trkpt lat="44.429157381136655" lon="8.302430614270882"><ele>333.3333333333333</ele><time>2026-04-24T14:03:54Z</time></trkpt><trkpt lat="44.42936813885045" lon="8.302400682567022"><ele>334.0</ele><time>2026-04-24T14:03:55Z</time></trkpt><trkpt lat="44.429581436055734" lon="8.302370390187612"><ele>333.66666666666663</ele><time>2026-04-24T14:03:56Z</time></trkpt><trkpt lat="44.42979891153929" lon="8.302338361100542"><ele>333.3333333333333</ele><time>2026-04-24T14:03:57Z</time></trkpt><trkpt lat="44.430018164373344" lon="8.302292722537798"><ele>333.0</ele><time>2026-04-24T14:03:58Z</time></trkpt><trkpt lat="44.4302420627944" lon="8.302263426220806"><ele>331.5</ele><time>2026-04-24T14:03:59Z</time></trkpt><trkpt lat="44.430469256162425" lon="8.302224148218432"><ele>330.0</ele><time>2026-04-24T14:04:00Z</time></trkpt><trkpt lat="44.430696877067255" lon="8.302171429765284"><ele>330.0</ele><time>2026-04-24T14:04:01Z</time></trkpt><trkpt lat="44.43092629048373" lon="8.302102263228575"><ele>330.0</ele><time>2026-04-24T14:04:02Z</time></trkpt><trkpt lat="44.43115492584136" lon="8.302026190039998"><ele>329.5</ele><time>2026-04-24T14:04:03Z</time></trkpt><trkpt lat="44.431383765151885" lon="8.301944443189084"><ele>329.0</ele><time>2026-04-24T14:04:04Z</time></trkpt><trkpt lat="44.43159797945579" lon="8.301861944480944"><ele>329.0</ele><time>2026-04-24T14:04:05Z</time></trkpt><trkpt lat="44.431795056912556" lon="8.301781453950571"><ele>329.0</ele><time>2026-04-24T14:04:06Z</time></trkpt><trkpt lat="44.431986501582344" lon="8.301701048084027"><ele>329.0</ele><time>2026-04-24T14:04:07Z</time></trkpt><trkpt lat="44.43218395007978" lon="8.30161607378655"><ele>328.33333333333337</ele><time>2026-04-24T14:04:08Z</time></trkpt><trkpt lat="44.432384343764674" lon="8.301527087282295"><ele>327.6666666666667</ele><time>2026-04-24T14:04:09Z</time></trkpt><trkpt lat="44.432586718915836" lon="8.301435293947373"><ele>327.0</ele><time>2026-04-24T14:04:10Z</time></trkpt><trkpt lat="44.43279168012281" lon="8.301339482122515"><ele>326.6666666666667</ele><time>2026-04-24T14:04:11Z</time></trkpt><trkpt lat="44.43299900348819" lon="8.301241920305507"><ele>326.33333333333337</ele><time>2026-04-24T14:04:12Z</time></trkpt><trkpt lat="44.43320929439176" lon="8.30114789863615"><ele>326.0</ele><time>2026-04-24T14:04:13Z</time></trkpt><trkpt lat="44.43342606781049" lon="8.30106207143183"><ele>326.0</ele><time>2026-04-24T14:04:14Z</time></trkpt><trkpt lat="44.43364999140187" lon="8.300985234217594"><ele>326.0</ele><time>2026-04-24T14:04:15Z</time></trkpt><trkpt lat="44.43387867680302" lon="8.300913414386581"><ele>324.0</ele><time>2026-04-24T14:04:16Z</time></trkpt><trkpt lat="44.43410913606928" lon="8.300842419899816"><ele>322.0</ele><time>2026-04-24T14:04:17Z</time></trkpt><trkpt lat="44.43434290007945" lon="8.30076693765523"><ele>322.0</ele><time>2026-04-24T14:04:18Z</time></trkpt><trkpt lat="44.434575288940266" lon="8.300695191737342"><ele>322.0</ele><time>2026-04-24T14:04:19Z</time></trkpt><trkpt lat="44.43480008064638" lon="8.300626805807287"><ele>320.3333333333333</ele><time>2026-04-24T14:04:20Z</time></trkpt><trkpt lat="44.43500717019711" lon="8.300566305641842"><ele>318.6666666666667</ele><time>2026-04-24T14:04:21Z</time></trkpt><trkpt lat="44.43519440540689" lon="8.300514693568148"><ele>317.0</ele><time>2026-04-24T14:04:22Z</time></trkpt><trkpt lat="44.435362303948516" lon="8.300465823822124"><ele>317.0</ele><time>2026-04-24T14:04:23Z</time></trkpt><trkpt lat="44.435521626873104" lon="8.300420051522057"><ele>317.0</ele><time>2026-04-24T14:04:24Z</time></trkpt><trkpt lat="44.4356700351628" lon="8.300378342283492"><ele>317.0</ele><time>2026-04-24T14:04:25Z</time></trkpt><trkpt lat="44.43580762508845" lon="8.300344439005281"><ele>317.0</ele><time>2026-04-24T14:04:26Z</time></trkpt><trkpt lat="44.43593498725277" lon="8.300313196767153"><ele>317.0</ele><time>2026-04-24T14:04:27Z</time></trkpt><trkpt lat="44.43605379671412" lon="8.300284929913978"><ele>317.0</ele><time>2026-04-24T14:04:28Z</time></trkpt><trkpt lat="44.43615214264078" lon="8.30026503329987"><ele>317.0</ele><time>2026-04-24T14:04:29Z</time></trkpt><trkpt lat="44.436228327016664" lon="8.30025211277709"><ele>317.0</ele><time>2026-04-24T14:04:30Z</time></trkpt><trkpt lat="44.436423585966104" lon="8.300291306054541"><ele>317.2</ele><time>2026-04-24T14:04:32Z</time></trkpt><trkpt lat="44.43648180816786" lon="8.300379428479928"><ele>317.4</ele><time>2026-04-24T14:04:33Z</time></trkpt><trkpt lat="44.436534131385244" lon="8.300498722143288"><ele>317.6</ele><time>2026-04-24T14:04:34Z</time></trkpt><trkpt lat="44.4365711638409" lon="8.3006376701166"><ele>317.8</ele><time>2026-04-24T14:04:35Z</time></trkpt><trkpt lat="44.436575947748935" lon="8.300798352316589"><ele>318.0</ele><time>2026-04-24T14:04:36Z</time></trkpt><trkpt lat="44.43656683136949" lon="8.300929377136095"><ele>318.6</ele><time>2026-04-24T14:04:37Z</time></trkpt><trkpt lat="44.43660512161051" lon="8.301060232021603"><ele>319.20000000000005</ele><time>2026-04-24T14:04:39Z</time></trkpt><trkpt lat="44.43666009001739" lon="8.301161926325697"><ele>319.8</ele><time>2026-04-24T14:04:41Z</time></trkpt><trkpt lat="44.43677583468702" lon="8.301129921702387"><ele>320.40000000000003</ele><time>2026-04-24T14:04:42Z</time></trkpt><trkpt lat="44.43687119702116" lon="8.301098239830226"><ele>321.0</ele><time>2026-04-24T14:04:43Z</time></trkpt><trkpt lat="44.436980634558545" lon="8.301070664485767"><ele>321.0</ele><time>2026-04-24T14:04:44Z</time></trkpt><trkpt lat="44.4371082452146" lon="8.301044113438863"><ele>321.0</ele><time>2026-04-24T14:04:45Z</time></trkpt><trkpt lat="44.43724159018305" lon="8.3010343765667"><ele>321.0</ele><time>2026-04-24T14:04:46Z</time></trkpt><trkpt lat="44.437385887091736" lon="8.3010353449756"><ele>321.0</ele><time>2026-04-24T14:04:47Z</time></trkpt><trkpt lat="44.43753643446783" lon="8.301041022900192"><ele>321.3333333333333</ele><time>2026-04-24T14:04:48Z</time></trkpt><trkpt lat="44.437699388871636" lon="8.301051974103297"><ele>321.66666666666663</ele><time>2026-04-24T14:04:49Z</time></trkpt><trkpt lat="44.4378611618918" lon="8.301061989284147"><ele>322.0</ele><time>2026-04-24T14:04:50Z</time></trkpt><trkpt lat="44.43802890772577" lon="8.301084903248096"><ele>322.66666666666663</ele><time>2026-04-24T14:04:51Z</time></trkpt><trkpt lat="44.43819859306633" lon="8.301116343549946"><ele>323.3333333333333</ele><time>2026-04-24T14:04:52Z</time></trkpt><trkpt lat="44.438371957250716" lon="8.301163980205823"><ele>324.0</ele><time>2026-04-24T14:04:53Z</time></trkpt><trkpt lat="44.438545656146125" lon="8.301213202914989"><ele>324.0</ele><time>2026-04-24T14:04:54Z</time></trkpt><trkpt lat="44.43873402814263" lon="8.301269726372043"><ele>324.0</ele><time>2026-04-24T14:04:55Z</time></trkpt><trkpt lat="44.438921129612474" lon="8.301319560708622"><ele>324.0</ele><time>2026-04-24T14:04:56Z</time></trkpt><trkpt lat="44.439111530348896" lon="8.301370308952164"><ele>326.3333333333333</ele><time>2026-04-24T14:04:57Z</time></trkpt><trkpt lat="44.439309432884016" lon="8.3014278238893"><ele>328.66666666666663</ele><time>2026-04-24T14:04:58Z</time></trkpt><trkpt lat="44.439494818347995" lon="8.301483523877325"><ele>331.0</ele><time>2026-04-24T14:04:59Z</time></trkpt><trkpt lat="44.43966632023483" lon="8.30153911220167"><ele>331.0</ele><time>2026-04-24T14:05:00Z</time></trkpt><trkpt lat="44.439823139299044" lon="8.301598272398216"><ele>331.0</ele><time>2026-04-24T14:05:01Z</time></trkpt><trkpt lat="44.43997578570453" lon="8.30165985792283"><ele>331.0</ele><time>2026-04-24T14:05:02Z</time></trkpt><trkpt lat="44.440116912863914" lon="8.301723278977805"><ele>331.0</ele><time>2026-04-24T14:05:03Z</time></trkpt><trkpt lat="44.440234078204675" lon="8.301795844598766"><ele>331.0</ele><time>2026-04-24T14:05:04Z</time></trkpt><trkpt lat="44.44033343818456" lon="8.301902792015103"><ele>331.0</ele><time>2026-04-24T14:05:05Z</time></trkpt><trkpt lat="44.4404289943013" lon="8.302040060907588"><ele>331.0</ele><time>2026-04-24T14:05:05.999Z</time></trkpt><trkpt lat="44.440516812162606" lon="8.30219958632152"><ele>327.0</ele><time>2026-04-24T14:05:06.999Z</time></trkpt><trkpt lat="44.44060178600095" lon="8.302365756992078"><ele>323.0</ele><time>2026-04-24T14:05:07.999Z</time></trkpt><trkpt lat="44.440703531509605" lon="8.302518989622955"><ele>319.0</ele><time>2026-04-24T14:05:08.999Z</time></trkpt><trkpt lat="44.44081622589293" lon="8.302667417836519"><ele>319.0</ele><time>2026-04-24T14:05:09.999Z</time></trkpt><trkpt lat="44.440930841395094" lon="8.302812829979077"><ele>319.0</ele><time>2026-04-24T14:05:10.999Z</time></trkpt><trkpt lat="44.44104432698944" lon="8.302964951117987"><ele>319.0</ele><time>2026-04-24T14:05:11.999Z</time></trkpt><trkpt lat="44.44115727090955" lon="8.303115367905047"><ele>318.66666666666663</ele><time>2026-04-24T14:05:12.999Z</time></trkpt><trkpt lat="44.441271737343804" lon="8.303265962388497"><ele>318.3333333333333</ele><time>2026-04-24T14:05:13.999Z</time></trkpt><trkpt lat="44.44138596593554" lon="8.30341868219079"><ele>318.0</ele><time>2026-04-24T14:05:14.999Z</time></trkpt><trkpt lat="44.44150103949932" lon="8.303572003193493"><ele>317.6666666666667</ele><time>2026-04-24T14:05:15.999Z</time></trkpt><trkpt lat="44.441620118530196" lon="8.303726354247887"><ele>317.33333333333337</ele><time>2026-04-24T14:05:16.999Z</time></trkpt><trkpt lat="44.441736984647726" lon="8.303879890663431"><ele>317.0</ele><time>2026-04-24T14:05:17.999Z</time></trkpt><trkpt lat="44.44185163817406" lon="8.304024855054244"><ele>317.0</ele><time>2026-04-24T14:05:18.999Z</time></trkpt><trkpt lat="44.441969918267944" lon="8.304149218168492"><ele>317.0</ele><time>2026-04-24T14:05:19.999Z</time></trkpt><trkpt lat="44.44210578843161" lon="8.304246107244944"><ele>317.0</ele><time>2026-04-24T14:05:20.999Z</time></trkpt><trkpt lat="44.44225306967609" lon="8.304303576530437"><ele>315.5</ele><time>2026-04-24T14:05:21.999Z</time></trkpt><trkpt lat="44.442399359047705" lon="8.304344666658366"><ele>314.0</ele><time>2026-04-24T14:05:22.999Z</time></trkpt><trkpt lat="44.442533385131384" lon="8.304405746550353"><ele>312.5</ele><time>2026-04-24T14:05:23.999Z</time></trkpt><trkpt lat="44.44265387239501" lon="8.304491467294408"><ele>311.0</ele><time>2026-04-24T14:05:24.999Z</time></trkpt><trkpt lat="44.44276052481927" lon="8.304610302575323"><ele>311.5</ele><time>2026-04-24T14:05:25.999Z</time></trkpt><trkpt lat="44.44285776694552" lon="8.30475252430439"><ele>312.0</ele><time>2026-04-24T14:05:26.999Z</time></trkpt><trkpt lat="44.44295406525135" lon="8.304900470178683"><ele>312.5</ele><time>2026-04-24T14:05:27.999Z</time></trkpt><trkpt lat="44.443046994969094" lon="8.305055401641074"><ele>313.0</ele><time>2026-04-24T14:05:28.999Z</time></trkpt><trkpt lat="44.4431301878272" lon="8.305217750209595"><ele>311.75</ele><time>2026-04-24T14:05:29.999Z</time></trkpt><trkpt lat="44.44320364180726" lon="8.305394909654517"><ele>310.5</ele><time>2026-04-24T14:05:30.999Z</time></trkpt><trkpt lat="44.44326503123126" lon="8.305585303739614"><ele>309.25</ele><time>2026-04-24T14:05:31.999Z</time></trkpt><trkpt lat="44.44332258998113" lon="8.30578049033691"><ele>308.0</ele><time>2026-04-24T14:05:32.999Z</time></trkpt><trkpt lat="44.443382070411545" lon="8.305973255639522"><ele>307.33333333333337</ele><time>2026-04-24T14:05:33.999Z</time></trkpt><trkpt lat="44.44344650553836" lon="8.306164745333326"><ele>306.6666666666667</ele><time>2026-04-24T14:05:34.999Z</time></trkpt><trkpt lat="44.44351181774615" lon="8.30635945155344"><ele>306.0</ele><time>2026-04-24T14:05:35.999Z</time></trkpt><trkpt lat="44.44357836923107" lon="8.306558007022227"><ele>305.3333333333333</ele><time>2026-04-24T14:05:36.999Z</time></trkpt><trkpt lat="44.44364666048413" lon="8.30675854234117"><ele>304.66666666666663</ele><time>2026-04-24T14:05:37.999Z</time></trkpt><trkpt lat="44.44371464970226" lon="8.30696071382817"><ele>304.0</ele><time>2026-04-24T14:05:38.999Z</time></trkpt><trkpt lat="44.44378239764413" lon="8.307163844685142"><ele>303.66666666666663</ele><time>2026-04-24T14:05:39.999Z</time></trkpt><trkpt lat="44.443851518984005" lon="8.30737075063158"><ele>303.3333333333333</ele><time>2026-04-24T14:05:41Z</time></trkpt><trkpt lat="44.443920752303065" lon="8.307571755582037"><ele>303.0</ele><time>2026-04-24T14:05:42Z</time></trkpt><trkpt lat="44.443992240417685" lon="8.307775943231292"><ele>303.0</ele><time>2026-04-24T14:05:43Z</time></trkpt><trkpt lat="44.44406044139574" lon="8.307980622960944"><ele>303.0</ele><time>2026-04-24T14:05:44Z</time></trkpt><trkpt lat="44.44412764786592" lon="8.308184418611468"><ele>303.0</ele><time>2026-04-24T14:05:45Z</time></trkpt><trkpt lat="44.444205411918496" lon="8.308382344612438"><ele>303.6666666666667</ele><time>2026-04-24T14:05:46Z</time></trkpt><trkpt lat="44.444305942667214" lon="8.308567052174244"><ele>304.33333333333337</ele><time>2026-04-24T14:05:47Z</time></trkpt><trkpt lat="44.44442583223236" lon="8.308741440730225"><ele>305.0</ele><time>2026-04-24T14:05:48Z</time></trkpt><trkpt lat="44.444554171885216" lon="8.308915432725739"><ele>304.0</ele><time>2026-04-24T14:05:49Z</time></trkpt><trkpt lat="44.44467902548424" lon="8.309095467250367"><ele>303.0</ele><time>2026-04-24T14:05:50Z</time></trkpt><trkpt lat="44.4447998269791" lon="8.309279615730365"><ele>302.0</ele><time>2026-04-24T14:05:51Z</time></trkpt><trkpt lat="44.44491549921263" lon="8.309459826974493"><ele>302.0</ele><time>2026-04-24T14:05:52Z</time></trkpt><trkpt lat="44.44502777498688" lon="8.309635020437783"><ele>302.0</ele><time>2026-04-24T14:05:53Z</time></trkpt><trkpt lat="44.44513858025624" lon="8.309810286778381"><ele>302.0</ele><time>2026-04-24T14:05:54Z</time></trkpt><trkpt lat="44.445246751347405" lon="8.309980826722102"><ele>302.33333333333337</ele><time>2026-04-24T14:05:55Z</time></trkpt><trkpt lat="44.44535902051193" lon="8.310150398041197"><ele>302.6666666666667</ele><time>2026-04-24T14:05:56Z</time></trkpt><trkpt lat="44.445471446031014" lon="8.310325719724286"><ele>303.0</ele><time>2026-04-24T14:05:57Z</time></trkpt><trkpt lat="44.44558528766277" lon="8.31050110319423"><ele>302.6666666666667</ele><time>2026-04-24T14:05:58Z</time></trkpt><trkpt lat="44.44569801273578" lon="8.310674878985257"><ele>302.33333333333337</ele><time>2026-04-24T14:05:59Z</time></trkpt><trkpt lat="44.44581327470277" lon="8.310855191830125"><ele>302.0</ele><time>2026-04-24T14:06:00Z</time></trkpt><trkpt lat="44.44593086324036" lon="8.311033348745983"><ele>302.0</ele><time>2026-04-24T14:06:01Z</time></trkpt><trkpt lat="44.44604262060826" lon="8.311206996875642"><ele>302.0</ele><time>2026-04-24T14:06:02Z</time></trkpt><trkpt lat="44.44613886461272" lon="8.311353374267256"><ele>302.0</ele><time>2026-04-24T14:06:03Z</time></trkpt><trkpt lat="44.446248155276" lon="8.311474889740246"><ele>302.0</ele><time>2026-04-24T14:06:04Z</time></trkpt><trkpt lat="44.446371347004835" lon="8.311561612887884"><ele>304.75</ele><time>2026-04-24T14:06:05Z</time></trkpt><trkpt lat="44.44649250887949" lon="8.3116029786056"><ele>307.5</ele><time>2026-04-24T14:06:06Z</time></trkpt><trkpt lat="44.446617887379624" lon="8.311618839079124"><ele>310.25</ele><time>2026-04-24T14:06:07Z</time></trkpt><trkpt lat="44.446739624699724" lon="8.31166093462468"><ele>313.0</ele><time>2026-04-24T14:06:08Z</time></trkpt><trkpt lat="44.446845233465545" lon="8.311756887862929"><ele>313.0</ele><time>2026-04-24T14:06:09Z</time></trkpt><trkpt lat="44.44693023929169" lon="8.311873312639728"><ele>313.0</ele><time>2026-04-24T14:06:10Z</time></trkpt><trkpt lat="44.446991080270415" lon="8.312018477459286"><ele>313.0</ele><time>2026-04-24T14:06:11Z</time></trkpt><trkpt lat="44.44704410455924" lon="8.312179959216488"><ele>313.0</ele><time>2026-04-24T14:06:12Z</time></trkpt><trkpt lat="44.44709025484081" lon="8.312359837158338"><ele>311.75</ele><time>2026-04-24T14:06:13Z</time></trkpt><trkpt lat="44.44716336812337" lon="8.312527619235185"><ele>310.5</ele><time>2026-04-24T14:06:14Z</time></trkpt><trkpt lat="44.44723207084424" lon="8.312673802249384"><ele>309.25</ele><time>2026-04-24T14:06:15Z</time></trkpt><trkpt lat="44.447314004296885" lon="8.312806283010191"><ele>308.0</ele><time>2026-04-24T14:06:16Z</time></trkpt><trkpt lat="44.44741257167962" lon="8.312926032364397"><ele>308.0</ele><time>2026-04-24T14:06:17Z</time></trkpt><trkpt lat="44.447526987671615" lon="8.313026180472901"><ele>308.0</ele><time>2026-04-24T14:06:18Z</time></trkpt><trkpt lat="44.447655860418664" lon="8.31311626424219"><ele>308.0</ele><time>2026-04-24T14:06:19Z</time></trkpt><trkpt lat="44.4477909030909" lon="8.313204075927214"><ele>308.0</ele><time>2026-04-24T14:06:20Z</time></trkpt><trkpt lat="44.44792969397947" lon="8.313291478372586"><ele>306.6666666666667</ele><time>2026-04-24T14:06:21Z</time></trkpt><trkpt lat="44.44807308418763" lon="8.31338375783711"><ele>305.3333333333333</ele><time>2026-04-24T14:06:22Z</time></trkpt><trkpt lat="44.448218935601005" lon="8.313480300124834"><ele>304.0</ele><time>2026-04-24T14:06:23Z</time></trkpt><trkpt lat="44.44836211495153" lon="8.313574447527115"><ele>304.0</ele><time>2026-04-24T14:06:24Z</time></trkpt><trkpt lat="44.448505311477135" lon="8.313666693134952"><ele>304.0</ele><time>2026-04-24T14:06:25Z</time></trkpt><trkpt lat="44.44863390057247" lon="8.313753513465024"><ele>304.0</ele><time>2026-04-24T14:06:26Z</time></trkpt><trkpt lat="44.4487535154509" lon="8.313833827519712"><ele>304.0</ele><time>2026-04-24T14:06:27Z</time></trkpt><trkpt lat="44.44887682425473" lon="8.313899964289332"><ele>304.75</ele><time>2026-04-24T14:06:28Z</time></trkpt><trkpt lat="44.44900716212112" lon="8.313946014436791"><ele>305.5</ele><time>2026-04-24T14:06:29Z</time></trkpt><trkpt lat="44.449144340924335" lon="8.313965266578881"><ele>306.25</ele><time>2026-04-24T14:06:30Z</time></trkpt><trkpt lat="44.44928641168862" lon="8.313952684679048"><ele>307.0</ele><time>2026-04-24T14:06:31Z</time></trkpt><trkpt lat="44.449429491847624" lon="8.313922269044374"><ele>306.0</ele><time>2026-04-24T14:06:32Z</time></trkpt><trkpt lat="44.449565794752765" lon="8.313875544551879"><ele>305.0</ele><time>2026-04-24T14:06:33Z</time></trkpt><trkpt lat="44.44969222906564" lon="8.313826194149444"><ele>304.0</ele><time>2026-04-24T14:06:34Z</time></trkpt><trkpt lat="44.449806871172434" lon="8.313775814965668"><ele>303.0</ele><time>2026-04-24T14:06:35Z</time></trkpt><trkpt lat="44.44991006044682" lon="8.313722483445318"><ele>302.5</ele><time>2026-04-24T14:06:36Z</time></trkpt><trkpt lat="44.45001456789076" lon="8.313679605180779"><ele>302.0</ele><time>2026-04-24T14:06:37Z</time></trkpt><trkpt lat="44.45015360918489" lon="8.313672873684066"><ele>301.5</ele><time>2026-04-24T14:06:38Z</time></trkpt><trkpt lat="44.4502784858876" lon="8.313609836049329"><ele>301.0</ele><time>2026-04-24T14:06:39Z</time></trkpt><trkpt lat="44.45039263447778" lon="8.313531316435318"><ele>308.66666666666663</ele><time>2026-04-24T14:06:40Z</time></trkpt><trkpt lat="44.45051301377141" lon="8.3134333352103"><ele>316.3333333333333</ele><time>2026-04-24T14:06:41Z</time></trkpt><trkpt lat="44.45062532569161" lon="8.313291115586518"><ele>324.0</ele><time>2026-04-24T14:06:42Z</time></trkpt><trkpt lat="44.45074570028539" lon="8.313120795729118"><ele>316.6666666666667</ele><time>2026-04-24T14:06:43Z</time></trkpt><trkpt lat="44.4508508073169" lon="8.312958392586095"><ele>309.33333333333337</ele><time>2026-04-24T14:06:44Z</time></trkpt><trkpt lat="44.45096778929802" lon="8.31277798900999"><ele>302.0</ele><time>2026-04-24T14:06:45Z</time></trkpt><trkpt lat="44.45109099309581" lon="8.312587329117965"><ele>302.0</ele><time>2026-04-24T14:06:46Z</time></trkpt><trkpt lat="44.451212407493905" lon="8.31238772339754"><ele>302.0</ele><time>2026-04-24T14:06:47Z</time></trkpt><trkpt lat="44.45131802701498" lon="8.312210307903083"><ele>302.0</ele><time>2026-04-24T14:06:48Z</time></trkpt><trkpt lat="44.45141251992962" lon="8.312049589116754"><ele>302.0</ele><time>2026-04-24T14:06:49Z</time></trkpt><trkpt lat="44.4514912154467" lon="8.311909048934018"><ele>302.0</ele><time>2026-04-24T14:06:50Z</time></trkpt><trkpt lat="44.45156719648791" lon="8.311780813235414"><ele>302.0</ele><time>2026-04-24T14:06:51Z</time></trkpt><trkpt lat="44.45164548397806" lon="8.31165459349938"><ele>302.0</ele><time>2026-04-24T14:06:52Z</time></trkpt><trkpt lat="44.45169625257302" lon="8.311513258378612"><ele>301.0</ele><time>2026-04-24T14:06:53Z</time></trkpt><trkpt lat="44.451753030420235" lon="8.311367925413645"><ele>300.0</ele><time>2026-04-24T14:06:54Z</time></trkpt><trkpt lat="44.45180980151496" lon="8.311210441639021"><ele>299.0</ele><time>2026-04-24T14:06:55Z</time></trkpt><trkpt lat="44.4518598838843" lon="8.311052681232237"><ele>298.0</ele><time>2026-04-24T14:06:56Z</time></trkpt><trkpt lat="44.45190343366313" lon="8.310907063315947"><ele>298.0</ele><time>2026-04-24T14:06:57Z</time></trkpt><trkpt lat="44.451943065296526" lon="8.310769909617743"><ele>298.0</ele><time>2026-04-24T14:06:58Z</time></trkpt><trkpt lat="44.45198412536775" lon="8.310627812404665"><ele>298.0</ele><time>2026-04-24T14:06:59Z</time></trkpt><trkpt lat="44.45202775424362" lon="8.310471351940976"><ele>298.0</ele><time>2026-04-24T14:07:00Z</time></trkpt><trkpt lat="44.45207622392719" lon="8.31029016876354"><ele>298.0</ele><time>2026-04-24T14:07:01Z</time></trkpt><trkpt lat="44.45212758682339" lon="8.310090430180328"><ele>298.0</ele><time>2026-04-24T14:07:02Z</time></trkpt><trkpt lat="44.45218142250477" lon="8.309873365521755"><ele>298.0</ele><time>2026-04-24T14:07:03Z</time></trkpt><trkpt lat="44.45222218981689" lon="8.309640987905977"><ele>298.0</ele><time>2026-04-24T14:07:04Z</time></trkpt><trkpt lat="44.45228250186059" lon="8.309404374693719"><ele>298.0</ele><time>2026-04-24T14:07:05Z</time></trkpt><trkpt lat="44.4523369147177" lon="8.309201078021852"><ele>298.0</ele><time>2026-04-24T14:07:06Z</time></trkpt><trkpt lat="44.45238855958212" lon="8.309038503810223"><ele>298.0</ele><time>2026-04-24T14:07:07Z</time></trkpt><trkpt lat="44.45242400410984" lon="8.308918421227048"><ele>298.0</ele><time>2026-04-24T14:07:08Z</time></trkpt><trkpt lat="44.45247413891236" lon="8.308837342486138"><ele>298.0</ele><time>2026-04-24T14:07:09Z</time></trkpt><trkpt lat="44.45253306663857" lon="8.308765481333616"><ele>298.0</ele><time>2026-04-24T14:07:10Z</time></trkpt><trkpt lat="44.4525337054152" lon="8.308530062974398"><ele>298.0</ele><time>2026-04-24T14:07:11.999Z</time></trkpt><trkpt lat="44.452525321422186" lon="8.308418634244832"><ele>297.66666666666663</ele><time>2026-04-24T14:07:12.999Z</time></trkpt><trkpt lat="44.45250036296741" lon="8.308313839226308"><ele>297.3333333333333</ele><time>2026-04-24T14:07:13.999Z</time></trkpt><trkpt lat="44.45247993260667" lon="8.308221250475533"><ele>297.0</ele><time>2026-04-24T14:07:14.999Z</time></trkpt><trkpt lat="44.45248072758997" lon="8.308129590613692"><ele>296.6666666666667</ele><time>2026-04-24T14:07:15.999Z</time></trkpt><trkpt lat="44.45254064726163" lon="8.308037102749935"><ele>296.33333333333337</ele><time>2026-04-24T14:07:17.999Z</time></trkpt><trkpt lat="44.45261169170529" lon="8.308050282571743"><ele>296.0</ele><time>2026-04-24T14:07:18.999Z</time></trkpt><trkpt lat="44.452704890403496" lon="8.30800885120629"><ele>295.75</ele><time>2026-04-24T14:07:19.999Z</time></trkpt><trkpt lat="44.45282413636999" lon="8.307989272639327"><ele>295.5</ele><time>2026-04-24T14:07:20.999Z</time></trkpt><trkpt lat="44.45295300838243" lon="8.307963090882401"><ele>295.25</ele><time>2026-04-24T14:07:21.999Z</time></trkpt><trkpt lat="44.453091647712036" lon="8.307922853667066"><ele>295.0</ele><time>2026-04-24T14:07:22.999Z</time></trkpt><trkpt lat="44.45325071247025" lon="8.307880366395965"><ele>296.0</ele><time>2026-04-24T14:07:23.999Z</time></trkpt><trkpt lat="44.45333154744953" lon="8.307815389483874"><ele>297.0</ele><time>2026-04-24T14:07:25.999Z</time></trkpt><trkpt lat="44.4534341095357" lon="8.307786346919757"><ele>298.0</ele><time>2026-04-24T14:07:26.999Z</time></trkpt><trkpt lat="44.453521827028794" lon="8.307760900349633"><ele>299.0</ele><time>2026-04-24T14:07:27.999Z</time></trkpt><trkpt lat="44.45360226635022" lon="8.307725258098797"><ele>300.0</ele><time>2026-04-24T14:07:28.999Z</time></trkpt><trkpt lat="44.45366840467197" lon="8.307660821000264"><ele>300.0</ele><time>2026-04-24T14:07:29.999Z</time></trkpt><trkpt lat="44.45371864513996" lon="8.307560400639417"><ele>300.0</ele><time>2026-04-24T14:07:30.999Z</time></trkpt><trkpt lat="44.45375819842125" lon="8.307429189931325"><ele>300.0</ele><time>2026-04-24T14:07:31.999Z</time></trkpt><trkpt lat="44.4538123635946" lon="8.307297496901075"><ele>300.0</ele><time>2026-04-24T14:07:32.999Z</time></trkpt><trkpt lat="44.453889736091845" lon="8.307165290554384"><ele>300.0</ele><time>2026-04-24T14:07:33.999Z</time></trkpt><trkpt lat="44.45398819094928" lon="8.307040077904894"><ele>300.5</ele><time>2026-04-24T14:07:34.999Z</time></trkpt><trkpt lat="44.4540876561042" lon="8.306913899695866"><ele>301.0</ele><time>2026-04-24T14:07:35.999Z</time></trkpt><trkpt lat="44.4541858991583" lon="8.30681588231973"><ele>301.5</ele><time>2026-04-24T14:07:37Z</time></trkpt><trkpt lat="44.45426588083602" lon="8.306716118542493"><ele>302.0</ele><time>2026-04-24T14:07:38Z</time></trkpt><trkpt lat="44.4543376285588" lon="8.306629766260405"><ele>302.0</ele><time>2026-04-24T14:07:39Z</time></trkpt><trkpt lat="44.454415964743454" lon="8.306556024088058"><ele>302.0</ele><time>2026-04-24T14:07:40Z</time></trkpt><trkpt lat="44.45450954769006" lon="8.306499312390129"><ele>302.0</ele><time>2026-04-24T14:07:41Z</time></trkpt><trkpt lat="44.454600880775565" lon="8.306472207585637"><ele>302.0</ele><time>2026-04-24T14:07:42Z</time></trkpt><trkpt lat="44.45469123583272" lon="8.306478100141973"><ele>302.0</ele><time>2026-04-24T14:07:43Z</time></trkpt><trkpt lat="44.45478580079533" lon="8.306502052249442"><ele>302.4</ele><time>2026-04-24T14:07:44Z</time></trkpt><trkpt lat="44.454862233787" lon="8.30654230241379"><ele>302.79999999999995</ele><time>2026-04-24T14:07:45Z</time></trkpt><trkpt lat="44.454940921185866" lon="8.306576532075452"><ele>303.2</ele><time>2026-04-24T14:07:46Z</time></trkpt><trkpt lat="44.455037056278584" lon="8.306603696813946"><ele>303.59999999999997</ele><time>2026-04-24T14:07:47Z</time></trkpt><trkpt lat="44.455130936332985" lon="8.306688811646557"><ele>304.0</ele><time>2026-04-24T14:07:48Z</time></trkpt><trkpt lat="44.45523712880105" lon="8.30677857204723"><ele>304.0</ele><time>2026-04-24T14:07:49Z</time></trkpt><trkpt lat="44.45534967542221" lon="8.30686345036082"><ele>304.0</ele><time>2026-04-24T14:07:50Z</time></trkpt><trkpt lat="44.455458420303316" lon="8.30693721617921"><ele>304.0</ele><time>2026-04-24T14:07:51Z</time></trkpt><trkpt lat="44.45555297100475" lon="8.306986918566674"><ele>304.0</ele><time>2026-04-24T14:07:52Z</time></trkpt><trkpt lat="44.4556426175193" lon="8.307005776418713"><ele>304.0</ele><time>2026-04-24T14:07:53Z</time></trkpt><trkpt lat="44.455738130456524" lon="8.3069952457432"><ele>303.66666666666663</ele><time>2026-04-24T14:07:54Z</time></trkpt><trkpt lat="44.45583227626055" lon="8.306961762448246"><ele>303.3333333333333</ele><time>2026-04-24T14:07:55Z</time></trkpt><trkpt lat="44.45591681116129" lon="8.30692531220255"><ele>303.0</ele><time>2026-04-24T14:07:56Z</time></trkpt><trkpt lat="44.455977865215964" lon="8.30689650973171"><ele>302.6666666666667</ele><time>2026-04-24T14:07:57Z</time></trkpt><trkpt lat="44.456044784289915" lon="8.30688326515823"><ele>302.33333333333337</ele><time>2026-04-24T14:07:58Z</time></trkpt><trkpt lat="44.456109048139076" lon="8.306877163503534"><ele>302.0</ele><time>2026-04-24T14:07:59Z</time></trkpt><trkpt lat="44.456187088273474" lon="8.3068753982379"><ele>302.0</ele><time>2026-04-24T14:08:00Z</time></trkpt><trkpt lat="44.45626573940782" lon="8.306871896374318"><ele>302.0</ele><time>2026-04-24T14:08:01Z</time></trkpt><trkpt lat="44.456334103597456" lon="8.306863041100916"><ele>302.0</ele><time>2026-04-24T14:08:02Z</time></trkpt><trkpt lat="44.456429423738356" lon="8.306858761809464"><ele>302.0</ele><time>2026-04-24T14:08:04Z</time></trkpt><trkpt lat="44.45636314806174" lon="8.306861321515395"><ele>302.0</ele><time>2026-04-24T14:08:13Z</time></trkpt><trkpt lat="44.456252391232766" lon="8.306831169564314"><ele>302.0</ele><time>2026-04-24T14:08:15Z</time></trkpt><trkpt lat="44.4561888393891" lon="8.306848939059227"><ele>302.00000000000006</ele><time>2026-04-24T14:09:31.999Z</time></trkpt><trkpt lat="44.45612276945424" lon="8.306839261450461"><ele>302.0</ele><time>2026-04-24T14:09:40Z</time></trkpt><trkpt lat="44.45614549306222" lon="8.306755804886306"><ele>302.0</ele><time>2026-04-24T14:09:48Z</time></trkpt><trkpt lat="44.45618643211748" lon="8.306681189095452"><ele>302.0</ele><time>2026-04-24T14:09:55Z</time></trkpt><trkpt lat="44.45623772074362" lon="8.306615630788238"><ele>302.0</ele><time>2026-04-24T14:10:03Z</time></trkpt><trkpt lat="44.456292002260554" lon="8.306561738815152"><ele>302.00000000000006</ele><time>2026-04-24T14:10:10Z</time></trkpt><trkpt lat="44.45633695016796" lon="8.306498582208324"><ele>302.0</ele><time>2026-04-24T14:10:16Z</time></trkpt><trkpt lat="44.45637068675329" lon="8.306420738060144"><ele>301.8571428571429</ele><time>2026-04-24T14:10:22Z</time></trkpt><trkpt lat="44.45638074883614" lon="8.3063201353355"><ele>301.7142857142857</ele><time>2026-04-24T14:10:29Z</time></trkpt><trkpt lat="44.45639570330122" lon="8.306213892746833"><ele>301.57142857142856</ele><time>2026-04-24T14:10:37Z</time></trkpt><trkpt lat="44.45642968249113" lon="8.306136746999627"><ele>301.42857142857144</ele><time>2026-04-24T14:10:43Z</time></trkpt><trkpt lat="44.45646068164413" lon="8.30604384001999"><ele>301.2857142857143</ele><time>2026-04-24T14:10:49Z</time></trkpt><trkpt lat="44.456486139480695" lon="8.305957340552325"><ele>301.14285714285717</ele><time>2026-04-24T14:10:55Z</time></trkpt><trkpt lat="44.45651193132048" lon="8.30587390898431"><ele>301.0</ele><time>2026-04-24T14:11:00Z</time></trkpt><trkpt lat="44.45654146553525" lon="8.305781511630126"><ele>301.0</ele><time>2026-04-24T14:11:07Z</time></trkpt><trkpt lat="44.456574583718435" lon="8.305688437963935"><ele>301.0</ele><time>2026-04-24T14:11:13Z</time></trkpt><trkpt lat="44.456604112980486" lon="8.305598859743373"><ele>301.0</ele><time>2026-04-24T14:11:19Z</time></trkpt><trkpt lat="44.45661917724707" lon="8.305503362993578"><ele>301.0</ele><time>2026-04-24T14:11:25Z</time></trkpt><trkpt lat="44.45662249236576" lon="8.305411513491665"><ele>301.0</ele><time>2026-04-24T14:11:31Z</time></trkpt><trkpt lat="44.45663769016503" lon="8.305312380701695"><ele>301.0</ele><time>2026-04-24T14:11:37Z</time></trkpt><trkpt lat="44.45665261528708" lon="8.305221515928489"><ele>301.0</ele><time>2026-04-24T14:11:42Z</time></trkpt><trkpt lat="44.456684562785284" lon="8.30513199545541"><ele>300.57142857142856</ele><time>2026-04-24T14:11:48Z</time></trkpt><trkpt lat="44.456702002994085" lon="8.305030642791339"><ele>300.1428571428571</ele><time>2026-04-24T14:11:54Z</time></trkpt><trkpt lat="44.45672791971531" lon="8.304937987416972"><ele>299.7142857142857</ele><time>2026-04-24T14:12:00Z</time></trkpt><trkpt lat="44.456752721843245" lon="8.30484379471549"><ele>299.2857142857143</ele><time>2026-04-24T14:12:06Z</time></trkpt><trkpt lat="44.45677499999162" lon="8.304759541510611"><ele>298.85714285714283</ele><time>2026-04-24T14:12:13.001Z</time></trkpt><trkpt lat="44.45679483347082" lon="8.30466897914559"><ele>298.42857142857144</ele><time>2026-04-24T14:12:20.001Z</time></trkpt><trkpt lat="44.45681142534952" lon="8.304578388534496"><ele>298.0</ele><time>2026-04-24T14:13:37.001Z</time></trkpt><trkpt lat="44.45679151557167" lon="8.304485931114774"><ele>298.0</ele><time>2026-04-24T14:14:38.001Z</time></trkpt></trkseg></trk></gpx>